<?xml version="1.0" encoding="UTF-8"?>
<gpx version="1.1" creator="https://www.youtrack.es" xsi:schemaLocation="http://www.topografix.com/GPX/1/1 http://www.topografix.com/GPX/1/1/gpx.xsd http://www.garmin.com/xmlschemas/GpxExtensions/v3 http://www.garmin.com/xmlschemas/GpxExtensionsv3.xsd http://www.garmin.com/xmlschemas/TrackPointExtension/v1 http://www.garmin.com/xmlschemas/TrackPointExtensionv1.xsd" xmlns:gpxtpx="http://www.garmin.com/xmlschemas/TrackPointExtension/v1" xmlns:gpxx="http://www.garmin.com/xmlschemas/GpxExtensions/v3" xmlns:xsi="http://www.w3.org/2001/XMLSchema-instance">
  <metadata>
    <link href="https://www.youtrack.es">
      <text>YouTrack.es</text>
    </link>
    <time>2026-05-09T03:56:24Z</time>
  </metadata>
  <trk>
    <src>https://www.youtrack.es</src>
    <link href="https://www.youtrack.es/ruta/16815-voltants-santuari-de-lluc-pujada-ibaxada-tomir-pel-menut">
      <text>YouTrack.es</text>
    </link>
    <trkseg>
      <trkpt lat="39.822345" lon="2.883644">
        <ele>480.331</ele>
        <time>2020-02-23T10:08:28Z</time>
      </trkpt>
      <trkpt lat="39.822341" lon="2.883568">
        <ele>480.061</ele>
        <time>2020-02-23T10:08:29Z</time>
      </trkpt>
      <trkpt lat="39.822336" lon="2.883493">
        <ele>479.807</ele>
        <time>2020-02-23T10:08:32Z</time>
      </trkpt>
      <trkpt lat="39.822332" lon="2.883417">
        <ele>479.508</ele>
        <time>2020-02-23T10:08:34Z</time>
      </trkpt>
      <trkpt lat="39.822327" lon="2.883342">
        <ele>479.378</ele>
        <time>2020-02-23T10:08:36Z</time>
      </trkpt>
      <trkpt lat="39.822323" lon="2.883266">
        <ele>479.158</ele>
        <time>2020-02-23T10:08:37Z</time>
      </trkpt>
      <trkpt lat="39.822308" lon="2.883236">
        <ele>479.083</ele>
        <time>2020-02-23T10:08:38Z</time>
      </trkpt>
      <trkpt lat="39.822292" lon="2.883205">
        <ele>478.995</ele>
        <time>2020-02-23T10:08:39Z</time>
      </trkpt>
      <trkpt lat="39.822277" lon="2.883175">
        <ele>478.886</ele>
        <time>2020-02-23T10:08:40Z</time>
      </trkpt>
      <trkpt lat="39.822261" lon="2.883145">
        <ele>479.049</ele>
        <time>2020-02-23T10:08:41Z</time>
      </trkpt>
      <trkpt lat="39.822227" lon="2.88315">
        <ele>479.236</ele>
        <time>2020-02-23T10:08:42Z</time>
      </trkpt>
      <trkpt lat="39.822194" lon="2.883155">
        <ele>479.572</ele>
        <time>2020-02-23T10:08:43Z</time>
      </trkpt>
      <trkpt lat="39.82216" lon="2.88316">
        <ele>479.757</ele>
        <time>2020-02-23T10:08:44Z</time>
      </trkpt>
      <trkpt lat="39.822122" lon="2.883172">
        <ele>479.9</ele>
        <time>2020-02-23T10:08:45Z</time>
      </trkpt>
      <trkpt lat="39.822084" lon="2.883183">
        <ele>480.02</ele>
        <time>2020-02-23T10:08:46Z</time>
      </trkpt>
      <trkpt lat="39.822046" lon="2.883195">
        <ele>480.008</ele>
        <time>2020-02-23T10:08:47Z</time>
      </trkpt>
      <trkpt lat="39.822016" lon="2.883217">
        <ele>480.68</ele>
        <time>2020-02-23T10:08:48Z</time>
      </trkpt>
      <trkpt lat="39.821985" lon="2.883238">
        <ele>480.77</ele>
        <time>2020-02-23T10:08:49Z</time>
      </trkpt>
      <trkpt lat="39.821955" lon="2.88326">
        <ele>480.845</ele>
        <time>2020-02-23T10:08:50Z</time>
      </trkpt>
      <trkpt lat="39.821922" lon="2.883293">
        <ele>481.087</ele>
        <time>2020-02-23T10:08:51Z</time>
      </trkpt>
      <trkpt lat="39.821889" lon="2.883325">
        <ele>481.188</ele>
        <time>2020-02-23T10:08:52Z</time>
      </trkpt>
      <trkpt lat="39.821856" lon="2.883358">
        <ele>481.261</ele>
        <time>2020-02-23T10:08:53Z</time>
      </trkpt>
      <trkpt lat="39.821825" lon="2.883415">
        <ele>481.338</ele>
        <time>2020-02-23T10:08:54Z</time>
      </trkpt>
      <trkpt lat="39.821793" lon="2.883471">
        <ele>481.594</ele>
        <time>2020-02-23T10:08:55Z</time>
      </trkpt>
      <trkpt lat="39.821762" lon="2.883528">
        <ele>481.685</ele>
        <time>2020-02-23T10:08:56Z</time>
      </trkpt>
      <trkpt lat="39.821729" lon="2.88359">
        <ele>481.689</ele>
        <time>2020-02-23T10:08:57Z</time>
      </trkpt>
      <trkpt lat="39.821716" lon="2.88361">
        <ele>481.717</ele>
        <time>2020-02-23T10:08:58Z</time>
      </trkpt>
      <trkpt lat="39.821692" lon="2.883651">
        <ele>481.708</ele>
        <time>2020-02-23T10:08:59Z</time>
      </trkpt>
      <trkpt lat="39.821667" lon="2.883695">
        <ele>481.743</ele>
        <time>2020-02-23T10:09:00Z</time>
      </trkpt>
      <trkpt lat="39.821644" lon="2.883748">
        <ele>481.883</ele>
        <time>2020-02-23T10:09:01Z</time>
      </trkpt>
      <trkpt lat="39.821622" lon="2.883799">
        <ele>481.818</ele>
        <time>2020-02-23T10:09:02Z</time>
      </trkpt>
      <trkpt lat="39.821605" lon="2.88385">
        <ele>481.88</ele>
        <time>2020-02-23T10:09:03Z</time>
      </trkpt>
      <trkpt lat="39.821586" lon="2.8839">
        <ele>481.871</ele>
        <time>2020-02-23T10:09:04Z</time>
      </trkpt>
      <trkpt lat="39.821562" lon="2.88395">
        <ele>481.924</ele>
        <time>2020-02-23T10:09:05Z</time>
      </trkpt>
      <trkpt lat="39.821534" lon="2.883998">
        <ele>482.041</ele>
        <time>2020-02-23T10:09:06Z</time>
      </trkpt>
      <trkpt lat="39.821503" lon="2.884047">
        <ele>482.177</ele>
        <time>2020-02-23T10:09:07Z</time>
      </trkpt>
      <trkpt lat="39.82147" lon="2.884097">
        <ele>482.391</ele>
        <time>2020-02-23T10:09:08Z</time>
      </trkpt>
      <trkpt lat="39.821435" lon="2.884145">
        <ele>482.581</ele>
        <time>2020-02-23T10:09:09Z</time>
      </trkpt>
      <trkpt lat="39.821396" lon="2.884188">
        <ele>482.619</ele>
        <time>2020-02-23T10:09:10Z</time>
      </trkpt>
      <trkpt lat="39.821354" lon="2.884222">
        <ele>482.808</ele>
        <time>2020-02-23T10:09:11Z</time>
      </trkpt>
      <trkpt lat="39.821315" lon="2.884249">
        <ele>482.934</ele>
        <time>2020-02-23T10:09:12Z</time>
      </trkpt>
      <trkpt lat="39.821315" lon="2.884249">
        <ele>482.984</ele>
        <time>2020-02-23T10:09:13Z</time>
      </trkpt>
      <trkpt lat="39.821229" lon="2.884301">
        <ele>483.479</ele>
        <time>2020-02-23T10:09:14Z</time>
      </trkpt>
      <trkpt lat="39.821229" lon="2.884301">
        <ele>483.461</ele>
        <time>2020-02-23T10:09:15Z</time>
      </trkpt>
      <trkpt lat="39.821138" lon="2.884313">
        <ele>483.982</ele>
        <time>2020-02-23T10:09:16Z</time>
      </trkpt>
      <trkpt lat="39.821138" lon="2.884313">
        <ele>483.995</ele>
        <time>2020-02-23T10:09:17Z</time>
      </trkpt>
      <trkpt lat="39.8211" lon="2.884308">
        <ele>484.292</ele>
        <time>2020-02-23T10:09:18Z</time>
      </trkpt>
      <trkpt lat="39.821061" lon="2.884303">
        <ele>484.768</ele>
        <time>2020-02-23T10:09:19Z</time>
      </trkpt>
      <trkpt lat="39.821023" lon="2.884298">
        <ele>485.274</ele>
        <time>2020-02-23T10:09:20Z</time>
      </trkpt>
      <trkpt lat="39.820989" lon="2.884283">
        <ele>485.756</ele>
        <time>2020-02-23T10:09:21Z</time>
      </trkpt>
      <trkpt lat="39.820955" lon="2.884268">
        <ele>486.221</ele>
        <time>2020-02-23T10:09:22Z</time>
      </trkpt>
      <trkpt lat="39.820921" lon="2.884253">
        <ele>486.708</ele>
        <time>2020-02-23T10:09:23Z</time>
      </trkpt>
      <trkpt lat="39.820889" lon="2.884238">
        <ele>487.252</ele>
        <time>2020-02-23T10:09:24Z</time>
      </trkpt>
      <trkpt lat="39.820858" lon="2.884223">
        <ele>487.722</ele>
        <time>2020-02-23T10:09:25Z</time>
      </trkpt>
      <trkpt lat="39.820826" lon="2.884208">
        <ele>489.537</ele>
        <time>2020-02-23T10:09:26Z</time>
      </trkpt>
      <trkpt lat="39.820808" lon="2.884234">
        <ele>489.319</ele>
        <time>2020-02-23T10:09:27Z</time>
      </trkpt>
      <trkpt lat="39.82079" lon="2.88426">
        <ele>489.26</ele>
        <time>2020-02-23T10:09:28Z</time>
      </trkpt>
      <trkpt lat="39.820772" lon="2.884286">
        <ele>489.013</ele>
        <time>2020-02-23T10:09:29Z</time>
      </trkpt>
      <trkpt lat="39.820754" lon="2.884312">
        <ele>488.93</ele>
        <time>2020-02-23T10:09:30Z</time>
      </trkpt>
      <trkpt lat="39.820736" lon="2.884338">
        <ele>488.746</ele>
        <time>2020-02-23T10:09:31Z</time>
      </trkpt>
      <trkpt lat="39.820726" lon="2.884362">
        <ele>488.665</ele>
        <time>2020-02-23T10:09:32Z</time>
      </trkpt>
      <trkpt lat="39.820721" lon="2.884411">
        <ele>488.368</ele>
        <time>2020-02-23T10:09:33Z</time>
      </trkpt>
      <trkpt lat="39.820715" lon="2.88446">
        <ele>488.114</ele>
        <time>2020-02-23T10:09:34Z</time>
      </trkpt>
      <trkpt lat="39.82071" lon="2.884509">
        <ele>487.908</ele>
        <time>2020-02-23T10:09:35Z</time>
      </trkpt>
      <trkpt lat="39.820723" lon="2.88455">
        <ele>486.231</ele>
        <time>2020-02-23T10:09:36Z</time>
      </trkpt>
      <trkpt lat="39.820737" lon="2.884591">
        <ele>485.871</ele>
        <time>2020-02-23T10:09:37Z</time>
      </trkpt>
      <trkpt lat="39.82075" lon="2.884632">
        <ele>485.556</ele>
        <time>2020-02-23T10:09:38Z</time>
      </trkpt>
      <trkpt lat="39.820806" lon="2.884656">
        <ele>484.578</ele>
        <time>2020-02-23T10:09:39Z</time>
      </trkpt>
      <trkpt lat="39.820862" lon="2.88468">
        <ele>484.089</ele>
        <time>2020-02-23T10:09:40Z</time>
      </trkpt>
      <trkpt lat="39.820918" lon="2.884704">
        <ele>483.532</ele>
        <time>2020-02-23T10:09:41Z</time>
      </trkpt>
      <trkpt lat="39.820997" lon="2.884705">
        <ele>482.979</ele>
        <time>2020-02-23T10:09:42Z</time>
      </trkpt>
      <trkpt lat="39.821024" lon="2.884703">
        <ele>482.735</ele>
        <time>2020-02-23T10:09:43Z</time>
      </trkpt>
      <trkpt lat="39.821104" lon="2.884695">
        <ele>482.088</ele>
        <time>2020-02-23T10:09:44Z</time>
      </trkpt>
      <trkpt lat="39.82113" lon="2.884691">
        <ele>481.924</ele>
        <time>2020-02-23T10:09:45Z</time>
      </trkpt>
      <trkpt lat="39.821182" lon="2.884682">
        <ele>481.726</ele>
        <time>2020-02-23T10:09:46Z</time>
      </trkpt>
      <trkpt lat="39.821182" lon="2.884682">
        <ele>481.708</ele>
        <time>2020-02-23T10:09:47Z</time>
      </trkpt>
      <trkpt lat="39.821269" lon="2.884638">
        <ele>481.243</ele>
        <time>2020-02-23T10:09:48Z</time>
      </trkpt>
      <trkpt lat="39.821269" lon="2.884638">
        <ele>481.263</ele>
        <time>2020-02-23T10:09:49Z</time>
      </trkpt>
      <trkpt lat="39.821377" lon="2.884587">
        <ele>480.548</ele>
        <time>2020-02-23T10:09:50Z</time>
      </trkpt>
      <trkpt lat="39.821397" lon="2.884577">
        <ele>480.59</ele>
        <time>2020-02-23T10:09:51Z</time>
      </trkpt>
      <trkpt lat="39.821397" lon="2.884577">
        <ele>480.511</ele>
        <time>2020-02-23T10:09:52Z</time>
      </trkpt>
      <trkpt lat="39.821431" lon="2.884557">
        <ele>480.514</ele>
        <time>2020-02-23T10:09:53Z</time>
      </trkpt>
      <trkpt lat="39.821465" lon="2.884536">
        <ele>480.111</ele>
        <time>2020-02-23T10:09:54Z</time>
      </trkpt>
      <trkpt lat="39.821499" lon="2.884516">
        <ele>480.047</ele>
        <time>2020-02-23T10:09:55Z</time>
      </trkpt>
      <trkpt lat="39.821541" lon="2.8845">
        <ele>479.932</ele>
        <time>2020-02-23T10:09:56Z</time>
      </trkpt>
      <trkpt lat="39.821582" lon="2.884485">
        <ele>479.892</ele>
        <time>2020-02-23T10:09:57Z</time>
      </trkpt>
      <trkpt lat="39.821624" lon="2.884469">
        <ele>480.011</ele>
        <time>2020-02-23T10:09:58Z</time>
      </trkpt>
      <trkpt lat="39.821667" lon="2.884456">
        <ele>480.108</ele>
        <time>2020-02-23T10:09:59Z</time>
      </trkpt>
      <trkpt lat="39.821709" lon="2.884442">
        <ele>480.258</ele>
        <time>2020-02-23T10:10:00Z</time>
      </trkpt>
      <trkpt lat="39.821752" lon="2.884429">
        <ele>480.278</ele>
        <time>2020-02-23T10:10:01Z</time>
      </trkpt>
      <trkpt lat="39.821792" lon="2.884417">
        <ele>480.393</ele>
        <time>2020-02-23T10:10:02Z</time>
      </trkpt>
      <trkpt lat="39.821832" lon="2.884404">
        <ele>480.435</ele>
        <time>2020-02-23T10:10:03Z</time>
      </trkpt>
      <trkpt lat="39.821872" lon="2.884392">
        <ele>480.436</ele>
        <time>2020-02-23T10:10:04Z</time>
      </trkpt>
      <trkpt lat="39.821909" lon="2.88438">
        <ele>480.569</ele>
        <time>2020-02-23T10:10:05Z</time>
      </trkpt>
      <trkpt lat="39.821946" lon="2.884367">
        <ele>480.676</ele>
        <time>2020-02-23T10:10:06Z</time>
      </trkpt>
      <trkpt lat="39.821983" lon="2.884355">
        <ele>480.622</ele>
        <time>2020-02-23T10:10:07Z</time>
      </trkpt>
      <trkpt lat="39.822034" lon="2.88435">
        <ele>480.759</ele>
        <time>2020-02-23T10:10:08Z</time>
      </trkpt>
      <trkpt lat="39.822086" lon="2.884345">
        <ele>480.803</ele>
        <time>2020-02-23T10:10:09Z</time>
      </trkpt>
      <trkpt lat="39.822137" lon="2.88434">
        <ele>480.923</ele>
        <time>2020-02-23T10:10:10Z</time>
      </trkpt>
      <trkpt lat="39.822187" lon="2.884355">
        <ele>481.208</ele>
        <time>2020-02-23T10:10:11Z</time>
      </trkpt>
      <trkpt lat="39.822187" lon="2.884355">
        <ele>481.21</ele>
        <time>2020-02-23T10:10:12Z</time>
      </trkpt>
      <trkpt lat="39.822306" lon="2.884451">
        <ele>481.93</ele>
        <time>2020-02-23T10:10:13Z</time>
      </trkpt>
      <trkpt lat="39.822326" lon="2.884476">
        <ele>481.975</ele>
        <time>2020-02-23T10:10:14Z</time>
      </trkpt>
      <trkpt lat="39.822381" lon="2.884551">
        <ele>482.187</ele>
        <time>2020-02-23T10:10:15Z</time>
      </trkpt>
      <trkpt lat="39.822395" lon="2.884578">
        <ele>482.298</ele>
        <time>2020-02-23T10:10:16Z</time>
      </trkpt>
      <trkpt lat="39.822423" lon="2.884632">
        <ele>482.771</ele>
        <time>2020-02-23T10:10:17Z</time>
      </trkpt>
      <trkpt lat="39.822423" lon="2.884632">
        <ele>482.718</ele>
        <time>2020-02-23T10:10:18Z</time>
      </trkpt>
      <trkpt lat="39.822474" lon="2.884739">
        <ele>482.894</ele>
        <time>2020-02-23T10:10:19Z</time>
      </trkpt>
      <trkpt lat="39.822474" lon="2.884739">
        <ele>482.841</ele>
        <time>2020-02-23T10:10:20Z</time>
      </trkpt>
      <trkpt lat="39.822483" lon="2.884789">
        <ele>482.881</ele>
        <time>2020-02-23T10:10:21Z</time>
      </trkpt>
      <trkpt lat="39.822491" lon="2.88484">
        <ele>482.609</ele>
        <time>2020-02-23T10:10:22Z</time>
      </trkpt>
      <trkpt lat="39.8225" lon="2.88489">
        <ele>482.508</ele>
        <time>2020-02-23T10:10:23Z</time>
      </trkpt>
      <trkpt lat="39.822512" lon="2.884944">
        <ele>482.439</ele>
        <time>2020-02-23T10:10:24Z</time>
      </trkpt>
      <trkpt lat="39.822523" lon="2.884998">
        <ele>482.319</ele>
        <time>2020-02-23T10:10:25Z</time>
      </trkpt>
      <trkpt lat="39.822535" lon="2.885052">
        <ele>482.244</ele>
        <time>2020-02-23T10:10:26Z</time>
      </trkpt>
      <trkpt lat="39.822541" lon="2.885105">
        <ele>482.086</ele>
        <time>2020-02-23T10:10:27Z</time>
      </trkpt>
      <trkpt lat="39.822548" lon="2.885157">
        <ele>481.857</ele>
        <time>2020-02-23T10:10:28Z</time>
      </trkpt>
      <trkpt lat="39.822554" lon="2.88521">
        <ele>481.76</ele>
        <time>2020-02-23T10:10:29Z</time>
      </trkpt>
      <trkpt lat="39.822563" lon="2.885265">
        <ele>481.537</ele>
        <time>2020-02-23T10:10:30Z</time>
      </trkpt>
      <trkpt lat="39.822573" lon="2.885319">
        <ele>481.233</ele>
        <time>2020-02-23T10:10:31Z</time>
      </trkpt>
      <trkpt lat="39.822582" lon="2.885374">
        <ele>480.931</ele>
        <time>2020-02-23T10:10:32Z</time>
      </trkpt>
      <trkpt lat="39.8226" lon="2.885426">
        <ele>480.761</ele>
        <time>2020-02-23T10:10:33Z</time>
      </trkpt>
      <trkpt lat="39.822619" lon="2.885477">
        <ele>480.707</ele>
        <time>2020-02-23T10:10:34Z</time>
      </trkpt>
      <trkpt lat="39.822637" lon="2.885529">
        <ele>480.708</ele>
        <time>2020-02-23T10:10:35Z</time>
      </trkpt>
      <trkpt lat="39.82265" lon="2.885579">
        <ele>480.728</ele>
        <time>2020-02-23T10:10:36Z</time>
      </trkpt>
      <trkpt lat="39.822662" lon="2.885628">
        <ele>480.798</ele>
        <time>2020-02-23T10:10:37Z</time>
      </trkpt>
      <trkpt lat="39.822675" lon="2.885678">
        <ele>480.733</ele>
        <time>2020-02-23T10:10:38Z</time>
      </trkpt>
      <trkpt lat="39.82268" lon="2.885732">
        <ele>480.785</ele>
        <time>2020-02-23T10:10:39Z</time>
      </trkpt>
      <trkpt lat="39.822684" lon="2.885786">
        <ele>480.756</ele>
        <time>2020-02-23T10:10:40Z</time>
      </trkpt>
      <trkpt lat="39.822689" lon="2.88584">
        <ele>480.769</ele>
        <time>2020-02-23T10:10:41Z</time>
      </trkpt>
      <trkpt lat="39.822687" lon="2.885895">
        <ele>480.746</ele>
        <time>2020-02-23T10:10:42Z</time>
      </trkpt>
      <trkpt lat="39.822686" lon="2.885949">
        <ele>480.882</ele>
        <time>2020-02-23T10:10:43Z</time>
      </trkpt>
      <trkpt lat="39.822684" lon="2.886004">
        <ele>480.822</ele>
        <time>2020-02-23T10:10:44Z</time>
      </trkpt>
      <trkpt lat="39.822678" lon="2.886057">
        <ele>480.862</ele>
        <time>2020-02-23T10:10:45Z</time>
      </trkpt>
      <trkpt lat="39.822671" lon="2.88611">
        <ele>480.808</ele>
        <time>2020-02-23T10:10:46Z</time>
      </trkpt>
      <trkpt lat="39.822665" lon="2.886163">
        <ele>480.808</ele>
        <time>2020-02-23T10:10:47Z</time>
      </trkpt>
      <trkpt lat="39.82266" lon="2.886217">
        <ele>480.827</ele>
        <time>2020-02-23T10:10:48Z</time>
      </trkpt>
      <trkpt lat="39.822656" lon="2.886271">
        <ele>480.837</ele>
        <time>2020-02-23T10:10:49Z</time>
      </trkpt>
      <trkpt lat="39.822651" lon="2.886325">
        <ele>480.852</ele>
        <time>2020-02-23T10:10:50Z</time>
      </trkpt>
      <trkpt lat="39.822646" lon="2.88638">
        <ele>480.814</ele>
        <time>2020-02-23T10:10:51Z</time>
      </trkpt>
      <trkpt lat="39.822642" lon="2.886436">
        <ele>480.985</ele>
        <time>2020-02-23T10:10:52Z</time>
      </trkpt>
      <trkpt lat="39.822637" lon="2.886491">
        <ele>480.938</ele>
        <time>2020-02-23T10:10:53Z</time>
      </trkpt>
      <trkpt lat="39.822633" lon="2.886539">
        <ele>481.075</ele>
        <time>2020-02-23T10:10:54Z</time>
      </trkpt>
      <trkpt lat="39.822628" lon="2.886586">
        <ele>481.071</ele>
        <time>2020-02-23T10:10:55Z</time>
      </trkpt>
      <trkpt lat="39.822624" lon="2.886634">
        <ele>481.142</ele>
        <time>2020-02-23T10:10:56Z</time>
      </trkpt>
      <trkpt lat="39.822617" lon="2.886681">
        <ele>481.222</ele>
        <time>2020-02-23T10:10:57Z</time>
      </trkpt>
      <trkpt lat="39.822609" lon="2.886729">
        <ele>481.414</ele>
        <time>2020-02-23T10:10:58Z</time>
      </trkpt>
      <trkpt lat="39.822602" lon="2.886776">
        <ele>481.508</ele>
        <time>2020-02-23T10:10:59Z</time>
      </trkpt>
      <trkpt lat="39.822582" lon="2.88682">
        <ele>481.699</ele>
        <time>2020-02-23T10:11:00Z</time>
      </trkpt>
      <trkpt lat="39.822563" lon="2.886865">
        <ele>481.799</ele>
        <time>2020-02-23T10:11:01Z</time>
      </trkpt>
      <trkpt lat="39.822543" lon="2.886909">
        <ele>481.854</ele>
        <time>2020-02-23T10:11:02Z</time>
      </trkpt>
      <trkpt lat="39.82251" lon="2.886947">
        <ele>481.916</ele>
        <time>2020-02-23T10:11:03Z</time>
      </trkpt>
      <trkpt lat="39.822477" lon="2.886984">
        <ele>481.947</ele>
        <time>2020-02-23T10:11:04Z</time>
      </trkpt>
      <trkpt lat="39.822444" lon="2.887022">
        <ele>481.83</ele>
        <time>2020-02-23T10:11:05Z</time>
      </trkpt>
      <trkpt lat="39.822416" lon="2.887055">
        <ele>481.827</ele>
        <time>2020-02-23T10:11:06Z</time>
      </trkpt>
      <trkpt lat="39.822389" lon="2.887089">
        <ele>481.793</ele>
        <time>2020-02-23T10:11:07Z</time>
      </trkpt>
      <trkpt lat="39.822361" lon="2.887122">
        <ele>481.754</ele>
        <time>2020-02-23T10:11:08Z</time>
      </trkpt>
      <trkpt lat="39.822349" lon="2.887165">
        <ele>481.656</ele>
        <time>2020-02-23T10:11:09Z</time>
      </trkpt>
      <trkpt lat="39.822336" lon="2.887209">
        <ele>481.611</ele>
        <time>2020-02-23T10:11:10Z</time>
      </trkpt>
      <trkpt lat="39.822324" lon="2.887252">
        <ele>481.508</ele>
        <time>2020-02-23T10:11:11Z</time>
      </trkpt>
      <trkpt lat="39.822327" lon="2.887327">
        <ele>481.47</ele>
        <time>2020-02-23T10:11:12Z</time>
      </trkpt>
      <trkpt lat="39.82233" lon="2.887402">
        <ele>481.41</ele>
        <time>2020-02-23T10:11:13Z</time>
      </trkpt>
      <trkpt lat="39.822333" lon="2.887477">
        <ele>481.465</ele>
        <time>2020-02-23T10:11:14Z</time>
      </trkpt>
      <trkpt lat="39.822318" lon="2.88758">
        <ele>481.467</ele>
        <time>2020-02-23T10:11:15Z</time>
      </trkpt>
      <trkpt lat="39.822312" lon="2.887616">
        <ele>481.458</ele>
        <time>2020-02-23T10:11:16Z</time>
      </trkpt>
      <trkpt lat="39.822298" lon="2.887722">
        <ele>481.481</ele>
        <time>2020-02-23T10:11:17Z</time>
      </trkpt>
      <trkpt lat="39.822295" lon="2.887755">
        <ele>481.548</ele>
        <time>2020-02-23T10:11:18Z</time>
      </trkpt>
      <trkpt lat="39.822286" lon="2.887855">
        <ele>481.674</ele>
        <time>2020-02-23T10:11:19Z</time>
      </trkpt>
      <trkpt lat="39.822283" lon="2.887888">
        <ele>481.653</ele>
        <time>2020-02-23T10:11:20Z</time>
      </trkpt>
      <trkpt lat="39.822278" lon="2.887953">
        <ele>481.704</ele>
        <time>2020-02-23T10:11:21Z</time>
      </trkpt>
      <trkpt lat="39.822278" lon="2.887953">
        <ele>481.714</ele>
        <time>2020-02-23T10:11:22Z</time>
      </trkpt>
      <trkpt lat="39.822272" lon="2.888077">
        <ele>482.008</ele>
        <time>2020-02-23T10:11:23Z</time>
      </trkpt>
      <trkpt lat="39.822272" lon="2.888077">
        <ele>482.06</ele>
        <time>2020-02-23T10:11:24Z</time>
      </trkpt>
      <trkpt lat="39.822261" lon="2.888199">
        <ele>482.62</ele>
        <time>2020-02-23T10:11:25Z</time>
      </trkpt>
      <trkpt lat="39.822261" lon="2.888199">
        <ele>482.655</ele>
        <time>2020-02-23T10:11:26Z</time>
      </trkpt>
      <trkpt lat="39.822263" lon="2.888253">
        <ele>482.817</ele>
        <time>2020-02-23T10:11:27Z</time>
      </trkpt>
      <trkpt lat="39.822265" lon="2.888308">
        <ele>483.018</ele>
        <time>2020-02-23T10:11:28Z</time>
      </trkpt>
      <trkpt lat="39.822267" lon="2.888362">
        <ele>483.151</ele>
        <time>2020-02-23T10:11:29Z</time>
      </trkpt>
      <trkpt lat="39.822278" lon="2.888415">
        <ele>483.218</ele>
        <time>2020-02-23T10:11:30Z</time>
      </trkpt>
      <trkpt lat="39.822288" lon="2.888467">
        <ele>483.294</ele>
        <time>2020-02-23T10:11:31Z</time>
      </trkpt>
      <trkpt lat="39.822299" lon="2.88852">
        <ele>483.242</ele>
        <time>2020-02-23T10:11:32Z</time>
      </trkpt>
      <trkpt lat="39.822319" lon="2.888594">
        <ele>483.222</ele>
        <time>2020-02-23T10:11:33Z</time>
      </trkpt>
      <trkpt lat="39.822339" lon="2.888667">
        <ele>483.114</ele>
        <time>2020-02-23T10:11:34Z</time>
      </trkpt>
      <trkpt lat="39.822359" lon="2.888741">
        <ele>483.008</ele>
        <time>2020-02-23T10:11:35Z</time>
      </trkpt>
      <trkpt lat="39.822372" lon="2.888798">
        <ele>482.979</ele>
        <time>2020-02-23T10:11:36Z</time>
      </trkpt>
      <trkpt lat="39.822391" lon="2.888848">
        <ele>482.979</ele>
        <time>2020-02-23T10:11:37Z</time>
      </trkpt>
      <trkpt lat="39.822391" lon="2.888848">
        <ele>482.964</ele>
        <time>2020-02-23T10:11:38Z</time>
      </trkpt>
      <trkpt lat="39.822416" lon="2.888962">
        <ele>482.896</ele>
        <time>2020-02-23T10:11:39Z</time>
      </trkpt>
      <trkpt lat="39.822416" lon="2.888962">
        <ele>482.827</ele>
        <time>2020-02-23T10:11:40Z</time>
      </trkpt>
      <trkpt lat="39.822431" lon="2.889102">
        <ele>482.68</ele>
        <time>2020-02-23T10:11:41Z</time>
      </trkpt>
      <trkpt lat="39.822433" lon="2.889129">
        <ele>482.657</ele>
        <time>2020-02-23T10:11:42Z</time>
      </trkpt>
      <trkpt lat="39.822438" lon="2.889185">
        <ele>482.643</ele>
        <time>2020-02-23T10:11:43Z</time>
      </trkpt>
      <trkpt lat="39.822449" lon="2.889241">
        <ele>482.542</ele>
        <time>2020-02-23T10:11:44Z</time>
      </trkpt>
      <trkpt lat="39.822464" lon="2.889293">
        <ele>482.522</ele>
        <time>2020-02-23T10:11:45Z</time>
      </trkpt>
      <trkpt lat="39.822474" lon="2.889343">
        <ele>482.514</ele>
        <time>2020-02-23T10:11:46Z</time>
      </trkpt>
      <trkpt lat="39.822474" lon="2.889343">
        <ele>482.508</ele>
        <time>2020-02-23T10:11:47Z</time>
      </trkpt>
      <trkpt lat="39.822498" lon="2.889378">
        <ele>482.429</ele>
        <time>2020-02-23T10:11:48Z</time>
      </trkpt>
      <trkpt lat="39.822521" lon="2.889412">
        <ele>482.449</ele>
        <time>2020-02-23T10:11:49Z</time>
      </trkpt>
      <trkpt lat="39.822545" lon="2.889447">
        <ele>482.514</ele>
        <time>2020-02-23T10:11:50Z</time>
      </trkpt>
      <trkpt lat="39.822569" lon="2.889487">
        <ele>482.746</ele>
        <time>2020-02-23T10:11:51Z</time>
      </trkpt>
      <trkpt lat="39.822593" lon="2.889526">
        <ele>482.987</ele>
        <time>2020-02-23T10:11:52Z</time>
      </trkpt>
      <trkpt lat="39.822617" lon="2.889566">
        <ele>483.13</ele>
        <time>2020-02-23T10:11:53Z</time>
      </trkpt>
      <trkpt lat="39.822627" lon="2.889619">
        <ele>483.297</ele>
        <time>2020-02-23T10:11:54Z</time>
      </trkpt>
      <trkpt lat="39.822637" lon="2.889673">
        <ele>483.413</ele>
        <time>2020-02-23T10:11:55Z</time>
      </trkpt>
      <trkpt lat="39.822647" lon="2.889726">
        <ele>483.556</ele>
        <time>2020-02-23T10:11:56Z</time>
      </trkpt>
      <trkpt lat="39.822645" lon="2.889782">
        <ele>483.659</ele>
        <time>2020-02-23T10:11:57Z</time>
      </trkpt>
      <trkpt lat="39.822644" lon="2.889839">
        <ele>483.814</ele>
        <time>2020-02-23T10:11:58Z</time>
      </trkpt>
      <trkpt lat="39.822642" lon="2.889895">
        <ele>484.008</ele>
        <time>2020-02-23T10:11:59Z</time>
      </trkpt>
      <trkpt lat="39.822649" lon="2.889949">
        <ele>484.26</ele>
        <time>2020-02-23T10:12:00Z</time>
      </trkpt>
      <trkpt lat="39.822657" lon="2.890002">
        <ele>484.32</ele>
        <time>2020-02-23T10:12:01Z</time>
      </trkpt>
      <trkpt lat="39.822664" lon="2.890056">
        <ele>484.575</ele>
        <time>2020-02-23T10:12:02Z</time>
      </trkpt>
      <trkpt lat="39.822671" lon="2.890106">
        <ele>484.767</ele>
        <time>2020-02-23T10:12:03Z</time>
      </trkpt>
      <trkpt lat="39.822678" lon="2.890157">
        <ele>484.858</ele>
        <time>2020-02-23T10:12:04Z</time>
      </trkpt>
      <trkpt lat="39.822685" lon="2.890207">
        <ele>485.021</ele>
        <time>2020-02-23T10:12:05Z</time>
      </trkpt>
      <trkpt lat="39.8227" lon="2.890256">
        <ele>485.258</ele>
        <time>2020-02-23T10:12:06Z</time>
      </trkpt>
      <trkpt lat="39.822715" lon="2.890304">
        <ele>485.384</ele>
        <time>2020-02-23T10:12:07Z</time>
      </trkpt>
      <trkpt lat="39.82273" lon="2.890353">
        <ele>485.559</ele>
        <time>2020-02-23T10:12:08Z</time>
      </trkpt>
      <trkpt lat="39.822742" lon="2.890398">
        <ele>485.703</ele>
        <time>2020-02-23T10:12:09Z</time>
      </trkpt>
      <trkpt lat="39.822755" lon="2.890442">
        <ele>486.023</ele>
        <time>2020-02-23T10:12:10Z</time>
      </trkpt>
      <trkpt lat="39.822767" lon="2.890487">
        <ele>486.208</ele>
        <time>2020-02-23T10:12:11Z</time>
      </trkpt>
      <trkpt lat="39.822778" lon="2.890534">
        <ele>486.45</ele>
        <time>2020-02-23T10:12:12Z</time>
      </trkpt>
      <trkpt lat="39.822789" lon="2.890582">
        <ele>486.66</ele>
        <time>2020-02-23T10:12:13Z</time>
      </trkpt>
      <trkpt lat="39.8228" lon="2.890629">
        <ele>486.885</ele>
        <time>2020-02-23T10:12:14Z</time>
      </trkpt>
      <trkpt lat="39.822807" lon="2.890678">
        <ele>487.017</ele>
        <time>2020-02-23T10:12:15Z</time>
      </trkpt>
      <trkpt lat="39.822813" lon="2.890727">
        <ele>487.218</ele>
        <time>2020-02-23T10:12:16Z</time>
      </trkpt>
      <trkpt lat="39.82282" lon="2.890776">
        <ele>487.331</ele>
        <time>2020-02-23T10:12:17Z</time>
      </trkpt>
      <trkpt lat="39.822819" lon="2.890826">
        <ele>487.598</ele>
        <time>2020-02-23T10:12:18Z</time>
      </trkpt>
      <trkpt lat="39.822819" lon="2.890875">
        <ele>487.744</ele>
        <time>2020-02-23T10:12:19Z</time>
      </trkpt>
      <trkpt lat="39.822818" lon="2.890925">
        <ele>487.834</ele>
        <time>2020-02-23T10:12:20Z</time>
      </trkpt>
      <trkpt lat="39.822817" lon="2.890975">
        <ele>488.055</ele>
        <time>2020-02-23T10:12:21Z</time>
      </trkpt>
      <trkpt lat="39.822815" lon="2.891025">
        <ele>488.21</ele>
        <time>2020-02-23T10:12:22Z</time>
      </trkpt>
      <trkpt lat="39.822814" lon="2.891075">
        <ele>488.408</ele>
        <time>2020-02-23T10:12:23Z</time>
      </trkpt>
      <trkpt lat="39.822808" lon="2.891129">
        <ele>488.658</ele>
        <time>2020-02-23T10:12:24Z</time>
      </trkpt>
      <trkpt lat="39.822801" lon="2.891183">
        <ele>488.898</ele>
        <time>2020-02-23T10:12:25Z</time>
      </trkpt>
      <trkpt lat="39.822795" lon="2.891237">
        <ele>489.143</ele>
        <time>2020-02-23T10:12:26Z</time>
      </trkpt>
      <trkpt lat="39.822794" lon="2.891288">
        <ele>489.315</ele>
        <time>2020-02-23T10:12:27Z</time>
      </trkpt>
      <trkpt lat="39.822794" lon="2.89134">
        <ele>489.676</ele>
        <time>2020-02-23T10:12:28Z</time>
      </trkpt>
      <trkpt lat="39.822793" lon="2.891391">
        <ele>489.959</ele>
        <time>2020-02-23T10:12:29Z</time>
      </trkpt>
      <trkpt lat="39.822793" lon="2.891437">
        <ele>490.146</ele>
        <time>2020-02-23T10:12:30Z</time>
      </trkpt>
      <trkpt lat="39.822794" lon="2.891482">
        <ele>490.342</ele>
        <time>2020-02-23T10:12:31Z</time>
      </trkpt>
      <trkpt lat="39.822794" lon="2.891528">
        <ele>490.635</ele>
        <time>2020-02-23T10:12:32Z</time>
      </trkpt>
      <trkpt lat="39.822796" lon="2.891574">
        <ele>490.986</ele>
        <time>2020-02-23T10:12:33Z</time>
      </trkpt>
      <trkpt lat="39.822798" lon="2.891619">
        <ele>491.214</ele>
        <time>2020-02-23T10:12:34Z</time>
      </trkpt>
      <trkpt lat="39.8228" lon="2.891665">
        <ele>491.508</ele>
        <time>2020-02-23T10:12:35Z</time>
      </trkpt>
      <trkpt lat="39.822805" lon="2.891711">
        <ele>491.848</ele>
        <time>2020-02-23T10:12:36Z</time>
      </trkpt>
      <trkpt lat="39.822809" lon="2.891757">
        <ele>492.028</ele>
        <time>2020-02-23T10:12:37Z</time>
      </trkpt>
      <trkpt lat="39.822814" lon="2.891803">
        <ele>492.383</ele>
        <time>2020-02-23T10:12:38Z</time>
      </trkpt>
      <trkpt lat="39.822823" lon="2.891842">
        <ele>492.665</ele>
        <time>2020-02-23T10:12:39Z</time>
      </trkpt>
      <trkpt lat="39.822831" lon="2.891882">
        <ele>492.866</ele>
        <time>2020-02-23T10:12:40Z</time>
      </trkpt>
      <trkpt lat="39.82284" lon="2.891921">
        <ele>493.139</ele>
        <time>2020-02-23T10:12:41Z</time>
      </trkpt>
      <trkpt lat="39.822842" lon="2.891962">
        <ele>493.486</ele>
        <time>2020-02-23T10:12:42Z</time>
      </trkpt>
      <trkpt lat="39.822844" lon="2.892004">
        <ele>493.772</ele>
        <time>2020-02-23T10:12:43Z</time>
      </trkpt>
      <trkpt lat="39.822846" lon="2.892045">
        <ele>494.065</ele>
        <time>2020-02-23T10:12:44Z</time>
      </trkpt>
      <trkpt lat="39.822857" lon="2.89209">
        <ele>494.468</ele>
        <time>2020-02-23T10:12:45Z</time>
      </trkpt>
      <trkpt lat="39.822869" lon="2.892135">
        <ele>494.714</ele>
        <time>2020-02-23T10:12:46Z</time>
      </trkpt>
      <trkpt lat="39.82288" lon="2.89218">
        <ele>495.008</ele>
        <time>2020-02-23T10:12:47Z</time>
      </trkpt>
      <trkpt lat="39.822895" lon="2.892215">
        <ele>495.291</ele>
        <time>2020-02-23T10:12:48Z</time>
      </trkpt>
      <trkpt lat="39.822909" lon="2.892251">
        <ele>495.421</ele>
        <time>2020-02-23T10:12:49Z</time>
      </trkpt>
      <trkpt lat="39.822924" lon="2.892286">
        <ele>495.686</ele>
        <time>2020-02-23T10:12:50Z</time>
      </trkpt>
      <trkpt lat="39.822938" lon="2.892322">
        <ele>495.728</ele>
        <time>2020-02-23T10:12:51Z</time>
      </trkpt>
      <trkpt lat="39.822973" lon="2.89238">
        <ele>496.079</ele>
        <time>2020-02-23T10:12:52Z</time>
      </trkpt>
      <trkpt lat="39.823009" lon="2.892439">
        <ele>496.252</ele>
        <time>2020-02-23T10:12:53Z</time>
      </trkpt>
      <trkpt lat="39.823044" lon="2.892497">
        <ele>496.359</ele>
        <time>2020-02-23T10:12:54Z</time>
      </trkpt>
      <trkpt lat="39.823075" lon="2.89254">
        <ele>496.315</ele>
        <time>2020-02-23T10:12:55Z</time>
      </trkpt>
      <trkpt lat="39.823075" lon="2.89254">
        <ele>496.352</ele>
        <time>2020-02-23T10:12:56Z</time>
      </trkpt>
      <trkpt lat="39.823106" lon="2.89258">
        <ele>496.453</ele>
        <time>2020-02-23T10:12:57Z</time>
      </trkpt>
      <trkpt lat="39.823136" lon="2.89262">
        <ele>496.508</ele>
        <time>2020-02-23T10:12:58Z</time>
      </trkpt>
      <trkpt lat="39.823167" lon="2.89266">
        <ele>496.708</ele>
        <time>2020-02-23T10:12:59Z</time>
      </trkpt>
      <trkpt lat="39.82321" lon="2.892712">
        <ele>497.05</ele>
        <time>2020-02-23T10:13:00Z</time>
      </trkpt>
      <trkpt lat="39.823252" lon="2.892765">
        <ele>497.36</ele>
        <time>2020-02-23T10:13:01Z</time>
      </trkpt>
      <trkpt lat="39.823295" lon="2.892817">
        <ele>497.865</ele>
        <time>2020-02-23T10:13:02Z</time>
      </trkpt>
      <trkpt lat="39.823332" lon="2.892852">
        <ele>498.147</ele>
        <time>2020-02-23T10:13:03Z</time>
      </trkpt>
      <trkpt lat="39.823332" lon="2.892852">
        <ele>498.138</ele>
        <time>2020-02-23T10:13:04Z</time>
      </trkpt>
      <trkpt lat="39.823378" lon="2.892898">
        <ele>498.551</ele>
        <time>2020-02-23T10:13:05Z</time>
      </trkpt>
      <trkpt lat="39.823424" lon="2.892943">
        <ele>498.818</ele>
        <time>2020-02-23T10:13:06Z</time>
      </trkpt>
      <trkpt lat="39.82347" lon="2.892989">
        <ele>499.114</ele>
        <time>2020-02-23T10:13:07Z</time>
      </trkpt>
      <trkpt lat="39.823508" lon="2.893023">
        <ele>499.291</ele>
        <time>2020-02-23T10:13:08Z</time>
      </trkpt>
      <trkpt lat="39.823508" lon="2.893023">
        <ele>499.281</ele>
        <time>2020-02-23T10:13:09Z</time>
      </trkpt>
      <trkpt lat="39.823554" lon="2.89307">
        <ele>499.319</ele>
        <time>2020-02-23T10:13:10Z</time>
      </trkpt>
      <trkpt lat="39.823599" lon="2.893118">
        <ele>499.508</ele>
        <time>2020-02-23T10:13:11Z</time>
      </trkpt>
      <trkpt lat="39.823645" lon="2.893165">
        <ele>499.794</ele>
        <time>2020-02-23T10:13:12Z</time>
      </trkpt>
      <trkpt lat="39.823685" lon="2.893192">
        <ele>499.934</ele>
        <time>2020-02-23T10:13:13Z</time>
      </trkpt>
      <trkpt lat="39.823685" lon="2.893192">
        <ele>499.999</ele>
        <time>2020-02-23T10:13:14Z</time>
      </trkpt>
      <trkpt lat="39.823709" lon="2.893219">
        <ele>500.021</ele>
        <time>2020-02-23T10:13:15Z</time>
      </trkpt>
      <trkpt lat="39.823733" lon="2.893246">
        <ele>500.232</ele>
        <time>2020-02-23T10:13:16Z</time>
      </trkpt>
      <trkpt lat="39.823757" lon="2.893273">
        <ele>500.485</ele>
        <time>2020-02-23T10:13:17Z</time>
      </trkpt>
      <trkpt lat="39.823794" lon="2.893293">
        <ele>500.632</ele>
        <time>2020-02-23T10:13:18Z</time>
      </trkpt>
      <trkpt lat="39.823831" lon="2.893313">
        <ele>500.958</ele>
        <time>2020-02-23T10:13:19Z</time>
      </trkpt>
      <trkpt lat="39.823868" lon="2.893333">
        <ele>501.117</ele>
        <time>2020-02-23T10:13:20Z</time>
      </trkpt>
      <trkpt lat="39.823916" lon="2.893368">
        <ele>501.587</ele>
        <time>2020-02-23T10:13:21Z</time>
      </trkpt>
      <trkpt lat="39.823963" lon="2.893403">
        <ele>501.815</ele>
        <time>2020-02-23T10:13:22Z</time>
      </trkpt>
      <trkpt lat="39.824011" lon="2.893438">
        <ele>502.208</ele>
        <time>2020-02-23T10:13:23Z</time>
      </trkpt>
      <trkpt lat="39.824057" lon="2.893466">
        <ele>502.666</ele>
        <time>2020-02-23T10:13:24Z</time>
      </trkpt>
      <trkpt lat="39.824057" lon="2.893466">
        <ele>502.676</ele>
        <time>2020-02-23T10:13:25Z</time>
      </trkpt>
      <trkpt lat="39.824078" lon="2.893497">
        <ele>502.851</ele>
        <time>2020-02-23T10:13:26Z</time>
      </trkpt>
      <trkpt lat="39.824099" lon="2.893529">
        <ele>503.173</ele>
        <time>2020-02-23T10:13:27Z</time>
      </trkpt>
      <trkpt lat="39.82412" lon="2.89356">
        <ele>503.474</ele>
        <time>2020-02-23T10:13:28Z</time>
      </trkpt>
      <trkpt lat="39.824141" lon="2.89359">
        <ele>503.697</ele>
        <time>2020-02-23T10:13:29Z</time>
      </trkpt>
      <trkpt lat="39.824163" lon="2.893619">
        <ele>503.964</ele>
        <time>2020-02-23T10:13:30Z</time>
      </trkpt>
      <trkpt lat="39.824184" lon="2.893649">
        <ele>504.17</ele>
        <time>2020-02-23T10:13:31Z</time>
      </trkpt>
      <trkpt lat="39.824199" lon="2.893677">
        <ele>504.316</ele>
        <time>2020-02-23T10:13:32Z</time>
      </trkpt>
      <trkpt lat="39.824215" lon="2.893706">
        <ele>504.576</ele>
        <time>2020-02-23T10:13:33Z</time>
      </trkpt>
      <trkpt lat="39.82423" lon="2.893734">
        <ele>504.713</ele>
        <time>2020-02-23T10:13:34Z</time>
      </trkpt>
      <trkpt lat="39.824245" lon="2.893763">
        <ele>504.808</ele>
        <time>2020-02-23T10:13:35Z</time>
      </trkpt>
      <trkpt lat="39.82427" lon="2.893789">
        <ele>505.146</ele>
        <time>2020-02-23T10:13:36Z</time>
      </trkpt>
      <trkpt lat="39.824294" lon="2.893814">
        <ele>505.486</ele>
        <time>2020-02-23T10:13:37Z</time>
      </trkpt>
      <trkpt lat="39.824319" lon="2.89384">
        <ele>505.611</ele>
        <time>2020-02-23T10:13:38Z</time>
      </trkpt>
      <trkpt lat="39.824343" lon="2.893864">
        <ele>505.973</ele>
        <time>2020-02-23T10:13:39Z</time>
      </trkpt>
      <trkpt lat="39.824367" lon="2.893889">
        <ele>506.114</ele>
        <time>2020-02-23T10:13:40Z</time>
      </trkpt>
      <trkpt lat="39.824391" lon="2.893913">
        <ele>506.317</ele>
        <time>2020-02-23T10:13:41Z</time>
      </trkpt>
      <trkpt lat="39.824415" lon="2.893932">
        <ele>506.534</ele>
        <time>2020-02-23T10:13:42Z</time>
      </trkpt>
      <trkpt lat="39.824439" lon="2.89395">
        <ele>506.75</ele>
        <time>2020-02-23T10:13:43Z</time>
      </trkpt>
      <trkpt lat="39.824462" lon="2.893969">
        <ele>506.852</ele>
        <time>2020-02-23T10:13:44Z</time>
      </trkpt>
      <trkpt lat="39.824486" lon="2.893988">
        <ele>507.053</ele>
        <time>2020-02-23T10:13:45Z</time>
      </trkpt>
      <trkpt lat="39.824505" lon="2.894012">
        <ele>507.108</ele>
        <time>2020-02-23T10:13:46Z</time>
      </trkpt>
      <trkpt lat="39.824523" lon="2.894036">
        <ele>507.308</ele>
        <time>2020-02-23T10:13:47Z</time>
      </trkpt>
      <trkpt lat="39.824542" lon="2.894061">
        <ele>507.45</ele>
        <time>2020-02-23T10:13:48Z</time>
      </trkpt>
      <trkpt lat="39.82456" lon="2.894085">
        <ele>507.64</ele>
        <time>2020-02-23T10:13:49Z</time>
      </trkpt>
      <trkpt lat="39.824587" lon="2.894109">
        <ele>507.835</ele>
        <time>2020-02-23T10:13:50Z</time>
      </trkpt>
      <trkpt lat="39.824614" lon="2.894134">
        <ele>508.047</ele>
        <time>2020-02-23T10:13:51Z</time>
      </trkpt>
      <trkpt lat="39.824641" lon="2.894158">
        <ele>508.228</ele>
        <time>2020-02-23T10:13:52Z</time>
      </trkpt>
      <trkpt lat="39.824669" lon="2.894172">
        <ele>508.481</ele>
        <time>2020-02-23T10:13:53Z</time>
      </trkpt>
      <trkpt lat="39.824698" lon="2.894186">
        <ele>508.628</ele>
        <time>2020-02-23T10:13:54Z</time>
      </trkpt>
      <trkpt lat="39.824726" lon="2.894201">
        <ele>508.874</ele>
        <time>2020-02-23T10:13:55Z</time>
      </trkpt>
      <trkpt lat="39.824754" lon="2.894215">
        <ele>509.051</ele>
        <time>2020-02-23T10:13:56Z</time>
      </trkpt>
      <trkpt lat="39.824777" lon="2.894224">
        <ele>509.201</ele>
        <time>2020-02-23T10:13:57Z</time>
      </trkpt>
      <trkpt lat="39.8248" lon="2.894233">
        <ele>509.411</ele>
        <time>2020-02-23T10:13:58Z</time>
      </trkpt>
      <trkpt lat="39.824822" lon="2.894243">
        <ele>509.608</ele>
        <time>2020-02-23T10:13:59Z</time>
      </trkpt>
      <trkpt lat="39.824845" lon="2.894252">
        <ele>509.83</ele>
        <time>2020-02-23T10:14:00Z</time>
      </trkpt>
      <trkpt lat="39.824867" lon="2.894272">
        <ele>510.01</ele>
        <time>2020-02-23T10:14:01Z</time>
      </trkpt>
      <trkpt lat="39.824889" lon="2.894292">
        <ele>510.375</ele>
        <time>2020-02-23T10:14:02Z</time>
      </trkpt>
      <trkpt lat="39.824911" lon="2.894312">
        <ele>510.527</ele>
        <time>2020-02-23T10:14:03Z</time>
      </trkpt>
      <trkpt lat="39.824933" lon="2.894332">
        <ele>510.728</ele>
        <time>2020-02-23T10:14:04Z</time>
      </trkpt>
      <trkpt lat="39.824961" lon="2.894365">
        <ele>511.021</ele>
        <time>2020-02-23T10:14:05Z</time>
      </trkpt>
      <trkpt lat="39.82499" lon="2.894398">
        <ele>511.358</ele>
        <time>2020-02-23T10:14:06Z</time>
      </trkpt>
      <trkpt lat="39.825018" lon="2.894431">
        <ele>511.534</ele>
        <time>2020-02-23T10:14:07Z</time>
      </trkpt>
      <trkpt lat="39.825046" lon="2.894464">
        <ele>511.824</ele>
        <time>2020-02-23T10:14:08Z</time>
      </trkpt>
      <trkpt lat="39.825088" lon="2.894489">
        <ele>512.004</ele>
        <time>2020-02-23T10:14:09Z</time>
      </trkpt>
      <trkpt lat="39.825088" lon="2.894489">
        <ele>512.014</ele>
        <time>2020-02-23T10:14:10Z</time>
      </trkpt>
      <trkpt lat="39.825113" lon="2.894513">
        <ele>512.208</ele>
        <time>2020-02-23T10:14:11Z</time>
      </trkpt>
      <trkpt lat="39.825139" lon="2.894538">
        <ele>512.447</ele>
        <time>2020-02-23T10:14:12Z</time>
      </trkpt>
      <trkpt lat="39.825164" lon="2.894562">
        <ele>512.667</ele>
        <time>2020-02-23T10:14:13Z</time>
      </trkpt>
      <trkpt lat="39.825203" lon="2.894585">
        <ele>512.832</ele>
        <time>2020-02-23T10:14:14Z</time>
      </trkpt>
      <trkpt lat="39.825241" lon="2.894609">
        <ele>513.174</ele>
        <time>2020-02-23T10:14:15Z</time>
      </trkpt>
      <trkpt lat="39.82528" lon="2.894632">
        <ele>513.365</ele>
        <time>2020-02-23T10:14:16Z</time>
      </trkpt>
      <trkpt lat="39.825322" lon="2.894656">
        <ele>513.638</ele>
        <time>2020-02-23T10:14:17Z</time>
      </trkpt>
      <trkpt lat="39.825364" lon="2.89468">
        <ele>513.725</ele>
        <time>2020-02-23T10:14:18Z</time>
      </trkpt>
      <trkpt lat="39.825406" lon="2.894704">
        <ele>513.981</ele>
        <time>2020-02-23T10:14:19Z</time>
      </trkpt>
      <trkpt lat="39.82544" lon="2.894734">
        <ele>513.986</ele>
        <time>2020-02-23T10:14:20Z</time>
      </trkpt>
      <trkpt lat="39.825473" lon="2.894763">
        <ele>514.06</ele>
        <time>2020-02-23T10:14:21Z</time>
      </trkpt>
      <trkpt lat="39.825507" lon="2.894793">
        <ele>514.026</ele>
        <time>2020-02-23T10:14:22Z</time>
      </trkpt>
      <trkpt lat="39.825518" lon="2.894823">
        <ele>514.008</ele>
        <time>2020-02-23T10:14:23Z</time>
      </trkpt>
      <trkpt lat="39.825529" lon="2.894853">
        <ele>514.013</ele>
        <time>2020-02-23T10:14:24Z</time>
      </trkpt>
      <trkpt lat="39.82554" lon="2.894883">
        <ele>514.193</ele>
        <time>2020-02-23T10:14:25Z</time>
      </trkpt>
      <trkpt lat="39.825551" lon="2.894913">
        <ele>514.168</ele>
        <time>2020-02-23T10:14:26Z</time>
      </trkpt>
      <trkpt lat="39.825558" lon="2.894941">
        <ele>514.23</ele>
        <time>2020-02-23T10:14:27Z</time>
      </trkpt>
      <trkpt lat="39.825565" lon="2.894969">
        <ele>514.261</ele>
        <time>2020-02-23T10:14:28Z</time>
      </trkpt>
      <trkpt lat="39.825573" lon="2.894998">
        <ele>514.364</ele>
        <time>2020-02-23T10:14:29Z</time>
      </trkpt>
      <trkpt lat="39.82558" lon="2.895026">
        <ele>514.481</ele>
        <time>2020-02-23T10:14:30Z</time>
      </trkpt>
      <trkpt lat="39.825587" lon="2.895054">
        <ele>514.517</ele>
        <time>2020-02-23T10:14:31Z</time>
      </trkpt>
      <trkpt lat="39.825606" lon="2.89508">
        <ele>514.645</ele>
        <time>2020-02-23T10:14:32Z</time>
      </trkpt>
      <trkpt lat="39.825625" lon="2.895106">
        <ele>514.847</ele>
        <time>2020-02-23T10:14:33Z</time>
      </trkpt>
      <trkpt lat="39.825643" lon="2.895132">
        <ele>515.011</ele>
        <time>2020-02-23T10:14:34Z</time>
      </trkpt>
      <trkpt lat="39.825662" lon="2.895158">
        <ele>515.208</ele>
        <time>2020-02-23T10:14:35Z</time>
      </trkpt>
      <trkpt lat="39.825694" lon="2.895172">
        <ele>515.589</ele>
        <time>2020-02-23T10:14:36Z</time>
      </trkpt>
      <trkpt lat="39.825727" lon="2.895187">
        <ele>515.819</ele>
        <time>2020-02-23T10:14:37Z</time>
      </trkpt>
      <trkpt lat="39.825759" lon="2.895201">
        <ele>516.114</ele>
        <time>2020-02-23T10:14:38Z</time>
      </trkpt>
      <trkpt lat="39.825798" lon="2.895205">
        <ele>516.526</ele>
        <time>2020-02-23T10:14:39Z</time>
      </trkpt>
      <trkpt lat="39.825838" lon="2.895208">
        <ele>516.877</ele>
        <time>2020-02-23T10:14:40Z</time>
      </trkpt>
      <trkpt lat="39.825877" lon="2.895212">
        <ele>517.22</ele>
        <time>2020-02-23T10:14:41Z</time>
      </trkpt>
      <trkpt lat="39.825907" lon="2.895205">
        <ele>517.597</ele>
        <time>2020-02-23T10:14:42Z</time>
      </trkpt>
      <trkpt lat="39.825937" lon="2.895197">
        <ele>517.723</ele>
        <time>2020-02-23T10:14:43Z</time>
      </trkpt>
      <trkpt lat="39.825966" lon="2.89519">
        <ele>517.946</ele>
        <time>2020-02-23T10:14:44Z</time>
      </trkpt>
      <trkpt lat="39.825996" lon="2.895182">
        <ele>518.288</ele>
        <time>2020-02-23T10:14:45Z</time>
      </trkpt>
      <trkpt lat="39.826029" lon="2.895163">
        <ele>518.516</ele>
        <time>2020-02-23T10:14:46Z</time>
      </trkpt>
      <trkpt lat="39.826061" lon="2.895144">
        <ele>518.708</ele>
        <time>2020-02-23T10:14:47Z</time>
      </trkpt>
      <trkpt lat="39.826094" lon="2.895125">
        <ele>519.049</ele>
        <time>2020-02-23T10:14:48Z</time>
      </trkpt>
      <trkpt lat="39.826116" lon="2.895108">
        <ele>519.269</ele>
        <time>2020-02-23T10:14:49Z</time>
      </trkpt>
      <trkpt lat="39.826137" lon="2.895091">
        <ele>519.534</ele>
        <time>2020-02-23T10:14:50Z</time>
      </trkpt>
      <trkpt lat="39.826159" lon="2.895074">
        <ele>519.856</ele>
        <time>2020-02-23T10:14:51Z</time>
      </trkpt>
      <trkpt lat="39.82618" lon="2.895057">
        <ele>520.087</ele>
        <time>2020-02-23T10:14:52Z</time>
      </trkpt>
      <trkpt lat="39.82621" lon="2.895067">
        <ele>520.45</ele>
        <time>2020-02-23T10:14:53Z</time>
      </trkpt>
      <trkpt lat="39.826241" lon="2.895076">
        <ele>520.737</ele>
        <time>2020-02-23T10:14:54Z</time>
      </trkpt>
      <trkpt lat="39.826271" lon="2.895086">
        <ele>521.173</ele>
        <time>2020-02-23T10:14:55Z</time>
      </trkpt>
      <trkpt lat="39.826299" lon="2.895101">
        <ele>521.585</ele>
        <time>2020-02-23T10:14:56Z</time>
      </trkpt>
      <trkpt lat="39.826328" lon="2.895117">
        <ele>522.089</ele>
        <time>2020-02-23T10:14:57Z</time>
      </trkpt>
      <trkpt lat="39.826356" lon="2.895132">
        <ele>522.317</ele>
        <time>2020-02-23T10:14:58Z</time>
      </trkpt>
      <trkpt lat="39.826384" lon="2.895148">
        <ele>522.708</ele>
        <time>2020-02-23T10:14:59Z</time>
      </trkpt>
      <trkpt lat="39.826413" lon="2.895164">
        <ele>523.123</ele>
        <time>2020-02-23T10:15:00Z</time>
      </trkpt>
      <trkpt lat="39.826441" lon="2.89518">
        <ele>523.563</ele>
        <time>2020-02-23T10:15:01Z</time>
      </trkpt>
      <trkpt lat="39.826473" lon="2.895197">
        <ele>523.948</ele>
        <time>2020-02-23T10:15:02Z</time>
      </trkpt>
      <trkpt lat="39.826505" lon="2.895214">
        <ele>524.37</ele>
        <time>2020-02-23T10:15:03Z</time>
      </trkpt>
      <trkpt lat="39.826537" lon="2.895231">
        <ele>524.891</ele>
        <time>2020-02-23T10:15:04Z</time>
      </trkpt>
      <trkpt lat="39.826565" lon="2.895236">
        <ele>525.184</ele>
        <time>2020-02-23T10:15:05Z</time>
      </trkpt>
      <trkpt lat="39.826594" lon="2.895241">
        <ele>525.571</ele>
        <time>2020-02-23T10:15:06Z</time>
      </trkpt>
      <trkpt lat="39.826622" lon="2.895247">
        <ele>525.887</ele>
        <time>2020-02-23T10:15:07Z</time>
      </trkpt>
      <trkpt lat="39.82665" lon="2.895252">
        <ele>526.265</ele>
        <time>2020-02-23T10:15:08Z</time>
      </trkpt>
      <trkpt lat="39.826671" lon="2.895266">
        <ele>526.568</ele>
        <time>2020-02-23T10:15:09Z</time>
      </trkpt>
      <trkpt lat="39.826692" lon="2.895281">
        <ele>526.814</ele>
        <time>2020-02-23T10:15:10Z</time>
      </trkpt>
      <trkpt lat="39.826712" lon="2.895295">
        <ele>527.108</ele>
        <time>2020-02-23T10:15:11Z</time>
      </trkpt>
      <trkpt lat="39.826733" lon="2.89531">
        <ele>527.451</ele>
        <time>2020-02-23T10:15:12Z</time>
      </trkpt>
      <trkpt lat="39.826755" lon="2.89533">
        <ele>527.821</ele>
        <time>2020-02-23T10:15:13Z</time>
      </trkpt>
      <trkpt lat="39.826778" lon="2.895351">
        <ele>528.186</ele>
        <time>2020-02-23T10:15:14Z</time>
      </trkpt>
      <trkpt lat="39.8268" lon="2.895371">
        <ele>528.588</ele>
        <time>2020-02-23T10:15:15Z</time>
      </trkpt>
      <trkpt lat="39.826822" lon="2.895392">
        <ele>528.919</ele>
        <time>2020-02-23T10:15:16Z</time>
      </trkpt>
      <trkpt lat="39.826845" lon="2.895414">
        <ele>529.352</ele>
        <time>2020-02-23T10:15:17Z</time>
      </trkpt>
      <trkpt lat="39.826868" lon="2.895436">
        <ele>529.749</ele>
        <time>2020-02-23T10:15:18Z</time>
      </trkpt>
      <trkpt lat="39.826891" lon="2.895459">
        <ele>530.265</ele>
        <time>2020-02-23T10:15:19Z</time>
      </trkpt>
      <trkpt lat="39.826914" lon="2.895481">
        <ele>530.614</ele>
        <time>2020-02-23T10:15:20Z</time>
      </trkpt>
      <trkpt lat="39.826943" lon="2.895506">
        <ele>531.154</ele>
        <time>2020-02-23T10:15:21Z</time>
      </trkpt>
      <trkpt lat="39.826972" lon="2.89553">
        <ele>531.709</ele>
        <time>2020-02-23T10:15:22Z</time>
      </trkpt>
      <trkpt lat="39.827001" lon="2.895555">
        <ele>532.308</ele>
        <time>2020-02-23T10:15:23Z</time>
      </trkpt>
      <trkpt lat="39.827022" lon="2.895585">
        <ele>532.816</ele>
        <time>2020-02-23T10:15:24Z</time>
      </trkpt>
      <trkpt lat="39.827043" lon="2.895615">
        <ele>533.326</ele>
        <time>2020-02-23T10:15:25Z</time>
      </trkpt>
      <trkpt lat="39.827064" lon="2.895645">
        <ele>533.891</ele>
        <time>2020-02-23T10:15:26Z</time>
      </trkpt>
      <trkpt lat="39.827085" lon="2.895675">
        <ele>534.363</ele>
        <time>2020-02-23T10:15:27Z</time>
      </trkpt>
      <trkpt lat="39.8271" lon="2.895701">
        <ele>534.794</ele>
        <time>2020-02-23T10:15:28Z</time>
      </trkpt>
      <trkpt lat="39.827115" lon="2.895728">
        <ele>535.127</ele>
        <time>2020-02-23T10:15:29Z</time>
      </trkpt>
      <trkpt lat="39.82713" lon="2.895754">
        <ele>535.464</ele>
        <time>2020-02-23T10:15:30Z</time>
      </trkpt>
      <trkpt lat="39.827145" lon="2.895781">
        <ele>535.75</ele>
        <time>2020-02-23T10:15:31Z</time>
      </trkpt>
      <trkpt lat="39.827153" lon="2.895768">
        <ele>535.929</ele>
        <time>2020-02-23T10:15:32Z</time>
      </trkpt>
      <trkpt lat="39.827161" lon="2.895755">
        <ele>536</ele>
        <time>2020-02-23T10:15:33Z</time>
      </trkpt>
      <trkpt lat="39.827169" lon="2.895742">
        <ele>536.22</ele>
        <time>2020-02-23T10:15:34Z</time>
      </trkpt>
      <trkpt lat="39.827177" lon="2.89573">
        <ele>536.308</ele>
        <time>2020-02-23T10:15:35Z</time>
      </trkpt>
      <trkpt lat="39.827184" lon="2.895717">
        <ele>536.527</ele>
        <time>2020-02-23T10:15:36Z</time>
      </trkpt>
      <trkpt lat="39.827192" lon="2.895704">
        <ele>536.687</ele>
        <time>2020-02-23T10:15:37Z</time>
      </trkpt>
      <trkpt lat="39.8272" lon="2.895691">
        <ele>536.872</ele>
        <time>2020-02-23T10:15:38Z</time>
      </trkpt>
      <trkpt lat="39.827208" lon="2.895678">
        <ele>536.994</ele>
        <time>2020-02-23T10:15:39Z</time>
      </trkpt>
      <trkpt lat="39.827218" lon="2.895663">
        <ele>537.055</ele>
        <time>2020-02-23T10:15:40Z</time>
      </trkpt>
      <trkpt lat="39.827228" lon="2.895648">
        <ele>537.138</ele>
        <time>2020-02-23T10:15:41Z</time>
      </trkpt>
      <trkpt lat="39.827238" lon="2.895634">
        <ele>537.295</ele>
        <time>2020-02-23T10:15:42Z</time>
      </trkpt>
      <trkpt lat="39.827247" lon="2.895619">
        <ele>537.331</ele>
        <time>2020-02-23T10:15:43Z</time>
      </trkpt>
      <trkpt lat="39.827257" lon="2.895604">
        <ele>537.595</ele>
        <time>2020-02-23T10:15:44Z</time>
      </trkpt>
      <trkpt lat="39.827267" lon="2.895589">
        <ele>537.649</ele>
        <time>2020-02-23T10:15:45Z</time>
      </trkpt>
      <trkpt lat="39.827276" lon="2.89561">
        <ele>537.723</ele>
        <time>2020-02-23T10:15:46Z</time>
      </trkpt>
      <trkpt lat="39.827284" lon="2.895631">
        <ele>537.908</ele>
        <time>2020-02-23T10:15:47Z</time>
      </trkpt>
      <trkpt lat="39.827293" lon="2.895651">
        <ele>538.084</ele>
        <time>2020-02-23T10:15:48Z</time>
      </trkpt>
      <trkpt lat="39.827301" lon="2.895672">
        <ele>538.184</ele>
        <time>2020-02-23T10:15:49Z</time>
      </trkpt>
      <trkpt lat="39.82731" lon="2.895693">
        <ele>538.299</ele>
        <time>2020-02-23T10:15:50Z</time>
      </trkpt>
      <trkpt lat="39.827318" lon="2.895714">
        <ele>538.271</ele>
        <time>2020-02-23T10:15:51Z</time>
      </trkpt>
      <trkpt lat="39.827328" lon="2.895739">
        <ele>538.492</ele>
        <time>2020-02-23T10:15:52Z</time>
      </trkpt>
      <trkpt lat="39.827337" lon="2.895764">
        <ele>538.545</ele>
        <time>2020-02-23T10:15:53Z</time>
      </trkpt>
      <trkpt lat="39.827347" lon="2.895788">
        <ele>538.632</ele>
        <time>2020-02-23T10:15:54Z</time>
      </trkpt>
      <trkpt lat="39.827356" lon="2.895813">
        <ele>538.878</ele>
        <time>2020-02-23T10:15:55Z</time>
      </trkpt>
      <trkpt lat="39.827366" lon="2.895838">
        <ele>539.035</ele>
        <time>2020-02-23T10:15:56Z</time>
      </trkpt>
      <trkpt lat="39.827372" lon="2.89587">
        <ele>539.286</ele>
        <time>2020-02-23T10:15:57Z</time>
      </trkpt>
      <trkpt lat="39.827379" lon="2.895902">
        <ele>539.414</ele>
        <time>2020-02-23T10:15:58Z</time>
      </trkpt>
      <trkpt lat="39.827385" lon="2.895934">
        <ele>539.708</ele>
        <time>2020-02-23T10:15:59Z</time>
      </trkpt>
      <trkpt lat="39.827391" lon="2.895966">
        <ele>540.078</ele>
        <time>2020-02-23T10:16:00Z</time>
      </trkpt>
      <trkpt lat="39.827407" lon="2.895995">
        <ele>540.438</ele>
        <time>2020-02-23T10:16:01Z</time>
      </trkpt>
      <trkpt lat="39.827423" lon="2.896023">
        <ele>540.973</ele>
        <time>2020-02-23T10:16:02Z</time>
      </trkpt>
      <trkpt lat="39.827439" lon="2.896052">
        <ele>541.375</ele>
        <time>2020-02-23T10:16:03Z</time>
      </trkpt>
      <trkpt lat="39.827455" lon="2.896081">
        <ele>541.996</ele>
        <time>2020-02-23T10:16:04Z</time>
      </trkpt>
      <trkpt lat="39.827467" lon="2.896111">
        <ele>542.529</ele>
        <time>2020-02-23T10:16:05Z</time>
      </trkpt>
      <trkpt lat="39.82748" lon="2.896141">
        <ele>543.196</ele>
        <time>2020-02-23T10:16:06Z</time>
      </trkpt>
      <trkpt lat="39.827492" lon="2.896171">
        <ele>543.882</ele>
        <time>2020-02-23T10:16:07Z</time>
      </trkpt>
      <trkpt lat="39.827504" lon="2.896201">
        <ele>544.589</ele>
        <time>2020-02-23T10:16:08Z</time>
      </trkpt>
      <trkpt lat="39.827512" lon="2.896229">
        <ele>545.106</ele>
        <time>2020-02-23T10:16:09Z</time>
      </trkpt>
      <trkpt lat="39.82752" lon="2.896258">
        <ele>545.726</ele>
        <time>2020-02-23T10:16:10Z</time>
      </trkpt>
      <trkpt lat="39.827528" lon="2.896286">
        <ele>546.308</ele>
        <time>2020-02-23T10:16:11Z</time>
      </trkpt>
      <trkpt lat="39.827536" lon="2.896315">
        <ele>546.963</ele>
        <time>2020-02-23T10:16:12Z</time>
      </trkpt>
      <trkpt lat="39.827549" lon="2.896347">
        <ele>547.553</ele>
        <time>2020-02-23T10:16:13Z</time>
      </trkpt>
      <trkpt lat="39.827561" lon="2.896379">
        <ele>548.228</ele>
        <time>2020-02-23T10:16:14Z</time>
      </trkpt>
      <trkpt lat="39.827574" lon="2.896411">
        <ele>548.87</ele>
        <time>2020-02-23T10:16:15Z</time>
      </trkpt>
      <trkpt lat="39.827586" lon="2.896443">
        <ele>549.381</ele>
        <time>2020-02-23T10:16:16Z</time>
      </trkpt>
      <trkpt lat="39.827607" lon="2.896468">
        <ele>549.914</ele>
        <time>2020-02-23T10:16:17Z</time>
      </trkpt>
      <trkpt lat="39.827627" lon="2.896492">
        <ele>550.471</ele>
        <time>2020-02-23T10:16:18Z</time>
      </trkpt>
      <trkpt lat="39.827648" lon="2.896517">
        <ele>550.827</ele>
        <time>2020-02-23T10:16:19Z</time>
      </trkpt>
      <trkpt lat="39.827668" lon="2.896542">
        <ele>551.235</ele>
        <time>2020-02-23T10:16:20Z</time>
      </trkpt>
      <trkpt lat="39.827691" lon="2.896568">
        <ele>551.586</ele>
        <time>2020-02-23T10:16:21Z</time>
      </trkpt>
      <trkpt lat="39.827715" lon="2.896594">
        <ele>551.814</ele>
        <time>2020-02-23T10:16:22Z</time>
      </trkpt>
      <trkpt lat="39.827738" lon="2.89662">
        <ele>552.108</ele>
        <time>2020-02-23T10:16:23Z</time>
      </trkpt>
      <trkpt lat="39.827761" lon="2.896646">
        <ele>552.338</ele>
        <time>2020-02-23T10:16:24Z</time>
      </trkpt>
      <trkpt lat="39.827787" lon="2.896663">
        <ele>552.518</ele>
        <time>2020-02-23T10:16:25Z</time>
      </trkpt>
      <trkpt lat="39.827812" lon="2.89668">
        <ele>552.673</ele>
        <time>2020-02-23T10:16:26Z</time>
      </trkpt>
      <trkpt lat="39.827838" lon="2.896698">
        <ele>552.815</ele>
        <time>2020-02-23T10:16:27Z</time>
      </trkpt>
      <trkpt lat="39.827863" lon="2.896715">
        <ele>552.946</ele>
        <time>2020-02-23T10:16:28Z</time>
      </trkpt>
      <trkpt lat="39.827892" lon="2.896732">
        <ele>552.939</ele>
        <time>2020-02-23T10:16:29Z</time>
      </trkpt>
      <trkpt lat="39.82792" lon="2.896749">
        <ele>553.026</ele>
        <time>2020-02-23T10:16:30Z</time>
      </trkpt>
      <trkpt lat="39.827949" lon="2.896766">
        <ele>553.122</ele>
        <time>2020-02-23T10:16:31Z</time>
      </trkpt>
      <trkpt lat="39.827959" lon="2.896746">
        <ele>553.177</ele>
        <time>2020-02-23T10:16:32Z</time>
      </trkpt>
      <trkpt lat="39.827969" lon="2.896726">
        <ele>553.161</ele>
        <time>2020-02-23T10:16:33Z</time>
      </trkpt>
      <trkpt lat="39.827979" lon="2.896706">
        <ele>553.227</ele>
        <time>2020-02-23T10:16:34Z</time>
      </trkpt>
      <trkpt lat="39.827989" lon="2.896686">
        <ele>553.208</ele>
        <time>2020-02-23T10:16:35Z</time>
      </trkpt>
      <trkpt lat="39.827999" lon="2.896666">
        <ele>553.392</ele>
        <time>2020-02-23T10:16:36Z</time>
      </trkpt>
      <trkpt lat="39.827986" lon="2.896639">
        <ele>553.422</ele>
        <time>2020-02-23T10:16:37Z</time>
      </trkpt>
      <trkpt lat="39.827972" lon="2.896613">
        <ele>553.557</ele>
        <time>2020-02-23T10:16:38Z</time>
      </trkpt>
      <trkpt lat="39.827959" lon="2.896586">
        <ele>553.679</ele>
        <time>2020-02-23T10:16:39Z</time>
      </trkpt>
      <trkpt lat="39.827945" lon="2.89656">
        <ele>553.74</ele>
        <time>2020-02-23T10:16:40Z</time>
      </trkpt>
      <trkpt lat="39.827965" lon="2.896558">
        <ele>553.753</ele>
        <time>2020-02-23T10:16:41Z</time>
      </trkpt>
      <trkpt lat="39.827984" lon="2.896556">
        <ele>553.89</ele>
        <time>2020-02-23T10:16:42Z</time>
      </trkpt>
      <trkpt lat="39.828004" lon="2.896555">
        <ele>553.996</ele>
        <time>2020-02-23T10:16:43Z</time>
      </trkpt>
      <trkpt lat="39.828023" lon="2.896553">
        <ele>553.988</ele>
        <time>2020-02-23T10:16:44Z</time>
      </trkpt>
      <trkpt lat="39.828043" lon="2.896551">
        <ele>554.024</ele>
        <time>2020-02-23T10:16:45Z</time>
      </trkpt>
      <trkpt lat="39.828066" lon="2.896566">
        <ele>554.026</ele>
        <time>2020-02-23T10:16:46Z</time>
      </trkpt>
      <trkpt lat="39.828089" lon="2.896582">
        <ele>554.008</ele>
        <time>2020-02-23T10:16:47Z</time>
      </trkpt>
      <trkpt lat="39.828112" lon="2.896597">
        <ele>554.163</ele>
        <time>2020-02-23T10:16:48Z</time>
      </trkpt>
      <trkpt lat="39.828135" lon="2.896613">
        <ele>554.193</ele>
        <time>2020-02-23T10:16:49Z</time>
      </trkpt>
      <trkpt lat="39.828155" lon="2.896632">
        <ele>554.158</ele>
        <time>2020-02-23T10:16:50Z</time>
      </trkpt>
      <trkpt lat="39.828176" lon="2.896651">
        <ele>554.14</ele>
        <time>2020-02-23T10:16:51Z</time>
      </trkpt>
      <trkpt lat="39.828196" lon="2.89667">
        <ele>554.181</ele>
        <time>2020-02-23T10:16:52Z</time>
      </trkpt>
      <trkpt lat="39.828216" lon="2.896689">
        <ele>554.214</ele>
        <time>2020-02-23T10:16:53Z</time>
      </trkpt>
      <trkpt lat="39.828242" lon="2.896706">
        <ele>554.211</ele>
        <time>2020-02-23T10:16:54Z</time>
      </trkpt>
      <trkpt lat="39.828268" lon="2.896724">
        <ele>554.227</ele>
        <time>2020-02-23T10:16:55Z</time>
      </trkpt>
      <trkpt lat="39.828293" lon="2.896741">
        <ele>554.222</ele>
        <time>2020-02-23T10:16:56Z</time>
      </trkpt>
      <trkpt lat="39.828319" lon="2.896759">
        <ele>554.262</ele>
        <time>2020-02-23T10:16:57Z</time>
      </trkpt>
      <trkpt lat="39.828345" lon="2.896772">
        <ele>554.208</ele>
        <time>2020-02-23T10:16:58Z</time>
      </trkpt>
      <trkpt lat="39.828371" lon="2.896786">
        <ele>554.208</ele>
        <time>2020-02-23T10:16:59Z</time>
      </trkpt>
      <trkpt lat="39.828397" lon="2.896799">
        <ele>554.227</ele>
        <time>2020-02-23T10:17:00Z</time>
      </trkpt>
      <trkpt lat="39.828423" lon="2.896813">
        <ele>554.267</ele>
        <time>2020-02-23T10:17:01Z</time>
      </trkpt>
      <trkpt lat="39.828453" lon="2.896831">
        <ele>554.232</ele>
        <time>2020-02-23T10:17:02Z</time>
      </trkpt>
      <trkpt lat="39.828482" lon="2.896848">
        <ele>554.214</ele>
        <time>2020-02-23T10:17:03Z</time>
      </trkpt>
      <trkpt lat="39.828512" lon="2.896866">
        <ele>554.355</ele>
        <time>2020-02-23T10:17:04Z</time>
      </trkpt>
      <trkpt lat="39.82854" lon="2.896882">
        <ele>554.348</ele>
        <time>2020-02-23T10:17:05Z</time>
      </trkpt>
      <trkpt lat="39.828569" lon="2.896899">
        <ele>554.365</ele>
        <time>2020-02-23T10:17:06Z</time>
      </trkpt>
      <trkpt lat="39.828597" lon="2.896915">
        <ele>554.341</ele>
        <time>2020-02-23T10:17:07Z</time>
      </trkpt>
      <trkpt lat="39.828622" lon="2.896929">
        <ele>554.357</ele>
        <time>2020-02-23T10:17:08Z</time>
      </trkpt>
      <trkpt lat="39.828647" lon="2.896944">
        <ele>554.3</ele>
        <time>2020-02-23T10:17:09Z</time>
      </trkpt>
      <trkpt lat="39.828671" lon="2.896958">
        <ele>554.32</ele>
        <time>2020-02-23T10:17:10Z</time>
      </trkpt>
      <trkpt lat="39.828696" lon="2.896973">
        <ele>554.308</ele>
        <time>2020-02-23T10:17:11Z</time>
      </trkpt>
      <trkpt lat="39.828718" lon="2.89699">
        <ele>554.35</ele>
        <time>2020-02-23T10:17:12Z</time>
      </trkpt>
      <trkpt lat="39.82874" lon="2.897007">
        <ele>554.35</ele>
        <time>2020-02-23T10:17:13Z</time>
      </trkpt>
      <trkpt lat="39.828761" lon="2.897025">
        <ele>554.365</ele>
        <time>2020-02-23T10:17:14Z</time>
      </trkpt>
      <trkpt lat="39.828783" lon="2.897042">
        <ele>554.327</ele>
        <time>2020-02-23T10:17:15Z</time>
      </trkpt>
      <trkpt lat="39.828807" lon="2.897059">
        <ele>554.328</ele>
        <time>2020-02-23T10:17:16Z</time>
      </trkpt>
      <trkpt lat="39.828831" lon="2.897076">
        <ele>554.471</ele>
        <time>2020-02-23T10:17:17Z</time>
      </trkpt>
      <trkpt lat="39.828854" lon="2.897094">
        <ele>554.428</ele>
        <time>2020-02-23T10:17:18Z</time>
      </trkpt>
      <trkpt lat="39.828878" lon="2.897111">
        <ele>554.494</ele>
        <time>2020-02-23T10:17:19Z</time>
      </trkpt>
      <trkpt lat="39.8289" lon="2.897134">
        <ele>554.428</ele>
        <time>2020-02-23T10:17:20Z</time>
      </trkpt>
      <trkpt lat="39.828921" lon="2.897156">
        <ele>554.589</ele>
        <time>2020-02-23T10:17:21Z</time>
      </trkpt>
      <trkpt lat="39.828943" lon="2.897179">
        <ele>554.517</ele>
        <time>2020-02-23T10:17:22Z</time>
      </trkpt>
      <trkpt lat="39.828964" lon="2.897202">
        <ele>554.608</ele>
        <time>2020-02-23T10:17:23Z</time>
      </trkpt>
      <trkpt lat="39.828987" lon="2.897223">
        <ele>554.787</ele>
        <time>2020-02-23T10:17:24Z</time>
      </trkpt>
      <trkpt lat="39.82901" lon="2.897244">
        <ele>554.847</ele>
        <time>2020-02-23T10:17:25Z</time>
      </trkpt>
      <trkpt lat="39.829033" lon="2.897266">
        <ele>555.062</ele>
        <time>2020-02-23T10:17:26Z</time>
      </trkpt>
      <trkpt lat="39.829056" lon="2.897287">
        <ele>555.174</ele>
        <time>2020-02-23T10:17:27Z</time>
      </trkpt>
      <trkpt lat="39.829081" lon="2.897308">
        <ele>555.285</ele>
        <time>2020-02-23T10:17:28Z</time>
      </trkpt>
      <trkpt lat="39.829107" lon="2.897329">
        <ele>555.438</ele>
        <time>2020-02-23T10:17:29Z</time>
      </trkpt>
      <trkpt lat="39.829132" lon="2.89735">
        <ele>555.625</ele>
        <time>2020-02-23T10:17:30Z</time>
      </trkpt>
      <trkpt lat="39.82916" lon="2.897366">
        <ele>555.711</ele>
        <time>2020-02-23T10:17:31Z</time>
      </trkpt>
      <trkpt lat="39.829187" lon="2.897381">
        <ele>555.958</ele>
        <time>2020-02-23T10:17:32Z</time>
      </trkpt>
      <trkpt lat="39.829215" lon="2.897397">
        <ele>556.152</ele>
        <time>2020-02-23T10:17:33Z</time>
      </trkpt>
      <trkpt lat="39.829239" lon="2.897416">
        <ele>556.317</ele>
        <time>2020-02-23T10:17:34Z</time>
      </trkpt>
      <trkpt lat="39.829262" lon="2.897435">
        <ele>556.508</ele>
        <time>2020-02-23T10:17:35Z</time>
      </trkpt>
      <trkpt lat="39.829286" lon="2.897454">
        <ele>557.18</ele>
        <time>2020-02-23T10:17:36Z</time>
      </trkpt>
      <trkpt lat="39.829309" lon="2.897473">
        <ele>557.23</ele>
        <time>2020-02-23T10:17:37Z</time>
      </trkpt>
      <trkpt lat="39.829322" lon="2.897505">
        <ele>557.455</ele>
        <time>2020-02-23T10:17:38Z</time>
      </trkpt>
      <trkpt lat="39.829336" lon="2.897537">
        <ele>557.567</ele>
        <time>2020-02-23T10:17:39Z</time>
      </trkpt>
      <trkpt lat="39.829349" lon="2.89757">
        <ele>557.738</ele>
        <time>2020-02-23T10:17:40Z</time>
      </trkpt>
      <trkpt lat="39.829362" lon="2.897602">
        <ele>558.011</ele>
        <time>2020-02-23T10:17:41Z</time>
      </trkpt>
      <trkpt lat="39.829373" lon="2.897621">
        <ele>558.368</ele>
        <time>2020-02-23T10:17:42Z</time>
      </trkpt>
      <trkpt lat="39.829384" lon="2.897641">
        <ele>558.694</ele>
        <time>2020-02-23T10:17:43Z</time>
      </trkpt>
      <trkpt lat="39.829395" lon="2.89766">
        <ele>558.985</ele>
        <time>2020-02-23T10:17:44Z</time>
      </trkpt>
      <trkpt lat="39.829406" lon="2.89768">
        <ele>559.289</ele>
        <time>2020-02-23T10:17:45Z</time>
      </trkpt>
      <trkpt lat="39.829417" lon="2.897699">
        <ele>559.517</ele>
        <time>2020-02-23T10:17:46Z</time>
      </trkpt>
      <trkpt lat="39.829433" lon="2.897702">
        <ele>559.808</ele>
        <time>2020-02-23T10:17:47Z</time>
      </trkpt>
      <trkpt lat="39.829449" lon="2.897705">
        <ele>560.173</ele>
        <time>2020-02-23T10:17:48Z</time>
      </trkpt>
      <trkpt lat="39.829466" lon="2.897708">
        <ele>560.443</ele>
        <time>2020-02-23T10:17:49Z</time>
      </trkpt>
      <trkpt lat="39.829482" lon="2.897711">
        <ele>560.728</ele>
        <time>2020-02-23T10:17:50Z</time>
      </trkpt>
      <trkpt lat="39.829498" lon="2.897714">
        <ele>560.94</ele>
        <time>2020-02-23T10:17:51Z</time>
      </trkpt>
      <trkpt lat="39.829514" lon="2.897717">
        <ele>561.211</ele>
        <time>2020-02-23T10:17:52Z</time>
      </trkpt>
      <trkpt lat="39.829543" lon="2.897705">
        <ele>561.724</ele>
        <time>2020-02-23T10:17:53Z</time>
      </trkpt>
      <trkpt lat="39.829572" lon="2.897693">
        <ele>562.181</ele>
        <time>2020-02-23T10:17:54Z</time>
      </trkpt>
      <trkpt lat="39.829601" lon="2.897681">
        <ele>562.527</ele>
        <time>2020-02-23T10:17:55Z</time>
      </trkpt>
      <trkpt lat="39.829626" lon="2.897664">
        <ele>562.994</ele>
        <time>2020-02-23T10:17:56Z</time>
      </trkpt>
      <trkpt lat="39.829651" lon="2.897647">
        <ele>563.257</ele>
        <time>2020-02-23T10:17:57Z</time>
      </trkpt>
      <trkpt lat="39.829676" lon="2.89763">
        <ele>563.522</ele>
        <time>2020-02-23T10:17:58Z</time>
      </trkpt>
      <trkpt lat="39.829701" lon="2.897613">
        <ele>563.708</ele>
        <time>2020-02-23T10:17:59Z</time>
      </trkpt>
      <trkpt lat="39.82973" lon="2.8976">
        <ele>564.074</ele>
        <time>2020-02-23T10:18:00Z</time>
      </trkpt>
      <trkpt lat="39.829759" lon="2.897588">
        <ele>564.274</ele>
        <time>2020-02-23T10:18:01Z</time>
      </trkpt>
      <trkpt lat="39.829788" lon="2.897575">
        <ele>564.349</ele>
        <time>2020-02-23T10:18:02Z</time>
      </trkpt>
      <trkpt lat="39.829819" lon="2.897565">
        <ele>564.431</ele>
        <time>2020-02-23T10:18:03Z</time>
      </trkpt>
      <trkpt lat="39.82985" lon="2.897555">
        <ele>564.632</ele>
        <time>2020-02-23T10:18:04Z</time>
      </trkpt>
      <trkpt lat="39.829881" lon="2.897545">
        <ele>564.655</ele>
        <time>2020-02-23T10:18:05Z</time>
      </trkpt>
      <trkpt lat="39.829919" lon="2.897537">
        <ele>564.752</ele>
        <time>2020-02-23T10:18:06Z</time>
      </trkpt>
      <trkpt lat="39.829956" lon="2.897528">
        <ele>564.758</ele>
        <time>2020-02-23T10:18:07Z</time>
      </trkpt>
      <trkpt lat="39.829994" lon="2.89752">
        <ele>564.872</ele>
        <time>2020-02-23T10:18:08Z</time>
      </trkpt>
      <trkpt lat="39.830029" lon="2.897503">
        <ele>564.813</ele>
        <time>2020-02-23T10:18:09Z</time>
      </trkpt>
      <trkpt lat="39.830063" lon="2.897487">
        <ele>564.914</ele>
        <time>2020-02-23T10:18:10Z</time>
      </trkpt>
      <trkpt lat="39.830098" lon="2.89747">
        <ele>564.908</ele>
        <time>2020-02-23T10:18:11Z</time>
      </trkpt>
      <trkpt lat="39.830125" lon="2.897461">
        <ele>565.072</ele>
        <time>2020-02-23T10:18:12Z</time>
      </trkpt>
      <trkpt lat="39.830152" lon="2.897452">
        <ele>565.182</ele>
        <time>2020-02-23T10:18:13Z</time>
      </trkpt>
      <trkpt lat="39.830178" lon="2.897443">
        <ele>565.217</ele>
        <time>2020-02-23T10:18:14Z</time>
      </trkpt>
      <trkpt lat="39.830205" lon="2.897434">
        <ele>565.319</ele>
        <time>2020-02-23T10:18:15Z</time>
      </trkpt>
      <trkpt lat="39.830231" lon="2.897416">
        <ele>565.51</ele>
        <time>2020-02-23T10:18:16Z</time>
      </trkpt>
      <trkpt lat="39.830256" lon="2.897399">
        <ele>565.643</ele>
        <time>2020-02-23T10:18:17Z</time>
      </trkpt>
      <trkpt lat="39.830282" lon="2.897381">
        <ele>565.84</ele>
        <time>2020-02-23T10:18:18Z</time>
      </trkpt>
      <trkpt lat="39.830307" lon="2.897363">
        <ele>566.046</ele>
        <time>2020-02-23T10:18:19Z</time>
      </trkpt>
      <trkpt lat="39.830339" lon="2.897346">
        <ele>566.396</ele>
        <time>2020-02-23T10:18:20Z</time>
      </trkpt>
      <trkpt lat="39.830371" lon="2.897328">
        <ele>566.531</ele>
        <time>2020-02-23T10:18:21Z</time>
      </trkpt>
      <trkpt lat="39.830403" lon="2.897311">
        <ele>566.824</ele>
        <time>2020-02-23T10:18:22Z</time>
      </trkpt>
      <trkpt lat="39.830435" lon="2.897297">
        <ele>567.008</ele>
        <time>2020-02-23T10:18:23Z</time>
      </trkpt>
      <trkpt lat="39.830467" lon="2.897284">
        <ele>567.364</ele>
        <time>2020-02-23T10:18:24Z</time>
      </trkpt>
      <trkpt lat="39.830499" lon="2.89727">
        <ele>567.634</ele>
        <time>2020-02-23T10:18:25Z</time>
      </trkpt>
      <trkpt lat="39.83053" lon="2.897243">
        <ele>567.979</ele>
        <time>2020-02-23T10:18:26Z</time>
      </trkpt>
      <trkpt lat="39.83056" lon="2.897216">
        <ele>568.391</ele>
        <time>2020-02-23T10:18:27Z</time>
      </trkpt>
      <trkpt lat="39.830591" lon="2.897189">
        <ele>568.682</ele>
        <time>2020-02-23T10:18:28Z</time>
      </trkpt>
      <trkpt lat="39.830621" lon="2.897162">
        <ele>569.045</ele>
        <time>2020-02-23T10:18:29Z</time>
      </trkpt>
      <trkpt lat="39.830654" lon="2.897142">
        <ele>569.322</ele>
        <time>2020-02-23T10:18:30Z</time>
      </trkpt>
      <trkpt lat="39.830679" lon="2.897129">
        <ele>569.648</ele>
        <time>2020-02-23T10:18:31Z</time>
      </trkpt>
      <trkpt lat="39.830712" lon="2.897118">
        <ele>570.461</ele>
        <time>2020-02-23T10:18:32Z</time>
      </trkpt>
      <trkpt lat="39.830743" lon="2.897116">
        <ele>570.721</ele>
        <time>2020-02-23T10:18:33Z</time>
      </trkpt>
      <trkpt lat="39.830773" lon="2.897126">
        <ele>570.913</ele>
        <time>2020-02-23T10:18:34Z</time>
      </trkpt>
      <trkpt lat="39.830773" lon="2.897126">
        <ele>570.908</ele>
        <time>2020-02-23T10:18:35Z</time>
      </trkpt>
      <trkpt lat="39.830804" lon="2.897156">
        <ele>571.291</ele>
        <time>2020-02-23T10:18:36Z</time>
      </trkpt>
      <trkpt lat="39.830834" lon="2.897186">
        <ele>571.461</ele>
        <time>2020-02-23T10:18:37Z</time>
      </trkpt>
      <trkpt lat="39.830865" lon="2.897216">
        <ele>571.726</ele>
        <time>2020-02-23T10:18:38Z</time>
      </trkpt>
      <trkpt lat="39.830877" lon="2.897259">
        <ele>571.938</ele>
        <time>2020-02-23T10:18:39Z</time>
      </trkpt>
      <trkpt lat="39.83089" lon="2.897302">
        <ele>572.129</ele>
        <time>2020-02-23T10:18:40Z</time>
      </trkpt>
      <trkpt lat="39.830902" lon="2.897345">
        <ele>572.372</ele>
        <time>2020-02-23T10:18:41Z</time>
      </trkpt>
      <trkpt lat="39.830902" lon="2.897392">
        <ele>572.519</ele>
        <time>2020-02-23T10:18:42Z</time>
      </trkpt>
      <trkpt lat="39.830901" lon="2.89744">
        <ele>572.795</ele>
        <time>2020-02-23T10:18:43Z</time>
      </trkpt>
      <trkpt lat="39.830901" lon="2.897487">
        <ele>572.892</ele>
        <time>2020-02-23T10:18:44Z</time>
      </trkpt>
      <trkpt lat="39.830891" lon="2.89755">
        <ele>573.173</ele>
        <time>2020-02-23T10:18:45Z</time>
      </trkpt>
      <trkpt lat="39.830882" lon="2.897613">
        <ele>573.32</ele>
        <time>2020-02-23T10:18:46Z</time>
      </trkpt>
      <trkpt lat="39.830872" lon="2.897676">
        <ele>573.508</ele>
        <time>2020-02-23T10:18:47Z</time>
      </trkpt>
      <trkpt lat="39.830856" lon="2.897738">
        <ele>573.834</ele>
        <time>2020-02-23T10:18:48Z</time>
      </trkpt>
      <trkpt lat="39.830849" lon="2.897758">
        <ele>573.854</ele>
        <time>2020-02-23T10:18:49Z</time>
      </trkpt>
      <trkpt lat="39.830837" lon="2.897801">
        <ele>574.059</ele>
        <time>2020-02-23T10:18:50Z</time>
      </trkpt>
      <trkpt lat="39.830826" lon="2.897844">
        <ele>574.251</ele>
        <time>2020-02-23T10:18:51Z</time>
      </trkpt>
      <trkpt lat="39.830818" lon="2.897886">
        <ele>574.352</ele>
        <time>2020-02-23T10:18:52Z</time>
      </trkpt>
      <trkpt lat="39.830805" lon="2.897931">
        <ele>574.495</ele>
        <time>2020-02-23T10:18:53Z</time>
      </trkpt>
      <trkpt lat="39.830792" lon="2.897976">
        <ele>574.572</ele>
        <time>2020-02-23T10:18:54Z</time>
      </trkpt>
      <trkpt lat="39.830783" lon="2.898016">
        <ele>574.768</ele>
        <time>2020-02-23T10:18:55Z</time>
      </trkpt>
      <trkpt lat="39.83077" lon="2.898056">
        <ele>574.856</ele>
        <time>2020-02-23T10:18:56Z</time>
      </trkpt>
      <trkpt lat="39.830761" lon="2.898094">
        <ele>574.959</ele>
        <time>2020-02-23T10:18:57Z</time>
      </trkpt>
      <trkpt lat="39.83075" lon="2.898137">
        <ele>575.014</ele>
        <time>2020-02-23T10:18:58Z</time>
      </trkpt>
      <trkpt lat="39.83073" lon="2.898188">
        <ele>575.108</ele>
        <time>2020-02-23T10:18:59Z</time>
      </trkpt>
      <trkpt lat="39.830713" lon="2.898234">
        <ele>575.29</ele>
        <time>2020-02-23T10:19:00Z</time>
      </trkpt>
      <trkpt lat="39.8307" lon="2.898276">
        <ele>575.31</ele>
        <time>2020-02-23T10:19:01Z</time>
      </trkpt>
      <trkpt lat="39.830694" lon="2.898324">
        <ele>575.435</ele>
        <time>2020-02-23T10:19:02Z</time>
      </trkpt>
      <trkpt lat="39.830685" lon="2.89837">
        <ele>575.577</ele>
        <time>2020-02-23T10:19:03Z</time>
      </trkpt>
      <trkpt lat="39.830685" lon="2.89837">
        <ele>575.588</ele>
        <time>2020-02-23T10:19:04Z</time>
      </trkpt>
      <trkpt lat="39.830664" lon="2.89848">
        <ele>575.731</ele>
        <time>2020-02-23T10:19:05Z</time>
      </trkpt>
      <trkpt lat="39.830659" lon="2.898502">
        <ele>575.838</ele>
        <time>2020-02-23T10:19:06Z</time>
      </trkpt>
      <trkpt lat="39.830654" lon="2.898545">
        <ele>575.924</ele>
        <time>2020-02-23T10:19:07Z</time>
      </trkpt>
      <trkpt lat="39.830648" lon="2.898589">
        <ele>576.015</ele>
        <time>2020-02-23T10:19:08Z</time>
      </trkpt>
      <trkpt lat="39.830633" lon="2.898636">
        <ele>576.165</ele>
        <time>2020-02-23T10:19:09Z</time>
      </trkpt>
      <trkpt lat="39.830617" lon="2.898686">
        <ele>576.111</ele>
        <time>2020-02-23T10:19:10Z</time>
      </trkpt>
      <trkpt lat="39.830617" lon="2.898686">
        <ele>576.108</ele>
        <time>2020-02-23T10:19:11Z</time>
      </trkpt>
      <trkpt lat="39.830605" lon="2.898729">
        <ele>576.296</ele>
        <time>2020-02-23T10:19:12Z</time>
      </trkpt>
      <trkpt lat="39.830592" lon="2.898773">
        <ele>576.266</ele>
        <time>2020-02-23T10:19:13Z</time>
      </trkpt>
      <trkpt lat="39.83058" lon="2.898816">
        <ele>576.231</ele>
        <time>2020-02-23T10:19:14Z</time>
      </trkpt>
      <trkpt lat="39.830568" lon="2.898859">
        <ele>576.343</ele>
        <time>2020-02-23T10:19:15Z</time>
      </trkpt>
      <trkpt lat="39.830555" lon="2.898903">
        <ele>576.394</ele>
        <time>2020-02-23T10:19:16Z</time>
      </trkpt>
      <trkpt lat="39.830543" lon="2.898946">
        <ele>576.327</ele>
        <time>2020-02-23T10:19:17Z</time>
      </trkpt>
      <trkpt lat="39.830539" lon="2.898989">
        <ele>576.354</ele>
        <time>2020-02-23T10:19:18Z</time>
      </trkpt>
      <trkpt lat="39.830534" lon="2.899033">
        <ele>576.36</ele>
        <time>2020-02-23T10:19:19Z</time>
      </trkpt>
      <trkpt lat="39.83053" lon="2.899076">
        <ele>576.319</ele>
        <time>2020-02-23T10:19:20Z</time>
      </trkpt>
      <trkpt lat="39.830525" lon="2.89918">
        <ele>576.309</ele>
        <time>2020-02-23T10:19:21Z</time>
      </trkpt>
      <trkpt lat="39.830522" lon="2.899201">
        <ele>576.319</ele>
        <time>2020-02-23T10:19:22Z</time>
      </trkpt>
      <trkpt lat="39.830522" lon="2.899201">
        <ele>576.308</ele>
        <time>2020-02-23T10:19:23Z</time>
      </trkpt>
      <trkpt lat="39.83052" lon="2.899245">
        <ele>576.356</ele>
        <time>2020-02-23T10:19:24Z</time>
      </trkpt>
      <trkpt lat="39.830518" lon="2.89929">
        <ele>576.916</ele>
        <time>2020-02-23T10:19:25Z</time>
      </trkpt>
      <trkpt lat="39.830516" lon="2.899334">
        <ele>577.431</ele>
        <time>2020-02-23T10:19:26Z</time>
      </trkpt>
      <trkpt lat="39.830518" lon="2.899379">
        <ele>578.013</ele>
        <time>2020-02-23T10:19:27Z</time>
      </trkpt>
      <trkpt lat="39.830519" lon="2.899423">
        <ele>578.564</ele>
        <time>2020-02-23T10:19:28Z</time>
      </trkpt>
      <trkpt lat="39.830521" lon="2.899468">
        <ele>579.077</ele>
        <time>2020-02-23T10:19:29Z</time>
      </trkpt>
      <trkpt lat="39.830536" lon="2.899492">
        <ele>579.334</ele>
        <time>2020-02-23T10:19:30Z</time>
      </trkpt>
      <trkpt lat="39.83055" lon="2.899517">
        <ele>579.75</ele>
        <time>2020-02-23T10:19:31Z</time>
      </trkpt>
      <trkpt lat="39.830565" lon="2.899541">
        <ele>580.077</ele>
        <time>2020-02-23T10:19:32Z</time>
      </trkpt>
      <trkpt lat="39.830579" lon="2.899566">
        <ele>580.361</ele>
        <time>2020-02-23T10:19:33Z</time>
      </trkpt>
      <trkpt lat="39.830607" lon="2.899551">
        <ele>580.727</ele>
        <time>2020-02-23T10:19:34Z</time>
      </trkpt>
      <trkpt lat="39.830635" lon="2.899535">
        <ele>581.108</ele>
        <time>2020-02-23T10:19:35Z</time>
      </trkpt>
      <trkpt lat="39.830663" lon="2.89952">
        <ele>581.552</ele>
        <time>2020-02-23T10:19:36Z</time>
      </trkpt>
      <trkpt lat="39.830691" lon="2.899504">
        <ele>581.972</ele>
        <time>2020-02-23T10:19:37Z</time>
      </trkpt>
      <trkpt lat="39.830723" lon="2.899484">
        <ele>582.817</ele>
        <time>2020-02-23T10:19:38Z</time>
      </trkpt>
      <trkpt lat="39.830756" lon="2.899463">
        <ele>582.979</ele>
        <time>2020-02-23T10:19:39Z</time>
      </trkpt>
      <trkpt lat="39.830788" lon="2.899443">
        <ele>583.17</ele>
        <time>2020-02-23T10:19:40Z</time>
      </trkpt>
      <trkpt lat="39.830821" lon="2.899425">
        <ele>583.283</ele>
        <time>2020-02-23T10:19:41Z</time>
      </trkpt>
      <trkpt lat="39.830854" lon="2.899408">
        <ele>583.43</ele>
        <time>2020-02-23T10:19:42Z</time>
      </trkpt>
      <trkpt lat="39.830887" lon="2.89939">
        <ele>583.556</ele>
        <time>2020-02-23T10:19:43Z</time>
      </trkpt>
      <trkpt lat="39.830923" lon="2.899379">
        <ele>583.748</ele>
        <time>2020-02-23T10:19:44Z</time>
      </trkpt>
      <trkpt lat="39.830959" lon="2.899368">
        <ele>583.961</ele>
        <time>2020-02-23T10:19:45Z</time>
      </trkpt>
      <trkpt lat="39.830995" lon="2.899357">
        <ele>584.117</ele>
        <time>2020-02-23T10:19:46Z</time>
      </trkpt>
      <trkpt lat="39.831027" lon="2.899364">
        <ele>584.208</ele>
        <time>2020-02-23T10:19:47Z</time>
      </trkpt>
      <trkpt lat="39.83106" lon="2.899372">
        <ele>584.549</ele>
        <time>2020-02-23T10:19:48Z</time>
      </trkpt>
      <trkpt lat="39.831092" lon="2.899379">
        <ele>584.749</ele>
        <time>2020-02-23T10:19:49Z</time>
      </trkpt>
      <trkpt lat="39.831101" lon="2.899411">
        <ele>584.974</ele>
        <time>2020-02-23T10:19:50Z</time>
      </trkpt>
      <trkpt lat="39.83111" lon="2.899442">
        <ele>585.116</ele>
        <time>2020-02-23T10:19:51Z</time>
      </trkpt>
      <trkpt lat="39.831119" lon="2.899474">
        <ele>585.437</ele>
        <time>2020-02-23T10:19:52Z</time>
      </trkpt>
      <trkpt lat="39.831128" lon="2.899506">
        <ele>585.65</ele>
        <time>2020-02-23T10:19:53Z</time>
      </trkpt>
      <trkpt lat="39.831141" lon="2.899537">
        <ele>586.087</ele>
        <time>2020-02-23T10:19:54Z</time>
      </trkpt>
      <trkpt lat="39.831155" lon="2.899567">
        <ele>586.343</ele>
        <time>2020-02-23T10:19:55Z</time>
      </trkpt>
      <trkpt lat="39.831168" lon="2.899598">
        <ele>586.769</ele>
        <time>2020-02-23T10:19:56Z</time>
      </trkpt>
      <trkpt lat="39.831181" lon="2.899629">
        <ele>587.104</ele>
        <time>2020-02-23T10:19:57Z</time>
      </trkpt>
      <trkpt lat="39.83119" lon="2.899648">
        <ele>587.324</ele>
        <time>2020-02-23T10:19:58Z</time>
      </trkpt>
      <trkpt lat="39.831199" lon="2.899667">
        <ele>587.508</ele>
        <time>2020-02-23T10:19:59Z</time>
      </trkpt>
      <trkpt lat="39.831208" lon="2.899686">
        <ele>587.881</ele>
        <time>2020-02-23T10:20:00Z</time>
      </trkpt>
      <trkpt lat="39.831216" lon="2.899705">
        <ele>588.151</ele>
        <time>2020-02-23T10:20:01Z</time>
      </trkpt>
      <trkpt lat="39.831225" lon="2.899724">
        <ele>588.436</ele>
        <time>2020-02-23T10:20:02Z</time>
      </trkpt>
      <trkpt lat="39.831234" lon="2.899743">
        <ele>588.738</ele>
        <time>2020-02-23T10:20:03Z</time>
      </trkpt>
      <trkpt lat="39.831254" lon="2.899753">
        <ele>589.039</ele>
        <time>2020-02-23T10:20:04Z</time>
      </trkpt>
      <trkpt lat="39.831274" lon="2.899763">
        <ele>589.412</ele>
        <time>2020-02-23T10:20:05Z</time>
      </trkpt>
      <trkpt lat="39.831294" lon="2.899772">
        <ele>589.819</ele>
        <time>2020-02-23T10:20:06Z</time>
      </trkpt>
      <trkpt lat="39.831314" lon="2.899782">
        <ele>590.125</ele>
        <time>2020-02-23T10:20:07Z</time>
      </trkpt>
      <trkpt lat="39.831334" lon="2.899792">
        <ele>590.553</ele>
        <time>2020-02-23T10:20:08Z</time>
      </trkpt>
      <trkpt lat="39.831357" lon="2.899793">
        <ele>591.004</ele>
        <time>2020-02-23T10:20:09Z</time>
      </trkpt>
      <trkpt lat="39.831381" lon="2.899795">
        <ele>591.414</ele>
        <time>2020-02-23T10:20:10Z</time>
      </trkpt>
      <trkpt lat="39.831404" lon="2.899796">
        <ele>591.808</ele>
        <time>2020-02-23T10:20:11Z</time>
      </trkpt>
      <trkpt lat="39.831427" lon="2.899798">
        <ele>592.25</ele>
        <time>2020-02-23T10:20:12Z</time>
      </trkpt>
      <trkpt lat="39.831429" lon="2.899815">
        <ele>598.74</ele>
        <time>2020-02-23T10:20:13Z</time>
      </trkpt>
      <trkpt lat="39.83143" lon="2.899832">
        <ele>599.025</ele>
        <time>2020-02-23T10:20:14Z</time>
      </trkpt>
      <trkpt lat="39.831432" lon="2.899849">
        <ele>599.317</ele>
        <time>2020-02-23T10:20:15Z</time>
      </trkpt>
      <trkpt lat="39.831434" lon="2.899866">
        <ele>599.688</ele>
        <time>2020-02-23T10:20:16Z</time>
      </trkpt>
      <trkpt lat="39.831436" lon="2.899883">
        <ele>599.971</ele>
        <time>2020-02-23T10:20:17Z</time>
      </trkpt>
      <trkpt lat="39.831437" lon="2.8999">
        <ele>600.248</ele>
        <time>2020-02-23T10:20:18Z</time>
      </trkpt>
      <trkpt lat="39.831439" lon="2.899917">
        <ele>600.554</ele>
        <time>2020-02-23T10:20:19Z</time>
      </trkpt>
      <trkpt lat="39.831436" lon="2.899942">
        <ele>600.875</ele>
        <time>2020-02-23T10:20:20Z</time>
      </trkpt>
      <trkpt lat="39.831433" lon="2.899967">
        <ele>601.228</ele>
        <time>2020-02-23T10:20:21Z</time>
      </trkpt>
      <trkpt lat="39.831431" lon="2.899993">
        <ele>601.62</ele>
        <time>2020-02-23T10:20:22Z</time>
      </trkpt>
      <trkpt lat="39.831428" lon="2.900018">
        <ele>601.908</ele>
        <time>2020-02-23T10:20:23Z</time>
      </trkpt>
      <trkpt lat="39.831425" lon="2.900043">
        <ele>602.242</ele>
        <time>2020-02-23T10:20:24Z</time>
      </trkpt>
      <trkpt lat="39.831417" lon="2.900064">
        <ele>602.522</ele>
        <time>2020-02-23T10:20:25Z</time>
      </trkpt>
      <trkpt lat="39.831409" lon="2.900086">
        <ele>602.877</ele>
        <time>2020-02-23T10:20:26Z</time>
      </trkpt>
      <trkpt lat="39.8314" lon="2.900107">
        <ele>603.089</ele>
        <time>2020-02-23T10:20:27Z</time>
      </trkpt>
      <trkpt lat="39.831392" lon="2.900129">
        <ele>603.35</ele>
        <time>2020-02-23T10:20:28Z</time>
      </trkpt>
      <trkpt lat="39.831384" lon="2.90015">
        <ele>603.693</ele>
        <time>2020-02-23T10:20:29Z</time>
      </trkpt>
      <trkpt lat="39.831378" lon="2.900168">
        <ele>603.81</ele>
        <time>2020-02-23T10:20:30Z</time>
      </trkpt>
      <trkpt lat="39.831372" lon="2.900187">
        <ele>604.036</ele>
        <time>2020-02-23T10:20:31Z</time>
      </trkpt>
      <trkpt lat="39.831366" lon="2.900205">
        <ele>604.295</ele>
        <time>2020-02-23T10:20:32Z</time>
      </trkpt>
      <trkpt lat="39.831359" lon="2.900223">
        <ele>604.549</ele>
        <time>2020-02-23T10:20:33Z</time>
      </trkpt>
      <trkpt lat="39.831353" lon="2.900242">
        <ele>604.723</ele>
        <time>2020-02-23T10:20:34Z</time>
      </trkpt>
      <trkpt lat="39.831347" lon="2.90026">
        <ele>604.908</ele>
        <time>2020-02-23T10:20:35Z</time>
      </trkpt>
      <trkpt lat="39.831347" lon="2.900282">
        <ele>605.224</ele>
        <time>2020-02-23T10:20:36Z</time>
      </trkpt>
      <trkpt lat="39.831347" lon="2.900305">
        <ele>605.514</ele>
        <time>2020-02-23T10:20:37Z</time>
      </trkpt>
      <trkpt lat="39.831347" lon="2.900328">
        <ele>605.739</ele>
        <time>2020-02-23T10:20:38Z</time>
      </trkpt>
      <trkpt lat="39.831347" lon="2.90035">
        <ele>606.031</ele>
        <time>2020-02-23T10:20:39Z</time>
      </trkpt>
      <trkpt lat="39.831347" lon="2.900373">
        <ele>606.352</ele>
        <time>2020-02-23T10:20:40Z</time>
      </trkpt>
      <trkpt lat="39.831347" lon="2.900395">
        <ele>606.675</ele>
        <time>2020-02-23T10:20:41Z</time>
      </trkpt>
      <trkpt lat="39.831349" lon="2.900417">
        <ele>606.962</ele>
        <time>2020-02-23T10:20:42Z</time>
      </trkpt>
      <trkpt lat="39.831351" lon="2.900439">
        <ele>607.298</ele>
        <time>2020-02-23T10:20:43Z</time>
      </trkpt>
      <trkpt lat="39.831353" lon="2.90046">
        <ele>607.581</ele>
        <time>2020-02-23T10:20:44Z</time>
      </trkpt>
      <trkpt lat="39.831355" lon="2.900482">
        <ele>607.961</ele>
        <time>2020-02-23T10:20:45Z</time>
      </trkpt>
      <trkpt lat="39.831357" lon="2.900504">
        <ele>608.317</ele>
        <time>2020-02-23T10:20:46Z</time>
      </trkpt>
      <trkpt lat="39.831359" lon="2.900526">
        <ele>608.708</ele>
        <time>2020-02-23T10:20:47Z</time>
      </trkpt>
      <trkpt lat="39.831367" lon="2.900544">
        <ele>609.133</ele>
        <time>2020-02-23T10:20:48Z</time>
      </trkpt>
      <trkpt lat="39.831376" lon="2.900562">
        <ele>609.483</ele>
        <time>2020-02-23T10:20:49Z</time>
      </trkpt>
      <trkpt lat="39.831384" lon="2.90058">
        <ele>609.828</ele>
        <time>2020-02-23T10:20:50Z</time>
      </trkpt>
      <trkpt lat="39.831392" lon="2.900598">
        <ele>610.29</ele>
        <time>2020-02-23T10:20:51Z</time>
      </trkpt>
      <trkpt lat="39.831401" lon="2.900616">
        <ele>610.511</ele>
        <time>2020-02-23T10:20:52Z</time>
      </trkpt>
      <trkpt lat="39.831409" lon="2.900634">
        <ele>610.924</ele>
        <time>2020-02-23T10:20:53Z</time>
      </trkpt>
      <trkpt lat="39.831415" lon="2.900657">
        <ele>611.321</ele>
        <time>2020-02-23T10:20:54Z</time>
      </trkpt>
      <trkpt lat="39.831421" lon="2.900681">
        <ele>611.737</ele>
        <time>2020-02-23T10:20:55Z</time>
      </trkpt>
      <trkpt lat="39.831427" lon="2.900704">
        <ele>612.078</ele>
        <time>2020-02-23T10:20:56Z</time>
      </trkpt>
      <trkpt lat="39.831432" lon="2.900727">
        <ele>612.433</ele>
        <time>2020-02-23T10:20:57Z</time>
      </trkpt>
      <trkpt lat="39.831438" lon="2.900751">
        <ele>612.726</ele>
        <time>2020-02-23T10:20:58Z</time>
      </trkpt>
      <trkpt lat="39.831444" lon="2.900774">
        <ele>613.008</ele>
        <time>2020-02-23T10:20:59Z</time>
      </trkpt>
      <trkpt lat="39.831447" lon="2.900806">
        <ele>613.382</ele>
        <time>2020-02-23T10:21:00Z</time>
      </trkpt>
      <trkpt lat="39.83145" lon="2.900839">
        <ele>613.632</ele>
        <time>2020-02-23T10:21:01Z</time>
      </trkpt>
      <trkpt lat="39.831452" lon="2.900871">
        <ele>613.867</ele>
        <time>2020-02-23T10:21:02Z</time>
      </trkpt>
      <trkpt lat="39.831455" lon="2.900904">
        <ele>614.179</ele>
        <time>2020-02-23T10:21:03Z</time>
      </trkpt>
      <trkpt lat="39.831459" lon="2.900943">
        <ele>614.31</ele>
        <time>2020-02-23T10:21:04Z</time>
      </trkpt>
      <trkpt lat="39.831464" lon="2.900983">
        <ele>614.633</ele>
        <time>2020-02-23T10:21:05Z</time>
      </trkpt>
      <trkpt lat="39.831468" lon="2.901022">
        <ele>614.81</ele>
        <time>2020-02-23T10:21:06Z</time>
      </trkpt>
      <trkpt lat="39.831465" lon="2.901055">
        <ele>615.076</ele>
        <time>2020-02-23T10:21:07Z</time>
      </trkpt>
      <trkpt lat="39.831462" lon="2.901088">
        <ele>615.233</ele>
        <time>2020-02-23T10:21:08Z</time>
      </trkpt>
      <trkpt lat="39.831458" lon="2.901121">
        <ele>615.423</ele>
        <time>2020-02-23T10:21:09Z</time>
      </trkpt>
      <trkpt lat="39.831455" lon="2.901154">
        <ele>615.615</ele>
        <time>2020-02-23T10:21:10Z</time>
      </trkpt>
      <trkpt lat="39.831462" lon="2.901176">
        <ele>615.708</ele>
        <time>2020-02-23T10:21:11Z</time>
      </trkpt>
      <trkpt lat="39.83147" lon="2.901198">
        <ele>615.918</ele>
        <time>2020-02-23T10:21:12Z</time>
      </trkpt>
      <trkpt lat="39.831477" lon="2.901219">
        <ele>616.078</ele>
        <time>2020-02-23T10:21:13Z</time>
      </trkpt>
      <trkpt lat="39.831484" lon="2.901241">
        <ele>616.263</ele>
        <time>2020-02-23T10:21:14Z</time>
      </trkpt>
      <trkpt lat="39.831492" lon="2.901263">
        <ele>616.365</ele>
        <time>2020-02-23T10:21:15Z</time>
      </trkpt>
      <trkpt lat="39.831499" lon="2.901285">
        <ele>616.416</ele>
        <time>2020-02-23T10:21:16Z</time>
      </trkpt>
      <trkpt lat="39.831502" lon="2.901315">
        <ele>616.539</ele>
        <time>2020-02-23T10:21:17Z</time>
      </trkpt>
      <trkpt lat="39.831505" lon="2.901345">
        <ele>616.696</ele>
        <time>2020-02-23T10:21:18Z</time>
      </trkpt>
      <trkpt lat="39.831508" lon="2.901375">
        <ele>616.712</ele>
        <time>2020-02-23T10:21:19Z</time>
      </trkpt>
      <trkpt lat="39.831511" lon="2.901405">
        <ele>616.713</ele>
        <time>2020-02-23T10:21:20Z</time>
      </trkpt>
      <trkpt lat="39.831483" lon="2.90143">
        <ele>616.743</ele>
        <time>2020-02-23T10:21:21Z</time>
      </trkpt>
      <trkpt lat="39.831455" lon="2.901455">
        <ele>616.607</ele>
        <time>2020-02-23T10:21:22Z</time>
      </trkpt>
      <trkpt lat="39.831427" lon="2.90148">
        <ele>616.508</ele>
        <time>2020-02-23T10:21:23Z</time>
      </trkpt>
      <trkpt lat="39.831391" lon="2.901497">
        <ele>616.316</ele>
        <time>2020-02-23T10:21:24Z</time>
      </trkpt>
      <trkpt lat="39.831355" lon="2.901513">
        <ele>616.296</ele>
        <time>2020-02-23T10:21:25Z</time>
      </trkpt>
      <trkpt lat="39.831319" lon="2.90153">
        <ele>615.911</ele>
        <time>2020-02-23T10:21:26Z</time>
      </trkpt>
      <trkpt lat="39.831291" lon="2.901548">
        <ele>615.793</ele>
        <time>2020-02-23T10:21:27Z</time>
      </trkpt>
      <trkpt lat="39.831262" lon="2.901565">
        <ele>615.574</ele>
        <time>2020-02-23T10:21:28Z</time>
      </trkpt>
      <trkpt lat="39.831234" lon="2.901583">
        <ele>615.317</ele>
        <time>2020-02-23T10:21:29Z</time>
      </trkpt>
      <trkpt lat="39.83121" lon="2.901606">
        <ele>615.154</ele>
        <time>2020-02-23T10:21:30Z</time>
      </trkpt>
      <trkpt lat="39.831186" lon="2.901628">
        <ele>614.83</ele>
        <time>2020-02-23T10:21:31Z</time>
      </trkpt>
      <trkpt lat="39.831161" lon="2.901651">
        <ele>614.634</ele>
        <time>2020-02-23T10:21:32Z</time>
      </trkpt>
      <trkpt lat="39.831137" lon="2.901673">
        <ele>614.455</ele>
        <time>2020-02-23T10:21:33Z</time>
      </trkpt>
      <trkpt lat="39.831126" lon="2.901697">
        <ele>614.31</ele>
        <time>2020-02-23T10:21:34Z</time>
      </trkpt>
      <trkpt lat="39.831116" lon="2.901721">
        <ele>614.208</ele>
        <time>2020-02-23T10:21:35Z</time>
      </trkpt>
      <trkpt lat="39.831105" lon="2.901744">
        <ele>614.178</ele>
        <time>2020-02-23T10:21:36Z</time>
      </trkpt>
      <trkpt lat="39.831095" lon="2.901768">
        <ele>614.018</ele>
        <time>2020-02-23T10:21:37Z</time>
      </trkpt>
      <trkpt lat="39.831084" lon="2.901792">
        <ele>613.983</ele>
        <time>2020-02-23T10:21:38Z</time>
      </trkpt>
      <trkpt lat="39.831059" lon="2.901819">
        <ele>613.885</ele>
        <time>2020-02-23T10:21:39Z</time>
      </trkpt>
      <trkpt lat="39.831033" lon="2.901846">
        <ele>613.766</ele>
        <time>2020-02-23T10:21:40Z</time>
      </trkpt>
      <trkpt lat="39.831008" lon="2.901873">
        <ele>613.629</ele>
        <time>2020-02-23T10:21:41Z</time>
      </trkpt>
      <trkpt lat="39.830978" lon="2.901895">
        <ele>613.596</ele>
        <time>2020-02-23T10:21:42Z</time>
      </trkpt>
      <trkpt lat="39.830949" lon="2.901916">
        <ele>613.362</ele>
        <time>2020-02-23T10:21:43Z</time>
      </trkpt>
      <trkpt lat="39.830919" lon="2.901938">
        <ele>613.093</ele>
        <time>2020-02-23T10:21:44Z</time>
      </trkpt>
      <trkpt lat="39.830884" lon="2.901953">
        <ele>612.565</ele>
        <time>2020-02-23T10:21:45Z</time>
      </trkpt>
      <trkpt lat="39.830849" lon="2.901967">
        <ele>612.021</ele>
        <time>2020-02-23T10:21:46Z</time>
      </trkpt>
      <trkpt lat="39.830814" lon="2.901982">
        <ele>611.408</ele>
        <time>2020-02-23T10:21:47Z</time>
      </trkpt>
      <trkpt lat="39.830792" lon="2.902012">
        <ele>611.024</ele>
        <time>2020-02-23T10:21:48Z</time>
      </trkpt>
      <trkpt lat="39.830769" lon="2.902042">
        <ele>610.464</ele>
        <time>2020-02-23T10:21:49Z</time>
      </trkpt>
      <trkpt lat="39.830747" lon="2.902072">
        <ele>609.959</ele>
        <time>2020-02-23T10:21:50Z</time>
      </trkpt>
      <trkpt lat="39.83073" lon="2.902113">
        <ele>609.481</ele>
        <time>2020-02-23T10:21:51Z</time>
      </trkpt>
      <trkpt lat="39.830713" lon="2.902154">
        <ele>608.942</ele>
        <time>2020-02-23T10:21:52Z</time>
      </trkpt>
      <trkpt lat="39.830696" lon="2.902195">
        <ele>608.635</ele>
        <time>2020-02-23T10:21:53Z</time>
      </trkpt>
      <trkpt lat="39.830664" lon="2.902209">
        <ele>608.372</ele>
        <time>2020-02-23T10:21:54Z</time>
      </trkpt>
      <trkpt lat="39.830632" lon="2.902224">
        <ele>608.038</ele>
        <time>2020-02-23T10:21:55Z</time>
      </trkpt>
      <trkpt lat="39.8306" lon="2.902238">
        <ele>607.733</ele>
        <time>2020-02-23T10:21:56Z</time>
      </trkpt>
      <trkpt lat="39.83057" lon="2.902251">
        <ele>607.423</ele>
        <time>2020-02-23T10:21:57Z</time>
      </trkpt>
      <trkpt lat="39.83054" lon="2.902265">
        <ele>607.115</ele>
        <time>2020-02-23T10:21:58Z</time>
      </trkpt>
      <trkpt lat="39.83051" lon="2.902278">
        <ele>606.808</ele>
        <time>2020-02-23T10:21:59Z</time>
      </trkpt>
      <trkpt lat="39.830456" lon="2.902275">
        <ele>606.488</ele>
        <time>2020-02-23T10:22:00Z</time>
      </trkpt>
      <trkpt lat="39.830403" lon="2.902273">
        <ele>606.058</ele>
        <time>2020-02-23T10:22:01Z</time>
      </trkpt>
      <trkpt lat="39.830349" lon="2.90227">
        <ele>605.643</ele>
        <time>2020-02-23T10:22:02Z</time>
      </trkpt>
      <trkpt lat="39.830303" lon="2.90227">
        <ele>605.215</ele>
        <time>2020-02-23T10:22:03Z</time>
      </trkpt>
      <trkpt lat="39.830303" lon="2.90227">
        <ele>605.246</ele>
        <time>2020-02-23T10:22:04Z</time>
      </trkpt>
      <trkpt lat="39.830264" lon="2.902273">
        <ele>604.929</ele>
        <time>2020-02-23T10:22:05Z</time>
      </trkpt>
      <trkpt lat="39.830226" lon="2.902277">
        <ele>604.696</ele>
        <time>2020-02-23T10:22:06Z</time>
      </trkpt>
      <trkpt lat="39.830187" lon="2.90228">
        <ele>604.442</ele>
        <time>2020-02-23T10:22:07Z</time>
      </trkpt>
      <trkpt lat="39.830156" lon="2.902298">
        <ele>604.229</ele>
        <time>2020-02-23T10:22:08Z</time>
      </trkpt>
      <trkpt lat="39.830124" lon="2.902317">
        <ele>603.9</ele>
        <time>2020-02-23T10:22:09Z</time>
      </trkpt>
      <trkpt lat="39.830093" lon="2.902335">
        <ele>603.72</ele>
        <time>2020-02-23T10:22:10Z</time>
      </trkpt>
      <trkpt lat="39.830055" lon="2.902345">
        <ele>603.408</ele>
        <time>2020-02-23T10:22:11Z</time>
      </trkpt>
      <trkpt lat="39.830017" lon="2.902355">
        <ele>603.167</ele>
        <time>2020-02-23T10:22:12Z</time>
      </trkpt>
      <trkpt lat="39.829979" lon="2.902365">
        <ele>602.867</ele>
        <time>2020-02-23T10:22:13Z</time>
      </trkpt>
      <trkpt lat="39.829939" lon="2.902365">
        <ele>602.592</ele>
        <time>2020-02-23T10:22:14Z</time>
      </trkpt>
      <trkpt lat="39.829899" lon="2.902364">
        <ele>602.224</ele>
        <time>2020-02-23T10:22:15Z</time>
      </trkpt>
      <trkpt lat="39.829859" lon="2.902364">
        <ele>601.955</ele>
        <time>2020-02-23T10:22:16Z</time>
      </trkpt>
      <trkpt lat="39.82982" lon="2.902367">
        <ele>601.688</ele>
        <time>2020-02-23T10:22:17Z</time>
      </trkpt>
      <trkpt lat="39.82978" lon="2.902371">
        <ele>601.235</ele>
        <time>2020-02-23T10:22:18Z</time>
      </trkpt>
      <trkpt lat="39.829741" lon="2.902374">
        <ele>600.971</ele>
        <time>2020-02-23T10:22:19Z</time>
      </trkpt>
      <trkpt lat="39.829706" lon="2.902369">
        <ele>600.662</ele>
        <time>2020-02-23T10:22:20Z</time>
      </trkpt>
      <trkpt lat="39.82967" lon="2.902363">
        <ele>600.483</ele>
        <time>2020-02-23T10:22:21Z</time>
      </trkpt>
      <trkpt lat="39.829635" lon="2.902358">
        <ele>600.211</ele>
        <time>2020-02-23T10:22:22Z</time>
      </trkpt>
      <trkpt lat="39.829593" lon="2.90235">
        <ele>599.908</ele>
        <time>2020-02-23T10:22:23Z</time>
      </trkpt>
      <trkpt lat="39.829551" lon="2.902341">
        <ele>599.661</ele>
        <time>2020-02-23T10:22:24Z</time>
      </trkpt>
      <trkpt lat="39.829509" lon="2.902333">
        <ele>599.331</ele>
        <time>2020-02-23T10:22:25Z</time>
      </trkpt>
      <trkpt lat="39.829471" lon="2.902318">
        <ele>599.046</ele>
        <time>2020-02-23T10:22:26Z</time>
      </trkpt>
      <trkpt lat="39.829434" lon="2.902303">
        <ele>598.818</ele>
        <time>2020-02-23T10:22:27Z</time>
      </trkpt>
      <trkpt lat="39.829396" lon="2.902288">
        <ele>598.689</ele>
        <time>2020-02-23T10:22:28Z</time>
      </trkpt>
      <trkpt lat="39.82936" lon="2.902295">
        <ele>598.442</ele>
        <time>2020-02-23T10:22:29Z</time>
      </trkpt>
      <trkpt lat="39.829324" lon="2.902301">
        <ele>598.379</ele>
        <time>2020-02-23T10:22:30Z</time>
      </trkpt>
      <trkpt lat="39.829288" lon="2.902308">
        <ele>598.145</ele>
        <time>2020-02-23T10:22:31Z</time>
      </trkpt>
      <trkpt lat="39.829261" lon="2.902305">
        <ele>598.077</ele>
        <time>2020-02-23T10:22:32Z</time>
      </trkpt>
      <trkpt lat="39.829235" lon="2.902301">
        <ele>598.161</ele>
        <time>2020-02-23T10:22:33Z</time>
      </trkpt>
      <trkpt lat="39.829208" lon="2.902298">
        <ele>598.227</ele>
        <time>2020-02-23T10:22:34Z</time>
      </trkpt>
      <trkpt lat="39.829181" lon="2.902295">
        <ele>598.308</ele>
        <time>2020-02-23T10:22:35Z</time>
      </trkpt>
      <trkpt lat="39.829151" lon="2.902288">
        <ele>598.412</ele>
        <time>2020-02-23T10:22:36Z</time>
      </trkpt>
      <trkpt lat="39.829121" lon="2.90228">
        <ele>598.682</ele>
        <time>2020-02-23T10:22:37Z</time>
      </trkpt>
      <trkpt lat="39.829091" lon="2.902273">
        <ele>598.777</ele>
        <time>2020-02-23T10:22:38Z</time>
      </trkpt>
      <trkpt lat="39.829065" lon="2.902275">
        <ele>598.839</ele>
        <time>2020-02-23T10:22:39Z</time>
      </trkpt>
      <trkpt lat="39.829039" lon="2.902278">
        <ele>598.94</ele>
        <time>2020-02-23T10:22:40Z</time>
      </trkpt>
      <trkpt lat="39.829013" lon="2.90228">
        <ele>599.253</ele>
        <time>2020-02-23T10:22:41Z</time>
      </trkpt>
      <trkpt lat="39.828987" lon="2.902282">
        <ele>599.45</ele>
        <time>2020-02-23T10:22:42Z</time>
      </trkpt>
      <trkpt lat="39.828967" lon="2.902284">
        <ele>599.566</ele>
        <time>2020-02-23T10:22:43Z</time>
      </trkpt>
      <trkpt lat="39.828946" lon="2.902285">
        <ele>599.847</ele>
        <time>2020-02-23T10:22:44Z</time>
      </trkpt>
      <trkpt lat="39.828926" lon="2.902287">
        <ele>600.129</ele>
        <time>2020-02-23T10:22:45Z</time>
      </trkpt>
      <trkpt lat="39.828905" lon="2.902288">
        <ele>600.421</ele>
        <time>2020-02-23T10:22:46Z</time>
      </trkpt>
      <trkpt lat="39.828885" lon="2.90229">
        <ele>600.708</ele>
        <time>2020-02-23T10:22:47Z</time>
      </trkpt>
      <trkpt lat="39.82887" lon="2.902296">
        <ele>600.929</ele>
        <time>2020-02-23T10:22:48Z</time>
      </trkpt>
      <trkpt lat="39.828855" lon="2.902302">
        <ele>601.279</ele>
        <time>2020-02-23T10:22:49Z</time>
      </trkpt>
      <trkpt lat="39.828841" lon="2.902308">
        <ele>601.424</ele>
        <time>2020-02-23T10:22:50Z</time>
      </trkpt>
      <trkpt lat="39.828826" lon="2.902313">
        <ele>601.726</ele>
        <time>2020-02-23T10:22:51Z</time>
      </trkpt>
      <trkpt lat="39.828811" lon="2.902319">
        <ele>602.017</ele>
        <time>2020-02-23T10:22:52Z</time>
      </trkpt>
      <trkpt lat="39.828796" lon="2.902325">
        <ele>602.38</ele>
        <time>2020-02-23T10:22:53Z</time>
      </trkpt>
      <trkpt lat="39.828779" lon="2.902338">
        <ele>602.757</ele>
        <time>2020-02-23T10:22:54Z</time>
      </trkpt>
      <trkpt lat="39.828763" lon="2.902351">
        <ele>603.053</ele>
        <time>2020-02-23T10:22:55Z</time>
      </trkpt>
      <trkpt lat="39.828746" lon="2.902363">
        <ele>603.322</ele>
        <time>2020-02-23T10:22:56Z</time>
      </trkpt>
      <trkpt lat="39.82873" lon="2.902376">
        <ele>603.662</ele>
        <time>2020-02-23T10:22:57Z</time>
      </trkpt>
      <trkpt lat="39.828713" lon="2.902389">
        <ele>603.908</ele>
        <time>2020-02-23T10:22:58Z</time>
      </trkpt>
      <trkpt lat="39.828679" lon="2.902393">
        <ele>604.508</ele>
        <time>2020-02-23T10:22:59Z</time>
      </trkpt>
      <trkpt lat="39.828645" lon="2.902397">
        <ele>605.067</ele>
        <time>2020-02-23T10:23:00Z</time>
      </trkpt>
      <trkpt lat="39.828611" lon="2.902401">
        <ele>605.647</ele>
        <time>2020-02-23T10:23:01Z</time>
      </trkpt>
      <trkpt lat="39.828579" lon="2.902406">
        <ele>606.072</ele>
        <time>2020-02-23T10:23:02Z</time>
      </trkpt>
      <trkpt lat="39.828546" lon="2.902412">
        <ele>606.324</ele>
        <time>2020-02-23T10:23:03Z</time>
      </trkpt>
      <trkpt lat="39.828514" lon="2.902417">
        <ele>606.715</ele>
        <time>2020-02-23T10:23:04Z</time>
      </trkpt>
      <trkpt lat="39.828472" lon="2.902409">
        <ele>607.258</ele>
        <time>2020-02-23T10:23:05Z</time>
      </trkpt>
      <trkpt lat="39.82843" lon="2.902401">
        <ele>607.535</ele>
        <time>2020-02-23T10:23:06Z</time>
      </trkpt>
      <trkpt lat="39.828388" lon="2.902393">
        <ele>607.831</ele>
        <time>2020-02-23T10:23:07Z</time>
      </trkpt>
      <trkpt lat="39.828353" lon="2.90241">
        <ele>608.183</ele>
        <time>2020-02-23T10:23:08Z</time>
      </trkpt>
      <trkpt lat="39.828319" lon="2.902427">
        <ele>608.425</ele>
        <time>2020-02-23T10:23:09Z</time>
      </trkpt>
      <trkpt lat="39.828284" lon="2.902444">
        <ele>608.717</ele>
        <time>2020-02-23T10:23:10Z</time>
      </trkpt>
      <trkpt lat="39.828261" lon="2.902463">
        <ele>609.008</ele>
        <time>2020-02-23T10:23:11Z</time>
      </trkpt>
      <trkpt lat="39.828238" lon="2.902483">
        <ele>609.383</ele>
        <time>2020-02-23T10:23:12Z</time>
      </trkpt>
      <trkpt lat="39.828215" lon="2.902502">
        <ele>609.623</ele>
        <time>2020-02-23T10:23:13Z</time>
      </trkpt>
      <trkpt lat="39.828192" lon="2.902521">
        <ele>610.038</ele>
        <time>2020-02-23T10:23:14Z</time>
      </trkpt>
      <trkpt lat="39.828176" lon="2.902514">
        <ele>610.24</ele>
        <time>2020-02-23T10:23:15Z</time>
      </trkpt>
      <trkpt lat="39.828159" lon="2.902508">
        <ele>610.451</ele>
        <time>2020-02-23T10:23:16Z</time>
      </trkpt>
      <trkpt lat="39.828143" lon="2.902501">
        <ele>610.764</ele>
        <time>2020-02-23T10:23:17Z</time>
      </trkpt>
      <trkpt lat="39.828127" lon="2.902494">
        <ele>610.961</ele>
        <time>2020-02-23T10:23:18Z</time>
      </trkpt>
      <trkpt lat="39.82811" lon="2.902488">
        <ele>611.247</ele>
        <time>2020-02-23T10:23:19Z</time>
      </trkpt>
      <trkpt lat="39.828094" lon="2.902481">
        <ele>611.537</ele>
        <time>2020-02-23T10:23:20Z</time>
      </trkpt>
      <trkpt lat="39.828073" lon="2.902454">
        <ele>612.049</ele>
        <time>2020-02-23T10:23:21Z</time>
      </trkpt>
      <trkpt lat="39.828051" lon="2.902426">
        <ele>612.413</ele>
        <time>2020-02-23T10:23:22Z</time>
      </trkpt>
      <trkpt lat="39.82803" lon="2.902399">
        <ele>612.908</ele>
        <time>2020-02-23T10:23:23Z</time>
      </trkpt>
      <trkpt lat="39.827998" lon="2.902383">
        <ele>613.338</ele>
        <time>2020-02-23T10:23:24Z</time>
      </trkpt>
      <trkpt lat="39.827966" lon="2.902366">
        <ele>613.628</ele>
        <time>2020-02-23T10:23:25Z</time>
      </trkpt>
      <trkpt lat="39.827934" lon="2.90235">
        <ele>613.853</ele>
        <time>2020-02-23T10:23:26Z</time>
      </trkpt>
      <trkpt lat="39.827907" lon="2.902342">
        <ele>614.175</ele>
        <time>2020-02-23T10:23:27Z</time>
      </trkpt>
      <trkpt lat="39.827881" lon="2.902335">
        <ele>614.336</ele>
        <time>2020-02-23T10:23:28Z</time>
      </trkpt>
      <trkpt lat="39.827854" lon="2.902327">
        <ele>614.669</ele>
        <time>2020-02-23T10:23:29Z</time>
      </trkpt>
      <trkpt lat="39.827827" lon="2.90232">
        <ele>614.846</ele>
        <time>2020-02-23T10:23:30Z</time>
      </trkpt>
      <trkpt lat="39.827805" lon="2.902336">
        <ele>615.092</ele>
        <time>2020-02-23T10:23:31Z</time>
      </trkpt>
      <trkpt lat="39.827784" lon="2.902352">
        <ele>615.329</ele>
        <time>2020-02-23T10:23:32Z</time>
      </trkpt>
      <trkpt lat="39.827762" lon="2.902369">
        <ele>615.6</ele>
        <time>2020-02-23T10:23:33Z</time>
      </trkpt>
      <trkpt lat="39.827741" lon="2.902385">
        <ele>615.92</ele>
        <time>2020-02-23T10:23:34Z</time>
      </trkpt>
      <trkpt lat="39.827719" lon="2.902401">
        <ele>616.308</ele>
        <time>2020-02-23T10:23:35Z</time>
      </trkpt>
      <trkpt lat="39.827688" lon="2.90241">
        <ele>616.757</ele>
        <time>2020-02-23T10:23:36Z</time>
      </trkpt>
      <trkpt lat="39.827656" lon="2.902418">
        <ele>617.097</ele>
        <time>2020-02-23T10:23:37Z</time>
      </trkpt>
      <trkpt lat="39.827625" lon="2.902427">
        <ele>617.582</ele>
        <time>2020-02-23T10:23:38Z</time>
      </trkpt>
      <trkpt lat="39.827609" lon="2.902441">
        <ele>617.744</ele>
        <time>2020-02-23T10:23:39Z</time>
      </trkpt>
      <trkpt lat="39.827593" lon="2.902455">
        <ele>618.055</ele>
        <time>2020-02-23T10:23:40Z</time>
      </trkpt>
      <trkpt lat="39.827577" lon="2.902468">
        <ele>618.268</ele>
        <time>2020-02-23T10:23:41Z</time>
      </trkpt>
      <trkpt lat="39.827561" lon="2.902482">
        <ele>618.585</ele>
        <time>2020-02-23T10:23:42Z</time>
      </trkpt>
      <trkpt lat="39.827545" lon="2.902496">
        <ele>618.831</ele>
        <time>2020-02-23T10:23:43Z</time>
      </trkpt>
      <trkpt lat="39.827537" lon="2.902518">
        <ele>619.147</ele>
        <time>2020-02-23T10:23:44Z</time>
      </trkpt>
      <trkpt lat="39.82753" lon="2.90254">
        <ele>619.429</ele>
        <time>2020-02-23T10:23:45Z</time>
      </trkpt>
      <trkpt lat="39.827522" lon="2.902561">
        <ele>619.621</ele>
        <time>2020-02-23T10:23:46Z</time>
      </trkpt>
      <trkpt lat="39.827515" lon="2.902583">
        <ele>619.908</ele>
        <time>2020-02-23T10:23:47Z</time>
      </trkpt>
      <trkpt lat="39.827507" lon="2.902605">
        <ele>620.149</ele>
        <time>2020-02-23T10:23:48Z</time>
      </trkpt>
      <trkpt lat="39.827502" lon="2.902634">
        <ele>620.489</ele>
        <time>2020-02-23T10:23:49Z</time>
      </trkpt>
      <trkpt lat="39.827496" lon="2.902663">
        <ele>620.884</ele>
        <time>2020-02-23T10:23:50Z</time>
      </trkpt>
      <trkpt lat="39.827491" lon="2.902692">
        <ele>621.116</ele>
        <time>2020-02-23T10:23:51Z</time>
      </trkpt>
      <trkpt lat="39.827485" lon="2.902721">
        <ele>621.577</ele>
        <time>2020-02-23T10:23:52Z</time>
      </trkpt>
      <trkpt lat="39.827476" lon="2.902748">
        <ele>621.85</ele>
        <time>2020-02-23T10:23:53Z</time>
      </trkpt>
      <trkpt lat="39.827466" lon="2.902775">
        <ele>622.227</ele>
        <time>2020-02-23T10:23:54Z</time>
      </trkpt>
      <trkpt lat="39.827457" lon="2.902801">
        <ele>622.553</ele>
        <time>2020-02-23T10:23:55Z</time>
      </trkpt>
      <trkpt lat="39.827447" lon="2.902828">
        <ele>622.986</ele>
        <time>2020-02-23T10:23:56Z</time>
      </trkpt>
      <trkpt lat="39.827429" lon="2.902841">
        <ele>623.26</ele>
        <time>2020-02-23T10:23:57Z</time>
      </trkpt>
      <trkpt lat="39.82741" lon="2.902854">
        <ele>623.626</ele>
        <time>2020-02-23T10:23:58Z</time>
      </trkpt>
      <trkpt lat="39.827392" lon="2.902867">
        <ele>624.008</ele>
        <time>2020-02-23T10:23:59Z</time>
      </trkpt>
      <trkpt lat="39.827373" lon="2.90288">
        <ele>624.593</ele>
        <time>2020-02-23T10:24:00Z</time>
      </trkpt>
      <trkpt lat="39.827355" lon="2.902893">
        <ele>624.923</ele>
        <time>2020-02-23T10:24:01Z</time>
      </trkpt>
      <trkpt lat="39.827334" lon="2.902898">
        <ele>625.488</ele>
        <time>2020-02-23T10:24:02Z</time>
      </trkpt>
      <trkpt lat="39.827314" lon="2.902903">
        <ele>625.86</ele>
        <time>2020-02-23T10:24:03Z</time>
      </trkpt>
      <trkpt lat="39.827293" lon="2.902907">
        <ele>626.221</ele>
        <time>2020-02-23T10:24:04Z</time>
      </trkpt>
      <trkpt lat="39.827273" lon="2.902912">
        <ele>626.764</ele>
        <time>2020-02-23T10:24:05Z</time>
      </trkpt>
      <trkpt lat="39.827252" lon="2.902917">
        <ele>627.181</ele>
        <time>2020-02-23T10:24:06Z</time>
      </trkpt>
      <trkpt lat="39.827234" lon="2.902928">
        <ele>627.557</ele>
        <time>2020-02-23T10:24:07Z</time>
      </trkpt>
      <trkpt lat="39.827216" lon="2.902938">
        <ele>627.989</ele>
        <time>2020-02-23T10:24:08Z</time>
      </trkpt>
      <trkpt lat="39.827197" lon="2.902949">
        <ele>628.406</ele>
        <time>2020-02-23T10:24:09Z</time>
      </trkpt>
      <trkpt lat="39.827179" lon="2.902959">
        <ele>628.826</ele>
        <time>2020-02-23T10:24:10Z</time>
      </trkpt>
      <trkpt lat="39.827161" lon="2.90297">
        <ele>629.208</ele>
        <time>2020-02-23T10:24:11Z</time>
      </trkpt>
      <trkpt lat="39.827138" lon="2.902981">
        <ele>629.763</ele>
        <time>2020-02-23T10:24:12Z</time>
      </trkpt>
      <trkpt lat="39.827114" lon="2.902992">
        <ele>630.263</ele>
        <time>2020-02-23T10:24:13Z</time>
      </trkpt>
      <trkpt lat="39.827091" lon="2.903003">
        <ele>630.878</ele>
        <time>2020-02-23T10:24:14Z</time>
      </trkpt>
      <trkpt lat="39.827067" lon="2.903014">
        <ele>631.47</ele>
        <time>2020-02-23T10:24:15Z</time>
      </trkpt>
      <trkpt lat="39.827042" lon="2.903028">
        <ele>632.041</ele>
        <time>2020-02-23T10:24:16Z</time>
      </trkpt>
      <trkpt lat="39.827017" lon="2.903042">
        <ele>632.584</ele>
        <time>2020-02-23T10:24:17Z</time>
      </trkpt>
      <trkpt lat="39.826992" lon="2.903056">
        <ele>632.951</ele>
        <time>2020-02-23T10:24:18Z</time>
      </trkpt>
      <trkpt lat="39.826967" lon="2.90307">
        <ele>633.437</ele>
        <time>2020-02-23T10:24:19Z</time>
      </trkpt>
      <trkpt lat="39.826936" lon="2.903089">
        <ele>633.944</ele>
        <time>2020-02-23T10:24:20Z</time>
      </trkpt>
      <trkpt lat="39.826906" lon="2.903108">
        <ele>634.405</ele>
        <time>2020-02-23T10:24:21Z</time>
      </trkpt>
      <trkpt lat="39.826875" lon="2.903127">
        <ele>634.815</ele>
        <time>2020-02-23T10:24:22Z</time>
      </trkpt>
      <trkpt lat="39.826847" lon="2.903147">
        <ele>635.208</ele>
        <time>2020-02-23T10:24:23Z</time>
      </trkpt>
      <trkpt lat="39.826818" lon="2.903166">
        <ele>635.729</ele>
        <time>2020-02-23T10:24:24Z</time>
      </trkpt>
      <trkpt lat="39.82679" lon="2.903186">
        <ele>636.289</ele>
        <time>2020-02-23T10:24:25Z</time>
      </trkpt>
      <trkpt lat="39.826767" lon="2.90322">
        <ele>636.754</ele>
        <time>2020-02-23T10:24:26Z</time>
      </trkpt>
      <trkpt lat="39.826744" lon="2.903253">
        <ele>637.036</ele>
        <time>2020-02-23T10:24:27Z</time>
      </trkpt>
      <trkpt lat="39.826721" lon="2.903287">
        <ele>637.477</ele>
        <time>2020-02-23T10:24:28Z</time>
      </trkpt>
      <trkpt lat="39.826706" lon="2.903308">
        <ele>637.64</ele>
        <time>2020-02-23T10:24:29Z</time>
      </trkpt>
      <trkpt lat="39.826692" lon="2.903328">
        <ele>637.777</ele>
        <time>2020-02-23T10:24:30Z</time>
      </trkpt>
      <trkpt lat="39.826677" lon="2.903349">
        <ele>637.943</ele>
        <time>2020-02-23T10:24:31Z</time>
      </trkpt>
      <trkpt lat="39.826663" lon="2.903369">
        <ele>638.094</ele>
        <time>2020-02-23T10:24:32Z</time>
      </trkpt>
      <trkpt lat="39.826648" lon="2.90339">
        <ele>638.257</ele>
        <time>2020-02-23T10:24:33Z</time>
      </trkpt>
      <trkpt lat="39.826628" lon="2.903404">
        <ele>638.322</ele>
        <time>2020-02-23T10:24:34Z</time>
      </trkpt>
      <trkpt lat="39.826609" lon="2.903418">
        <ele>638.508</ele>
        <time>2020-02-23T10:24:35Z</time>
      </trkpt>
      <trkpt lat="39.826589" lon="2.903432">
        <ele>638.674</ele>
        <time>2020-02-23T10:24:36Z</time>
      </trkpt>
      <trkpt lat="39.826569" lon="2.903446">
        <ele>638.894</ele>
        <time>2020-02-23T10:24:37Z</time>
      </trkpt>
      <trkpt lat="39.826543" lon="2.90347">
        <ele>639.299</ele>
        <time>2020-02-23T10:24:38Z</time>
      </trkpt>
      <trkpt lat="39.826517" lon="2.903493">
        <ele>639.571</ele>
        <time>2020-02-23T10:24:39Z</time>
      </trkpt>
      <trkpt lat="39.826491" lon="2.903517">
        <ele>639.782</ele>
        <time>2020-02-23T10:24:40Z</time>
      </trkpt>
      <trkpt lat="39.826476" lon="2.903561">
        <ele>640.045</ele>
        <time>2020-02-23T10:24:41Z</time>
      </trkpt>
      <trkpt lat="39.826462" lon="2.903605">
        <ele>640.352</ele>
        <time>2020-02-23T10:24:42Z</time>
      </trkpt>
      <trkpt lat="39.826447" lon="2.903649">
        <ele>640.518</ele>
        <time>2020-02-23T10:24:43Z</time>
      </trkpt>
      <trkpt lat="39.826427" lon="2.903692">
        <ele>640.819</ele>
        <time>2020-02-23T10:24:44Z</time>
      </trkpt>
      <trkpt lat="39.826408" lon="2.903734">
        <ele>641.009</ele>
        <time>2020-02-23T10:24:45Z</time>
      </trkpt>
      <trkpt lat="39.826388" lon="2.903777">
        <ele>641.219</ele>
        <time>2020-02-23T10:24:46Z</time>
      </trkpt>
      <trkpt lat="39.826372" lon="2.903818">
        <ele>641.408</ele>
        <time>2020-02-23T10:24:47Z</time>
      </trkpt>
      <trkpt lat="39.826356" lon="2.903858">
        <ele>641.636</ele>
        <time>2020-02-23T10:24:48Z</time>
      </trkpt>
      <trkpt lat="39.82634" lon="2.903899">
        <ele>641.846</ele>
        <time>2020-02-23T10:24:49Z</time>
      </trkpt>
      <trkpt lat="39.826324" lon="2.903931">
        <ele>642.031</ele>
        <time>2020-02-23T10:24:50Z</time>
      </trkpt>
      <trkpt lat="39.826309" lon="2.903963">
        <ele>642.233</ele>
        <time>2020-02-23T10:24:51Z</time>
      </trkpt>
      <trkpt lat="39.826293" lon="2.903994">
        <ele>642.454</ele>
        <time>2020-02-23T10:24:52Z</time>
      </trkpt>
      <trkpt lat="39.826277" lon="2.904026">
        <ele>642.637</ele>
        <time>2020-02-23T10:24:53Z</time>
      </trkpt>
      <trkpt lat="39.826261" lon="2.904049">
        <ele>642.754</ele>
        <time>2020-02-23T10:24:54Z</time>
      </trkpt>
      <trkpt lat="39.826244" lon="2.904073">
        <ele>642.93</ele>
        <time>2020-02-23T10:24:55Z</time>
      </trkpt>
      <trkpt lat="39.826228" lon="2.904096">
        <ele>643.037</ele>
        <time>2020-02-23T10:24:56Z</time>
      </trkpt>
      <trkpt lat="39.826211" lon="2.904119">
        <ele>643.249</ele>
        <time>2020-02-23T10:24:57Z</time>
      </trkpt>
      <trkpt lat="39.826184" lon="2.904122">
        <ele>643.413</ele>
        <time>2020-02-23T10:24:58Z</time>
      </trkpt>
      <trkpt lat="39.826156" lon="2.904125">
        <ele>643.608</ele>
        <time>2020-02-23T10:24:59Z</time>
      </trkpt>
      <trkpt lat="39.826129" lon="2.904128">
        <ele>643.968</ele>
        <time>2020-02-23T10:25:00Z</time>
      </trkpt>
      <trkpt lat="39.826101" lon="2.904131">
        <ele>644.288</ele>
        <time>2020-02-23T10:25:01Z</time>
      </trkpt>
      <trkpt lat="39.826073" lon="2.90414">
        <ele>644.593</ele>
        <time>2020-02-23T10:25:02Z</time>
      </trkpt>
      <trkpt lat="39.826045" lon="2.904149">
        <ele>644.855</ele>
        <time>2020-02-23T10:25:03Z</time>
      </trkpt>
      <trkpt lat="39.826016" lon="2.904157">
        <ele>645.036</ele>
        <time>2020-02-23T10:25:04Z</time>
      </trkpt>
      <trkpt lat="39.825988" lon="2.904166">
        <ele>645.329</ele>
        <time>2020-02-23T10:25:05Z</time>
      </trkpt>
      <trkpt lat="39.825956" lon="2.904175">
        <ele>645.676</ele>
        <time>2020-02-23T10:25:06Z</time>
      </trkpt>
      <trkpt lat="39.825925" lon="2.904183">
        <ele>646.082</ele>
        <time>2020-02-23T10:25:07Z</time>
      </trkpt>
      <trkpt lat="39.825893" lon="2.904192">
        <ele>646.466</ele>
        <time>2020-02-23T10:25:08Z</time>
      </trkpt>
      <trkpt lat="39.825856" lon="2.904209">
        <ele>646.729</ele>
        <time>2020-02-23T10:25:09Z</time>
      </trkpt>
      <trkpt lat="39.82582" lon="2.904226">
        <ele>647.021</ele>
        <time>2020-02-23T10:25:10Z</time>
      </trkpt>
      <trkpt lat="39.825783" lon="2.904243">
        <ele>647.308</ele>
        <time>2020-02-23T10:25:11Z</time>
      </trkpt>
      <trkpt lat="39.825753" lon="2.904253">
        <ele>647.671</ele>
        <time>2020-02-23T10:25:12Z</time>
      </trkpt>
      <trkpt lat="39.825722" lon="2.904264">
        <ele>647.861</ele>
        <time>2020-02-23T10:25:13Z</time>
      </trkpt>
      <trkpt lat="39.825692" lon="2.904274">
        <ele>648.116</ele>
        <time>2020-02-23T10:25:14Z</time>
      </trkpt>
      <trkpt lat="39.825661" lon="2.904289">
        <ele>648.438</ele>
        <time>2020-02-23T10:25:15Z</time>
      </trkpt>
      <trkpt lat="39.825631" lon="2.904303">
        <ele>648.529</ele>
        <time>2020-02-23T10:25:16Z</time>
      </trkpt>
      <trkpt lat="39.8256" lon="2.904318">
        <ele>648.632</ele>
        <time>2020-02-23T10:25:17Z</time>
      </trkpt>
      <trkpt lat="39.825576" lon="2.904319">
        <ele>648.769</ele>
        <time>2020-02-23T10:25:18Z</time>
      </trkpt>
      <trkpt lat="39.825552" lon="2.90432">
        <ele>648.825</ele>
        <time>2020-02-23T10:25:19Z</time>
      </trkpt>
      <trkpt lat="39.825528" lon="2.90432">
        <ele>648.958</ele>
        <time>2020-02-23T10:25:20Z</time>
      </trkpt>
      <trkpt lat="39.825504" lon="2.904321">
        <ele>649.052</ele>
        <time>2020-02-23T10:25:21Z</time>
      </trkpt>
      <trkpt lat="39.825485" lon="2.904331">
        <ele>649.117</ele>
        <time>2020-02-23T10:25:22Z</time>
      </trkpt>
      <trkpt lat="39.825466" lon="2.904342">
        <ele>649.208</ele>
        <time>2020-02-23T10:25:23Z</time>
      </trkpt>
      <trkpt lat="39.825446" lon="2.904352">
        <ele>649.39</ele>
        <time>2020-02-23T10:25:24Z</time>
      </trkpt>
      <trkpt lat="39.825427" lon="2.904363">
        <ele>649.41</ele>
        <time>2020-02-23T10:25:25Z</time>
      </trkpt>
      <trkpt lat="39.825408" lon="2.904373">
        <ele>649.425</ele>
        <time>2020-02-23T10:25:26Z</time>
      </trkpt>
      <trkpt lat="39.82539" lon="2.904385">
        <ele>649.587</ele>
        <time>2020-02-23T10:25:27Z</time>
      </trkpt>
      <trkpt lat="39.825372" lon="2.904396">
        <ele>649.618</ele>
        <time>2020-02-23T10:25:28Z</time>
      </trkpt>
      <trkpt lat="39.825354" lon="2.904408">
        <ele>649.741</ele>
        <time>2020-02-23T10:25:29Z</time>
      </trkpt>
      <trkpt lat="39.825336" lon="2.904419">
        <ele>649.798</ele>
        <time>2020-02-23T10:25:30Z</time>
      </trkpt>
      <trkpt lat="39.825318" lon="2.904431">
        <ele>649.864</ele>
        <time>2020-02-23T10:25:31Z</time>
      </trkpt>
      <trkpt lat="39.825304" lon="2.904445">
        <ele>649.966</ele>
        <time>2020-02-23T10:25:32Z</time>
      </trkpt>
      <trkpt lat="39.82529" lon="2.904458">
        <ele>650.029</ele>
        <time>2020-02-23T10:25:33Z</time>
      </trkpt>
      <trkpt lat="39.825276" lon="2.904472">
        <ele>650.221</ele>
        <time>2020-02-23T10:25:34Z</time>
      </trkpt>
      <trkpt lat="39.825261" lon="2.904486">
        <ele>650.308</ele>
        <time>2020-02-23T10:25:35Z</time>
      </trkpt>
      <trkpt lat="39.825247" lon="2.904499">
        <ele>650.521</ele>
        <time>2020-02-23T10:25:36Z</time>
      </trkpt>
      <trkpt lat="39.825233" lon="2.904513">
        <ele>650.761</ele>
        <time>2020-02-23T10:25:37Z</time>
      </trkpt>
      <trkpt lat="39.825214" lon="2.904519">
        <ele>650.966</ele>
        <time>2020-02-23T10:25:38Z</time>
      </trkpt>
      <trkpt lat="39.825195" lon="2.904525">
        <ele>651.158</ele>
        <time>2020-02-23T10:25:39Z</time>
      </trkpt>
      <trkpt lat="39.825177" lon="2.904532">
        <ele>651.479</ele>
        <time>2020-02-23T10:25:40Z</time>
      </trkpt>
      <trkpt lat="39.825158" lon="2.904538">
        <ele>651.652</ele>
        <time>2020-02-23T10:25:41Z</time>
      </trkpt>
      <trkpt lat="39.825139" lon="2.904544">
        <ele>651.969</ele>
        <time>2020-02-23T10:25:42Z</time>
      </trkpt>
      <trkpt lat="39.825124" lon="2.904555">
        <ele>652.275</ele>
        <time>2020-02-23T10:25:43Z</time>
      </trkpt>
      <trkpt lat="39.825109" lon="2.904566">
        <ele>652.676</ele>
        <time>2020-02-23T10:25:44Z</time>
      </trkpt>
      <trkpt lat="39.825094" lon="2.904577">
        <ele>652.99</ele>
        <time>2020-02-23T10:25:45Z</time>
      </trkpt>
      <trkpt lat="39.825078" lon="2.904587">
        <ele>653.219</ele>
        <time>2020-02-23T10:25:46Z</time>
      </trkpt>
      <trkpt lat="39.825063" lon="2.904598">
        <ele>653.508</ele>
        <time>2020-02-23T10:25:47Z</time>
      </trkpt>
      <trkpt lat="39.825048" lon="2.904609">
        <ele>653.882</ele>
        <time>2020-02-23T10:25:48Z</time>
      </trkpt>
      <trkpt lat="39.825034" lon="2.90461">
        <ele>654.142</ele>
        <time>2020-02-23T10:25:49Z</time>
      </trkpt>
      <trkpt lat="39.82502" lon="2.904611">
        <ele>654.467</ele>
        <time>2020-02-23T10:25:50Z</time>
      </trkpt>
      <trkpt lat="39.825006" lon="2.904612">
        <ele>654.799</ele>
        <time>2020-02-23T10:25:51Z</time>
      </trkpt>
      <trkpt lat="39.824992" lon="2.904613">
        <ele>655.02</ele>
        <time>2020-02-23T10:25:52Z</time>
      </trkpt>
      <trkpt lat="39.824978" lon="2.904614">
        <ele>655.323</ele>
        <time>2020-02-23T10:25:53Z</time>
      </trkpt>
      <trkpt lat="39.824964" lon="2.904615">
        <ele>655.65</ele>
        <time>2020-02-23T10:25:54Z</time>
      </trkpt>
      <trkpt lat="39.82495" lon="2.904616">
        <ele>655.996</ele>
        <time>2020-02-23T10:25:55Z</time>
      </trkpt>
      <trkpt lat="39.824928" lon="2.904614">
        <ele>656.382</ele>
        <time>2020-02-23T10:25:56Z</time>
      </trkpt>
      <trkpt lat="39.824907" lon="2.904612">
        <ele>656.843</ele>
        <time>2020-02-23T10:25:57Z</time>
      </trkpt>
      <trkpt lat="39.824885" lon="2.904609">
        <ele>657.217</ele>
        <time>2020-02-23T10:25:58Z</time>
      </trkpt>
      <trkpt lat="39.824864" lon="2.904607">
        <ele>657.608</ele>
        <time>2020-02-23T10:25:59Z</time>
      </trkpt>
      <trkpt lat="39.824842" lon="2.904605">
        <ele>658.083</ele>
        <time>2020-02-23T10:26:00Z</time>
      </trkpt>
      <trkpt lat="39.824824" lon="2.904603">
        <ele>658.543</ele>
        <time>2020-02-23T10:26:01Z</time>
      </trkpt>
      <trkpt lat="39.824805" lon="2.904601">
        <ele>659.048</ele>
        <time>2020-02-23T10:26:02Z</time>
      </trkpt>
      <trkpt lat="39.824787" lon="2.904598">
        <ele>659.44</ele>
        <time>2020-02-23T10:26:03Z</time>
      </trkpt>
      <trkpt lat="39.824769" lon="2.904596">
        <ele>659.871</ele>
        <time>2020-02-23T10:26:04Z</time>
      </trkpt>
      <trkpt lat="39.82475" lon="2.904594">
        <ele>660.334</ele>
        <time>2020-02-23T10:26:05Z</time>
      </trkpt>
      <trkpt lat="39.824732" lon="2.904592">
        <ele>660.981</ele>
        <time>2020-02-23T10:26:06Z</time>
      </trkpt>
      <trkpt lat="39.824705" lon="2.904575">
        <ele>661.827</ele>
        <time>2020-02-23T10:26:07Z</time>
      </trkpt>
      <trkpt lat="39.824678" lon="2.904558">
        <ele>662.723</ele>
        <time>2020-02-23T10:26:08Z</time>
      </trkpt>
      <trkpt lat="39.824651" lon="2.904542">
        <ele>663.683</ele>
        <time>2020-02-23T10:26:09Z</time>
      </trkpt>
      <trkpt lat="39.824624" lon="2.904525">
        <ele>664.511</ele>
        <time>2020-02-23T10:26:10Z</time>
      </trkpt>
      <trkpt lat="39.824603" lon="2.904518">
        <ele>665.108</ele>
        <time>2020-02-23T10:26:11Z</time>
      </trkpt>
      <trkpt lat="39.824582" lon="2.90451">
        <ele>665.747</ele>
        <time>2020-02-23T10:26:12Z</time>
      </trkpt>
      <trkpt lat="39.824562" lon="2.904503">
        <ele>666.327</ele>
        <time>2020-02-23T10:26:13Z</time>
      </trkpt>
      <trkpt lat="39.824541" lon="2.904495">
        <ele>666.992</ele>
        <time>2020-02-23T10:26:14Z</time>
      </trkpt>
      <trkpt lat="39.82452" lon="2.904488">
        <ele>667.614</ele>
        <time>2020-02-23T10:26:15Z</time>
      </trkpt>
      <trkpt lat="39.824494" lon="2.90448">
        <ele>668.445</ele>
        <time>2020-02-23T10:26:16Z</time>
      </trkpt>
      <trkpt lat="39.824469" lon="2.904472">
        <ele>669.258</ele>
        <time>2020-02-23T10:26:17Z</time>
      </trkpt>
      <trkpt lat="39.824443" lon="2.904464">
        <ele>670.095</ele>
        <time>2020-02-23T10:26:18Z</time>
      </trkpt>
      <trkpt lat="39.824417" lon="2.904456">
        <ele>670.881</ele>
        <time>2020-02-23T10:26:19Z</time>
      </trkpt>
      <trkpt lat="39.824393" lon="2.904453">
        <ele>671.627</ele>
        <time>2020-02-23T10:26:20Z</time>
      </trkpt>
      <trkpt lat="39.824369" lon="2.904449">
        <ele>672.568</ele>
        <time>2020-02-23T10:26:21Z</time>
      </trkpt>
      <trkpt lat="39.824344" lon="2.904446">
        <ele>673.214</ele>
        <time>2020-02-23T10:26:22Z</time>
      </trkpt>
      <trkpt lat="39.82432" lon="2.904443">
        <ele>673.908</ele>
        <time>2020-02-23T10:26:23Z</time>
      </trkpt>
      <trkpt lat="39.824293" lon="2.90444">
        <ele>674.777</ele>
        <time>2020-02-23T10:26:24Z</time>
      </trkpt>
      <trkpt lat="39.824265" lon="2.904437">
        <ele>675.527</ele>
        <time>2020-02-23T10:26:25Z</time>
      </trkpt>
      <trkpt lat="39.824238" lon="2.904435">
        <ele>676.252</ele>
        <time>2020-02-23T10:26:26Z</time>
      </trkpt>
      <trkpt lat="39.82421" lon="2.904432">
        <ele>677.084</ele>
        <time>2020-02-23T10:26:27Z</time>
      </trkpt>
      <trkpt lat="39.824178" lon="2.904441">
        <ele>677.915</ele>
        <time>2020-02-23T10:26:28Z</time>
      </trkpt>
      <trkpt lat="39.824145" lon="2.904449">
        <ele>678.838</ele>
        <time>2020-02-23T10:26:29Z</time>
      </trkpt>
      <trkpt lat="39.824113" lon="2.904458">
        <ele>679.415</ele>
        <time>2020-02-23T10:26:30Z</time>
      </trkpt>
      <trkpt lat="39.824085" lon="2.904456">
        <ele>679.961</ele>
        <time>2020-02-23T10:26:31Z</time>
      </trkpt>
      <trkpt lat="39.824057" lon="2.904454">
        <ele>680.414</ele>
        <time>2020-02-23T10:26:32Z</time>
      </trkpt>
      <trkpt lat="39.824028" lon="2.904452">
        <ele>681.054</ele>
        <time>2020-02-23T10:26:33Z</time>
      </trkpt>
      <trkpt lat="39.824" lon="2.90445">
        <ele>681.609</ele>
        <time>2020-02-23T10:26:34Z</time>
      </trkpt>
      <trkpt lat="39.823975" lon="2.90444">
        <ele>682.008</ele>
        <time>2020-02-23T10:26:35Z</time>
      </trkpt>
      <trkpt lat="39.823951" lon="2.90443">
        <ele>682.446</ele>
        <time>2020-02-23T10:26:36Z</time>
      </trkpt>
      <trkpt lat="39.823926" lon="2.904421">
        <ele>682.766</ele>
        <time>2020-02-23T10:26:37Z</time>
      </trkpt>
      <trkpt lat="39.823901" lon="2.904411">
        <ele>683.171</ele>
        <time>2020-02-23T10:26:38Z</time>
      </trkpt>
      <trkpt lat="39.823876" lon="2.9044">
        <ele>683.443</ele>
        <time>2020-02-23T10:26:39Z</time>
      </trkpt>
      <trkpt lat="39.823851" lon="2.904389">
        <ele>683.774</ele>
        <time>2020-02-23T10:26:40Z</time>
      </trkpt>
      <trkpt lat="39.823826" lon="2.904379">
        <ele>684.167</ele>
        <time>2020-02-23T10:26:41Z</time>
      </trkpt>
      <trkpt lat="39.823801" lon="2.904368">
        <ele>684.494</ele>
        <time>2020-02-23T10:26:42Z</time>
      </trkpt>
      <trkpt lat="39.823778" lon="2.904346">
        <ele>684.87</ele>
        <time>2020-02-23T10:26:43Z</time>
      </trkpt>
      <trkpt lat="39.823756" lon="2.904323">
        <ele>685.197</ele>
        <time>2020-02-23T10:26:44Z</time>
      </trkpt>
      <trkpt lat="39.823733" lon="2.904301">
        <ele>685.523</ele>
        <time>2020-02-23T10:26:45Z</time>
      </trkpt>
      <trkpt lat="39.82371" lon="2.904279">
        <ele>685.925</ele>
        <time>2020-02-23T10:26:46Z</time>
      </trkpt>
      <trkpt lat="39.823689" lon="2.904263">
        <ele>686.208</ele>
        <time>2020-02-23T10:26:47Z</time>
      </trkpt>
      <trkpt lat="39.823668" lon="2.904247">
        <ele>686.564</ele>
        <time>2020-02-23T10:26:48Z</time>
      </trkpt>
      <trkpt lat="39.823646" lon="2.904232">
        <ele>691.094</ele>
        <time>2020-02-23T10:26:49Z</time>
      </trkpt>
      <trkpt lat="39.823625" lon="2.904216">
        <ele>691.079</ele>
        <time>2020-02-23T10:26:50Z</time>
      </trkpt>
      <trkpt lat="39.82362" lon="2.90423">
        <ele>691.031</ele>
        <time>2020-02-23T10:26:51Z</time>
      </trkpt>
      <trkpt lat="39.823616" lon="2.904245">
        <ele>691.072</ele>
        <time>2020-02-23T10:26:52Z</time>
      </trkpt>
      <trkpt lat="39.823611" lon="2.904259">
        <ele>691.095</ele>
        <time>2020-02-23T10:26:53Z</time>
      </trkpt>
      <trkpt lat="39.823607" lon="2.904273">
        <ele>691.062</ele>
        <time>2020-02-23T10:26:54Z</time>
      </trkpt>
      <trkpt lat="39.823602" lon="2.904287">
        <ele>691.038</ele>
        <time>2020-02-23T10:26:55Z</time>
      </trkpt>
      <trkpt lat="39.823597" lon="2.904302">
        <ele>691.085</ele>
        <time>2020-02-23T10:26:56Z</time>
      </trkpt>
      <trkpt lat="39.823593" lon="2.904316">
        <ele>691.089</ele>
        <time>2020-02-23T10:26:57Z</time>
      </trkpt>
      <trkpt lat="39.823588" lon="2.90433">
        <ele>691.017</ele>
        <time>2020-02-23T10:26:58Z</time>
      </trkpt>
      <trkpt lat="39.823589" lon="2.904361">
        <ele>692.808</ele>
        <time>2020-02-23T10:26:59Z</time>
      </trkpt>
      <trkpt lat="39.823591" lon="2.904392">
        <ele>693.053</ele>
        <time>2020-02-23T10:27:00Z</time>
      </trkpt>
      <trkpt lat="39.823592" lon="2.904424">
        <ele>693.283</ele>
        <time>2020-02-23T10:27:01Z</time>
      </trkpt>
      <trkpt lat="39.823593" lon="2.904455">
        <ele>693.488</ele>
        <time>2020-02-23T10:27:02Z</time>
      </trkpt>
      <trkpt lat="39.8236" lon="2.904481">
        <ele>693.66</ele>
        <time>2020-02-23T10:27:03Z</time>
      </trkpt>
      <trkpt lat="39.823608" lon="2.904507">
        <ele>693.811</ele>
        <time>2020-02-23T10:27:04Z</time>
      </trkpt>
      <trkpt lat="39.823615" lon="2.904533">
        <ele>694.024</ele>
        <time>2020-02-23T10:27:05Z</time>
      </trkpt>
      <trkpt lat="39.823623" lon="2.904559">
        <ele>694.251</ele>
        <time>2020-02-23T10:27:06Z</time>
      </trkpt>
      <trkpt lat="39.82363" lon="2.904585">
        <ele>694.487</ele>
        <time>2020-02-23T10:27:07Z</time>
      </trkpt>
      <trkpt lat="39.823648" lon="2.904622">
        <ele>694.734</ele>
        <time>2020-02-23T10:27:08Z</time>
      </trkpt>
      <trkpt lat="39.823666" lon="2.904658">
        <ele>695.055</ele>
        <time>2020-02-23T10:27:09Z</time>
      </trkpt>
      <trkpt lat="39.823684" lon="2.904695">
        <ele>695.31</ele>
        <time>2020-02-23T10:27:10Z</time>
      </trkpt>
      <trkpt lat="39.823708" lon="2.904738">
        <ele>695.708</ele>
        <time>2020-02-23T10:27:11Z</time>
      </trkpt>
      <trkpt lat="39.823733" lon="2.90478">
        <ele>696.118</ele>
        <time>2020-02-23T10:27:12Z</time>
      </trkpt>
      <trkpt lat="39.823757" lon="2.904823">
        <ele>696.448</ele>
        <time>2020-02-23T10:27:13Z</time>
      </trkpt>
      <trkpt lat="39.823775" lon="2.904856">
        <ele>696.733</ele>
        <time>2020-02-23T10:27:14Z</time>
      </trkpt>
      <trkpt lat="39.823794" lon="2.904889">
        <ele>696.955</ele>
        <time>2020-02-23T10:27:15Z</time>
      </trkpt>
      <trkpt lat="39.823812" lon="2.904922">
        <ele>697.136</ele>
        <time>2020-02-23T10:27:16Z</time>
      </trkpt>
      <trkpt lat="39.823829" lon="2.904951">
        <ele>697.399</ele>
        <time>2020-02-23T10:27:17Z</time>
      </trkpt>
      <trkpt lat="39.823847" lon="2.904979">
        <ele>697.516</ele>
        <time>2020-02-23T10:27:18Z</time>
      </trkpt>
      <trkpt lat="39.823864" lon="2.905008">
        <ele>697.782</ele>
        <time>2020-02-23T10:27:19Z</time>
      </trkpt>
      <trkpt lat="39.823881" lon="2.905037">
        <ele>697.984</ele>
        <time>2020-02-23T10:27:20Z</time>
      </trkpt>
      <trkpt lat="39.823916" lon="2.905089">
        <ele>698.107</ele>
        <time>2020-02-23T10:27:21Z</time>
      </trkpt>
      <trkpt lat="39.823952" lon="2.90514">
        <ele>698.317</ele>
        <time>2020-02-23T10:27:22Z</time>
      </trkpt>
      <trkpt lat="39.823987" lon="2.905192">
        <ele>698.508</ele>
        <time>2020-02-23T10:27:23Z</time>
      </trkpt>
      <trkpt lat="39.82402" lon="2.905244">
        <ele>698.663</ele>
        <time>2020-02-23T10:27:24Z</time>
      </trkpt>
      <trkpt lat="39.82402" lon="2.905244">
        <ele>698.623</ele>
        <time>2020-02-23T10:27:25Z</time>
      </trkpt>
      <trkpt lat="39.824055" lon="2.905306">
        <ele>698.738</ele>
        <time>2020-02-23T10:27:26Z</time>
      </trkpt>
      <trkpt lat="39.824089" lon="2.905369">
        <ele>698.73</ele>
        <time>2020-02-23T10:27:27Z</time>
      </trkpt>
      <trkpt lat="39.824124" lon="2.905431">
        <ele>698.751</ele>
        <time>2020-02-23T10:27:28Z</time>
      </trkpt>
      <trkpt lat="39.824155" lon="2.905479">
        <ele>698.774</ele>
        <time>2020-02-23T10:27:29Z</time>
      </trkpt>
      <trkpt lat="39.824155" lon="2.905479">
        <ele>698.751</ele>
        <time>2020-02-23T10:27:30Z</time>
      </trkpt>
      <trkpt lat="39.824228" lon="2.905579">
        <ele>698.747</ele>
        <time>2020-02-23T10:27:31Z</time>
      </trkpt>
      <trkpt lat="39.824228" lon="2.905579">
        <ele>698.771</ele>
        <time>2020-02-23T10:27:32Z</time>
      </trkpt>
      <trkpt lat="39.824318" lon="2.905714">
        <ele>698.641</ele>
        <time>2020-02-23T10:27:33Z</time>
      </trkpt>
      <trkpt lat="39.824335" lon="2.905742">
        <ele>698.615</ele>
        <time>2020-02-23T10:27:34Z</time>
      </trkpt>
      <trkpt lat="39.824383" lon="2.905823">
        <ele>698.608</ele>
        <time>2020-02-23T10:27:35Z</time>
      </trkpt>
      <trkpt lat="39.824397" lon="2.905848">
        <ele>698.652</ele>
        <time>2020-02-23T10:27:36Z</time>
      </trkpt>
      <trkpt lat="39.824424" lon="2.905898">
        <ele>698.622</ele>
        <time>2020-02-23T10:27:37Z</time>
      </trkpt>
      <trkpt lat="39.824424" lon="2.905898">
        <ele>698.627</ele>
        <time>2020-02-23T10:27:38Z</time>
      </trkpt>
      <trkpt lat="39.824452" lon="2.905937">
        <ele>698.689</ele>
        <time>2020-02-23T10:27:39Z</time>
      </trkpt>
      <trkpt lat="39.824481" lon="2.905977">
        <ele>698.68</ele>
        <time>2020-02-23T10:27:40Z</time>
      </trkpt>
      <trkpt lat="39.824509" lon="2.906016">
        <ele>698.683</ele>
        <time>2020-02-23T10:27:41Z</time>
      </trkpt>
      <trkpt lat="39.824533" lon="2.906058">
        <ele>698.52</ele>
        <time>2020-02-23T10:27:42Z</time>
      </trkpt>
      <trkpt lat="39.824556" lon="2.9061">
        <ele>698.566</ele>
        <time>2020-02-23T10:27:43Z</time>
      </trkpt>
      <trkpt lat="39.82458" lon="2.906142">
        <ele>698.532</ele>
        <time>2020-02-23T10:27:44Z</time>
      </trkpt>
      <trkpt lat="39.824606" lon="2.90618">
        <ele>698.592</ele>
        <time>2020-02-23T10:27:45Z</time>
      </trkpt>
      <trkpt lat="39.824632" lon="2.906219">
        <ele>698.511</ele>
        <time>2020-02-23T10:27:46Z</time>
      </trkpt>
      <trkpt lat="39.824658" lon="2.906257">
        <ele>698.408</ele>
        <time>2020-02-23T10:27:47Z</time>
      </trkpt>
      <trkpt lat="39.8247" lon="2.906309">
        <ele>698.418</ele>
        <time>2020-02-23T10:27:48Z</time>
      </trkpt>
      <trkpt lat="39.824743" lon="2.90636">
        <ele>698.398</ele>
        <time>2020-02-23T10:27:49Z</time>
      </trkpt>
      <trkpt lat="39.824785" lon="2.906412">
        <ele>698.143</ele>
        <time>2020-02-23T10:27:50Z</time>
      </trkpt>
      <trkpt lat="39.824817" lon="2.906458">
        <ele>698.045</ele>
        <time>2020-02-23T10:27:51Z</time>
      </trkpt>
      <trkpt lat="39.824817" lon="2.906458">
        <ele>698.016</ele>
        <time>2020-02-23T10:27:52Z</time>
      </trkpt>
      <trkpt lat="39.824834" lon="2.906506">
        <ele>697.959</ele>
        <time>2020-02-23T10:27:53Z</time>
      </trkpt>
      <trkpt lat="39.824852" lon="2.906555">
        <ele>697.816</ele>
        <time>2020-02-23T10:27:54Z</time>
      </trkpt>
      <trkpt lat="39.824869" lon="2.906603">
        <ele>697.722</ele>
        <time>2020-02-23T10:27:55Z</time>
      </trkpt>
      <trkpt lat="39.824878" lon="2.906647">
        <ele>697.742</ele>
        <time>2020-02-23T10:27:56Z</time>
      </trkpt>
      <trkpt lat="39.824886" lon="2.906691">
        <ele>697.722</ele>
        <time>2020-02-23T10:27:57Z</time>
      </trkpt>
      <trkpt lat="39.824895" lon="2.906735">
        <ele>697.714</ele>
        <time>2020-02-23T10:27:58Z</time>
      </trkpt>
      <trkpt lat="39.824908" lon="2.906772">
        <ele>697.708</ele>
        <time>2020-02-23T10:27:59Z</time>
      </trkpt>
      <trkpt lat="39.824922" lon="2.90681">
        <ele>697.849</ele>
        <time>2020-02-23T10:28:00Z</time>
      </trkpt>
      <trkpt lat="39.824935" lon="2.906847">
        <ele>697.879</ele>
        <time>2020-02-23T10:28:01Z</time>
      </trkpt>
      <trkpt lat="39.824936" lon="2.906889">
        <ele>697.934</ele>
        <time>2020-02-23T10:28:02Z</time>
      </trkpt>
      <trkpt lat="39.824937" lon="2.906931">
        <ele>698.186</ele>
        <time>2020-02-23T10:28:03Z</time>
      </trkpt>
      <trkpt lat="39.824938" lon="2.906973">
        <ele>698.217</ele>
        <time>2020-02-23T10:28:04Z</time>
      </trkpt>
      <trkpt lat="39.824936" lon="2.907015">
        <ele>698.32</ele>
        <time>2020-02-23T10:28:05Z</time>
      </trkpt>
      <trkpt lat="39.824935" lon="2.907058">
        <ele>698.537</ele>
        <time>2020-02-23T10:28:06Z</time>
      </trkpt>
      <trkpt lat="39.824933" lon="2.9071">
        <ele>698.723</ele>
        <time>2020-02-23T10:28:07Z</time>
      </trkpt>
      <trkpt lat="39.824932" lon="2.907139">
        <ele>698.843</ele>
        <time>2020-02-23T10:28:08Z</time>
      </trkpt>
      <trkpt lat="39.824931" lon="2.907179">
        <ele>699.064</ele>
        <time>2020-02-23T10:28:09Z</time>
      </trkpt>
      <trkpt lat="39.824929" lon="2.907218">
        <ele>699.11</ele>
        <time>2020-02-23T10:28:10Z</time>
      </trkpt>
      <trkpt lat="39.824928" lon="2.907257">
        <ele>699.308</ele>
        <time>2020-02-23T10:28:11Z</time>
      </trkpt>
      <trkpt lat="39.82493" lon="2.907295">
        <ele>699.439</ele>
        <time>2020-02-23T10:28:12Z</time>
      </trkpt>
      <trkpt lat="39.824932" lon="2.907332">
        <ele>699.669</ele>
        <time>2020-02-23T10:28:13Z</time>
      </trkpt>
      <trkpt lat="39.824933" lon="2.90737">
        <ele>699.754</ele>
        <time>2020-02-23T10:28:14Z</time>
      </trkpt>
      <trkpt lat="39.824935" lon="2.907408">
        <ele>699.896</ele>
        <time>2020-02-23T10:28:15Z</time>
      </trkpt>
      <trkpt lat="39.824947" lon="2.907438">
        <ele>699.837</ele>
        <time>2020-02-23T10:28:16Z</time>
      </trkpt>
      <trkpt lat="39.824959" lon="2.907468">
        <ele>699.92</ele>
        <time>2020-02-23T10:28:17Z</time>
      </trkpt>
      <trkpt lat="39.82497" lon="2.907498">
        <ele>699.947</ele>
        <time>2020-02-23T10:28:18Z</time>
      </trkpt>
      <trkpt lat="39.824982" lon="2.907528">
        <ele>699.963</ele>
        <time>2020-02-23T10:28:19Z</time>
      </trkpt>
      <trkpt lat="39.825008" lon="2.907558">
        <ele>699.889</ele>
        <time>2020-02-23T10:28:20Z</time>
      </trkpt>
      <trkpt lat="39.825033" lon="2.907589">
        <ele>699.706</ele>
        <time>2020-02-23T10:28:21Z</time>
      </trkpt>
      <trkpt lat="39.825059" lon="2.907619">
        <ele>699.626</ele>
        <time>2020-02-23T10:28:22Z</time>
      </trkpt>
      <trkpt lat="39.82511" lon="2.90765">
        <ele>699.408</ele>
        <time>2020-02-23T10:28:23Z</time>
      </trkpt>
      <trkpt lat="39.825162" lon="2.90768">
        <ele>699.123</ele>
        <time>2020-02-23T10:28:24Z</time>
      </trkpt>
      <trkpt lat="39.825213" lon="2.907711">
        <ele>698.773</ele>
        <time>2020-02-23T10:28:25Z</time>
      </trkpt>
      <trkpt lat="39.825291" lon="2.907753">
        <ele>698.148</ele>
        <time>2020-02-23T10:28:26Z</time>
      </trkpt>
      <trkpt lat="39.825318" lon="2.907767">
        <ele>697.97</ele>
        <time>2020-02-23T10:28:27Z</time>
      </trkpt>
      <trkpt lat="39.825395" lon="2.907807">
        <ele>697.381</ele>
        <time>2020-02-23T10:28:28Z</time>
      </trkpt>
      <trkpt lat="39.825418" lon="2.90782">
        <ele>697.134</ele>
        <time>2020-02-23T10:28:29Z</time>
      </trkpt>
      <trkpt lat="39.825486" lon="2.907858">
        <ele>696.571</ele>
        <time>2020-02-23T10:28:30Z</time>
      </trkpt>
      <trkpt lat="39.825507" lon="2.90787">
        <ele>696.287</ele>
        <time>2020-02-23T10:28:31Z</time>
      </trkpt>
      <trkpt lat="39.825548" lon="2.907895">
        <ele>695.846</ele>
        <time>2020-02-23T10:28:32Z</time>
      </trkpt>
      <trkpt lat="39.825548" lon="2.907895">
        <ele>695.888</ele>
        <time>2020-02-23T10:28:33Z</time>
      </trkpt>
      <trkpt lat="39.825647" lon="2.907941">
        <ele>694.816</ele>
        <time>2020-02-23T10:28:34Z</time>
      </trkpt>
      <trkpt lat="39.825647" lon="2.907941">
        <ele>694.808</ele>
        <time>2020-02-23T10:28:35Z</time>
      </trkpt>
      <trkpt lat="39.825732" lon="2.907991">
        <ele>693.889</ele>
        <time>2020-02-23T10:28:36Z</time>
      </trkpt>
      <trkpt lat="39.825732" lon="2.907991">
        <ele>693.819</ele>
        <time>2020-02-23T10:28:37Z</time>
      </trkpt>
      <trkpt lat="39.825769" lon="2.908016">
        <ele>693.334</ele>
        <time>2020-02-23T10:28:38Z</time>
      </trkpt>
      <trkpt lat="39.825806" lon="2.908042">
        <ele>692.956</ele>
        <time>2020-02-23T10:28:39Z</time>
      </trkpt>
      <trkpt lat="39.825843" lon="2.908067">
        <ele>692.537</ele>
        <time>2020-02-23T10:28:40Z</time>
      </trkpt>
      <trkpt lat="39.825883" lon="2.908082">
        <ele>692.07</ele>
        <time>2020-02-23T10:28:41Z</time>
      </trkpt>
      <trkpt lat="39.825923" lon="2.908096">
        <ele>691.567</ele>
        <time>2020-02-23T10:28:42Z</time>
      </trkpt>
      <trkpt lat="39.825963" lon="2.908111">
        <ele>691.023</ele>
        <time>2020-02-23T10:28:43Z</time>
      </trkpt>
      <trkpt lat="39.826011" lon="2.90808">
        <ele>690.343</ele>
        <time>2020-02-23T10:28:44Z</time>
      </trkpt>
      <trkpt lat="39.82606" lon="2.908048">
        <ele>689.664</ele>
        <time>2020-02-23T10:28:45Z</time>
      </trkpt>
      <trkpt lat="39.826108" lon="2.908017">
        <ele>689.01</ele>
        <time>2020-02-23T10:28:46Z</time>
      </trkpt>
      <trkpt lat="39.826139" lon="2.90797">
        <ele>688.408</ele>
        <time>2020-02-23T10:28:47Z</time>
      </trkpt>
      <trkpt lat="39.826139" lon="2.90797">
        <ele>688.459</ele>
        <time>2020-02-23T10:28:48Z</time>
      </trkpt>
      <trkpt lat="39.826171" lon="2.907959">
        <ele>688.169</ele>
        <time>2020-02-23T10:28:49Z</time>
      </trkpt>
      <trkpt lat="39.826202" lon="2.907948">
        <ele>687.724</ele>
        <time>2020-02-23T10:28:50Z</time>
      </trkpt>
      <trkpt lat="39.826234" lon="2.907937">
        <ele>687.436</ele>
        <time>2020-02-23T10:28:51Z</time>
      </trkpt>
      <trkpt lat="39.826312" lon="2.908012">
        <ele>686.717</ele>
        <time>2020-02-23T10:28:52Z</time>
      </trkpt>
      <trkpt lat="39.826312" lon="2.908012">
        <ele>686.76</ele>
        <time>2020-02-23T10:28:53Z</time>
      </trkpt>
      <trkpt lat="39.826383" lon="2.908088">
        <ele>686.177</ele>
        <time>2020-02-23T10:28:54Z</time>
      </trkpt>
      <trkpt lat="39.826383" lon="2.908088">
        <ele>686.123</ele>
        <time>2020-02-23T10:28:55Z</time>
      </trkpt>
      <trkpt lat="39.826473" lon="2.908138">
        <ele>685.468</ele>
        <time>2020-02-23T10:28:56Z</time>
      </trkpt>
      <trkpt lat="39.826473" lon="2.908138">
        <ele>685.442</ele>
        <time>2020-02-23T10:28:57Z</time>
      </trkpt>
      <trkpt lat="39.826556" lon="2.908188">
        <ele>684.826</ele>
        <time>2020-02-23T10:28:58Z</time>
      </trkpt>
      <trkpt lat="39.826556" lon="2.908188">
        <ele>684.808</ele>
        <time>2020-02-23T10:28:59Z</time>
      </trkpt>
      <trkpt lat="39.826594" lon="2.908205">
        <ele>684.541</ele>
        <time>2020-02-23T10:29:00Z</time>
      </trkpt>
      <trkpt lat="39.826631" lon="2.908223">
        <ele>684.191</ele>
        <time>2020-02-23T10:29:01Z</time>
      </trkpt>
      <trkpt lat="39.826669" lon="2.90824">
        <ele>683.736</ele>
        <time>2020-02-23T10:29:02Z</time>
      </trkpt>
      <trkpt lat="39.826709" lon="2.908254">
        <ele>683.368</ele>
        <time>2020-02-23T10:29:03Z</time>
      </trkpt>
      <trkpt lat="39.82675" lon="2.908269">
        <ele>682.979</ele>
        <time>2020-02-23T10:29:04Z</time>
      </trkpt>
      <trkpt lat="39.82679" lon="2.908283">
        <ele>682.522</ele>
        <time>2020-02-23T10:29:05Z</time>
      </trkpt>
      <trkpt lat="39.826834" lon="2.908328">
        <ele>681.919</ele>
        <time>2020-02-23T10:29:06Z</time>
      </trkpt>
      <trkpt lat="39.826877" lon="2.908372">
        <ele>681.395</ele>
        <time>2020-02-23T10:29:07Z</time>
      </trkpt>
      <trkpt lat="39.826921" lon="2.908417">
        <ele>680.661</ele>
        <time>2020-02-23T10:29:08Z</time>
      </trkpt>
      <trkpt lat="39.826957" lon="2.908452">
        <ele>680.121</ele>
        <time>2020-02-23T10:29:09Z</time>
      </trkpt>
      <trkpt lat="39.826957" lon="2.908452">
        <ele>680.113</ele>
        <time>2020-02-23T10:29:10Z</time>
      </trkpt>
      <trkpt lat="39.826974" lon="2.908478">
        <ele>679.808</ele>
        <time>2020-02-23T10:29:11Z</time>
      </trkpt>
      <trkpt lat="39.826992" lon="2.908505">
        <ele>679.491</ele>
        <time>2020-02-23T10:29:12Z</time>
      </trkpt>
      <trkpt lat="39.827009" lon="2.908531">
        <ele>679.221</ele>
        <time>2020-02-23T10:29:13Z</time>
      </trkpt>
      <trkpt lat="39.827026" lon="2.908558">
        <ele>679.166</ele>
        <time>2020-02-23T10:29:14Z</time>
      </trkpt>
      <trkpt lat="39.827046" lon="2.90858">
        <ele>678.928</ele>
        <time>2020-02-23T10:29:15Z</time>
      </trkpt>
      <trkpt lat="39.827067" lon="2.908601">
        <ele>678.679</ele>
        <time>2020-02-23T10:29:16Z</time>
      </trkpt>
      <trkpt lat="39.827087" lon="2.908623">
        <ele>678.462</ele>
        <time>2020-02-23T10:29:17Z</time>
      </trkpt>
      <trkpt lat="39.827107" lon="2.908645">
        <ele>678.239</ele>
        <time>2020-02-23T10:29:18Z</time>
      </trkpt>
      <trkpt lat="39.827135" lon="2.908678">
        <ele>677.955</ele>
        <time>2020-02-23T10:29:19Z</time>
      </trkpt>
      <trkpt lat="39.827162" lon="2.90871">
        <ele>677.622</ele>
        <time>2020-02-23T10:29:20Z</time>
      </trkpt>
      <trkpt lat="39.82719" lon="2.908743">
        <ele>677.362</ele>
        <time>2020-02-23T10:29:21Z</time>
      </trkpt>
      <trkpt lat="39.827221" lon="2.908778">
        <ele>677.008</ele>
        <time>2020-02-23T10:29:22Z</time>
      </trkpt>
      <trkpt lat="39.827251" lon="2.908812">
        <ele>676.608</ele>
        <time>2020-02-23T10:29:23Z</time>
      </trkpt>
      <trkpt lat="39.827282" lon="2.908847">
        <ele>676.277</ele>
        <time>2020-02-23T10:29:24Z</time>
      </trkpt>
      <trkpt lat="39.827306" lon="2.908865">
        <ele>675.967</ele>
        <time>2020-02-23T10:29:25Z</time>
      </trkpt>
      <trkpt lat="39.827331" lon="2.908882">
        <ele>675.782</ele>
        <time>2020-02-23T10:29:26Z</time>
      </trkpt>
      <trkpt lat="39.827355" lon="2.9089">
        <ele>675.554</ele>
        <time>2020-02-23T10:29:27Z</time>
      </trkpt>
      <trkpt lat="39.827379" lon="2.908918">
        <ele>675.215</ele>
        <time>2020-02-23T10:29:28Z</time>
      </trkpt>
      <trkpt lat="39.827405" lon="2.908926">
        <ele>675.058</ele>
        <time>2020-02-23T10:29:29Z</time>
      </trkpt>
      <trkpt lat="39.827432" lon="2.908934">
        <ele>674.795</ele>
        <time>2020-02-23T10:29:30Z</time>
      </trkpt>
      <trkpt lat="39.827458" lon="2.908943">
        <ele>674.411</ele>
        <time>2020-02-23T10:29:31Z</time>
      </trkpt>
      <trkpt lat="39.827484" lon="2.908951">
        <ele>674.223</ele>
        <time>2020-02-23T10:29:32Z</time>
      </trkpt>
      <trkpt lat="39.827514" lon="2.90897">
        <ele>673.983</ele>
        <time>2020-02-23T10:29:33Z</time>
      </trkpt>
      <trkpt lat="39.827543" lon="2.908988">
        <ele>673.611</ele>
        <time>2020-02-23T10:29:34Z</time>
      </trkpt>
      <trkpt lat="39.827573" lon="2.909007">
        <ele>673.308</ele>
        <time>2020-02-23T10:29:35Z</time>
      </trkpt>
      <trkpt lat="39.827603" lon="2.909024">
        <ele>673.137</ele>
        <time>2020-02-23T10:29:36Z</time>
      </trkpt>
      <trkpt lat="39.827633" lon="2.909041">
        <ele>672.897</ele>
        <time>2020-02-23T10:29:37Z</time>
      </trkpt>
      <trkpt lat="39.827663" lon="2.909058">
        <ele>672.532</ele>
        <time>2020-02-23T10:29:38Z</time>
      </trkpt>
      <trkpt lat="39.827687" lon="2.909085">
        <ele>672.294</ele>
        <time>2020-02-23T10:29:39Z</time>
      </trkpt>
      <trkpt lat="39.827712" lon="2.909111">
        <ele>671.935</ele>
        <time>2020-02-23T10:29:40Z</time>
      </trkpt>
      <trkpt lat="39.827736" lon="2.909138">
        <ele>671.778</ele>
        <time>2020-02-23T10:29:41Z</time>
      </trkpt>
      <trkpt lat="39.827744" lon="2.909164">
        <ele>671.535</ele>
        <time>2020-02-23T10:29:42Z</time>
      </trkpt>
      <trkpt lat="39.827752" lon="2.90919">
        <ele>671.341</ele>
        <time>2020-02-23T10:29:43Z</time>
      </trkpt>
      <trkpt lat="39.827761" lon="2.909216">
        <ele>671.065</ele>
        <time>2020-02-23T10:29:44Z</time>
      </trkpt>
      <trkpt lat="39.827769" lon="2.909242">
        <ele>670.868</ele>
        <time>2020-02-23T10:29:45Z</time>
      </trkpt>
      <trkpt lat="39.827777" lon="2.909268">
        <ele>670.614</ele>
        <time>2020-02-23T10:29:46Z</time>
      </trkpt>
      <trkpt lat="39.827786" lon="2.909296">
        <ele>670.308</ele>
        <time>2020-02-23T10:29:47Z</time>
      </trkpt>
      <trkpt lat="39.827795" lon="2.909324">
        <ele>670.131</ele>
        <time>2020-02-23T10:29:48Z</time>
      </trkpt>
      <trkpt lat="39.827804" lon="2.909352">
        <ele>669.871</ele>
        <time>2020-02-23T10:29:49Z</time>
      </trkpt>
      <trkpt lat="39.827813" lon="2.90938">
        <ele>669.566</ele>
        <time>2020-02-23T10:29:50Z</time>
      </trkpt>
      <trkpt lat="39.827822" lon="2.909408">
        <ele>669.298</ele>
        <time>2020-02-23T10:29:51Z</time>
      </trkpt>
      <trkpt lat="39.827835" lon="2.909436">
        <ele>668.879</ele>
        <time>2020-02-23T10:29:52Z</time>
      </trkpt>
      <trkpt lat="39.827848" lon="2.909464">
        <ele>668.462</ele>
        <time>2020-02-23T10:29:53Z</time>
      </trkpt>
      <trkpt lat="39.827861" lon="2.909492">
        <ele>668.289</ele>
        <time>2020-02-23T10:29:54Z</time>
      </trkpt>
      <trkpt lat="39.827874" lon="2.90952">
        <ele>667.945</ele>
        <time>2020-02-23T10:29:55Z</time>
      </trkpt>
      <trkpt lat="39.827898" lon="2.909549">
        <ele>667.581</ele>
        <time>2020-02-23T10:29:56Z</time>
      </trkpt>
      <trkpt lat="39.827921" lon="2.909579">
        <ele>667.261</ele>
        <time>2020-02-23T10:29:57Z</time>
      </trkpt>
      <trkpt lat="39.827945" lon="2.909608">
        <ele>666.917</ele>
        <time>2020-02-23T10:29:58Z</time>
      </trkpt>
      <trkpt lat="39.827975" lon="2.909644">
        <ele>666.608</ele>
        <time>2020-02-23T10:29:59Z</time>
      </trkpt>
      <trkpt lat="39.828005" lon="2.909679">
        <ele>666.363</ele>
        <time>2020-02-23T10:30:00Z</time>
      </trkpt>
      <trkpt lat="39.828035" lon="2.909715">
        <ele>666.133</ele>
        <time>2020-02-23T10:30:01Z</time>
      </trkpt>
      <trkpt lat="39.828062" lon="2.909749">
        <ele>665.958</ele>
        <time>2020-02-23T10:30:02Z</time>
      </trkpt>
      <trkpt lat="39.828089" lon="2.909782">
        <ele>665.63</ele>
        <time>2020-02-23T10:30:03Z</time>
      </trkpt>
      <trkpt lat="39.828116" lon="2.909816">
        <ele>665.491</ele>
        <time>2020-02-23T10:30:04Z</time>
      </trkpt>
      <trkpt lat="39.828147" lon="2.909854">
        <ele>665.234</ele>
        <time>2020-02-23T10:30:05Z</time>
      </trkpt>
      <trkpt lat="39.828177" lon="2.909893">
        <ele>665.121</ele>
        <time>2020-02-23T10:30:06Z</time>
      </trkpt>
      <trkpt lat="39.828208" lon="2.909931">
        <ele>664.927</ele>
        <time>2020-02-23T10:30:07Z</time>
      </trkpt>
      <trkpt lat="39.828236" lon="2.909964">
        <ele>664.866</ele>
        <time>2020-02-23T10:30:08Z</time>
      </trkpt>
      <trkpt lat="39.828263" lon="2.909997">
        <ele>664.729</ele>
        <time>2020-02-23T10:30:09Z</time>
      </trkpt>
      <trkpt lat="39.828291" lon="2.91003">
        <ele>664.721</ele>
        <time>2020-02-23T10:30:10Z</time>
      </trkpt>
      <trkpt lat="39.828315" lon="2.910059">
        <ele>664.608</ele>
        <time>2020-02-23T10:30:11Z</time>
      </trkpt>
      <trkpt lat="39.828339" lon="2.910089">
        <ele>664.511</ele>
        <time>2020-02-23T10:30:12Z</time>
      </trkpt>
      <trkpt lat="39.828363" lon="2.910118">
        <ele>664.511</ele>
        <time>2020-02-23T10:30:13Z</time>
      </trkpt>
      <trkpt lat="39.82838" lon="2.910143">
        <ele>664.416</ele>
        <time>2020-02-23T10:30:14Z</time>
      </trkpt>
      <trkpt lat="39.828397" lon="2.910168">
        <ele>664.418</ele>
        <time>2020-02-23T10:30:15Z</time>
      </trkpt>
      <trkpt lat="39.828413" lon="2.910194">
        <ele>664.499</ele>
        <time>2020-02-23T10:30:16Z</time>
      </trkpt>
      <trkpt lat="39.82843" lon="2.910219">
        <ele>664.342</ele>
        <time>2020-02-23T10:30:17Z</time>
      </trkpt>
      <trkpt lat="39.828441" lon="2.910239">
        <ele>664.379</ele>
        <time>2020-02-23T10:30:18Z</time>
      </trkpt>
      <trkpt lat="39.828452" lon="2.910258">
        <ele>664.335</ele>
        <time>2020-02-23T10:30:19Z</time>
      </trkpt>
      <trkpt lat="39.828464" lon="2.910278">
        <ele>664.334</ele>
        <time>2020-02-23T10:30:20Z</time>
      </trkpt>
      <trkpt lat="39.828475" lon="2.910297">
        <ele>664.355</ele>
        <time>2020-02-23T10:30:21Z</time>
      </trkpt>
      <trkpt lat="39.828486" lon="2.910317">
        <ele>664.21</ele>
        <time>2020-02-23T10:30:22Z</time>
      </trkpt>
      <trkpt lat="39.8285" lon="2.910346">
        <ele>664.208</ele>
        <time>2020-02-23T10:30:23Z</time>
      </trkpt>
      <trkpt lat="39.828513" lon="2.910375">
        <ele>664.238</ele>
        <time>2020-02-23T10:30:24Z</time>
      </trkpt>
      <trkpt lat="39.828527" lon="2.910404">
        <ele>664.238</ele>
        <time>2020-02-23T10:30:25Z</time>
      </trkpt>
      <trkpt lat="39.82854" lon="2.910433">
        <ele>664.273</ele>
        <time>2020-02-23T10:30:26Z</time>
      </trkpt>
      <trkpt lat="39.828557" lon="2.910463">
        <ele>664.285</ele>
        <time>2020-02-23T10:30:27Z</time>
      </trkpt>
      <trkpt lat="39.828575" lon="2.910493">
        <ele>664.126</ele>
        <time>2020-02-23T10:30:28Z</time>
      </trkpt>
      <trkpt lat="39.828592" lon="2.910524">
        <ele>664.149</ele>
        <time>2020-02-23T10:30:29Z</time>
      </trkpt>
      <trkpt lat="39.828609" lon="2.910554">
        <ele>664.136</ele>
        <time>2020-02-23T10:30:30Z</time>
      </trkpt>
      <trkpt lat="39.828637" lon="2.910594">
        <ele>664.142</ele>
        <time>2020-02-23T10:30:31Z</time>
      </trkpt>
      <trkpt lat="39.828666" lon="2.910635">
        <ele>664.043</ele>
        <time>2020-02-23T10:30:32Z</time>
      </trkpt>
      <trkpt lat="39.828694" lon="2.910675">
        <ele>663.964</ele>
        <time>2020-02-23T10:30:33Z</time>
      </trkpt>
      <trkpt lat="39.82872" lon="2.910708">
        <ele>663.91</ele>
        <time>2020-02-23T10:30:34Z</time>
      </trkpt>
      <trkpt lat="39.828746" lon="2.91074">
        <ele>663.808</ele>
        <time>2020-02-23T10:30:35Z</time>
      </trkpt>
      <trkpt lat="39.828772" lon="2.910773">
        <ele>663.719</ele>
        <time>2020-02-23T10:30:36Z</time>
      </trkpt>
      <trkpt lat="39.828797" lon="2.910802">
        <ele>663.619</ele>
        <time>2020-02-23T10:30:37Z</time>
      </trkpt>
      <trkpt lat="39.828821" lon="2.910831">
        <ele>663.574</ele>
        <time>2020-02-23T10:30:38Z</time>
      </trkpt>
      <trkpt lat="39.828846" lon="2.91086">
        <ele>663.456</ele>
        <time>2020-02-23T10:30:39Z</time>
      </trkpt>
      <trkpt lat="39.828871" lon="2.910883">
        <ele>663.387</ele>
        <time>2020-02-23T10:30:40Z</time>
      </trkpt>
      <trkpt lat="39.828896" lon="2.910906">
        <ele>663.27</ele>
        <time>2020-02-23T10:30:41Z</time>
      </trkpt>
      <trkpt lat="39.828921" lon="2.910929">
        <ele>663.187</ele>
        <time>2020-02-23T10:30:42Z</time>
      </trkpt>
      <trkpt lat="39.828946" lon="2.910952">
        <ele>663.013</ele>
        <time>2020-02-23T10:30:43Z</time>
      </trkpt>
      <trkpt lat="39.828974" lon="2.910963">
        <ele>662.935</ele>
        <time>2020-02-23T10:30:44Z</time>
      </trkpt>
      <trkpt lat="39.829003" lon="2.910975">
        <ele>662.886</ele>
        <time>2020-02-23T10:30:45Z</time>
      </trkpt>
      <trkpt lat="39.829031" lon="2.910986">
        <ele>662.714</ele>
        <time>2020-02-23T10:30:46Z</time>
      </trkpt>
      <trkpt lat="39.829059" lon="2.910998">
        <ele>662.608</ele>
        <time>2020-02-23T10:30:47Z</time>
      </trkpt>
      <trkpt lat="39.829091" lon="2.911002">
        <ele>662.598</ele>
        <time>2020-02-23T10:30:48Z</time>
      </trkpt>
      <trkpt lat="39.829123" lon="2.911005">
        <ele>662.468</ele>
        <time>2020-02-23T10:30:49Z</time>
      </trkpt>
      <trkpt lat="39.829155" lon="2.911009">
        <ele>662.343</ele>
        <time>2020-02-23T10:30:50Z</time>
      </trkpt>
      <trkpt lat="39.829188" lon="2.911014">
        <ele>662.275</ele>
        <time>2020-02-23T10:30:51Z</time>
      </trkpt>
      <trkpt lat="39.829221" lon="2.911018">
        <ele>662.196</ele>
        <time>2020-02-23T10:30:52Z</time>
      </trkpt>
      <trkpt lat="39.829254" lon="2.911023">
        <ele>661.949</ele>
        <time>2020-02-23T10:30:53Z</time>
      </trkpt>
      <trkpt lat="39.829293" lon="2.911032">
        <ele>661.876</ele>
        <time>2020-02-23T10:30:54Z</time>
      </trkpt>
      <trkpt lat="39.829331" lon="2.911042">
        <ele>661.732</ele>
        <time>2020-02-23T10:30:55Z</time>
      </trkpt>
      <trkpt lat="39.82937" lon="2.911051">
        <ele>661.661</ele>
        <time>2020-02-23T10:30:56Z</time>
      </trkpt>
      <trkpt lat="39.8294" lon="2.911061">
        <ele>661.521</ele>
        <time>2020-02-23T10:30:57Z</time>
      </trkpt>
      <trkpt lat="39.82943" lon="2.911071">
        <ele>661.413</ele>
        <time>2020-02-23T10:30:58Z</time>
      </trkpt>
      <trkpt lat="39.829459" lon="2.911082">
        <ele>661.208</ele>
        <time>2020-02-23T10:30:59Z</time>
      </trkpt>
      <trkpt lat="39.829489" lon="2.911092">
        <ele>661.111</ele>
        <time>2020-02-23T10:31:00Z</time>
      </trkpt>
      <trkpt lat="39.829513" lon="2.911116">
        <ele>661.071</ele>
        <time>2020-02-23T10:31:01Z</time>
      </trkpt>
      <trkpt lat="39.829537" lon="2.911141">
        <ele>660.946</ele>
        <time>2020-02-23T10:31:02Z</time>
      </trkpt>
      <trkpt lat="39.829561" lon="2.911165">
        <ele>660.838</ele>
        <time>2020-02-23T10:31:03Z</time>
      </trkpt>
      <trkpt lat="39.8296" lon="2.911186">
        <ele>660.689</ele>
        <time>2020-02-23T10:31:04Z</time>
      </trkpt>
      <trkpt lat="39.829639" lon="2.911207">
        <ele>660.552</ele>
        <time>2020-02-23T10:31:05Z</time>
      </trkpt>
      <trkpt lat="39.829677" lon="2.911228">
        <ele>660.479</ele>
        <time>2020-02-23T10:31:06Z</time>
      </trkpt>
      <trkpt lat="39.829716" lon="2.911249">
        <ele>660.215</ele>
        <time>2020-02-23T10:31:07Z</time>
      </trkpt>
      <trkpt lat="39.829759" lon="2.911269">
        <ele>660.192</ele>
        <time>2020-02-23T10:31:08Z</time>
      </trkpt>
      <trkpt lat="39.829759" lon="2.911269">
        <ele>660.173</ele>
        <time>2020-02-23T10:31:09Z</time>
      </trkpt>
      <trkpt lat="39.82979" lon="2.911272">
        <ele>660.02</ele>
        <time>2020-02-23T10:31:10Z</time>
      </trkpt>
      <trkpt lat="39.82982" lon="2.911276">
        <ele>659.908</ele>
        <time>2020-02-23T10:31:11Z</time>
      </trkpt>
      <trkpt lat="39.829851" lon="2.911279">
        <ele>659.984</ele>
        <time>2020-02-23T10:31:12Z</time>
      </trkpt>
      <trkpt lat="39.829884" lon="2.911277">
        <ele>659.864</ele>
        <time>2020-02-23T10:31:13Z</time>
      </trkpt>
      <trkpt lat="39.829917" lon="2.911276">
        <ele>659.729</ele>
        <time>2020-02-23T10:31:14Z</time>
      </trkpt>
      <trkpt lat="39.82995" lon="2.911274">
        <ele>659.761</ele>
        <time>2020-02-23T10:31:15Z</time>
      </trkpt>
      <trkpt lat="39.829987" lon="2.911271">
        <ele>659.622</ele>
        <time>2020-02-23T10:31:16Z</time>
      </trkpt>
      <trkpt lat="39.830023" lon="2.911268">
        <ele>659.515</ele>
        <time>2020-02-23T10:31:17Z</time>
      </trkpt>
      <trkpt lat="39.83006" lon="2.911265">
        <ele>659.512</ele>
        <time>2020-02-23T10:31:18Z</time>
      </trkpt>
      <trkpt lat="39.830099" lon="2.911268">
        <ele>659.488</ele>
        <time>2020-02-23T10:31:19Z</time>
      </trkpt>
      <trkpt lat="39.830139" lon="2.911271">
        <ele>659.418</ele>
        <time>2020-02-23T10:31:20Z</time>
      </trkpt>
      <trkpt lat="39.830178" lon="2.911274">
        <ele>659.398</ele>
        <time>2020-02-23T10:31:21Z</time>
      </trkpt>
      <trkpt lat="39.830213" lon="2.91127">
        <ele>659.317</ele>
        <time>2020-02-23T10:31:22Z</time>
      </trkpt>
      <trkpt lat="39.830247" lon="2.911265">
        <ele>659.308</ele>
        <time>2020-02-23T10:31:23Z</time>
      </trkpt>
      <trkpt lat="39.830282" lon="2.911261">
        <ele>659.336</ele>
        <time>2020-02-23T10:31:24Z</time>
      </trkpt>
      <trkpt lat="39.830315" lon="2.91126">
        <ele>659.326</ele>
        <time>2020-02-23T10:31:25Z</time>
      </trkpt>
      <trkpt lat="39.830349" lon="2.91126">
        <ele>659.371</ele>
        <time>2020-02-23T10:31:26Z</time>
      </trkpt>
      <trkpt lat="39.830382" lon="2.911259">
        <ele>659.343</ele>
        <time>2020-02-23T10:31:27Z</time>
      </trkpt>
      <trkpt lat="39.830413" lon="2.91127">
        <ele>659.394</ele>
        <time>2020-02-23T10:31:28Z</time>
      </trkpt>
      <trkpt lat="39.830444" lon="2.911282">
        <ele>659.317</ele>
        <time>2020-02-23T10:31:29Z</time>
      </trkpt>
      <trkpt lat="39.830475" lon="2.911293">
        <ele>659.344</ele>
        <time>2020-02-23T10:31:30Z</time>
      </trkpt>
      <trkpt lat="39.830498" lon="2.911291">
        <ele>659.41</ele>
        <time>2020-02-23T10:31:31Z</time>
      </trkpt>
      <trkpt lat="39.830522" lon="2.91129">
        <ele>659.461</ele>
        <time>2020-02-23T10:31:32Z</time>
      </trkpt>
      <trkpt lat="39.830545" lon="2.911288">
        <ele>659.421</ele>
        <time>2020-02-23T10:31:33Z</time>
      </trkpt>
      <trkpt lat="39.830568" lon="2.911286">
        <ele>659.413</ele>
        <time>2020-02-23T10:31:34Z</time>
      </trkpt>
      <trkpt lat="39.830587" lon="2.911293">
        <ele>659.408</ele>
        <time>2020-02-23T10:31:35Z</time>
      </trkpt>
      <trkpt lat="39.830605" lon="2.9113">
        <ele>659.561</ele>
        <time>2020-02-23T10:31:36Z</time>
      </trkpt>
      <trkpt lat="39.830624" lon="2.911307">
        <ele>659.561</ele>
        <time>2020-02-23T10:31:37Z</time>
      </trkpt>
      <trkpt lat="39.830642" lon="2.911314">
        <ele>659.596</ele>
        <time>2020-02-23T10:31:38Z</time>
      </trkpt>
      <trkpt lat="39.830661" lon="2.911321">
        <ele>659.648</ele>
        <time>2020-02-23T10:31:39Z</time>
      </trkpt>
      <trkpt lat="39.830679" lon="2.911328">
        <ele>659.679</ele>
        <time>2020-02-23T10:31:40Z</time>
      </trkpt>
      <trkpt lat="39.830703" lon="2.91133">
        <ele>659.632</ele>
        <time>2020-02-23T10:31:41Z</time>
      </trkpt>
      <trkpt lat="39.830727" lon="2.911332">
        <ele>659.789</ele>
        <time>2020-02-23T10:31:42Z</time>
      </trkpt>
      <trkpt lat="39.83075" lon="2.911333">
        <ele>659.785</ele>
        <time>2020-02-23T10:31:43Z</time>
      </trkpt>
      <trkpt lat="39.830774" lon="2.911335">
        <ele>659.875</ele>
        <time>2020-02-23T10:31:44Z</time>
      </trkpt>
      <trkpt lat="39.830798" lon="2.911337">
        <ele>659.828</ele>
        <time>2020-02-23T10:31:45Z</time>
      </trkpt>
      <trkpt lat="39.830816" lon="2.91134">
        <ele>659.82</ele>
        <time>2020-02-23T10:31:46Z</time>
      </trkpt>
      <trkpt lat="39.830835" lon="2.911344">
        <ele>659.908</ele>
        <time>2020-02-23T10:31:47Z</time>
      </trkpt>
      <trkpt lat="39.830853" lon="2.911347">
        <ele>659.922</ele>
        <time>2020-02-23T10:31:48Z</time>
      </trkpt>
      <trkpt lat="39.830872" lon="2.911351">
        <ele>659.932</ele>
        <time>2020-02-23T10:31:49Z</time>
      </trkpt>
      <trkpt lat="39.83089" lon="2.911354">
        <ele>660.037</ele>
        <time>2020-02-23T10:31:50Z</time>
      </trkpt>
      <trkpt lat="39.830904" lon="2.911348">
        <ele>660.039</ele>
        <time>2020-02-23T10:31:51Z</time>
      </trkpt>
      <trkpt lat="39.830919" lon="2.911343">
        <ele>660.15</ele>
        <time>2020-02-23T10:31:52Z</time>
      </trkpt>
      <trkpt lat="39.830933" lon="2.911337">
        <ele>660.123</ele>
        <time>2020-02-23T10:31:53Z</time>
      </trkpt>
      <trkpt lat="39.830947" lon="2.911331">
        <ele>660.16</ele>
        <time>2020-02-23T10:31:54Z</time>
      </trkpt>
      <trkpt lat="39.830961" lon="2.911325">
        <ele>660.246</ele>
        <time>2020-02-23T10:31:55Z</time>
      </trkpt>
      <trkpt lat="39.830976" lon="2.91132">
        <ele>660.218</ele>
        <time>2020-02-23T10:31:56Z</time>
      </trkpt>
      <trkpt lat="39.83099" lon="2.911314">
        <ele>660.298</ele>
        <time>2020-02-23T10:31:57Z</time>
      </trkpt>
      <trkpt lat="39.831017" lon="2.911308">
        <ele>660.417</ele>
        <time>2020-02-23T10:31:58Z</time>
      </trkpt>
      <trkpt lat="39.831043" lon="2.911302">
        <ele>660.508</ele>
        <time>2020-02-23T10:31:59Z</time>
      </trkpt>
      <trkpt lat="39.83107" lon="2.911295">
        <ele>660.696</ele>
        <time>2020-02-23T10:32:00Z</time>
      </trkpt>
      <trkpt lat="39.831096" lon="2.911289">
        <ele>660.726</ele>
        <time>2020-02-23T10:32:01Z</time>
      </trkpt>
      <trkpt lat="39.831118" lon="2.911278">
        <ele>660.811</ele>
        <time>2020-02-23T10:32:02Z</time>
      </trkpt>
      <trkpt lat="39.83114" lon="2.911268">
        <ele>661.083</ele>
        <time>2020-02-23T10:32:03Z</time>
      </trkpt>
      <trkpt lat="39.831161" lon="2.911257">
        <ele>661.194</ele>
        <time>2020-02-23T10:32:04Z</time>
      </trkpt>
      <trkpt lat="39.831183" lon="2.911246">
        <ele>661.277</ele>
        <time>2020-02-23T10:32:05Z</time>
      </trkpt>
      <trkpt lat="39.831201" lon="2.911225">
        <ele>661.474</ele>
        <time>2020-02-23T10:32:06Z</time>
      </trkpt>
      <trkpt lat="39.831218" lon="2.911205">
        <ele>661.62</ele>
        <time>2020-02-23T10:32:07Z</time>
      </trkpt>
      <trkpt lat="39.831236" lon="2.911184">
        <ele>661.716</ele>
        <time>2020-02-23T10:32:08Z</time>
      </trkpt>
      <trkpt lat="39.831253" lon="2.911163">
        <ele>661.976</ele>
        <time>2020-02-23T10:32:09Z</time>
      </trkpt>
      <trkpt lat="39.831274" lon="2.911146">
        <ele>662.013</ele>
        <time>2020-02-23T10:32:10Z</time>
      </trkpt>
      <trkpt lat="39.831294" lon="2.911129">
        <ele>662.208</ele>
        <time>2020-02-23T10:32:11Z</time>
      </trkpt>
      <trkpt lat="39.831315" lon="2.911112">
        <ele>662.486</ele>
        <time>2020-02-23T10:32:12Z</time>
      </trkpt>
      <trkpt lat="39.831335" lon="2.911095">
        <ele>662.586</ele>
        <time>2020-02-23T10:32:13Z</time>
      </trkpt>
      <trkpt lat="39.831366" lon="2.911079">
        <ele>662.841</ele>
        <time>2020-02-23T10:32:14Z</time>
      </trkpt>
      <trkpt lat="39.831397" lon="2.911062">
        <ele>663.043</ele>
        <time>2020-02-23T10:32:15Z</time>
      </trkpt>
      <trkpt lat="39.831428" lon="2.911046">
        <ele>663.294</ele>
        <time>2020-02-23T10:32:16Z</time>
      </trkpt>
      <trkpt lat="39.831449" lon="2.911033">
        <ele>663.347</ele>
        <time>2020-02-23T10:32:17Z</time>
      </trkpt>
      <trkpt lat="39.83147" lon="2.91102">
        <ele>663.574</ele>
        <time>2020-02-23T10:32:18Z</time>
      </trkpt>
      <trkpt lat="39.83149" lon="2.911007">
        <ele>663.64</ele>
        <time>2020-02-23T10:32:19Z</time>
      </trkpt>
      <trkpt lat="39.831511" lon="2.910994">
        <ele>663.879</ele>
        <time>2020-02-23T10:32:20Z</time>
      </trkpt>
      <trkpt lat="39.831536" lon="2.910987">
        <ele>664.005</ele>
        <time>2020-02-23T10:32:21Z</time>
      </trkpt>
      <trkpt lat="39.831561" lon="2.91098">
        <ele>664.225</ele>
        <time>2020-02-23T10:32:22Z</time>
      </trkpt>
      <trkpt lat="39.831585" lon="2.910973">
        <ele>664.408</ele>
        <time>2020-02-23T10:32:23Z</time>
      </trkpt>
      <trkpt lat="39.83161" lon="2.910966">
        <ele>664.622</ele>
        <time>2020-02-23T10:32:24Z</time>
      </trkpt>
      <trkpt lat="39.83163" lon="2.91096">
        <ele>664.872</ele>
        <time>2020-02-23T10:32:25Z</time>
      </trkpt>
      <trkpt lat="39.83165" lon="2.910954">
        <ele>665.157</ele>
        <time>2020-02-23T10:32:26Z</time>
      </trkpt>
      <trkpt lat="39.831669" lon="2.910948">
        <ele>665.399</ele>
        <time>2020-02-23T10:32:27Z</time>
      </trkpt>
      <trkpt lat="39.831689" lon="2.910942">
        <ele>665.53</ele>
        <time>2020-02-23T10:32:28Z</time>
      </trkpt>
      <trkpt lat="39.831709" lon="2.910936">
        <ele>665.783</ele>
        <time>2020-02-23T10:32:29Z</time>
      </trkpt>
      <trkpt lat="39.831725" lon="2.910933">
        <ele>665.81</ele>
        <time>2020-02-23T10:32:30Z</time>
      </trkpt>
      <trkpt lat="39.831742" lon="2.910931">
        <ele>666.066</ele>
        <time>2020-02-23T10:32:31Z</time>
      </trkpt>
      <trkpt lat="39.831758" lon="2.910928">
        <ele>666.133</ele>
        <time>2020-02-23T10:32:32Z</time>
      </trkpt>
      <trkpt lat="39.831774" lon="2.910925">
        <ele>666.323</ele>
        <time>2020-02-23T10:32:33Z</time>
      </trkpt>
      <trkpt lat="39.831791" lon="2.910923">
        <ele>666.415</ele>
        <time>2020-02-23T10:32:34Z</time>
      </trkpt>
      <trkpt lat="39.831807" lon="2.91092">
        <ele>666.608</ele>
        <time>2020-02-23T10:32:35Z</time>
      </trkpt>
      <trkpt lat="39.831835" lon="2.910914">
        <ele>666.868</ele>
        <time>2020-02-23T10:32:36Z</time>
      </trkpt>
      <trkpt lat="39.831864" lon="2.910909">
        <ele>667.198</ele>
        <time>2020-02-23T10:32:37Z</time>
      </trkpt>
      <trkpt lat="39.831892" lon="2.910903">
        <ele>667.423</ele>
        <time>2020-02-23T10:32:38Z</time>
      </trkpt>
      <trkpt lat="39.83192" lon="2.910897">
        <ele>667.655</ele>
        <time>2020-02-23T10:32:39Z</time>
      </trkpt>
      <trkpt lat="39.831942" lon="2.910888">
        <ele>667.856</ele>
        <time>2020-02-23T10:32:40Z</time>
      </trkpt>
      <trkpt lat="39.831964" lon="2.91088">
        <ele>667.959</ele>
        <time>2020-02-23T10:32:41Z</time>
      </trkpt>
      <trkpt lat="39.831985" lon="2.910871">
        <ele>668.136</ele>
        <time>2020-02-23T10:32:42Z</time>
      </trkpt>
      <trkpt lat="39.832007" lon="2.910862">
        <ele>668.382</ele>
        <time>2020-02-23T10:32:43Z</time>
      </trkpt>
      <trkpt lat="39.832025" lon="2.910843">
        <ele>668.412</ele>
        <time>2020-02-23T10:32:44Z</time>
      </trkpt>
      <trkpt lat="39.832044" lon="2.910824">
        <ele>668.632</ele>
        <time>2020-02-23T10:32:45Z</time>
      </trkpt>
      <trkpt lat="39.832062" lon="2.910804">
        <ele>668.705</ele>
        <time>2020-02-23T10:32:46Z</time>
      </trkpt>
      <trkpt lat="39.83208" lon="2.910785">
        <ele>668.808</ele>
        <time>2020-02-23T10:32:47Z</time>
      </trkpt>
      <trkpt lat="39.83211" lon="2.910769">
        <ele>669.016</ele>
        <time>2020-02-23T10:32:48Z</time>
      </trkpt>
      <trkpt lat="39.832139" lon="2.910753">
        <ele>669.186</ele>
        <time>2020-02-23T10:32:49Z</time>
      </trkpt>
      <trkpt lat="39.832169" lon="2.910737">
        <ele>669.271</ele>
        <time>2020-02-23T10:32:50Z</time>
      </trkpt>
      <trkpt lat="39.8322" lon="2.910737">
        <ele>669.313</ele>
        <time>2020-02-23T10:32:51Z</time>
      </trkpt>
      <trkpt lat="39.832232" lon="2.910738">
        <ele>669.364</ele>
        <time>2020-02-23T10:32:52Z</time>
      </trkpt>
      <trkpt lat="39.832263" lon="2.910738">
        <ele>669.427</ele>
        <time>2020-02-23T10:32:53Z</time>
      </trkpt>
      <trkpt lat="39.832323" lon="2.910746">
        <ele>669.594</ele>
        <time>2020-02-23T10:32:54Z</time>
      </trkpt>
      <trkpt lat="39.832383" lon="2.910755">
        <ele>669.56</ele>
        <time>2020-02-23T10:32:55Z</time>
      </trkpt>
      <trkpt lat="39.832443" lon="2.910763">
        <ele>669.676</ele>
        <time>2020-02-23T10:32:56Z</time>
      </trkpt>
      <trkpt lat="39.832495" lon="2.910772">
        <ele>669.69</ele>
        <time>2020-02-23T10:32:57Z</time>
      </trkpt>
      <trkpt lat="39.832495" lon="2.910772">
        <ele>669.619</ele>
        <time>2020-02-23T10:32:58Z</time>
      </trkpt>
      <trkpt lat="39.832592" lon="2.910817">
        <ele>669.508</ele>
        <time>2020-02-23T10:32:59Z</time>
      </trkpt>
      <trkpt lat="39.832592" lon="2.910817">
        <ele>669.512</ele>
        <time>2020-02-23T10:33:00Z</time>
      </trkpt>
      <trkpt lat="39.832628" lon="2.910844">
        <ele>669.572</ele>
        <time>2020-02-23T10:33:01Z</time>
      </trkpt>
      <trkpt lat="39.832663" lon="2.910872">
        <ele>669.437</ele>
        <time>2020-02-23T10:33:02Z</time>
      </trkpt>
      <trkpt lat="39.832699" lon="2.910899">
        <ele>669.579</ele>
        <time>2020-02-23T10:33:03Z</time>
      </trkpt>
      <trkpt lat="39.832733" lon="2.910922">
        <ele>669.54</ele>
        <time>2020-02-23T10:33:04Z</time>
      </trkpt>
      <trkpt lat="39.832767" lon="2.910946">
        <ele>669.613</ele>
        <time>2020-02-23T10:33:05Z</time>
      </trkpt>
      <trkpt lat="39.832801" lon="2.910969">
        <ele>669.63</ele>
        <time>2020-02-23T10:33:06Z</time>
      </trkpt>
      <trkpt lat="39.832833" lon="2.910981">
        <ele>669.696</ele>
        <time>2020-02-23T10:33:07Z</time>
      </trkpt>
      <trkpt lat="39.832864" lon="2.910992">
        <ele>669.741</ele>
        <time>2020-02-23T10:33:08Z</time>
      </trkpt>
      <trkpt lat="39.832896" lon="2.911004">
        <ele>669.781</ele>
        <time>2020-02-23T10:33:09Z</time>
      </trkpt>
      <trkpt lat="39.832973" lon="2.911074">
        <ele>669.809</ele>
        <time>2020-02-23T10:33:10Z</time>
      </trkpt>
      <trkpt lat="39.832973" lon="2.911074">
        <ele>669.808</ele>
        <time>2020-02-23T10:33:11Z</time>
      </trkpt>
      <trkpt lat="39.832998" lon="2.911114">
        <ele>669.959</ele>
        <time>2020-02-23T10:33:12Z</time>
      </trkpt>
      <trkpt lat="39.833024" lon="2.911154">
        <ele>669.959</ele>
        <time>2020-02-23T10:33:13Z</time>
      </trkpt>
      <trkpt lat="39.833049" lon="2.911194">
        <ele>669.954</ele>
        <time>2020-02-23T10:33:14Z</time>
      </trkpt>
      <trkpt lat="39.833061" lon="2.911242">
        <ele>669.926</ele>
        <time>2020-02-23T10:33:15Z</time>
      </trkpt>
      <trkpt lat="39.833072" lon="2.91129">
        <ele>669.857</ele>
        <time>2020-02-23T10:33:16Z</time>
      </trkpt>
      <trkpt lat="39.833084" lon="2.911338">
        <ele>669.85</ele>
        <time>2020-02-23T10:33:17Z</time>
      </trkpt>
      <trkpt lat="39.833101" lon="2.911386">
        <ele>669.817</ele>
        <time>2020-02-23T10:33:18Z</time>
      </trkpt>
      <trkpt lat="39.833119" lon="2.911435">
        <ele>669.723</ele>
        <time>2020-02-23T10:33:19Z</time>
      </trkpt>
      <trkpt lat="39.833136" lon="2.911483">
        <ele>669.767</ele>
        <time>2020-02-23T10:33:20Z</time>
      </trkpt>
      <trkpt lat="39.833165" lon="2.911523">
        <ele>669.681</ele>
        <time>2020-02-23T10:33:21Z</time>
      </trkpt>
      <trkpt lat="39.833195" lon="2.911562">
        <ele>669.519</ele>
        <time>2020-02-23T10:33:22Z</time>
      </trkpt>
      <trkpt lat="39.833224" lon="2.911602">
        <ele>669.408</ele>
        <time>2020-02-23T10:33:23Z</time>
      </trkpt>
      <trkpt lat="39.833253" lon="2.911637">
        <ele>669.391</ele>
        <time>2020-02-23T10:33:24Z</time>
      </trkpt>
      <trkpt lat="39.833282" lon="2.911671">
        <ele>669.291</ele>
        <time>2020-02-23T10:33:25Z</time>
      </trkpt>
      <trkpt lat="39.833311" lon="2.911706">
        <ele>669.166</ele>
        <time>2020-02-23T10:33:26Z</time>
      </trkpt>
      <trkpt lat="39.833333" lon="2.911732">
        <ele>669.038</ele>
        <time>2020-02-23T10:33:27Z</time>
      </trkpt>
      <trkpt lat="39.833354" lon="2.911758">
        <ele>669.069</ele>
        <time>2020-02-23T10:33:28Z</time>
      </trkpt>
      <trkpt lat="39.833376" lon="2.911785">
        <ele>669.012</ele>
        <time>2020-02-23T10:33:29Z</time>
      </trkpt>
      <trkpt lat="39.833397" lon="2.911811">
        <ele>668.929</ele>
        <time>2020-02-23T10:33:30Z</time>
      </trkpt>
      <trkpt lat="39.83342" lon="2.911843">
        <ele>668.945</ele>
        <time>2020-02-23T10:33:31Z</time>
      </trkpt>
      <trkpt lat="39.833442" lon="2.911874">
        <ele>668.944</ele>
        <time>2020-02-23T10:33:32Z</time>
      </trkpt>
      <trkpt lat="39.833465" lon="2.911906">
        <ele>668.905</ele>
        <time>2020-02-23T10:33:33Z</time>
      </trkpt>
      <trkpt lat="39.833489" lon="2.911929">
        <ele>668.915</ele>
        <time>2020-02-23T10:33:34Z</time>
      </trkpt>
      <trkpt lat="39.833512" lon="2.911952">
        <ele>669.008</ele>
        <time>2020-02-23T10:33:35Z</time>
      </trkpt>
      <trkpt lat="39.833536" lon="2.911976">
        <ele>669.019</ele>
        <time>2020-02-23T10:33:36Z</time>
      </trkpt>
      <trkpt lat="39.833559" lon="2.911999">
        <ele>669.059</ele>
        <time>2020-02-23T10:33:37Z</time>
      </trkpt>
      <trkpt lat="39.833591" lon="2.912023">
        <ele>669.054</ele>
        <time>2020-02-23T10:33:38Z</time>
      </trkpt>
      <trkpt lat="39.833623" lon="2.912048">
        <ele>669.116</ele>
        <time>2020-02-23T10:33:39Z</time>
      </trkpt>
      <trkpt lat="39.833655" lon="2.912072">
        <ele>669.247</ele>
        <time>2020-02-23T10:33:40Z</time>
      </trkpt>
      <trkpt lat="39.833677" lon="2.912084">
        <ele>669.23</ele>
        <time>2020-02-23T10:33:41Z</time>
      </trkpt>
      <trkpt lat="39.8337" lon="2.912096">
        <ele>669.397</ele>
        <time>2020-02-23T10:33:42Z</time>
      </trkpt>
      <trkpt lat="39.833722" lon="2.912109">
        <ele>669.343</ele>
        <time>2020-02-23T10:33:43Z</time>
      </trkpt>
      <trkpt lat="39.833744" lon="2.912121">
        <ele>669.416</ele>
        <time>2020-02-23T10:33:44Z</time>
      </trkpt>
      <trkpt lat="39.833764" lon="2.91214">
        <ele>669.476</ele>
        <time>2020-02-23T10:33:45Z</time>
      </trkpt>
      <trkpt lat="39.833784" lon="2.912159">
        <ele>669.513</ele>
        <time>2020-02-23T10:33:46Z</time>
      </trkpt>
      <trkpt lat="39.833804" lon="2.912178">
        <ele>669.808</ele>
        <time>2020-02-23T10:33:47Z</time>
      </trkpt>
      <trkpt lat="39.833824" lon="2.912197">
        <ele>669.856</ele>
        <time>2020-02-23T10:33:48Z</time>
      </trkpt>
      <trkpt lat="39.833849" lon="2.91218">
        <ele>669.816</ele>
        <time>2020-02-23T10:33:49Z</time>
      </trkpt>
      <trkpt lat="39.833875" lon="2.912163">
        <ele>669.871</ele>
        <time>2020-02-23T10:33:50Z</time>
      </trkpt>
      <trkpt lat="39.8339" lon="2.912146">
        <ele>669.823</ele>
        <time>2020-02-23T10:33:51Z</time>
      </trkpt>
      <trkpt lat="39.833925" lon="2.912129">
        <ele>669.874</ele>
        <time>2020-02-23T10:33:52Z</time>
      </trkpt>
      <trkpt lat="39.833954" lon="2.912113">
        <ele>669.827</ele>
        <time>2020-02-23T10:33:53Z</time>
      </trkpt>
      <trkpt lat="39.833982" lon="2.912097">
        <ele>669.784</ele>
        <time>2020-02-23T10:33:54Z</time>
      </trkpt>
      <trkpt lat="39.834011" lon="2.912081">
        <ele>669.79</ele>
        <time>2020-02-23T10:33:55Z</time>
      </trkpt>
      <trkpt lat="39.834072" lon="2.912062">
        <ele>669.662</ele>
        <time>2020-02-23T10:33:56Z</time>
      </trkpt>
      <trkpt lat="39.833925" lon="2.91218">
        <ele>665.05426025391</ele>
        <time>2020-10-24T10:07:10.000Z</time>
      </trkpt>
      <trkpt lat="39.833939" lon="2.912445">
        <ele>663.93365478516</ele>
        <time>2020-10-24T10:07:10.027Z</time>
      </trkpt>
      <trkpt lat="39.833966" lon="2.91276">
        <ele>667.76031494141</ele>
        <time>2020-10-24T10:07:10.087Z</time>
      </trkpt>
      <trkpt lat="39.834181" lon="2.91291">
        <ele>673.32141113281</ele>
        <time>2020-10-24T10:07:10.179Z</time>
      </trkpt>
      <trkpt lat="39.834613" lon="2.913308">
        <ele>685.41522216797</ele>
        <time>2020-10-24T10:07:10.342Z</time>
      </trkpt>
      <trkpt lat="39.834828" lon="2.913541">
        <ele>690.04797363281</ele>
        <time>2020-10-24T10:07:10.542Z</time>
      </trkpt>
      <trkpt lat="39.834963" lon="2.913823">
        <ele>698.30706787109</ele>
        <time>2020-10-24T10:07:10.776Z</time>
      </trkpt>
      <trkpt lat="39.835138" lon="2.914038">
        <ele>704.09014892578</ele>
        <time>2020-10-24T10:07:11.043Z</time>
      </trkpt>
      <trkpt lat="39.835057" lon="2.914138">
        <ele>709.31286621094</ele>
        <time>2020-10-24T10:07:11.324Z</time>
      </trkpt>
      <trkpt lat="39.834774" lon="2.914022">
        <ele>709.13409423828</ele>
        <time>2020-10-24T10:07:11.645Z</time>
      </trkpt>
      <trkpt lat="39.834532" lon="2.914038">
        <ele>712.88494873047</ele>
        <time>2020-10-24T10:07:11.998Z</time>
      </trkpt>
      <trkpt lat="39.834464" lon="2.914072">
        <ele>713.41528320312</ele>
        <time>2020-10-24T10:07:12.361Z</time>
      </trkpt>
      <trkpt lat="39.834586" lon="2.914321">
        <ele>723.73645019531</ele>
        <time>2020-10-24T10:07:12.754Z</time>
      </trkpt>
      <trkpt lat="39.834734" lon="2.91447">
        <ele>727.1474609375</ele>
        <time>2020-10-24T10:07:13.172Z</time>
      </trkpt>
      <trkpt lat="39.834734" lon="2.914902">
        <ele>743.21520996094</ele>
        <time>2020-10-24T10:07:13.635Z</time>
      </trkpt>
      <trkpt lat="39.834882" lon="2.915084">
        <ele>748.13745117188</ele>
        <time>2020-10-24T10:07:14.125Z</time>
      </trkpt>
      <trkpt lat="39.83499" lon="2.915333">
        <ele>760.62377929688</ele>
        <time>2020-10-24T10:07:14.644Z</time>
      </trkpt>
      <trkpt lat="39.835152" lon="2.915765">
        <ele>780.62060546875</ele>
        <time>2020-10-24T10:07:15.212Z</time>
      </trkpt>
      <trkpt lat="39.835327" lon="2.915964">
        <ele>790.81939697266</ele>
        <time>2020-10-24T10:07:15.811Z</time>
      </trkpt>
      <trkpt lat="39.835542" lon="2.916047">
        <ele>791.05657958984</ele>
        <time>2020-10-24T10:07:16.440Z</time>
      </trkpt>
      <trkpt lat="39.83565" lon="2.916312">
        <ele>804.98266601562</ele>
        <time>2020-10-24T10:07:17.100Z</time>
      </trkpt>
      <trkpt lat="39.835906" lon="2.916661">
        <ele>819.021484375</ele>
        <time>2020-10-24T10:07:17.810Z</time>
      </trkpt>
      <trkpt lat="39.836095" lon="2.916794">
        <ele>822.17932128906</ele>
        <time>2020-10-24T10:07:18.548Z</time>
      </trkpt>
      <trkpt lat="39.836243" lon="2.91681">
        <ele>818.46600341797</ele>
        <time>2020-10-24T10:07:19.306Z</time>
      </trkpt>
      <trkpt lat="39.836472" lon="2.916893">
        <ele>824.56408691406</ele>
        <time>2020-10-24T10:07:20.096Z</time>
      </trkpt>
      <trkpt lat="39.836715" lon="2.91681">
        <ele>819.26458740234</ele>
        <time>2020-10-24T10:07:20.919Z</time>
      </trkpt>
      <trkpt lat="39.836971" lon="2.91691">
        <ele>827.62481689453</ele>
        <time>2020-10-24T10:07:21.778Z</time>
      </trkpt>
      <trkpt lat="39.837146" lon="2.916943">
        <ele>830.38635253906</ele>
        <time>2020-10-24T10:07:22.660Z</time>
      </trkpt>
      <trkpt lat="39.837038" lon="2.917126">
        <ele>843.93365478516</ele>
        <time>2020-10-24T10:07:23.566Z</time>
      </trkpt>
      <trkpt lat="39.837092" lon="2.917242">
        <ele>852.62823486328</ele>
        <time>2020-10-24T10:07:24.486Z</time>
      </trkpt>
      <trkpt lat="39.837146" lon="2.917258">
        <ele>853.81848144531</ele>
        <time>2020-10-24T10:07:25.413Z</time>
      </trkpt>
      <trkpt lat="39.837254" lon="2.917408">
        <ele>864.97662353516</ele>
        <time>2020-10-24T10:07:26.361Z</time>
      </trkpt>
      <trkpt lat="39.837348" lon="2.917491">
        <ele>871.15075683594</ele>
        <time>2020-10-24T10:07:27.325Z</time>
      </trkpt>
      <trkpt lat="39.837402" lon="2.917773">
        <ele>888.9560546875</ele>
        <time>2020-10-24T10:07:28.318Z</time>
      </trkpt>
      <trkpt lat="39.837267" lon="2.918005">
        <ele>905.8291015625</ele>
        <time>2020-10-24T10:07:29.341Z</time>
      </trkpt>
      <trkpt lat="39.837334" lon="2.918171">
        <ele>917.01361083984</ele>
        <time>2020-10-24T10:07:30.384Z</time>
      </trkpt>
      <trkpt lat="39.83755" lon="2.918304">
        <ele>923.63775634766</ele>
        <time>2020-10-24T10:07:31.458Z</time>
      </trkpt>
      <trkpt lat="39.837685" lon="2.91842">
        <ele>929.83923339844</ele>
        <time>2020-10-24T10:07:32.554Z</time>
      </trkpt>
      <trkpt lat="39.837671" lon="2.918586">
        <ele>938.80413818359</ele>
        <time>2020-10-24T10:07:33.667Z</time>
      </trkpt>
      <trkpt lat="39.837914" lon="2.918918">
        <ele>953.32775878906</ele>
        <time>2020-10-24T10:07:34.827Z</time>
      </trkpt>
      <trkpt lat="39.83817" lon="2.919382">
        <ele>976.39245605469</ele>
        <time>2020-10-24T10:07:36.046Z</time>
      </trkpt>
      <trkpt lat="39.838197" lon="2.919996">
        <ele>1000.24194335938</ele>
        <time>2020-10-24T10:07:37.328Z</time>
      </trkpt>
      <trkpt lat="39.838264" lon="2.920378">
        <ele>1012.70831298828</ele>
        <time>2020-10-24T10:07:38.650Z</time>
      </trkpt>
      <trkpt lat="39.838278" lon="2.921059">
        <ele>1031.17126464844</ele>
        <time>2020-10-24T10:07:40.042Z</time>
      </trkpt>
      <trkpt lat="39.838507" lon="2.92149">
        <ele>1039.96215820312</ele>
        <time>2020-10-24T10:07:41.488Z</time>
      </trkpt>
      <trkpt lat="39.838722" lon="2.921988">
        <ele>1047.10522460938</ele>
        <time>2020-10-24T10:07:42.993Z</time>
      </trkpt>
      <trkpt lat="39.838736" lon="2.922237">
        <ele>1049.36865234375</ele>
        <time>2020-10-24T10:07:44.523Z</time>
      </trkpt>
      <trkpt lat="39.838924" lon="2.922586">
        <ele>1054.31494140625</ele>
        <time>2020-10-24T10:07:46.097Z</time>
      </trkpt>
      <trkpt lat="39.839194" lon="2.922735">
        <ele>1054.66052246094</ele>
        <time>2020-10-24T10:07:47.710Z</time>
      </trkpt>
      <trkpt lat="39.839558" lon="2.922818">
        <ele>1057.66381835938</ele>
        <time>2020-10-24T10:07:49.372Z</time>
      </trkpt>
      <trkpt lat="39.839922" lon="2.923034">
        <ele>1055.61938476562</ele>
        <time>2020-10-24T10:07:51.088Z</time>
      </trkpt>
      <trkpt lat="39.840218" lon="2.92305">
        <ele>1057.62280273438</ele>
        <time>2020-10-24T10:07:52.843Z</time>
      </trkpt>
      <trkpt lat="39.840366" lon="2.922951">
        <ele>1061.12268066406</ele>
        <time>2020-10-24T10:07:54.620Z</time>
      </trkpt>
      <trkpt lat="39.840701" lon="2.923089">
        <ele>1061.90930175781</ele>
        <time>2020-10-24T10:07:56.444Z</time>
      </trkpt>
      <trkpt lat="39.840903" lon="2.923304">
        <ele>1059.43176269531</ele>
        <time>2020-10-24T10:07:58.303Z</time>
      </trkpt>
      <trkpt lat="39.841213" lon="2.923421">
        <ele>1060.62719726562</ele>
        <time>2020-10-24T10:08:00.205Z</time>
      </trkpt>
      <trkpt lat="39.841469" lon="2.923487">
        <ele>1060.72375488281</ele>
        <time>2020-10-24T10:08:02.142Z</time>
      </trkpt>
      <trkpt lat="39.841658" lon="2.923653">
        <ele>1061.97985839844</ele>
        <time>2020-10-24T10:08:04.109Z</time>
      </trkpt>
      <trkpt lat="39.8419" lon="2.923802">
        <ele>1062.67333984375</ele>
        <time>2020-10-24T10:08:06.112Z</time>
      </trkpt>
      <trkpt lat="39.842062" lon="2.924134">
        <ele>1066.375</ele>
        <time>2020-10-24T10:08:08.155Z</time>
      </trkpt>
      <trkpt lat="39.84217" lon="2.924334">
        <ele>1068.93969726562</ele>
        <time>2020-10-24T10:08:10.223Z</time>
      </trkpt>
      <trkpt lat="39.842358" lon="2.924616">
        <ele>1072.05322265625</ele>
        <time>2020-10-24T10:08:12.330Z</time>
      </trkpt>
      <trkpt lat="39.842587" lon="2.925097">
        <ele>1074.69396972656</ele>
        <time>2020-10-24T10:08:14.495Z</time>
      </trkpt>
      <trkpt lat="39.842857" lon="2.925595">
        <ele>1082.54064941406</ele>
        <time>2020-10-24T10:08:16.722Z</time>
      </trkpt>
      <trkpt lat="39.842992" lon="2.925794">
        <ele>1082.99890136719</ele>
        <time>2020-10-24T10:08:18.976Z</time>
      </trkpt>
      <trkpt lat="39.843194" lon="2.925761">
        <ele>1080.13500976562</ele>
        <time>2020-10-24T10:08:21.257Z</time>
      </trkpt>
      <trkpt lat="39.842992" lon="2.925794">
        <ele>1082.99890136719</ele>
        <time>2020-10-24T10:08:23.566Z</time>
      </trkpt>
      <trkpt lat="39.842857" lon="2.925595">
        <ele>1082.54064941406</ele>
        <time>2020-10-24T10:08:25.902Z</time>
      </trkpt>
      <trkpt lat="39.842587" lon="2.925097">
        <ele>1074.69396972656</ele>
        <time>2020-10-24T10:08:28.300Z</time>
      </trkpt>
      <trkpt lat="39.842358" lon="2.924616">
        <ele>1072.05322265625</ele>
        <time>2020-10-24T10:08:30.756Z</time>
      </trkpt>
      <trkpt lat="39.84217" lon="2.924334">
        <ele>1068.93969726562</ele>
        <time>2020-10-24T10:08:33.251Z</time>
      </trkpt>
      <trkpt lat="39.842062" lon="2.924134">
        <ele>1066.375</ele>
        <time>2020-10-24T10:08:35.771Z</time>
      </trkpt>
      <trkpt lat="39.8419" lon="2.923802">
        <ele>1062.67333984375</ele>
        <time>2020-10-24T10:08:38.331Z</time>
      </trkpt>
      <trkpt lat="39.841658" lon="2.923653">
        <ele>1061.97985839844</ele>
        <time>2020-10-24T10:08:40.927Z</time>
      </trkpt>
      <trkpt lat="39.841469" lon="2.923487">
        <ele>1060.72375488281</ele>
        <time>2020-10-24T10:08:43.553Z</time>
      </trkpt>
      <trkpt lat="39.841213" lon="2.923421">
        <ele>1060.62719726562</ele>
        <time>2020-10-24T10:08:46.214Z</time>
      </trkpt>
      <trkpt lat="39.840903" lon="2.923304">
        <ele>1059.43176269531</ele>
        <time>2020-10-24T10:08:48.918Z</time>
      </trkpt>
      <trkpt lat="39.840701" lon="2.923089">
        <ele>1061.90930175781</ele>
        <time>2020-10-24T10:08:51.657Z</time>
      </trkpt>
      <trkpt lat="39.840366" lon="2.922951">
        <ele>1061.12268066406</ele>
        <time>2020-10-24T10:08:54.443Z</time>
      </trkpt>
      <trkpt lat="39.840218" lon="2.92305">
        <ele>1057.62280273438</ele>
        <time>2020-10-24T10:08:57.251Z</time>
      </trkpt>
      <trkpt lat="39.839922" lon="2.923034">
        <ele>1055.61938476562</ele>
        <time>2020-10-24T10:09:00.098Z</time>
      </trkpt>
      <trkpt lat="39.839558" lon="2.922818">
        <ele>1057.66381835938</ele>
        <time>2020-10-24T10:09:02.999Z</time>
      </trkpt>
      <trkpt lat="39.839194" lon="2.922735">
        <ele>1054.66052246094</ele>
        <time>2020-10-24T10:09:05.949Z</time>
      </trkpt>
      <trkpt lat="39.838924" lon="2.922586">
        <ele>1054.31494140625</ele>
        <time>2020-10-24T10:09:08.938Z</time>
      </trkpt>
      <trkpt lat="39.838736" lon="2.922237">
        <ele>1049.36865234375</ele>
        <time>2020-10-24T10:09:11.971Z</time>
      </trkpt>
      <trkpt lat="39.838722" lon="2.921988">
        <ele>1047.10522460938</ele>
        <time>2020-10-24T10:09:15.029Z</time>
      </trkpt>
      <trkpt lat="39.838507" lon="2.92149">
        <ele>1039.96215820312</ele>
        <time>2020-10-24T10:09:18.146Z</time>
      </trkpt>
      <trkpt lat="39.838278" lon="2.921059">
        <ele>1031.17126464844</ele>
        <time>2020-10-24T10:09:21.317Z</time>
      </trkpt>
      <trkpt lat="39.838264" lon="2.920378">
        <ele>1012.70831298828</ele>
        <time>2020-10-24T10:09:24.558Z</time>
      </trkpt>
      <trkpt lat="39.838197" lon="2.919996">
        <ele>1000.24194335938</ele>
        <time>2020-10-24T10:09:27.839Z</time>
      </trkpt>
      <trkpt lat="39.83817" lon="2.919382">
        <ele>976.39245605469</ele>
        <time>2020-10-24T10:09:31.183Z</time>
      </trkpt>
      <trkpt lat="39.837914" lon="2.918918">
        <ele>953.32775878906</ele>
        <time>2020-10-24T10:09:34.586Z</time>
      </trkpt>
      <trkpt lat="39.837671" lon="2.918586">
        <ele>938.80413818359</ele>
        <time>2020-10-24T10:09:38.036Z</time>
      </trkpt>
      <trkpt lat="39.837685" lon="2.91842">
        <ele>929.83923339844</ele>
        <time>2020-10-24T10:09:41.503Z</time>
      </trkpt>
      <trkpt lat="39.83755" lon="2.918304">
        <ele>923.63775634766</ele>
        <time>2020-10-24T10:09:44.992Z</time>
      </trkpt>
      <trkpt lat="39.837334" lon="2.918171">
        <ele>917.01361083984</ele>
        <time>2020-10-24T10:09:48.512Z</time>
      </trkpt>
      <trkpt lat="39.837267" lon="2.918005">
        <ele>905.8291015625</ele>
        <time>2020-10-24T10:09:52.052Z</time>
      </trkpt>
      <trkpt lat="39.837402" lon="2.917773">
        <ele>888.9560546875</ele>
        <time>2020-10-24T10:09:55.621Z</time>
      </trkpt>
      <trkpt lat="39.837348" lon="2.917491">
        <ele>871.15075683594</ele>
        <time>2020-10-24T10:09:59.220Z</time>
      </trkpt>
      <trkpt lat="39.837254" lon="2.917408">
        <ele>864.97662353516</ele>
        <time>2020-10-24T10:10:02.834Z</time>
      </trkpt>
      <trkpt lat="39.837146" lon="2.917258">
        <ele>853.81848144531</ele>
        <time>2020-10-24T10:10:06.470Z</time>
      </trkpt>
      <trkpt lat="39.837092" lon="2.917242">
        <ele>852.62823486328</ele>
        <time>2020-10-24T10:10:10.113Z</time>
      </trkpt>
      <trkpt lat="39.837038" lon="2.917126">
        <ele>843.93365478516</ele>
        <time>2020-10-24T10:10:13.770Z</time>
      </trkpt>
      <trkpt lat="39.837146" lon="2.916943">
        <ele>830.38635253906</ele>
        <time>2020-10-24T10:10:17.451Z</time>
      </trkpt>
      <trkpt lat="39.836971" lon="2.91691">
        <ele>827.62481689453</ele>
        <time>2020-10-24T10:10:21.155Z</time>
      </trkpt>
      <trkpt lat="39.836715" lon="2.91681">
        <ele>819.26458740234</ele>
        <time>2020-10-24T10:10:24.895Z</time>
      </trkpt>
      <trkpt lat="39.836472" lon="2.916893">
        <ele>824.56408691406</ele>
        <time>2020-10-24T10:10:28.668Z</time>
      </trkpt>
      <trkpt lat="39.836243" lon="2.91681">
        <ele>818.46600341797</ele>
        <time>2020-10-24T10:10:32.473Z</time>
      </trkpt>
      <trkpt lat="39.836095" lon="2.916794">
        <ele>822.17932128906</ele>
        <time>2020-10-24T10:10:36.298Z</time>
      </trkpt>
      <trkpt lat="39.835906" lon="2.916661">
        <ele>819.021484375</ele>
        <time>2020-10-24T10:10:40.151Z</time>
      </trkpt>
      <trkpt lat="39.83565" lon="2.916312">
        <ele>804.98266601562</ele>
        <time>2020-10-24T10:10:44.054Z</time>
      </trkpt>
      <trkpt lat="39.835542" lon="2.916047">
        <ele>791.05657958984</ele>
        <time>2020-10-24T10:10:47.988Z</time>
      </trkpt>
      <trkpt lat="39.835327" lon="2.915964">
        <ele>790.81939697266</ele>
        <time>2020-10-24T10:10:51.951Z</time>
      </trkpt>
      <trkpt lat="39.835152" lon="2.915765">
        <ele>780.62060546875</ele>
        <time>2020-10-24T10:10:55.945Z</time>
      </trkpt>
      <trkpt lat="39.83499" lon="2.915333">
        <ele>760.62377929688</ele>
        <time>2020-10-24T10:10:59.989Z</time>
      </trkpt>
      <trkpt lat="39.834882" lon="2.915084">
        <ele>748.13745117188</ele>
        <time>2020-10-24T10:11:04.062Z</time>
      </trkpt>
      <trkpt lat="39.834734" lon="2.914902">
        <ele>743.21520996094</ele>
        <time>2020-10-24T10:11:08.162Z</time>
      </trkpt>
      <trkpt lat="39.834734" lon="2.91447">
        <ele>727.1474609375</ele>
        <time>2020-10-24T10:11:12.307Z</time>
      </trkpt>
      <trkpt lat="39.834586" lon="2.914321">
        <ele>723.73645019531</ele>
        <time>2020-10-24T10:11:16.477Z</time>
      </trkpt>
      <trkpt lat="39.834464" lon="2.914072">
        <ele>713.41528320312</ele>
        <time>2020-10-24T10:11:20.677Z</time>
      </trkpt>
      <trkpt lat="39.834532" lon="2.914038">
        <ele>712.88494873047</ele>
        <time>2020-10-24T10:11:24.887Z</time>
      </trkpt>
      <trkpt lat="39.834774" lon="2.914022">
        <ele>709.13409423828</ele>
        <time>2020-10-24T10:11:29.129Z</time>
      </trkpt>
      <trkpt lat="39.835057" lon="2.914138">
        <ele>709.31286621094</ele>
        <time>2020-10-24T10:11:33.411Z</time>
      </trkpt>
      <trkpt lat="39.835138" lon="2.914038">
        <ele>704.09014892578</ele>
        <time>2020-10-24T10:11:37.707Z</time>
      </trkpt>
      <trkpt lat="39.834963" lon="2.913823">
        <ele>698.30706787109</ele>
        <time>2020-10-24T10:11:42.036Z</time>
      </trkpt>
      <trkpt lat="39.834828" lon="2.913541">
        <ele>690.04797363281</ele>
        <time>2020-10-24T10:11:46.399Z</time>
      </trkpt>
      <trkpt lat="39.834613" lon="2.913308">
        <ele>685.41522216797</ele>
        <time>2020-10-24T10:11:50.799Z</time>
      </trkpt>
      <trkpt lat="39.834181" lon="2.91291">
        <ele>673.32141113281</ele>
        <time>2020-10-24T10:11:55.270Z</time>
      </trkpt>
      <trkpt lat="39.833966" lon="2.91276">
        <ele>667.76031494141</ele>
        <time>2020-10-24T10:11:59.773Z</time>
      </trkpt>
      <trkpt lat="39.833939" lon="2.912445">
        <ele>663.93365478516</ele>
        <time>2020-10-24T10:12:04.309Z</time>
      </trkpt>
      <trkpt lat="39.833925" lon="2.91218">
        <ele>665.05426025391</ele>
        <time>2020-10-24T10:12:08.872Z</time>
      </trkpt>
      <trkpt lat="39.834072" lon="2.912062">
        <ele>669.662</ele>
        <time>2020-02-23T10:33:56Z</time>
      </trkpt>
      <trkpt lat="39.834132" lon="2.912044">
        <ele>669.583</ele>
        <time>2020-02-23T10:33:57Z</time>
      </trkpt>
      <trkpt lat="39.834193" lon="2.912025">
        <ele>669.411</ele>
        <time>2020-02-23T10:33:58Z</time>
      </trkpt>
      <trkpt lat="39.834238" lon="2.912005">
        <ele>669.308</ele>
        <time>2020-02-23T10:33:59Z</time>
      </trkpt>
      <trkpt lat="39.834238" lon="2.912005">
        <ele>669.371</ele>
        <time>2020-02-23T10:34:00Z</time>
      </trkpt>
      <trkpt lat="39.834331" lon="2.911994">
        <ele>669.071</ele>
        <time>2020-02-23T10:34:01Z</time>
      </trkpt>
      <trkpt lat="39.834331" lon="2.911994">
        <ele>669.016</ele>
        <time>2020-02-23T10:34:02Z</time>
      </trkpt>
      <trkpt lat="39.834477" lon="2.912025">
        <ele>668.578</ele>
        <time>2020-02-23T10:34:03Z</time>
      </trkpt>
      <trkpt lat="39.834507" lon="2.912029">
        <ele>668.399</ele>
        <time>2020-02-23T10:34:04Z</time>
      </trkpt>
      <trkpt lat="39.834604" lon="2.912039">
        <ele>667.962</ele>
        <time>2020-02-23T10:34:05Z</time>
      </trkpt>
      <trkpt lat="39.834641" lon="2.912042">
        <ele>667.749</ele>
        <time>2020-02-23T10:34:06Z</time>
      </trkpt>
      <trkpt lat="39.834746" lon="2.912047">
        <ele>667.095</ele>
        <time>2020-02-23T10:34:07Z</time>
      </trkpt>
      <trkpt lat="39.834777" lon="2.912047">
        <ele>666.835</ele>
        <time>2020-02-23T10:34:08Z</time>
      </trkpt>
      <trkpt lat="39.834862" lon="2.912049">
        <ele>666.086</ele>
        <time>2020-02-23T10:34:09Z</time>
      </trkpt>
      <trkpt lat="39.834886" lon="2.91205">
        <ele>665.814</ele>
        <time>2020-02-23T10:34:10Z</time>
      </trkpt>
      <trkpt lat="39.834934" lon="2.912053">
        <ele>665.408</ele>
        <time>2020-02-23T10:34:11Z</time>
      </trkpt>
      <trkpt lat="39.834934" lon="2.912053">
        <ele>665.458</ele>
        <time>2020-02-23T10:34:12Z</time>
      </trkpt>
      <trkpt lat="39.835028" lon="2.912065">
        <ele>664.568</ele>
        <time>2020-02-23T10:34:13Z</time>
      </trkpt>
      <trkpt lat="39.835028" lon="2.912065">
        <ele>664.553</ele>
        <time>2020-02-23T10:34:14Z</time>
      </trkpt>
      <trkpt lat="39.835084" lon="2.912066">
        <ele>664.185</ele>
        <time>2020-02-23T10:34:15Z</time>
      </trkpt>
      <trkpt lat="39.835141" lon="2.912066">
        <ele>663.616</ele>
        <time>2020-02-23T10:34:16Z</time>
      </trkpt>
      <trkpt lat="39.835197" lon="2.912067">
        <ele>663.349</ele>
        <time>2020-02-23T10:34:17Z</time>
      </trkpt>
      <trkpt lat="39.835242" lon="2.912064">
        <ele>663.086</ele>
        <time>2020-02-23T10:34:18Z</time>
      </trkpt>
      <trkpt lat="39.835242" lon="2.912064">
        <ele>663.082</ele>
        <time>2020-02-23T10:34:19Z</time>
      </trkpt>
      <trkpt lat="39.83534" lon="2.912057">
        <ele>662.055</ele>
        <time>2020-02-23T10:34:20Z</time>
      </trkpt>
      <trkpt lat="39.83534" lon="2.912057">
        <ele>662.007</ele>
        <time>2020-02-23T10:34:21Z</time>
      </trkpt>
      <trkpt lat="39.835433" lon="2.912045">
        <ele>660.917</ele>
        <time>2020-02-23T10:34:22Z</time>
      </trkpt>
      <trkpt lat="39.835433" lon="2.912045">
        <ele>660.908</ele>
        <time>2020-02-23T10:34:23Z</time>
      </trkpt>
      <trkpt lat="39.835526" lon="2.912034">
        <ele>659.78</ele>
        <time>2020-02-23T10:34:24Z</time>
      </trkpt>
      <trkpt lat="39.835526" lon="2.912034">
        <ele>659.72</ele>
        <time>2020-02-23T10:34:25Z</time>
      </trkpt>
      <trkpt lat="39.835625" lon="2.91202">
        <ele>658.395</ele>
        <time>2020-02-23T10:34:26Z</time>
      </trkpt>
      <trkpt lat="39.835625" lon="2.91202">
        <ele>658.367</ele>
        <time>2020-02-23T10:34:27Z</time>
      </trkpt>
      <trkpt lat="39.835721" lon="2.912008">
        <ele>657.048</ele>
        <time>2020-02-23T10:34:28Z</time>
      </trkpt>
      <trkpt lat="39.835721" lon="2.912008">
        <ele>657.021</ele>
        <time>2020-02-23T10:34:29Z</time>
      </trkpt>
      <trkpt lat="39.835819" lon="2.911988">
        <ele>655.938</ele>
        <time>2020-02-23T10:34:30Z</time>
      </trkpt>
      <trkpt lat="39.835819" lon="2.911988">
        <ele>655.934</ele>
        <time>2020-02-23T10:34:31Z</time>
      </trkpt>
      <trkpt lat="39.835911" lon="2.911974">
        <ele>654.966</ele>
        <time>2020-02-23T10:34:32Z</time>
      </trkpt>
      <trkpt lat="39.835911" lon="2.911974">
        <ele>654.929</ele>
        <time>2020-02-23T10:34:33Z</time>
      </trkpt>
      <trkpt lat="39.835968" lon="2.911969">
        <ele>654.321</ele>
        <time>2020-02-23T10:34:34Z</time>
      </trkpt>
      <trkpt lat="39.836025" lon="2.911965">
        <ele>653.608</ele>
        <time>2020-02-23T10:34:35Z</time>
      </trkpt>
      <trkpt lat="39.836082" lon="2.91196">
        <ele>652.831</ele>
        <time>2020-02-23T10:34:36Z</time>
      </trkpt>
      <trkpt lat="39.83613" lon="2.911955">
        <ele>652.111</ele>
        <time>2020-02-23T10:34:37Z</time>
      </trkpt>
      <trkpt lat="39.83613" lon="2.911955">
        <ele>652.146</ele>
        <time>2020-02-23T10:34:38Z</time>
      </trkpt>
      <trkpt lat="39.836227" lon="2.911937">
        <ele>650.858</ele>
        <time>2020-02-23T10:34:39Z</time>
      </trkpt>
      <trkpt lat="39.836227" lon="2.911937">
        <ele>650.879</ele>
        <time>2020-02-23T10:34:40Z</time>
      </trkpt>
      <trkpt lat="39.836315" lon="2.911897">
        <ele>649.512</ele>
        <time>2020-02-23T10:34:41Z</time>
      </trkpt>
      <trkpt lat="39.836315" lon="2.911897">
        <ele>649.549</ele>
        <time>2020-02-23T10:34:42Z</time>
      </trkpt>
      <trkpt lat="39.836376" lon="2.911887">
        <ele>649.115</ele>
        <time>2020-02-23T10:34:43Z</time>
      </trkpt>
      <trkpt lat="39.836436" lon="2.911877">
        <ele>648.823</ele>
        <time>2020-02-23T10:34:44Z</time>
      </trkpt>
      <trkpt lat="39.836497" lon="2.911867">
        <ele>648.583</ele>
        <time>2020-02-23T10:34:45Z</time>
      </trkpt>
      <trkpt lat="39.836543" lon="2.911857">
        <ele>648.311</ele>
        <time>2020-02-23T10:34:46Z</time>
      </trkpt>
      <trkpt lat="39.836543" lon="2.911857">
        <ele>648.308</ele>
        <time>2020-02-23T10:34:47Z</time>
      </trkpt>
      <trkpt lat="39.836678" lon="2.91183">
        <ele>647.697</ele>
        <time>2020-02-23T10:34:48Z</time>
      </trkpt>
      <trkpt lat="39.836704" lon="2.911822">
        <ele>647.577</ele>
        <time>2020-02-23T10:34:49Z</time>
      </trkpt>
      <trkpt lat="39.836782" lon="2.9118">
        <ele>647.182</ele>
        <time>2020-02-23T10:34:50Z</time>
      </trkpt>
      <trkpt lat="39.836807" lon="2.911792">
        <ele>647.084</ele>
        <time>2020-02-23T10:34:51Z</time>
      </trkpt>
      <trkpt lat="39.836884" lon="2.911769">
        <ele>646.645</ele>
        <time>2020-02-23T10:34:52Z</time>
      </trkpt>
      <trkpt lat="39.836911" lon="2.911761">
        <ele>646.568</ele>
        <time>2020-02-23T10:34:53Z</time>
      </trkpt>
      <trkpt lat="39.836992" lon="2.91174">
        <ele>646.225</ele>
        <time>2020-02-23T10:34:54Z</time>
      </trkpt>
      <trkpt lat="39.837018" lon="2.911733">
        <ele>646.061</ele>
        <time>2020-02-23T10:34:55Z</time>
      </trkpt>
      <trkpt lat="39.837093" lon="2.911716">
        <ele>645.786</ele>
        <time>2020-02-23T10:34:56Z</time>
      </trkpt>
      <trkpt lat="39.837115" lon="2.911711">
        <ele>645.66</ele>
        <time>2020-02-23T10:34:57Z</time>
      </trkpt>
      <trkpt lat="39.837159" lon="2.911701">
        <ele>645.426</ele>
        <time>2020-02-23T10:34:58Z</time>
      </trkpt>
      <trkpt lat="39.837159" lon="2.911701">
        <ele>645.408</ele>
        <time>2020-02-23T10:34:59Z</time>
      </trkpt>
      <trkpt lat="39.837253" lon="2.911676">
        <ele>645.013</ele>
        <time>2020-02-23T10:35:00Z</time>
      </trkpt>
      <trkpt lat="39.837253" lon="2.911676">
        <ele>645.013</ele>
        <time>2020-02-23T10:35:01Z</time>
      </trkpt>
      <trkpt lat="39.837343" lon="2.91165">
        <ele>644.568</ele>
        <time>2020-02-23T10:35:02Z</time>
      </trkpt>
      <trkpt lat="39.837343" lon="2.91165">
        <ele>644.54</ele>
        <time>2020-02-23T10:35:03Z</time>
      </trkpt>
      <trkpt lat="39.837435" lon="2.911631">
        <ele>644.091</ele>
        <time>2020-02-23T10:35:04Z</time>
      </trkpt>
      <trkpt lat="39.837435" lon="2.911631">
        <ele>644.084</ele>
        <time>2020-02-23T10:35:05Z</time>
      </trkpt>
      <trkpt lat="39.837537" lon="2.911613">
        <ele>643.361</ele>
        <time>2020-02-23T10:35:06Z</time>
      </trkpt>
      <trkpt lat="39.837537" lon="2.911613">
        <ele>643.367</ele>
        <time>2020-02-23T10:35:07Z</time>
      </trkpt>
      <trkpt lat="39.837575" lon="2.911591">
        <ele>643.148</ele>
        <time>2020-02-23T10:35:08Z</time>
      </trkpt>
      <trkpt lat="39.837614" lon="2.911569">
        <ele>642.861</ele>
        <time>2020-02-23T10:35:09Z</time>
      </trkpt>
      <trkpt lat="39.837652" lon="2.911547">
        <ele>642.517</ele>
        <time>2020-02-23T10:35:10Z</time>
      </trkpt>
      <trkpt lat="39.837599" lon="2.911507">
        <ele>642.108</ele>
        <time>2020-02-23T10:35:11Z</time>
      </trkpt>
      <trkpt lat="39.837545" lon="2.911468">
        <ele>641.879</ele>
        <time>2020-02-23T10:35:12Z</time>
      </trkpt>
      <trkpt lat="39.837492" lon="2.911428">
        <ele>641.529</ele>
        <time>2020-02-23T10:35:13Z</time>
      </trkpt>
      <trkpt lat="39.837407" lon="2.911404">
        <ele>641.164</ele>
        <time>2020-02-23T10:35:14Z</time>
      </trkpt>
      <trkpt lat="39.837379" lon="2.911398">
        <ele>640.956</ele>
        <time>2020-02-23T10:35:15Z</time>
      </trkpt>
      <trkpt lat="39.837299" lon="2.91138">
        <ele>640.567</ele>
        <time>2020-02-23T10:35:16Z</time>
      </trkpt>
      <trkpt lat="39.837274" lon="2.911374">
        <ele>640.47</ele>
        <time>2020-02-23T10:35:17Z</time>
      </trkpt>
      <trkpt lat="39.837225" lon="2.911362">
        <ele>640.217</ele>
        <time>2020-02-23T10:35:18Z</time>
      </trkpt>
      <trkpt lat="39.837225" lon="2.911362">
        <ele>640.263</ele>
        <time>2020-02-23T10:35:19Z</time>
      </trkpt>
      <trkpt lat="39.837131" lon="2.911338">
        <ele>639.788</ele>
        <time>2020-02-23T10:35:20Z</time>
      </trkpt>
      <trkpt lat="39.837131" lon="2.911338">
        <ele>639.724</ele>
        <time>2020-02-23T10:35:21Z</time>
      </trkpt>
      <trkpt lat="39.837026" lon="2.911314">
        <ele>639.226</ele>
        <time>2020-02-23T10:35:22Z</time>
      </trkpt>
      <trkpt lat="39.837026" lon="2.911314">
        <ele>639.208</ele>
        <time>2020-02-23T10:35:23Z</time>
      </trkpt>
      <trkpt lat="39.836899" lon="2.911271">
        <ele>638.683</ele>
        <time>2020-02-23T10:35:24Z</time>
      </trkpt>
      <trkpt lat="39.836878" lon="2.911261">
        <ele>638.533</ele>
        <time>2020-02-23T10:35:25Z</time>
      </trkpt>
      <trkpt lat="39.836835" lon="2.911242">
        <ele>638.258</ele>
        <time>2020-02-23T10:35:26Z</time>
      </trkpt>
      <trkpt lat="39.836835" lon="2.911242">
        <ele>638.26</ele>
        <time>2020-02-23T10:35:27Z</time>
      </trkpt>
      <trkpt lat="39.836764" lon="2.911154">
        <ele>637.011</ele>
        <time>2020-02-23T10:35:28Z</time>
      </trkpt>
      <trkpt lat="39.836764" lon="2.911154">
        <ele>637.044</ele>
        <time>2020-02-23T10:35:29Z</time>
      </trkpt>
      <trkpt lat="39.836802" lon="2.911118">
        <ele>636.151</ele>
        <time>2020-02-23T10:35:30Z</time>
      </trkpt>
      <trkpt lat="39.836841" lon="2.911081">
        <ele>635.317</ele>
        <time>2020-02-23T10:35:31Z</time>
      </trkpt>
      <trkpt lat="39.836879" lon="2.911045">
        <ele>634.579</ele>
        <time>2020-02-23T10:35:32Z</time>
      </trkpt>
      <trkpt lat="39.836971" lon="2.911061">
        <ele>632.805</ele>
        <time>2020-02-23T10:35:33Z</time>
      </trkpt>
      <trkpt lat="39.836998" lon="2.911064">
        <ele>632.325</ele>
        <time>2020-02-23T10:35:34Z</time>
      </trkpt>
      <trkpt lat="39.83708" lon="2.911072">
        <ele>630.608</ele>
        <time>2020-02-23T10:35:35Z</time>
      </trkpt>
      <trkpt lat="39.837107" lon="2.911074">
        <ele>630.132</ele>
        <time>2020-02-23T10:35:36Z</time>
      </trkpt>
      <trkpt lat="39.837161" lon="2.911078">
        <ele>629.022</ele>
        <time>2020-02-23T10:35:37Z</time>
      </trkpt>
      <trkpt lat="39.837161" lon="2.911078">
        <ele>629.087</ele>
        <time>2020-02-23T10:35:38Z</time>
      </trkpt>
      <trkpt lat="39.837217" lon="2.911062">
        <ele>627.869</ele>
        <time>2020-02-23T10:35:39Z</time>
      </trkpt>
      <trkpt lat="39.837273" lon="2.911045">
        <ele>626.57</ele>
        <time>2020-02-23T10:35:40Z</time>
      </trkpt>
      <trkpt lat="39.837329" lon="2.911029">
        <ele>625.263</ele>
        <time>2020-02-23T10:35:41Z</time>
      </trkpt>
      <trkpt lat="39.837374" lon="2.911014">
        <ele>624.15</ele>
        <time>2020-02-23T10:35:42Z</time>
      </trkpt>
      <trkpt lat="39.837374" lon="2.911014">
        <ele>624.136</ele>
        <time>2020-02-23T10:35:43Z</time>
      </trkpt>
      <trkpt lat="39.837497" lon="2.910981">
        <ele>621.692</ele>
        <time>2020-02-23T10:35:44Z</time>
      </trkpt>
      <trkpt lat="39.83752" lon="2.910972">
        <ele>621.173</ele>
        <time>2020-02-23T10:35:45Z</time>
      </trkpt>
      <trkpt lat="39.837567" lon="2.910955">
        <ele>620.22</ele>
        <time>2020-02-23T10:35:46Z</time>
      </trkpt>
      <trkpt lat="39.837567" lon="2.910955">
        <ele>620.208</ele>
        <time>2020-02-23T10:35:47Z</time>
      </trkpt>
      <trkpt lat="39.837658" lon="2.910926">
        <ele>618.674</ele>
        <time>2020-02-23T10:35:48Z</time>
      </trkpt>
      <trkpt lat="39.837658" lon="2.910926">
        <ele>618.674</ele>
        <time>2020-02-23T10:35:49Z</time>
      </trkpt>
      <trkpt lat="39.837758" lon="2.910896">
        <ele>616.429</ele>
        <time>2020-02-23T10:35:50Z</time>
      </trkpt>
      <trkpt lat="39.837758" lon="2.910896">
        <ele>616.481</ele>
        <time>2020-02-23T10:35:51Z</time>
      </trkpt>
      <trkpt lat="39.837881" lon="2.910826">
        <ele>613.422</ele>
        <time>2020-02-23T10:35:52Z</time>
      </trkpt>
      <trkpt lat="39.837901" lon="2.910807">
        <ele>612.925</ele>
        <time>2020-02-23T10:35:53Z</time>
      </trkpt>
      <trkpt lat="39.837957" lon="2.910744">
        <ele>611.552</ele>
        <time>2020-02-23T10:35:54Z</time>
      </trkpt>
      <trkpt lat="39.837972" lon="2.910719">
        <ele>611.048</ele>
        <time>2020-02-23T10:35:55Z</time>
      </trkpt>
      <trkpt lat="39.838002" lon="2.910669">
        <ele>610.285</ele>
        <time>2020-02-23T10:35:56Z</time>
      </trkpt>
      <trkpt lat="39.838002" lon="2.910669">
        <ele>610.289</ele>
        <time>2020-02-23T10:35:57Z</time>
      </trkpt>
      <trkpt lat="39.838078" lon="2.910538">
        <ele>608.117</ele>
        <time>2020-02-23T10:35:58Z</time>
      </trkpt>
      <trkpt lat="39.838089" lon="2.91051">
        <ele>607.808</ele>
        <time>2020-02-23T10:35:59Z</time>
      </trkpt>
      <trkpt lat="39.838111" lon="2.910454">
        <ele>607.163</ele>
        <time>2020-02-23T10:36:00Z</time>
      </trkpt>
      <trkpt lat="39.838111" lon="2.910454">
        <ele>607.113</ele>
        <time>2020-02-23T10:36:01Z</time>
      </trkpt>
      <trkpt lat="39.838131" lon="2.910402">
        <ele>606.698</ele>
        <time>2020-02-23T10:36:02Z</time>
      </trkpt>
      <trkpt lat="39.838152" lon="2.910349">
        <ele>606.11</ele>
        <time>2020-02-23T10:36:03Z</time>
      </trkpt>
      <trkpt lat="39.838172" lon="2.910297">
        <ele>605.771</ele>
        <time>2020-02-23T10:36:04Z</time>
      </trkpt>
      <trkpt lat="39.838203" lon="2.91023">
        <ele>605.194</ele>
        <time>2020-02-23T10:36:05Z</time>
      </trkpt>
      <trkpt lat="39.838233" lon="2.910164">
        <ele>604.611</ele>
        <time>2020-02-23T10:36:06Z</time>
      </trkpt>
      <trkpt lat="39.838264" lon="2.910097">
        <ele>604.177</ele>
        <time>2020-02-23T10:36:07Z</time>
      </trkpt>
      <trkpt lat="39.838293" lon="2.910048">
        <ele>603.975</ele>
        <time>2020-02-23T10:36:08Z</time>
      </trkpt>
      <trkpt lat="39.838293" lon="2.910048">
        <ele>603.928</ele>
        <time>2020-02-23T10:36:09Z</time>
      </trkpt>
      <trkpt lat="39.838367" lon="2.909954">
        <ele>603.32</ele>
        <time>2020-02-23T10:36:10Z</time>
      </trkpt>
      <trkpt lat="39.838367" lon="2.909954">
        <ele>603.308</ele>
        <time>2020-02-23T10:36:11Z</time>
      </trkpt>
      <trkpt lat="39.838438" lon="2.909871">
        <ele>602.942</ele>
        <time>2020-02-23T10:36:12Z</time>
      </trkpt>
      <trkpt lat="39.838438" lon="2.909871">
        <ele>602.922</ele>
        <time>2020-02-23T10:36:13Z</time>
      </trkpt>
      <trkpt lat="39.83851" lon="2.909784">
        <ele>602.637</ele>
        <time>2020-02-23T10:36:14Z</time>
      </trkpt>
      <trkpt lat="39.83851" lon="2.909784">
        <ele>602.639</ele>
        <time>2020-02-23T10:36:15Z</time>
      </trkpt>
      <trkpt lat="39.838572" lon="2.909684">
        <ele>602.22</ele>
        <time>2020-02-23T10:36:16Z</time>
      </trkpt>
      <trkpt lat="39.838572" lon="2.909684">
        <ele>602.233</ele>
        <time>2020-02-23T10:36:17Z</time>
      </trkpt>
      <trkpt lat="39.838632" lon="2.909596">
        <ele>601.82</ele>
        <time>2020-02-23T10:36:18Z</time>
      </trkpt>
      <trkpt lat="39.838632" lon="2.909596">
        <ele>601.866</ele>
        <time>2020-02-23T10:36:19Z</time>
      </trkpt>
      <trkpt lat="39.838671" lon="2.909484">
        <ele>601.591</ele>
        <time>2020-02-23T10:36:20Z</time>
      </trkpt>
      <trkpt lat="39.838671" lon="2.909484">
        <ele>601.581</ele>
        <time>2020-02-23T10:36:21Z</time>
      </trkpt>
      <trkpt lat="39.838742" lon="2.909343">
        <ele>601.019</ele>
        <time>2020-02-23T10:36:22Z</time>
      </trkpt>
      <trkpt lat="39.838758" lon="2.909319">
        <ele>600.908</ele>
        <time>2020-02-23T10:36:23Z</time>
      </trkpt>
      <trkpt lat="39.83879" lon="2.909272">
        <ele>600.714</ele>
        <time>2020-02-23T10:36:24Z</time>
      </trkpt>
      <trkpt lat="39.83879" lon="2.909272">
        <ele>600.794</ele>
        <time>2020-02-23T10:36:25Z</time>
      </trkpt>
      <trkpt lat="39.838853" lon="2.909182">
        <ele>600.319</ele>
        <time>2020-02-23T10:36:26Z</time>
      </trkpt>
      <trkpt lat="39.838853" lon="2.909182">
        <ele>600.341</ele>
        <time>2020-02-23T10:36:27Z</time>
      </trkpt>
      <trkpt lat="39.838882" lon="2.909144">
        <ele>600.172</ele>
        <time>2020-02-23T10:36:28Z</time>
      </trkpt>
      <trkpt lat="39.83891" lon="2.909107">
        <ele>599.875</ele>
        <time>2020-02-23T10:36:29Z</time>
      </trkpt>
      <trkpt lat="39.838939" lon="2.909069">
        <ele>599.632</ele>
        <time>2020-02-23T10:36:30Z</time>
      </trkpt>
      <trkpt lat="39.838982" lon="2.909027">
        <ele>599.328</ele>
        <time>2020-02-23T10:36:31Z</time>
      </trkpt>
      <trkpt lat="39.839026" lon="2.908984">
        <ele>598.984</ele>
        <time>2020-02-23T10:36:32Z</time>
      </trkpt>
      <trkpt lat="39.839069" lon="2.908942">
        <ele>597.907</ele>
        <time>2020-02-23T10:36:33Z</time>
      </trkpt>
      <trkpt lat="39.839111" lon="2.908916">
        <ele>597.717</ele>
        <time>2020-02-23T10:36:34Z</time>
      </trkpt>
      <trkpt lat="39.839111" lon="2.908916">
        <ele>597.708</ele>
        <time>2020-02-23T10:36:35Z</time>
      </trkpt>
      <trkpt lat="39.839241" lon="2.908844">
        <ele>594.563</ele>
        <time>2020-02-23T10:36:36Z</time>
      </trkpt>
      <trkpt lat="39.839266" lon="2.908827">
        <ele>594.283</ele>
        <time>2020-02-23T10:36:37Z</time>
      </trkpt>
      <trkpt lat="39.83934" lon="2.908778">
        <ele>593.588</ele>
        <time>2020-02-23T10:36:38Z</time>
      </trkpt>
      <trkpt lat="39.839364" lon="2.908764">
        <ele>593.39</ele>
        <time>2020-02-23T10:36:39Z</time>
      </trkpt>
      <trkpt lat="39.839436" lon="2.908733">
        <ele>592.891</ele>
        <time>2020-02-23T10:36:40Z</time>
      </trkpt>
      <trkpt lat="39.839458" lon="2.90873">
        <ele>592.794</ele>
        <time>2020-02-23T10:36:41Z</time>
      </trkpt>
      <trkpt lat="39.839503" lon="2.908725">
        <ele>592.571</ele>
        <time>2020-02-23T10:36:42Z</time>
      </trkpt>
      <trkpt lat="39.839503" lon="2.908725">
        <ele>592.557</ele>
        <time>2020-02-23T10:36:43Z</time>
      </trkpt>
      <trkpt lat="39.839592" lon="2.908753">
        <ele>592.176</ele>
        <time>2020-02-23T10:36:44Z</time>
      </trkpt>
      <trkpt lat="39.839592" lon="2.908753">
        <ele>592.19</ele>
        <time>2020-02-23T10:36:45Z</time>
      </trkpt>
      <trkpt lat="39.839647" lon="2.908783">
        <ele>591.919</ele>
        <time>2020-02-23T10:36:46Z</time>
      </trkpt>
      <trkpt lat="39.839701" lon="2.908814">
        <ele>591.708</ele>
        <time>2020-02-23T10:36:47Z</time>
      </trkpt>
      <trkpt lat="39.839756" lon="2.908844">
        <ele>591.692</ele>
        <time>2020-02-23T10:36:48Z</time>
      </trkpt>
      <trkpt lat="39.839799" lon="2.908872">
        <ele>591.572</ele>
        <time>2020-02-23T10:36:49Z</time>
      </trkpt>
      <trkpt lat="39.839799" lon="2.908872">
        <ele>591.567</ele>
        <time>2020-02-23T10:36:50Z</time>
      </trkpt>
      <trkpt lat="39.839836" lon="2.908895">
        <ele>591.599</ele>
        <time>2020-02-23T10:36:51Z</time>
      </trkpt>
      <trkpt lat="39.839873" lon="2.908919">
        <ele>591.56</ele>
        <time>2020-02-23T10:36:52Z</time>
      </trkpt>
      <trkpt lat="39.83991" lon="2.908942">
        <ele>591.583</ele>
        <time>2020-02-23T10:36:53Z</time>
      </trkpt>
      <trkpt lat="39.839947" lon="2.908966">
        <ele>591.59</ele>
        <time>2020-02-23T10:36:54Z</time>
      </trkpt>
      <trkpt lat="39.839984" lon="2.90899">
        <ele>591.526</ele>
        <time>2020-02-23T10:36:55Z</time>
      </trkpt>
      <trkpt lat="39.840021" lon="2.909014">
        <ele>591.517</ele>
        <time>2020-02-23T10:36:56Z</time>
      </trkpt>
      <trkpt lat="39.840059" lon="2.909035">
        <ele>591.587</ele>
        <time>2020-02-23T10:36:57Z</time>
      </trkpt>
      <trkpt lat="39.840098" lon="2.909055">
        <ele>591.515</ele>
        <time>2020-02-23T10:36:58Z</time>
      </trkpt>
      <trkpt lat="39.840136" lon="2.909076">
        <ele>591.508</ele>
        <time>2020-02-23T10:36:59Z</time>
      </trkpt>
      <trkpt lat="39.840172" lon="2.909099">
        <ele>591.456</ele>
        <time>2020-02-23T10:37:00Z</time>
      </trkpt>
      <trkpt lat="39.840207" lon="2.909121">
        <ele>591.436</ele>
        <time>2020-02-23T10:37:01Z</time>
      </trkpt>
      <trkpt lat="39.840243" lon="2.909144">
        <ele>591.491</ele>
        <time>2020-02-23T10:37:02Z</time>
      </trkpt>
      <trkpt lat="39.840279" lon="2.909165">
        <ele>591.373</ele>
        <time>2020-02-23T10:37:03Z</time>
      </trkpt>
      <trkpt lat="39.840315" lon="2.909187">
        <ele>591.384</ele>
        <time>2020-02-23T10:37:04Z</time>
      </trkpt>
      <trkpt lat="39.840351" lon="2.909208">
        <ele>591.297</ele>
        <time>2020-02-23T10:37:05Z</time>
      </trkpt>
      <trkpt lat="39.840387" lon="2.90923">
        <ele>591.174</ele>
        <time>2020-02-23T10:37:06Z</time>
      </trkpt>
      <trkpt lat="39.840423" lon="2.909251">
        <ele>591.07</ele>
        <time>2020-02-23T10:37:07Z</time>
      </trkpt>
      <trkpt lat="39.840459" lon="2.909273">
        <ele>590.947</ele>
        <time>2020-02-23T10:37:08Z</time>
      </trkpt>
      <trkpt lat="39.8405" lon="2.909294">
        <ele>590.829</ele>
        <time>2020-02-23T10:37:09Z</time>
      </trkpt>
      <trkpt lat="39.840542" lon="2.909314">
        <ele>590.721</ele>
        <time>2020-02-23T10:37:10Z</time>
      </trkpt>
      <trkpt lat="39.840583" lon="2.909335">
        <ele>590.608</ele>
        <time>2020-02-23T10:37:11Z</time>
      </trkpt>
      <trkpt lat="39.840621" lon="2.909355">
        <ele>590.559</ele>
        <time>2020-02-23T10:37:12Z</time>
      </trkpt>
      <trkpt lat="39.840659" lon="2.909374">
        <ele>590.589</ele>
        <time>2020-02-23T10:37:13Z</time>
      </trkpt>
      <trkpt lat="39.840697" lon="2.909394">
        <ele>590.534</ele>
        <time>2020-02-23T10:37:14Z</time>
      </trkpt>
      <trkpt lat="39.840734" lon="2.909414">
        <ele>590.546</ele>
        <time>2020-02-23T10:37:15Z</time>
      </trkpt>
      <trkpt lat="39.840772" lon="2.909435">
        <ele>590.517</ele>
        <time>2020-02-23T10:37:16Z</time>
      </trkpt>
      <trkpt lat="39.840809" lon="2.909455">
        <ele>590.58</ele>
        <time>2020-02-23T10:37:17Z</time>
      </trkpt>
      <trkpt lat="39.840845" lon="2.90947">
        <ele>590.557</ele>
        <time>2020-02-23T10:37:18Z</time>
      </trkpt>
      <trkpt lat="39.84088" lon="2.909484">
        <ele>590.553</ele>
        <time>2020-02-23T10:37:19Z</time>
      </trkpt>
      <trkpt lat="39.840916" lon="2.909499">
        <ele>590.538</ele>
        <time>2020-02-23T10:37:20Z</time>
      </trkpt>
      <trkpt lat="39.840943" lon="2.909518">
        <ele>590.57</ele>
        <time>2020-02-23T10:37:21Z</time>
      </trkpt>
      <trkpt lat="39.840969" lon="2.909537">
        <ele>590.517</ele>
        <time>2020-02-23T10:37:22Z</time>
      </trkpt>
      <trkpt lat="39.840996" lon="2.909557">
        <ele>590.608</ele>
        <time>2020-02-23T10:37:23Z</time>
      </trkpt>
      <trkpt lat="39.841022" lon="2.909576">
        <ele>590.798</ele>
        <time>2020-02-23T10:37:24Z</time>
      </trkpt>
      <trkpt lat="39.841047" lon="2.909603">
        <ele>591.098</ele>
        <time>2020-02-23T10:37:25Z</time>
      </trkpt>
      <trkpt lat="39.841071" lon="2.90963">
        <ele>591.253</ele>
        <time>2020-02-23T10:37:26Z</time>
      </trkpt>
      <trkpt lat="39.841096" lon="2.909657">
        <ele>591.445</ele>
        <time>2020-02-23T10:37:27Z</time>
      </trkpt>
      <trkpt lat="39.841121" lon="2.909684">
        <ele>591.636</ele>
        <time>2020-02-23T10:37:28Z</time>
      </trkpt>
      <trkpt lat="39.841145" lon="2.90971">
        <ele>591.889</ele>
        <time>2020-02-23T10:37:29Z</time>
      </trkpt>
      <trkpt lat="39.84117" lon="2.909737">
        <ele>592.026</ele>
        <time>2020-02-23T10:37:30Z</time>
      </trkpt>
      <trkpt lat="39.841203" lon="2.909759">
        <ele>592.252</ele>
        <time>2020-02-23T10:37:31Z</time>
      </trkpt>
      <trkpt lat="39.841237" lon="2.909782">
        <ele>592.449</ele>
        <time>2020-02-23T10:37:32Z</time>
      </trkpt>
      <trkpt lat="39.84127" lon="2.909804">
        <ele>592.702</ele>
        <time>2020-02-23T10:37:33Z</time>
      </trkpt>
      <trkpt lat="39.841299" lon="2.909816">
        <ele>592.822</ele>
        <time>2020-02-23T10:37:34Z</time>
      </trkpt>
      <trkpt lat="39.841327" lon="2.909828">
        <ele>593.008</ele>
        <time>2020-02-23T10:37:35Z</time>
      </trkpt>
      <trkpt lat="39.841356" lon="2.90984">
        <ele>593.239</ele>
        <time>2020-02-23T10:37:36Z</time>
      </trkpt>
      <trkpt lat="39.841385" lon="2.909849">
        <ele>593.319</ele>
        <time>2020-02-23T10:37:37Z</time>
      </trkpt>
      <trkpt lat="39.841415" lon="2.909857">
        <ele>593.534</ele>
        <time>2020-02-23T10:37:38Z</time>
      </trkpt>
      <trkpt lat="39.841444" lon="2.909866">
        <ele>593.876</ele>
        <time>2020-02-23T10:37:39Z</time>
      </trkpt>
      <trkpt lat="39.841477" lon="2.909867">
        <ele>594.047</ele>
        <time>2020-02-23T10:37:40Z</time>
      </trkpt>
      <trkpt lat="39.841511" lon="2.909869">
        <ele>594.38</ele>
        <time>2020-02-23T10:37:41Z</time>
      </trkpt>
      <trkpt lat="39.841544" lon="2.90987">
        <ele>594.577</ele>
        <time>2020-02-23T10:37:42Z</time>
      </trkpt>
      <trkpt lat="39.841582" lon="2.90987">
        <ele>594.843</ele>
        <time>2020-02-23T10:37:43Z</time>
      </trkpt>
      <trkpt lat="39.841621" lon="2.909869">
        <ele>595.281</ele>
        <time>2020-02-23T10:37:44Z</time>
      </trkpt>
      <trkpt lat="39.841659" lon="2.909869">
        <ele>595.661</ele>
        <time>2020-02-23T10:37:45Z</time>
      </trkpt>
      <trkpt lat="39.841691" lon="2.909863">
        <ele>595.917</ele>
        <time>2020-02-23T10:37:46Z</time>
      </trkpt>
      <trkpt lat="39.841724" lon="2.909858">
        <ele>596.308</ele>
        <time>2020-02-23T10:37:47Z</time>
      </trkpt>
      <trkpt lat="39.841756" lon="2.909852">
        <ele>596.653</ele>
        <time>2020-02-23T10:37:48Z</time>
      </trkpt>
      <trkpt lat="39.841793" lon="2.90985">
        <ele>596.933</ele>
        <time>2020-02-23T10:37:49Z</time>
      </trkpt>
      <trkpt lat="39.84183" lon="2.909847">
        <ele>597.318</ele>
        <time>2020-02-23T10:37:50Z</time>
      </trkpt>
      <trkpt lat="39.841867" lon="2.909845">
        <ele>597.69</ele>
        <time>2020-02-23T10:37:51Z</time>
      </trkpt>
      <trkpt lat="39.8419" lon="2.909842">
        <ele>597.991</ele>
        <time>2020-02-23T10:37:52Z</time>
      </trkpt>
      <trkpt lat="39.841933" lon="2.909839">
        <ele>598.234</ele>
        <time>2020-02-23T10:37:53Z</time>
      </trkpt>
      <trkpt lat="39.841966" lon="2.909836">
        <ele>598.461</ele>
        <time>2020-02-23T10:37:54Z</time>
      </trkpt>
      <trkpt lat="39.842013" lon="2.909822">
        <ele>598.747</ele>
        <time>2020-02-23T10:37:55Z</time>
      </trkpt>
      <trkpt lat="39.842061" lon="2.909807">
        <ele>599.054</ele>
        <time>2020-02-23T10:37:56Z</time>
      </trkpt>
      <trkpt lat="39.842108" lon="2.909793">
        <ele>599.456</ele>
        <time>2020-02-23T10:37:57Z</time>
      </trkpt>
      <trkpt lat="39.842132" lon="2.909768">
        <ele>599.611</ele>
        <time>2020-02-23T10:37:58Z</time>
      </trkpt>
      <trkpt lat="39.842132" lon="2.909768">
        <ele>599.608</ele>
        <time>2020-02-23T10:37:59Z</time>
      </trkpt>
      <trkpt lat="39.842123" lon="2.90973">
        <ele>599.54</ele>
        <time>2020-02-23T10:38:00Z</time>
      </trkpt>
      <trkpt lat="39.842113" lon="2.909693">
        <ele>599.42</ele>
        <time>2020-02-23T10:38:01Z</time>
      </trkpt>
      <trkpt lat="39.842104" lon="2.909655">
        <ele>599.355</ele>
        <time>2020-02-23T10:38:02Z</time>
      </trkpt>
      <trkpt lat="39.842062" lon="2.909551">
        <ele>599.057</ele>
        <time>2020-02-23T10:38:03Z</time>
      </trkpt>
      <trkpt lat="39.842062" lon="2.909551">
        <ele>599.098</ele>
        <time>2020-02-23T10:38:04Z</time>
      </trkpt>
      <trkpt lat="39.842012" lon="2.909415">
        <ele>598.721</ele>
        <time>2020-02-23T10:38:05Z</time>
      </trkpt>
      <trkpt lat="39.842001" lon="2.90939">
        <ele>598.678</ele>
        <time>2020-02-23T10:38:06Z</time>
      </trkpt>
      <trkpt lat="39.841983" lon="2.909333">
        <ele>598.564</ele>
        <time>2020-02-23T10:38:07Z</time>
      </trkpt>
      <trkpt lat="39.841965" lon="2.909282">
        <ele>598.341</ele>
        <time>2020-02-23T10:38:08Z</time>
      </trkpt>
      <trkpt lat="39.841943" lon="2.909232">
        <ele>598.281</ele>
        <time>2020-02-23T10:38:09Z</time>
      </trkpt>
      <trkpt lat="39.841912" lon="2.909182">
        <ele>598.009</ele>
        <time>2020-02-23T10:38:10Z</time>
      </trkpt>
      <trkpt lat="39.84188" lon="2.909131">
        <ele>597.708</ele>
        <time>2020-02-23T10:38:11Z</time>
      </trkpt>
      <trkpt lat="39.841849" lon="2.909082">
        <ele>597.599</ele>
        <time>2020-02-23T10:38:12Z</time>
      </trkpt>
      <trkpt lat="39.841849" lon="2.909082">
        <ele>597.529</ele>
        <time>2020-02-23T10:38:13Z</time>
      </trkpt>
      <trkpt lat="39.841804" lon="2.909034">
        <ele>597.294</ele>
        <time>2020-02-23T10:38:14Z</time>
      </trkpt>
      <trkpt lat="39.84176" lon="2.908985">
        <ele>596.876</ele>
        <time>2020-02-23T10:38:15Z</time>
      </trkpt>
      <trkpt lat="39.841715" lon="2.908937">
        <ele>596.427</ele>
        <time>2020-02-23T10:38:16Z</time>
      </trkpt>
      <trkpt lat="39.841683" lon="2.908902">
        <ele>596.19</ele>
        <time>2020-02-23T10:38:17Z</time>
      </trkpt>
      <trkpt lat="39.841654" lon="2.908862">
        <ele>595.717</ele>
        <time>2020-02-23T10:38:18Z</time>
      </trkpt>
      <trkpt lat="39.841627" lon="2.908816">
        <ele>595.433</ele>
        <time>2020-02-23T10:38:19Z</time>
      </trkpt>
      <trkpt lat="39.841601" lon="2.908775">
        <ele>595.084</ele>
        <time>2020-02-23T10:38:20Z</time>
      </trkpt>
      <trkpt lat="39.841601" lon="2.908775">
        <ele>595.007</ele>
        <time>2020-02-23T10:38:21Z</time>
      </trkpt>
      <trkpt lat="39.841552" lon="2.908699">
        <ele>594.417</ele>
        <time>2020-02-23T10:38:22Z</time>
      </trkpt>
      <trkpt lat="39.841552" lon="2.908699">
        <ele>594.408</ele>
        <time>2020-02-23T10:38:23Z</time>
      </trkpt>
      <trkpt lat="39.841473" lon="2.908599">
        <ele>593.473</ele>
        <time>2020-02-23T10:38:24Z</time>
      </trkpt>
      <trkpt lat="39.841456" lon="2.908572">
        <ele>593.243</ele>
        <time>2020-02-23T10:38:25Z</time>
      </trkpt>
      <trkpt lat="39.841424" lon="2.908529">
        <ele>592.818</ele>
        <time>2020-02-23T10:38:26Z</time>
      </trkpt>
      <trkpt lat="39.841389" lon="2.908492">
        <ele>592.55</ele>
        <time>2020-02-23T10:38:27Z</time>
      </trkpt>
      <trkpt lat="39.841356" lon="2.908454">
        <ele>592.281</ele>
        <time>2020-02-23T10:38:28Z</time>
      </trkpt>
      <trkpt lat="39.841323" lon="2.908403">
        <ele>591.814</ele>
        <time>2020-02-23T10:38:29Z</time>
      </trkpt>
      <trkpt lat="39.841293" lon="2.908358">
        <ele>591.581</ele>
        <time>2020-02-23T10:38:30Z</time>
      </trkpt>
      <trkpt lat="39.841263" lon="2.90831">
        <ele>591.287</ele>
        <time>2020-02-23T10:38:31Z</time>
      </trkpt>
      <trkpt lat="39.841231" lon="2.908267">
        <ele>590.993</ele>
        <time>2020-02-23T10:38:32Z</time>
      </trkpt>
      <trkpt lat="39.841201" lon="2.908224">
        <ele>590.565</ele>
        <time>2020-02-23T10:38:33Z</time>
      </trkpt>
      <trkpt lat="39.84117" lon="2.908182">
        <ele>590.221</ele>
        <time>2020-02-23T10:38:34Z</time>
      </trkpt>
      <trkpt lat="39.841141" lon="2.90815">
        <ele>589.908</ele>
        <time>2020-02-23T10:38:35Z</time>
      </trkpt>
      <trkpt lat="39.841113" lon="2.908113">
        <ele>589.664</ele>
        <time>2020-02-23T10:38:36Z</time>
      </trkpt>
      <trkpt lat="39.841085" lon="2.908075">
        <ele>589.314</ele>
        <time>2020-02-23T10:38:37Z</time>
      </trkpt>
      <trkpt lat="39.84105" lon="2.908039">
        <ele>588.979</ele>
        <time>2020-02-23T10:38:38Z</time>
      </trkpt>
      <trkpt lat="39.841015" lon="2.908007">
        <ele>588.621</ele>
        <time>2020-02-23T10:38:39Z</time>
      </trkpt>
      <trkpt lat="39.840978" lon="2.907981">
        <ele>588.392</ele>
        <time>2020-02-23T10:38:40Z</time>
      </trkpt>
      <trkpt lat="39.840941" lon="2.907955">
        <ele>588.185</ele>
        <time>2020-02-23T10:38:41Z</time>
      </trkpt>
      <trkpt lat="39.840906" lon="2.907922">
        <ele>587.952</ele>
        <time>2020-02-23T10:38:42Z</time>
      </trkpt>
      <trkpt lat="39.840872" lon="2.907888">
        <ele>587.798</ele>
        <time>2020-02-23T10:38:43Z</time>
      </trkpt>
      <trkpt lat="39.840839" lon="2.907853">
        <ele>587.583</ele>
        <time>2020-02-23T10:38:44Z</time>
      </trkpt>
      <trkpt lat="39.840839" lon="2.907853">
        <ele>587.525</ele>
        <time>2020-02-23T10:38:45Z</time>
      </trkpt>
      <trkpt lat="39.840814" lon="2.907794">
        <ele>587.317</ele>
        <time>2020-02-23T10:38:46Z</time>
      </trkpt>
      <trkpt lat="39.840789" lon="2.907734">
        <ele>587.108</ele>
        <time>2020-02-23T10:38:47Z</time>
      </trkpt>
      <trkpt lat="39.840764" lon="2.907675">
        <ele>586.963</ele>
        <time>2020-02-23T10:38:48Z</time>
      </trkpt>
      <trkpt lat="39.840746" lon="2.90762">
        <ele>586.713</ele>
        <time>2020-02-23T10:38:49Z</time>
      </trkpt>
      <trkpt lat="39.840746" lon="2.90762">
        <ele>586.738</ele>
        <time>2020-02-23T10:38:50Z</time>
      </trkpt>
      <trkpt lat="39.840731" lon="2.907565">
        <ele>586.63</ele>
        <time>2020-02-23T10:38:51Z</time>
      </trkpt>
      <trkpt lat="39.840715" lon="2.90751">
        <ele>586.471</ele>
        <time>2020-02-23T10:38:52Z</time>
      </trkpt>
      <trkpt lat="39.8407" lon="2.907455">
        <ele>586.284</ele>
        <time>2020-02-23T10:38:53Z</time>
      </trkpt>
      <trkpt lat="39.840683" lon="2.907398">
        <ele>586.021</ele>
        <time>2020-02-23T10:38:54Z</time>
      </trkpt>
      <trkpt lat="39.840665" lon="2.907341">
        <ele>585.887</ele>
        <time>2020-02-23T10:38:55Z</time>
      </trkpt>
      <trkpt lat="39.840648" lon="2.907284">
        <ele>585.698</ele>
        <time>2020-02-23T10:38:56Z</time>
      </trkpt>
      <trkpt lat="39.840639" lon="2.907261">
        <ele>585.515</ele>
        <time>2020-02-23T10:38:57Z</time>
      </trkpt>
      <trkpt lat="39.840595" lon="2.907119">
        <ele>585.026</ele>
        <time>2020-02-23T10:38:58Z</time>
      </trkpt>
      <trkpt lat="39.840586" lon="2.907091">
        <ele>584.908</ele>
        <time>2020-02-23T10:38:59Z</time>
      </trkpt>
      <trkpt lat="39.84057" lon="2.907034">
        <ele>584.724</ele>
        <time>2020-02-23T10:39:00Z</time>
      </trkpt>
      <trkpt lat="39.84057" lon="2.907034">
        <ele>584.744</ele>
        <time>2020-02-23T10:39:01Z</time>
      </trkpt>
      <trkpt lat="39.840538" lon="2.906894">
        <ele>584.369</ele>
        <time>2020-02-23T10:39:02Z</time>
      </trkpt>
      <trkpt lat="39.840531" lon="2.906866">
        <ele>584.281</ele>
        <time>2020-02-23T10:39:03Z</time>
      </trkpt>
      <trkpt lat="39.840531" lon="2.906866">
        <ele>584.262</ele>
        <time>2020-02-23T10:39:04Z</time>
      </trkpt>
      <trkpt lat="39.840524" lon="2.906811">
        <ele>584.065</ele>
        <time>2020-02-23T10:39:05Z</time>
      </trkpt>
      <trkpt lat="39.840518" lon="2.906755">
        <ele>583.992</ele>
        <time>2020-02-23T10:39:06Z</time>
      </trkpt>
      <trkpt lat="39.840511" lon="2.9067">
        <ele>583.798</ele>
        <time>2020-02-23T10:39:07Z</time>
      </trkpt>
      <trkpt lat="39.840518" lon="2.906649">
        <ele>583.637</ele>
        <time>2020-02-23T10:39:08Z</time>
      </trkpt>
      <trkpt lat="39.840526" lon="2.906599">
        <ele>583.549</ele>
        <time>2020-02-23T10:39:09Z</time>
      </trkpt>
      <trkpt lat="39.840533" lon="2.906548">
        <ele>583.313</ele>
        <time>2020-02-23T10:39:10Z</time>
      </trkpt>
      <trkpt lat="39.840567" lon="2.906487">
        <ele>583.108</ele>
        <time>2020-02-23T10:39:11Z</time>
      </trkpt>
      <trkpt lat="39.840602" lon="2.906425">
        <ele>582.958</ele>
        <time>2020-02-23T10:39:12Z</time>
      </trkpt>
      <trkpt lat="39.840636" lon="2.906364">
        <ele>582.738</ele>
        <time>2020-02-23T10:39:13Z</time>
      </trkpt>
      <trkpt lat="39.840665" lon="2.906319">
        <ele>582.553</ele>
        <time>2020-02-23T10:39:14Z</time>
      </trkpt>
      <trkpt lat="39.840665" lon="2.906319">
        <ele>582.515</ele>
        <time>2020-02-23T10:39:15Z</time>
      </trkpt>
      <trkpt lat="39.840737" lon="2.906236">
        <ele>582.196</ele>
        <time>2020-02-23T10:39:16Z</time>
      </trkpt>
      <trkpt lat="39.840737" lon="2.906236">
        <ele>582.159</ele>
        <time>2020-02-23T10:39:17Z</time>
      </trkpt>
      <trkpt lat="39.84082" lon="2.906161">
        <ele>581.846</ele>
        <time>2020-02-23T10:39:18Z</time>
      </trkpt>
      <trkpt lat="39.84082" lon="2.906161">
        <ele>581.822</ele>
        <time>2020-02-23T10:39:19Z</time>
      </trkpt>
      <trkpt lat="39.840907" lon="2.9061">
        <ele>581.568</ele>
        <time>2020-02-23T10:39:20Z</time>
      </trkpt>
      <trkpt lat="39.840907" lon="2.9061">
        <ele>581.542</ele>
        <time>2020-02-23T10:39:21Z</time>
      </trkpt>
      <trkpt lat="39.840988" lon="2.906044">
        <ele>581.126</ele>
        <time>2020-02-23T10:39:22Z</time>
      </trkpt>
      <trkpt lat="39.840988" lon="2.906044">
        <ele>581.108</ele>
        <time>2020-02-23T10:39:23Z</time>
      </trkpt>
      <trkpt lat="39.841074" lon="2.90598">
        <ele>580.871</ele>
        <time>2020-02-23T10:39:24Z</time>
      </trkpt>
      <trkpt lat="39.841074" lon="2.90598">
        <ele>580.851</ele>
        <time>2020-02-23T10:39:25Z</time>
      </trkpt>
      <trkpt lat="39.841118" lon="2.905924">
        <ele>580.596</ele>
        <time>2020-02-23T10:39:26Z</time>
      </trkpt>
      <trkpt lat="39.841161" lon="2.905868">
        <ele>580.388</ele>
        <time>2020-02-23T10:39:27Z</time>
      </trkpt>
      <trkpt lat="39.841205" lon="2.905812">
        <ele>580.049</ele>
        <time>2020-02-23T10:39:28Z</time>
      </trkpt>
      <trkpt lat="39.841236" lon="2.90577">
        <ele>579.822</ele>
        <time>2020-02-23T10:39:29Z</time>
      </trkpt>
      <trkpt lat="39.841236" lon="2.90577">
        <ele>579.839</ele>
        <time>2020-02-23T10:39:30Z</time>
      </trkpt>
      <trkpt lat="39.841264" lon="2.90573">
        <ele>579.775</ele>
        <time>2020-02-23T10:39:31Z</time>
      </trkpt>
      <trkpt lat="39.841292" lon="2.905691">
        <ele>579.535</ele>
        <time>2020-02-23T10:39:32Z</time>
      </trkpt>
      <trkpt lat="39.84132" lon="2.905651">
        <ele>579.386</ele>
        <time>2020-02-23T10:39:33Z</time>
      </trkpt>
      <trkpt lat="39.841367" lon="2.905613">
        <ele>579.114</ele>
        <time>2020-02-23T10:39:34Z</time>
      </trkpt>
      <trkpt lat="39.841415" lon="2.905576">
        <ele>578.808</ele>
        <time>2020-02-23T10:39:35Z</time>
      </trkpt>
      <trkpt lat="39.841462" lon="2.905538">
        <ele>578.528</ele>
        <time>2020-02-23T10:39:36Z</time>
      </trkpt>
      <trkpt lat="39.841504" lon="2.905511">
        <ele>578.388</ele>
        <time>2020-02-23T10:39:37Z</time>
      </trkpt>
      <trkpt lat="39.841504" lon="2.905511">
        <ele>578.343</ele>
        <time>2020-02-23T10:39:38Z</time>
      </trkpt>
      <trkpt lat="39.84159" lon="2.905476">
        <ele>577.835</ele>
        <time>2020-02-23T10:39:39Z</time>
      </trkpt>
      <trkpt lat="39.84159" lon="2.905476">
        <ele>577.886</ele>
        <time>2020-02-23T10:39:40Z</time>
      </trkpt>
      <trkpt lat="39.841685" lon="2.905458">
        <ele>577.329</ele>
        <time>2020-02-23T10:39:41Z</time>
      </trkpt>
      <trkpt lat="39.841685" lon="2.905458">
        <ele>577.386</ele>
        <time>2020-02-23T10:39:42Z</time>
      </trkpt>
      <trkpt lat="39.84172" lon="2.90544">
        <ele>577.162</ele>
        <time>2020-02-23T10:39:43Z</time>
      </trkpt>
      <trkpt lat="39.841756" lon="2.905422">
        <ele>576.942</ele>
        <time>2020-02-23T10:39:44Z</time>
      </trkpt>
      <trkpt lat="39.841791" lon="2.905404">
        <ele>576.822</ele>
        <time>2020-02-23T10:39:45Z</time>
      </trkpt>
      <trkpt lat="39.841825" lon="2.905382">
        <ele>576.614</ele>
        <time>2020-02-23T10:39:46Z</time>
      </trkpt>
      <trkpt lat="39.841859" lon="2.905361">
        <ele>576.408</ele>
        <time>2020-02-23T10:39:47Z</time>
      </trkpt>
      <trkpt lat="39.841893" lon="2.905339">
        <ele>576.289</ele>
        <time>2020-02-23T10:39:48Z</time>
      </trkpt>
      <trkpt lat="39.841925" lon="2.905308">
        <ele>576.049</ele>
        <time>2020-02-23T10:39:49Z</time>
      </trkpt>
      <trkpt lat="39.841958" lon="2.905277">
        <ele>575.824</ele>
        <time>2020-02-23T10:39:50Z</time>
      </trkpt>
      <trkpt lat="39.84199" lon="2.905246">
        <ele>575.686</ele>
        <time>2020-02-23T10:39:51Z</time>
      </trkpt>
      <trkpt lat="39.842008" lon="2.905207">
        <ele>575.427</ele>
        <time>2020-02-23T10:39:52Z</time>
      </trkpt>
      <trkpt lat="39.842027" lon="2.905169">
        <ele>575.13</ele>
        <time>2020-02-23T10:39:53Z</time>
      </trkpt>
      <trkpt lat="39.842045" lon="2.90513">
        <ele>574.917</ele>
        <time>2020-02-23T10:39:54Z</time>
      </trkpt>
      <trkpt lat="39.842082" lon="2.905139">
        <ele>574.563</ele>
        <time>2020-02-23T10:39:55Z</time>
      </trkpt>
      <trkpt lat="39.84212" lon="2.905149">
        <ele>574.224</ele>
        <time>2020-02-23T10:39:56Z</time>
      </trkpt>
      <trkpt lat="39.842157" lon="2.905158">
        <ele>573.804</ele>
        <time>2020-02-23T10:39:57Z</time>
      </trkpt>
      <trkpt lat="39.842215" lon="2.905146">
        <ele>573.214</ele>
        <time>2020-02-23T10:39:58Z</time>
      </trkpt>
      <trkpt lat="39.842274" lon="2.905133">
        <ele>572.508</ele>
        <time>2020-02-23T10:39:59Z</time>
      </trkpt>
      <trkpt lat="39.842332" lon="2.905121">
        <ele>571.857</ele>
        <time>2020-02-23T10:40:00Z</time>
      </trkpt>
      <trkpt lat="39.842377" lon="2.905109">
        <ele>571.267</ele>
        <time>2020-02-23T10:40:01Z</time>
      </trkpt>
      <trkpt lat="39.842377" lon="2.905109">
        <ele>571.282</ele>
        <time>2020-02-23T10:40:02Z</time>
      </trkpt>
      <trkpt lat="39.842454" lon="2.905047">
        <ele>570.244</ele>
        <time>2020-02-23T10:40:03Z</time>
      </trkpt>
      <trkpt lat="39.842454" lon="2.905047">
        <ele>570.235</ele>
        <time>2020-02-23T10:40:04Z</time>
      </trkpt>
      <trkpt lat="39.842486" lon="2.905004">
        <ele>569.638</ele>
        <time>2020-02-23T10:40:05Z</time>
      </trkpt>
      <trkpt lat="39.842518" lon="2.904961">
        <ele>569.145</ele>
        <time>2020-02-23T10:40:06Z</time>
      </trkpt>
      <trkpt lat="39.84255" lon="2.904918">
        <ele>568.611</ele>
        <time>2020-02-23T10:40:07Z</time>
      </trkpt>
      <trkpt lat="39.84257" lon="2.904876">
        <ele>568.232</ele>
        <time>2020-02-23T10:40:08Z</time>
      </trkpt>
      <trkpt lat="39.84259" lon="2.904833">
        <ele>567.892</ele>
        <time>2020-02-23T10:40:09Z</time>
      </trkpt>
      <trkpt lat="39.84261" lon="2.904791">
        <ele>567.311</ele>
        <time>2020-02-23T10:40:10Z</time>
      </trkpt>
      <trkpt lat="39.842619" lon="2.904741">
        <ele>566.908</ele>
        <time>2020-02-23T10:40:11Z</time>
      </trkpt>
      <trkpt lat="39.842629" lon="2.904692">
        <ele>566.448</ele>
        <time>2020-02-23T10:40:12Z</time>
      </trkpt>
      <trkpt lat="39.842638" lon="2.904642">
        <ele>566.048</ele>
        <time>2020-02-23T10:40:13Z</time>
      </trkpt>
      <trkpt lat="39.842649" lon="2.904587">
        <ele>565.673</ele>
        <time>2020-02-23T10:40:14Z</time>
      </trkpt>
      <trkpt lat="39.842661" lon="2.904532">
        <ele>565.235</ele>
        <time>2020-02-23T10:40:15Z</time>
      </trkpt>
      <trkpt lat="39.842672" lon="2.904477">
        <ele>564.866</ele>
        <time>2020-02-23T10:40:16Z</time>
      </trkpt>
      <trkpt lat="39.84268" lon="2.904424">
        <ele>564.599</ele>
        <time>2020-02-23T10:40:17Z</time>
      </trkpt>
      <trkpt lat="39.842688" lon="2.904371">
        <ele>564.296</ele>
        <time>2020-02-23T10:40:18Z</time>
      </trkpt>
      <trkpt lat="39.842696" lon="2.904318">
        <ele>563.932</ele>
        <time>2020-02-23T10:40:19Z</time>
      </trkpt>
      <trkpt lat="39.842715" lon="2.904281">
        <ele>563.796</ele>
        <time>2020-02-23T10:40:20Z</time>
      </trkpt>
      <trkpt lat="39.842734" lon="2.904244">
        <ele>563.531</ele>
        <time>2020-02-23T10:40:21Z</time>
      </trkpt>
      <trkpt lat="39.842753" lon="2.904207">
        <ele>563.324</ele>
        <time>2020-02-23T10:40:22Z</time>
      </trkpt>
      <trkpt lat="39.842763" lon="2.90416">
        <ele>563.108</ele>
        <time>2020-02-23T10:40:23Z</time>
      </trkpt>
      <trkpt lat="39.842774" lon="2.904112">
        <ele>562.924</ele>
        <time>2020-02-23T10:40:24Z</time>
      </trkpt>
      <trkpt lat="39.842784" lon="2.904065">
        <ele>562.684</ele>
        <time>2020-02-23T10:40:25Z</time>
      </trkpt>
      <trkpt lat="39.842771" lon="2.903996">
        <ele>562.319</ele>
        <time>2020-02-23T10:40:26Z</time>
      </trkpt>
      <trkpt lat="39.842758" lon="2.903926">
        <ele>561.891</ele>
        <time>2020-02-23T10:40:27Z</time>
      </trkpt>
      <trkpt lat="39.842745" lon="2.903857">
        <ele>561.312</ele>
        <time>2020-02-23T10:40:28Z</time>
      </trkpt>
      <trkpt lat="39.842714" lon="2.903813">
        <ele>560.955</ele>
        <time>2020-02-23T10:40:29Z</time>
      </trkpt>
      <trkpt lat="39.842714" lon="2.903813">
        <ele>560.972</ele>
        <time>2020-02-23T10:40:30Z</time>
      </trkpt>
      <trkpt lat="39.842635" lon="2.903744">
        <ele>559.968</ele>
        <time>2020-02-23T10:40:31Z</time>
      </trkpt>
      <trkpt lat="39.842635" lon="2.903744">
        <ele>559.943</ele>
        <time>2020-02-23T10:40:32Z</time>
      </trkpt>
      <trkpt lat="39.842528" lon="2.903651">
        <ele>558.164</ele>
        <time>2020-02-23T10:40:33Z</time>
      </trkpt>
      <trkpt lat="39.842506" lon="2.903639">
        <ele>557.81</ele>
        <time>2020-02-23T10:40:34Z</time>
      </trkpt>
      <trkpt lat="39.842461" lon="2.903615">
        <ele>557.008</ele>
        <time>2020-02-23T10:40:35Z</time>
      </trkpt>
      <trkpt lat="39.842461" lon="2.903615">
        <ele>557.029</ele>
        <time>2020-02-23T10:40:36Z</time>
      </trkpt>
      <trkpt lat="39.842425" lon="2.903625">
        <ele>556.429</ele>
        <time>2020-02-23T10:40:37Z</time>
      </trkpt>
      <trkpt lat="39.84239" lon="2.903636">
        <ele>555.834</ele>
        <time>2020-02-23T10:40:38Z</time>
      </trkpt>
      <trkpt lat="39.842354" lon="2.903646">
        <ele>555.256</ele>
        <time>2020-02-23T10:40:39Z</time>
      </trkpt>
      <trkpt lat="39.842312" lon="2.903699">
        <ele>554.267</ele>
        <time>2020-02-23T10:40:40Z</time>
      </trkpt>
      <trkpt lat="39.84227" lon="2.903751">
        <ele>553.24</ele>
        <time>2020-02-23T10:40:41Z</time>
      </trkpt>
      <trkpt lat="39.842228" lon="2.903804">
        <ele>552.137</ele>
        <time>2020-02-23T10:40:42Z</time>
      </trkpt>
      <trkpt lat="39.842182" lon="2.903828">
        <ele>551.263</ele>
        <time>2020-02-23T10:40:43Z</time>
      </trkpt>
      <trkpt lat="39.842182" lon="2.903828">
        <ele>551.234</ele>
        <time>2020-02-23T10:40:44Z</time>
      </trkpt>
      <trkpt lat="39.842079" lon="2.903858">
        <ele>549.455</ele>
        <time>2020-02-23T10:40:45Z</time>
      </trkpt>
      <trkpt lat="39.842079" lon="2.903858">
        <ele>549.41</ele>
        <time>2020-02-23T10:40:46Z</time>
      </trkpt>
      <trkpt lat="39.842035" lon="2.903865">
        <ele>548.708</ele>
        <time>2020-02-23T10:40:47Z</time>
      </trkpt>
      <trkpt lat="39.84199" lon="2.903872">
        <ele>547.818</ele>
        <time>2020-02-23T10:40:48Z</time>
      </trkpt>
      <trkpt lat="39.841946" lon="2.903879">
        <ele>547.098</ele>
        <time>2020-02-23T10:40:49Z</time>
      </trkpt>
      <trkpt lat="39.841908" lon="2.903887">
        <ele>546.443</ele>
        <time>2020-02-23T10:40:50Z</time>
      </trkpt>
      <trkpt lat="39.84187" lon="2.903895">
        <ele>545.855</ele>
        <time>2020-02-23T10:40:51Z</time>
      </trkpt>
      <trkpt lat="39.841832" lon="2.903903">
        <ele>545.246</ele>
        <time>2020-02-23T10:40:52Z</time>
      </trkpt>
      <trkpt lat="39.841794" lon="2.903897">
        <ele>544.699</ele>
        <time>2020-02-23T10:40:53Z</time>
      </trkpt>
      <trkpt lat="39.841757" lon="2.90389">
        <ele>544.116</ele>
        <time>2020-02-23T10:40:54Z</time>
      </trkpt>
      <trkpt lat="39.841719" lon="2.903884">
        <ele>543.592</ele>
        <time>2020-02-23T10:40:55Z</time>
      </trkpt>
      <trkpt lat="39.841675" lon="2.903878">
        <ele>542.985</ele>
        <time>2020-02-23T10:40:56Z</time>
      </trkpt>
      <trkpt lat="39.841631" lon="2.903872">
        <ele>542.389</ele>
        <time>2020-02-23T10:40:57Z</time>
      </trkpt>
      <trkpt lat="39.841587" lon="2.903866">
        <ele>541.717</ele>
        <time>2020-02-23T10:40:58Z</time>
      </trkpt>
      <trkpt lat="39.841563" lon="2.903826">
        <ele>541.308</ele>
        <time>2020-02-23T10:40:59Z</time>
      </trkpt>
      <trkpt lat="39.841538" lon="2.903785">
        <ele>540.983</ele>
        <time>2020-02-23T10:41:00Z</time>
      </trkpt>
      <trkpt lat="39.841514" lon="2.903745">
        <ele>540.563</ele>
        <time>2020-02-23T10:41:01Z</time>
      </trkpt>
      <trkpt lat="39.841539" lon="2.903655">
        <ele>539.898</ele>
        <time>2020-02-23T10:41:02Z</time>
      </trkpt>
      <trkpt lat="39.841565" lon="2.903565">
        <ele>539.24</ele>
        <time>2020-02-23T10:41:03Z</time>
      </trkpt>
      <trkpt lat="39.84159" lon="2.903475">
        <ele>538.661</ele>
        <time>2020-02-23T10:41:04Z</time>
      </trkpt>
      <trkpt lat="39.841625" lon="2.903366">
        <ele>537.744</ele>
        <time>2020-02-23T10:41:05Z</time>
      </trkpt>
      <trkpt lat="39.841636" lon="2.903338">
        <ele>537.541</ele>
        <time>2020-02-23T10:41:06Z</time>
      </trkpt>
      <trkpt lat="39.841657" lon="2.903282">
        <ele>536.967</ele>
        <time>2020-02-23T10:41:07Z</time>
      </trkpt>
      <trkpt lat="39.841657" lon="2.903282">
        <ele>536.914</ele>
        <time>2020-02-23T10:41:08Z</time>
      </trkpt>
      <trkpt lat="39.841671" lon="2.903206">
        <ele>536.254</ele>
        <time>2020-02-23T10:41:09Z</time>
      </trkpt>
      <trkpt lat="39.841684" lon="2.903131">
        <ele>535.509</ele>
        <time>2020-02-23T10:41:10Z</time>
      </trkpt>
      <trkpt lat="39.841698" lon="2.903055">
        <ele>534.808</ele>
        <time>2020-02-23T10:41:11Z</time>
      </trkpt>
      <trkpt lat="39.841712" lon="2.902997">
        <ele>534.326</ele>
        <time>2020-02-23T10:41:12Z</time>
      </trkpt>
      <trkpt lat="39.841712" lon="2.902997">
        <ele>534.366</ele>
        <time>2020-02-23T10:41:13Z</time>
      </trkpt>
      <trkpt lat="39.841721" lon="2.90294">
        <ele>533.131</ele>
        <time>2020-02-23T10:41:14Z</time>
      </trkpt>
      <trkpt lat="39.84173" lon="2.902884">
        <ele>532.283</ele>
        <time>2020-02-23T10:41:15Z</time>
      </trkpt>
      <trkpt lat="39.841739" lon="2.902827">
        <ele>531.224</ele>
        <time>2020-02-23T10:41:16Z</time>
      </trkpt>
      <trkpt lat="39.841734" lon="2.902775">
        <ele>530.477</ele>
        <time>2020-02-23T10:41:17Z</time>
      </trkpt>
      <trkpt lat="39.841728" lon="2.902722">
        <ele>529.534</ele>
        <time>2020-02-23T10:41:18Z</time>
      </trkpt>
      <trkpt lat="39.841723" lon="2.90267">
        <ele>528.68</ele>
        <time>2020-02-23T10:41:19Z</time>
      </trkpt>
      <trkpt lat="39.841689" lon="2.902639">
        <ele>528.295</ele>
        <time>2020-02-23T10:41:20Z</time>
      </trkpt>
      <trkpt lat="39.841655" lon="2.902609">
        <ele>527.949</ele>
        <time>2020-02-23T10:41:21Z</time>
      </trkpt>
      <trkpt lat="39.841621" lon="2.902578">
        <ele>527.623</ele>
        <time>2020-02-23T10:41:22Z</time>
      </trkpt>
      <trkpt lat="39.841589" lon="2.902557">
        <ele>527.408</ele>
        <time>2020-02-23T10:41:23Z</time>
      </trkpt>
      <trkpt lat="39.841557" lon="2.902535">
        <ele>527.154</ele>
        <time>2020-02-23T10:41:24Z</time>
      </trkpt>
      <trkpt lat="39.841525" lon="2.902514">
        <ele>526.934</ele>
        <time>2020-02-23T10:41:25Z</time>
      </trkpt>
      <trkpt lat="39.8415" lon="2.902479">
        <ele>526.699</ele>
        <time>2020-02-23T10:41:26Z</time>
      </trkpt>
      <trkpt lat="39.841474" lon="2.902445">
        <ele>526.371</ele>
        <time>2020-02-23T10:41:27Z</time>
      </trkpt>
      <trkpt lat="39.841449" lon="2.90241">
        <ele>526.162</ele>
        <time>2020-02-23T10:41:28Z</time>
      </trkpt>
      <trkpt lat="39.841447" lon="2.902334">
        <ele>525.745</ele>
        <time>2020-02-23T10:41:29Z</time>
      </trkpt>
      <trkpt lat="39.841446" lon="2.902257">
        <ele>525.322</ele>
        <time>2020-02-23T10:41:30Z</time>
      </trkpt>
      <trkpt lat="39.841444" lon="2.902181">
        <ele>525.048</ele>
        <time>2020-02-23T10:41:31Z</time>
      </trkpt>
      <trkpt lat="39.841444" lon="2.90212">
        <ele>524.966</ele>
        <time>2020-02-23T10:41:32Z</time>
      </trkpt>
      <trkpt lat="39.841444" lon="2.90212">
        <ele>524.929</ele>
        <time>2020-02-23T10:41:33Z</time>
      </trkpt>
      <trkpt lat="39.841451" lon="2.901988">
        <ele>524.521</ele>
        <time>2020-02-23T10:41:34Z</time>
      </trkpt>
      <trkpt lat="39.841451" lon="2.901988">
        <ele>524.508</ele>
        <time>2020-02-23T10:41:35Z</time>
      </trkpt>
      <trkpt lat="39.841451" lon="2.901934">
        <ele>524.491</ele>
        <time>2020-02-23T10:41:36Z</time>
      </trkpt>
      <trkpt lat="39.841452" lon="2.901881">
        <ele>524.381</ele>
        <time>2020-02-23T10:41:37Z</time>
      </trkpt>
      <trkpt lat="39.841452" lon="2.901827">
        <ele>524.166</ele>
        <time>2020-02-23T10:41:38Z</time>
      </trkpt>
      <trkpt lat="39.841454" lon="2.901773">
        <ele>524.018</ele>
        <time>2020-02-23T10:41:39Z</time>
      </trkpt>
      <trkpt lat="39.841456" lon="2.901719">
        <ele>523.879</ele>
        <time>2020-02-23T10:41:40Z</time>
      </trkpt>
      <trkpt lat="39.841458" lon="2.901665">
        <ele>523.782</ele>
        <time>2020-02-23T10:41:41Z</time>
      </trkpt>
      <trkpt lat="39.84147" lon="2.901613">
        <ele>523.529</ele>
        <time>2020-02-23T10:41:42Z</time>
      </trkpt>
      <trkpt lat="39.841482" lon="2.901562">
        <ele>523.375</ele>
        <time>2020-02-23T10:41:43Z</time>
      </trkpt>
      <trkpt lat="39.841494" lon="2.90151">
        <ele>523.277</ele>
        <time>2020-02-23T10:41:44Z</time>
      </trkpt>
      <trkpt lat="39.841521" lon="2.901446">
        <ele>523.061</ele>
        <time>2020-02-23T10:41:45Z</time>
      </trkpt>
      <trkpt lat="39.841547" lon="2.901381">
        <ele>522.827</ele>
        <time>2020-02-23T10:41:46Z</time>
      </trkpt>
      <trkpt lat="39.841574" lon="2.901317">
        <ele>522.608</ele>
        <time>2020-02-23T10:41:47Z</time>
      </trkpt>
      <trkpt lat="39.841602" lon="2.901267">
        <ele>522.422</ele>
        <time>2020-02-23T10:41:48Z</time>
      </trkpt>
      <trkpt lat="39.841602" lon="2.901267">
        <ele>522.442</ele>
        <time>2020-02-23T10:41:49Z</time>
      </trkpt>
      <trkpt lat="39.841626" lon="2.901223">
        <ele>522.137</ele>
        <time>2020-02-23T10:41:50Z</time>
      </trkpt>
      <trkpt lat="39.84165" lon="2.90118">
        <ele>521.949</ele>
        <time>2020-02-23T10:41:51Z</time>
      </trkpt>
      <trkpt lat="39.841674" lon="2.901136">
        <ele>521.61</ele>
        <time>2020-02-23T10:41:52Z</time>
      </trkpt>
      <trkpt lat="39.841711" lon="2.901079">
        <ele>521.113</ele>
        <time>2020-02-23T10:41:53Z</time>
      </trkpt>
      <trkpt lat="39.841747" lon="2.901021">
        <ele>520.61</ele>
        <time>2020-02-23T10:41:54Z</time>
      </trkpt>
      <trkpt lat="39.841784" lon="2.900964">
        <ele>520.096</ele>
        <time>2020-02-23T10:41:55Z</time>
      </trkpt>
      <trkpt lat="39.841815" lon="2.900922">
        <ele>519.614</ele>
        <time>2020-02-23T10:41:56Z</time>
      </trkpt>
      <trkpt lat="39.841815" lon="2.900922">
        <ele>519.654</ele>
        <time>2020-02-23T10:41:57Z</time>
      </trkpt>
      <trkpt lat="39.841889" lon="2.900835">
        <ele>518.809</ele>
        <time>2020-02-23T10:41:58Z</time>
      </trkpt>
      <trkpt lat="39.841889" lon="2.900835">
        <ele>518.808</ele>
        <time>2020-02-23T10:41:59Z</time>
      </trkpt>
      <trkpt lat="39.841948" lon="2.900741">
        <ele>518.156</ele>
        <time>2020-02-23T10:42:00Z</time>
      </trkpt>
      <trkpt lat="39.841948" lon="2.900741">
        <ele>518.196</ele>
        <time>2020-02-23T10:42:01Z</time>
      </trkpt>
      <trkpt lat="39.842003" lon="2.900629">
        <ele>517.431</ele>
        <time>2020-02-23T10:42:02Z</time>
      </trkpt>
      <trkpt lat="39.842012" lon="2.900606">
        <ele>517.233</ele>
        <time>2020-02-23T10:42:03Z</time>
      </trkpt>
      <trkpt lat="39.842034" lon="2.900556">
        <ele>517.044</ele>
        <time>2020-02-23T10:42:04Z</time>
      </trkpt>
      <trkpt lat="39.842046" lon="2.900512">
        <ele>516.817</ele>
        <time>2020-02-23T10:42:05Z</time>
      </trkpt>
      <trkpt lat="39.84205" lon="2.900465">
        <ele>516.624</ele>
        <time>2020-02-23T10:42:06Z</time>
      </trkpt>
      <trkpt lat="39.842057" lon="2.900422">
        <ele>516.59</ele>
        <time>2020-02-23T10:42:07Z</time>
      </trkpt>
      <trkpt lat="39.842062" lon="2.900379">
        <ele>516.394</ele>
        <time>2020-02-23T10:42:08Z</time>
      </trkpt>
      <trkpt lat="39.842064" lon="2.90033">
        <ele>516.257</ele>
        <time>2020-02-23T10:42:09Z</time>
      </trkpt>
      <trkpt lat="39.842058" lon="2.900275">
        <ele>515.822</ele>
        <time>2020-02-23T10:42:10Z</time>
      </trkpt>
      <trkpt lat="39.842048" lon="2.900227">
        <ele>515.808</ele>
        <time>2020-02-23T10:42:11Z</time>
      </trkpt>
      <trkpt lat="39.842034" lon="2.900175">
        <ele>515.854</ele>
        <time>2020-02-23T10:42:12Z</time>
      </trkpt>
      <trkpt lat="39.842019" lon="2.900126">
        <ele>515.814</ele>
        <time>2020-02-23T10:42:13Z</time>
      </trkpt>
      <trkpt lat="39.842001" lon="2.900077">
        <ele>515.969</ele>
        <time>2020-02-23T10:42:14Z</time>
      </trkpt>
      <trkpt lat="39.841982" lon="2.900024">
        <ele>515.931</ele>
        <time>2020-02-23T10:42:15Z</time>
      </trkpt>
      <trkpt lat="39.841966" lon="2.899976">
        <ele>515.972</ele>
        <time>2020-02-23T10:42:16Z</time>
      </trkpt>
      <trkpt lat="39.841951" lon="2.899929">
        <ele>516.045</ele>
        <time>2020-02-23T10:42:17Z</time>
      </trkpt>
      <trkpt lat="39.841939" lon="2.899882">
        <ele>516.062</ele>
        <time>2020-02-23T10:42:18Z</time>
      </trkpt>
      <trkpt lat="39.841926" lon="2.899836">
        <ele>516.148</ele>
        <time>2020-02-23T10:42:19Z</time>
      </trkpt>
      <trkpt lat="39.841912" lon="2.899789">
        <ele>516.342</ele>
        <time>2020-02-23T10:42:20Z</time>
      </trkpt>
      <trkpt lat="39.841899" lon="2.899746">
        <ele>516.422</ele>
        <time>2020-02-23T10:42:21Z</time>
      </trkpt>
      <trkpt lat="39.841884" lon="2.899699">
        <ele>516.614</ele>
        <time>2020-02-23T10:42:22Z</time>
      </trkpt>
      <trkpt lat="39.841873" lon="2.899654">
        <ele>516.708</ele>
        <time>2020-02-23T10:42:23Z</time>
      </trkpt>
      <trkpt lat="39.841862" lon="2.899617">
        <ele>516.859</ele>
        <time>2020-02-23T10:42:24Z</time>
      </trkpt>
      <trkpt lat="39.841852" lon="2.899578">
        <ele>517.029</ele>
        <time>2020-02-23T10:42:25Z</time>
      </trkpt>
      <trkpt lat="39.841838" lon="2.899535">
        <ele>517.174</ele>
        <time>2020-02-23T10:42:26Z</time>
      </trkpt>
      <trkpt lat="39.841838" lon="2.899535">
        <ele>517.146</ele>
        <time>2020-02-23T10:42:27Z</time>
      </trkpt>
      <trkpt lat="39.841823" lon="2.899494">
        <ele>517.357</ele>
        <time>2020-02-23T10:42:28Z</time>
      </trkpt>
      <trkpt lat="39.841807" lon="2.899452">
        <ele>517.56</ele>
        <time>2020-02-23T10:42:29Z</time>
      </trkpt>
      <trkpt lat="39.841792" lon="2.899411">
        <ele>517.787</ele>
        <time>2020-02-23T10:42:30Z</time>
      </trkpt>
      <trkpt lat="39.841776" lon="2.899369">
        <ele>517.893</ele>
        <time>2020-02-23T10:42:31Z</time>
      </trkpt>
      <trkpt lat="39.841759" lon="2.899326">
        <ele>518.044</ele>
        <time>2020-02-23T10:42:32Z</time>
      </trkpt>
      <trkpt lat="39.841743" lon="2.899284">
        <ele>518.205</ele>
        <time>2020-02-23T10:42:33Z</time>
      </trkpt>
      <trkpt lat="39.841719" lon="2.899229">
        <ele>518.315</ele>
        <time>2020-02-23T10:42:34Z</time>
      </trkpt>
      <trkpt lat="39.841694" lon="2.899173">
        <ele>518.408</ele>
        <time>2020-02-23T10:42:35Z</time>
      </trkpt>
      <trkpt lat="39.84167" lon="2.899118">
        <ele>518.539</ele>
        <time>2020-02-23T10:42:36Z</time>
      </trkpt>
      <trkpt lat="39.841652" lon="2.899078">
        <ele>518.589</ele>
        <time>2020-02-23T10:42:37Z</time>
      </trkpt>
      <trkpt lat="39.84163" lon="2.899039">
        <ele>518.494</ele>
        <time>2020-02-23T10:42:38Z</time>
      </trkpt>
      <trkpt lat="39.841609" lon="2.899">
        <ele>518.356</ele>
        <time>2020-02-23T10:42:39Z</time>
      </trkpt>
      <trkpt lat="39.841588" lon="2.898965">
        <ele>518.147</ele>
        <time>2020-02-23T10:42:40Z</time>
      </trkpt>
      <trkpt lat="39.841588" lon="2.898965">
        <ele>518.16</ele>
        <time>2020-02-23T10:42:41Z</time>
      </trkpt>
      <trkpt lat="39.841541" lon="2.898886">
        <ele>517.667</ele>
        <time>2020-02-23T10:42:42Z</time>
      </trkpt>
      <trkpt lat="39.841541" lon="2.898886">
        <ele>517.683</ele>
        <time>2020-02-23T10:42:43Z</time>
      </trkpt>
      <trkpt lat="39.841468" lon="2.898774">
        <ele>516.773</ele>
        <time>2020-02-23T10:42:44Z</time>
      </trkpt>
      <trkpt lat="39.84145" lon="2.898754">
        <ele>516.585</ele>
        <time>2020-02-23T10:42:45Z</time>
      </trkpt>
      <trkpt lat="39.84145" lon="2.898754">
        <ele>516.513</ele>
        <time>2020-02-23T10:42:46Z</time>
      </trkpt>
      <trkpt lat="39.841389" lon="2.898666">
        <ele>515.608</ele>
        <time>2020-02-23T10:42:47Z</time>
      </trkpt>
      <trkpt lat="39.841389" lon="2.898666">
        <ele>515.672</ele>
        <time>2020-02-23T10:42:48Z</time>
      </trkpt>
      <trkpt lat="39.841316" lon="2.898548">
        <ele>514.432</ele>
        <time>2020-02-23T10:42:49Z</time>
      </trkpt>
      <trkpt lat="39.841303" lon="2.898524">
        <ele>514.267</ele>
        <time>2020-02-23T10:42:50Z</time>
      </trkpt>
      <trkpt lat="39.84128" lon="2.898484">
        <ele>513.949</ele>
        <time>2020-02-23T10:42:51Z</time>
      </trkpt>
      <trkpt lat="39.841261" lon="2.898444">
        <ele>513.54</ele>
        <time>2020-02-23T10:42:52Z</time>
      </trkpt>
      <trkpt lat="39.841226" lon="2.898403">
        <ele>513.253</ele>
        <time>2020-02-23T10:42:53Z</time>
      </trkpt>
      <trkpt lat="39.84119" lon="2.898375">
        <ele>512.94</ele>
        <time>2020-02-23T10:42:54Z</time>
      </trkpt>
      <trkpt lat="39.841153" lon="2.898355">
        <ele>512.796</ele>
        <time>2020-02-23T10:42:55Z</time>
      </trkpt>
      <trkpt lat="39.841117" lon="2.898345">
        <ele>512.668</ele>
        <time>2020-02-23T10:42:56Z</time>
      </trkpt>
      <trkpt lat="39.841078" lon="2.898332">
        <ele>512.442</ele>
        <time>2020-02-23T10:42:57Z</time>
      </trkpt>
      <trkpt lat="39.841039" lon="2.898314">
        <ele>512.426</ele>
        <time>2020-02-23T10:42:58Z</time>
      </trkpt>
      <trkpt lat="39.841001" lon="2.898303">
        <ele>512.308</ele>
        <time>2020-02-23T10:42:59Z</time>
      </trkpt>
      <trkpt lat="39.840963" lon="2.898304">
        <ele>512.381</ele>
        <time>2020-02-23T10:43:00Z</time>
      </trkpt>
      <trkpt lat="39.840963" lon="2.898304">
        <ele>512.311</ele>
        <time>2020-02-23T10:43:01Z</time>
      </trkpt>
      <trkpt lat="39.840868" lon="2.898315">
        <ele>512.236</ele>
        <time>2020-02-23T10:43:02Z</time>
      </trkpt>
      <trkpt lat="39.840848" lon="2.89832">
        <ele>512.238</ele>
        <time>2020-02-23T10:43:03Z</time>
      </trkpt>
      <trkpt lat="39.84081" lon="2.898332">
        <ele>512.229</ele>
        <time>2020-02-23T10:43:04Z</time>
      </trkpt>
      <trkpt lat="39.84081" lon="2.898332">
        <ele>512.212</ele>
        <time>2020-02-23T10:43:05Z</time>
      </trkpt>
      <trkpt lat="39.840724" lon="2.898363">
        <ele>512.149</ele>
        <time>2020-02-23T10:43:06Z</time>
      </trkpt>
      <trkpt lat="39.840724" lon="2.898363">
        <ele>512.185</ele>
        <time>2020-02-23T10:43:07Z</time>
      </trkpt>
      <trkpt lat="39.840656" lon="2.898342">
        <ele>512.141</ele>
        <time>2020-02-23T10:43:08Z</time>
      </trkpt>
      <trkpt lat="39.840656" lon="2.898342">
        <ele>512.181</ele>
        <time>2020-02-23T10:43:09Z</time>
      </trkpt>
      <trkpt lat="39.840567" lon="2.89827">
        <ele>513.309</ele>
        <time>2020-02-23T10:43:10Z</time>
      </trkpt>
      <trkpt lat="39.840551" lon="2.898252">
        <ele>513.408</ele>
        <time>2020-02-23T10:43:11Z</time>
      </trkpt>
      <trkpt lat="39.840551" lon="2.898252">
        <ele>513.419</ele>
        <time>2020-02-23T10:43:12Z</time>
      </trkpt>
      <trkpt lat="39.840523" lon="2.898208">
        <ele>513.779</ele>
        <time>2020-02-23T10:43:13Z</time>
      </trkpt>
      <trkpt lat="39.840494" lon="2.898164">
        <ele>513.974</ele>
        <time>2020-02-23T10:43:14Z</time>
      </trkpt>
      <trkpt lat="39.840466" lon="2.89812">
        <ele>514.276</ele>
        <time>2020-02-23T10:43:15Z</time>
      </trkpt>
      <trkpt lat="39.840455" lon="2.8981">
        <ele>514.347</ele>
        <time>2020-02-23T10:43:16Z</time>
      </trkpt>
      <trkpt lat="39.840441" lon="2.89806">
        <ele>514.53</ele>
        <time>2020-02-23T10:43:17Z</time>
      </trkpt>
      <trkpt lat="39.840428" lon="2.898021">
        <ele>514.717</ele>
        <time>2020-02-23T10:43:18Z</time>
      </trkpt>
      <trkpt lat="39.840414" lon="2.897981">
        <ele>514.943</ele>
        <time>2020-02-23T10:43:19Z</time>
      </trkpt>
      <trkpt lat="39.840405" lon="2.897944">
        <ele>515.196</ele>
        <time>2020-02-23T10:43:20Z</time>
      </trkpt>
      <trkpt lat="39.840396" lon="2.897908">
        <ele>515.331</ele>
        <time>2020-02-23T10:43:21Z</time>
      </trkpt>
      <trkpt lat="39.840386" lon="2.897871">
        <ele>515.424</ele>
        <time>2020-02-23T10:43:22Z</time>
      </trkpt>
      <trkpt lat="39.840377" lon="2.897835">
        <ele>515.608</ele>
        <time>2020-02-23T10:43:23Z</time>
      </trkpt>
      <trkpt lat="39.840368" lon="2.897796">
        <ele>516.084</ele>
        <time>2020-02-23T10:43:24Z</time>
      </trkpt>
      <trkpt lat="39.84036" lon="2.897758">
        <ele>516.484</ele>
        <time>2020-02-23T10:43:25Z</time>
      </trkpt>
      <trkpt lat="39.840351" lon="2.897719">
        <ele>516.789</ele>
        <time>2020-02-23T10:43:26Z</time>
      </trkpt>
      <trkpt lat="39.840342" lon="2.897686">
        <ele>517.041</ele>
        <time>2020-02-23T10:43:27Z</time>
      </trkpt>
      <trkpt lat="39.840333" lon="2.897653">
        <ele>517.322</ele>
        <time>2020-02-23T10:43:28Z</time>
      </trkpt>
      <trkpt lat="39.840324" lon="2.89762">
        <ele>517.695</ele>
        <time>2020-02-23T10:43:29Z</time>
      </trkpt>
      <trkpt lat="39.840315" lon="2.897587">
        <ele>518.042</ele>
        <time>2020-02-23T10:43:30Z</time>
      </trkpt>
      <trkpt lat="39.840307" lon="2.897594">
        <ele>518.168</ele>
        <time>2020-02-23T10:43:31Z</time>
      </trkpt>
      <trkpt lat="39.840299" lon="2.897601">
        <ele>518.241</ele>
        <time>2020-02-23T10:43:32Z</time>
      </trkpt>
      <trkpt lat="39.840291" lon="2.897608">
        <ele>518.381</ele>
        <time>2020-02-23T10:43:33Z</time>
      </trkpt>
      <trkpt lat="39.840283" lon="2.897615">
        <ele>518.309</ele>
        <time>2020-02-23T10:43:34Z</time>
      </trkpt>
      <trkpt lat="39.840275" lon="2.897623">
        <ele>518.408</ele>
        <time>2020-02-23T10:43:35Z</time>
      </trkpt>
      <trkpt lat="39.840266" lon="2.89763">
        <ele>518.589</ele>
        <time>2020-02-23T10:43:36Z</time>
      </trkpt>
      <trkpt lat="39.840258" lon="2.897637">
        <ele>518.629</ele>
        <time>2020-02-23T10:43:37Z</time>
      </trkpt>
      <trkpt lat="39.84025" lon="2.897644">
        <ele>518.714</ele>
        <time>2020-02-23T10:43:38Z</time>
      </trkpt>
      <trkpt lat="39.840242" lon="2.897651">
        <ele>518.896</ele>
        <time>2020-02-23T10:43:39Z</time>
      </trkpt>
      <trkpt lat="39.840234" lon="2.897658">
        <ele>518.997</ele>
        <time>2020-02-23T10:43:40Z</time>
      </trkpt>
      <trkpt lat="39.840215" lon="2.897678">
        <ele>519.16</ele>
        <time>2020-02-23T10:43:41Z</time>
      </trkpt>
      <trkpt lat="39.840196" lon="2.897697">
        <ele>519.387</ele>
        <time>2020-02-23T10:43:42Z</time>
      </trkpt>
      <trkpt lat="39.840177" lon="2.897717">
        <ele>519.633</ele>
        <time>2020-02-23T10:43:43Z</time>
      </trkpt>
      <trkpt lat="39.840158" lon="2.897736">
        <ele>519.945</ele>
        <time>2020-02-23T10:43:44Z</time>
      </trkpt>
      <trkpt lat="39.840139" lon="2.897767">
        <ele>520.247</ele>
        <time>2020-02-23T10:43:45Z</time>
      </trkpt>
      <trkpt lat="39.84012" lon="2.897797">
        <ele>520.411</ele>
        <time>2020-02-23T10:43:46Z</time>
      </trkpt>
      <trkpt lat="39.840101" lon="2.897828">
        <ele>520.708</ele>
        <time>2020-02-23T10:43:47Z</time>
      </trkpt>
      <trkpt lat="39.840084" lon="2.89786">
        <ele>520.979</ele>
        <time>2020-02-23T10:43:48Z</time>
      </trkpt>
      <trkpt lat="39.840068" lon="2.897891">
        <ele>521.119</ele>
        <time>2020-02-23T10:43:49Z</time>
      </trkpt>
      <trkpt lat="39.840051" lon="2.897923">
        <ele>521.464</ele>
        <time>2020-02-23T10:43:50Z</time>
      </trkpt>
      <trkpt lat="39.840034" lon="2.897954">
        <ele>521.786</ele>
        <time>2020-02-23T10:43:51Z</time>
      </trkpt>
      <trkpt lat="39.840022" lon="2.897982">
        <ele>522.117</ele>
        <time>2020-02-23T10:43:52Z</time>
      </trkpt>
      <trkpt lat="39.84001" lon="2.89801">
        <ele>522.53</ele>
        <time>2020-02-23T10:43:53Z</time>
      </trkpt>
      <trkpt lat="39.839997" lon="2.898038">
        <ele>522.987</ele>
        <time>2020-02-23T10:43:54Z</time>
      </trkpt>
      <trkpt lat="39.839985" lon="2.898066">
        <ele>523.353</ele>
        <time>2020-02-23T10:43:55Z</time>
      </trkpt>
      <trkpt lat="39.839953" lon="2.898088">
        <ele>524.066</ele>
        <time>2020-02-23T10:43:56Z</time>
      </trkpt>
      <trkpt lat="39.839922" lon="2.89811">
        <ele>524.729</ele>
        <time>2020-02-23T10:43:57Z</time>
      </trkpt>
      <trkpt lat="39.83989" lon="2.898132">
        <ele>525.421</ele>
        <time>2020-02-23T10:43:58Z</time>
      </trkpt>
      <trkpt lat="39.839866" lon="2.898159">
        <ele>526.008</ele>
        <time>2020-02-23T10:43:59Z</time>
      </trkpt>
      <trkpt lat="39.839843" lon="2.898186">
        <ele>526.741</ele>
        <time>2020-02-23T10:44:00Z</time>
      </trkpt>
      <trkpt lat="39.839819" lon="2.898213">
        <ele>527.121</ele>
        <time>2020-02-23T10:44:01Z</time>
      </trkpt>
      <trkpt lat="39.839797" lon="2.898238">
        <ele>527.466</ele>
        <time>2020-02-23T10:44:02Z</time>
      </trkpt>
      <trkpt lat="39.839775" lon="2.898263">
        <ele>527.888</ele>
        <time>2020-02-23T10:44:03Z</time>
      </trkpt>
      <trkpt lat="39.839752" lon="2.898287">
        <ele>528.159</ele>
        <time>2020-02-23T10:44:04Z</time>
      </trkpt>
      <trkpt lat="39.83973" lon="2.898312">
        <ele>528.472</ele>
        <time>2020-02-23T10:44:05Z</time>
      </trkpt>
      <trkpt lat="39.839706" lon="2.898316">
        <ele>528.799</ele>
        <time>2020-02-23T10:44:06Z</time>
      </trkpt>
      <trkpt lat="39.839682" lon="2.89832">
        <ele>529.075</ele>
        <time>2020-02-23T10:44:07Z</time>
      </trkpt>
      <trkpt lat="39.839658" lon="2.898323">
        <ele>529.395</ele>
        <time>2020-02-23T10:44:08Z</time>
      </trkpt>
      <trkpt lat="39.839634" lon="2.898327">
        <ele>529.549</ele>
        <time>2020-02-23T10:44:09Z</time>
      </trkpt>
      <trkpt lat="39.839616" lon="2.898304">
        <ele>529.823</ele>
        <time>2020-02-23T10:44:10Z</time>
      </trkpt>
      <trkpt lat="39.839598" lon="2.89828">
        <ele>530.108</ele>
        <time>2020-02-23T10:44:11Z</time>
      </trkpt>
      <trkpt lat="39.839579" lon="2.898257">
        <ele>530.464</ele>
        <time>2020-02-23T10:44:12Z</time>
      </trkpt>
      <trkpt lat="39.839561" lon="2.898234">
        <ele>530.654</ele>
        <time>2020-02-23T10:44:13Z</time>
      </trkpt>
      <trkpt lat="39.839546" lon="2.898197">
        <ele>530.769</ele>
        <time>2020-02-23T10:44:14Z</time>
      </trkpt>
      <trkpt lat="39.83953" lon="2.898161">
        <ele>530.981</ele>
        <time>2020-02-23T10:44:15Z</time>
      </trkpt>
      <trkpt lat="39.839515" lon="2.898124">
        <ele>531.092</ele>
        <time>2020-02-23T10:44:16Z</time>
      </trkpt>
      <trkpt lat="39.8395" lon="2.898085">
        <ele>531.125</ele>
        <time>2020-02-23T10:44:17Z</time>
      </trkpt>
      <trkpt lat="39.839485" lon="2.898045">
        <ele>531.182</ele>
        <time>2020-02-23T10:44:18Z</time>
      </trkpt>
      <trkpt lat="39.83947" lon="2.898006">
        <ele>531.188</ele>
        <time>2020-02-23T10:44:19Z</time>
      </trkpt>
      <trkpt lat="39.839452" lon="2.897965">
        <ele>531.176</ele>
        <time>2020-02-23T10:44:20Z</time>
      </trkpt>
      <trkpt lat="39.839433" lon="2.897924">
        <ele>531.19</ele>
        <time>2020-02-23T10:44:21Z</time>
      </trkpt>
      <trkpt lat="39.839415" lon="2.897883">
        <ele>531.119</ele>
        <time>2020-02-23T10:44:22Z</time>
      </trkpt>
      <trkpt lat="39.839385" lon="2.897827">
        <ele>530.908</ele>
        <time>2020-02-23T10:44:23Z</time>
      </trkpt>
      <trkpt lat="39.839354" lon="2.897771">
        <ele>530.762</ele>
        <time>2020-02-23T10:44:24Z</time>
      </trkpt>
      <trkpt lat="39.839324" lon="2.897715">
        <ele>530.532</ele>
        <time>2020-02-23T10:44:25Z</time>
      </trkpt>
      <trkpt lat="39.839298" lon="2.897675">
        <ele>530.287</ele>
        <time>2020-02-23T10:44:26Z</time>
      </trkpt>
      <trkpt lat="39.83927" lon="2.897639">
        <ele>529.759</ele>
        <time>2020-02-23T10:44:27Z</time>
      </trkpt>
      <trkpt lat="39.839243" lon="2.897602">
        <ele>529.12</ele>
        <time>2020-02-23T10:44:28Z</time>
      </trkpt>
      <trkpt lat="39.839215" lon="2.897564">
        <ele>528.543</ele>
        <time>2020-02-23T10:44:29Z</time>
      </trkpt>
      <trkpt lat="39.839182" lon="2.897525">
        <ele>527.81</ele>
        <time>2020-02-23T10:44:30Z</time>
      </trkpt>
      <trkpt lat="39.83915" lon="2.897486">
        <ele>527.076</ele>
        <time>2020-02-23T10:44:31Z</time>
      </trkpt>
      <trkpt lat="39.839117" lon="2.89745">
        <ele>526.495</ele>
        <time>2020-02-23T10:44:32Z</time>
      </trkpt>
      <trkpt lat="39.839087" lon="2.897413">
        <ele>525.849</ele>
        <time>2020-02-23T10:44:33Z</time>
      </trkpt>
      <trkpt lat="39.839055" lon="2.897376">
        <ele>525.323</ele>
        <time>2020-02-23T10:44:34Z</time>
      </trkpt>
      <trkpt lat="39.839021" lon="2.897343">
        <ele>524.808</ele>
        <time>2020-02-23T10:44:35Z</time>
      </trkpt>
      <trkpt lat="39.838992" lon="2.8973">
        <ele>524.284</ele>
        <time>2020-02-23T10:44:36Z</time>
      </trkpt>
      <trkpt lat="39.838972" lon="2.897255">
        <ele>523.454</ele>
        <time>2020-02-23T10:44:37Z</time>
      </trkpt>
      <trkpt lat="39.83897" lon="2.897211">
        <ele>523.749</ele>
        <time>2020-02-23T10:44:38Z</time>
      </trkpt>
      <trkpt lat="39.838971" lon="2.897183">
        <ele>523.841</ele>
        <time>2020-02-23T10:44:39Z</time>
      </trkpt>
      <trkpt lat="39.838962" lon="2.897154">
        <ele>523.942</ele>
        <time>2020-02-23T10:44:40Z</time>
      </trkpt>
      <trkpt lat="39.838962" lon="2.897154">
        <ele>523.975</ele>
        <time>2020-02-23T10:44:41Z</time>
      </trkpt>
      <trkpt lat="39.838962" lon="2.897154">
        <ele>523.942</ele>
        <time>2020-02-23T10:44:42Z</time>
      </trkpt>
      <trkpt lat="39.838927" lon="2.897145">
        <ele>524.228</ele>
        <time>2020-02-23T10:44:43Z</time>
      </trkpt>
      <trkpt lat="39.838927" lon="2.897145">
        <ele>524.263</ele>
        <time>2020-02-23T10:44:44Z</time>
      </trkpt>
      <trkpt lat="39.838893" lon="2.897148">
        <ele>524.444</ele>
        <time>2020-02-23T10:44:45Z</time>
      </trkpt>
      <trkpt lat="39.838858" lon="2.897151">
        <ele>524.618</ele>
        <time>2020-02-23T10:44:46Z</time>
      </trkpt>
      <trkpt lat="39.838824" lon="2.897154">
        <ele>524.808</ele>
        <time>2020-02-23T10:44:47Z</time>
      </trkpt>
      <trkpt lat="39.838794" lon="2.897163">
        <ele>525.051</ele>
        <time>2020-02-23T10:44:48Z</time>
      </trkpt>
      <trkpt lat="39.838765" lon="2.897172">
        <ele>525.221</ele>
        <time>2020-02-23T10:44:49Z</time>
      </trkpt>
      <trkpt lat="39.838735" lon="2.897181">
        <ele>525.466</ele>
        <time>2020-02-23T10:44:50Z</time>
      </trkpt>
      <trkpt lat="39.838696" lon="2.897174">
        <ele>525.668</ele>
        <time>2020-02-23T10:44:51Z</time>
      </trkpt>
      <trkpt lat="39.838658" lon="2.897168">
        <ele>525.849</ele>
        <time>2020-02-23T10:44:52Z</time>
      </trkpt>
      <trkpt lat="39.838619" lon="2.897161">
        <ele>526.012</ele>
        <time>2020-02-23T10:44:53Z</time>
      </trkpt>
      <trkpt lat="39.838582" lon="2.897114">
        <ele>526.399</ele>
        <time>2020-02-23T10:44:54Z</time>
      </trkpt>
      <trkpt lat="39.838544" lon="2.897067">
        <ele>526.645</ele>
        <time>2020-02-23T10:44:55Z</time>
      </trkpt>
      <trkpt lat="39.838507" lon="2.89702">
        <ele>526.981</ele>
        <time>2020-02-23T10:44:56Z</time>
      </trkpt>
      <trkpt lat="39.838482" lon="2.896969">
        <ele>527.261</ele>
        <time>2020-02-23T10:44:57Z</time>
      </trkpt>
      <trkpt lat="39.838482" lon="2.896969">
        <ele>527.217</ele>
        <time>2020-02-23T10:44:58Z</time>
      </trkpt>
      <trkpt lat="39.838452" lon="2.896854">
        <ele>528.108</ele>
        <time>2020-02-23T10:44:59Z</time>
      </trkpt>
      <trkpt lat="39.838452" lon="2.896854">
        <ele>528.183</ele>
        <time>2020-02-23T10:45:00Z</time>
      </trkpt>
      <trkpt lat="39.838447" lon="2.896802">
        <ele>528.363</ele>
        <time>2020-02-23T10:45:01Z</time>
      </trkpt>
      <trkpt lat="39.838441" lon="2.89675">
        <ele>528.658</ele>
        <time>2020-02-23T10:45:02Z</time>
      </trkpt>
      <trkpt lat="39.838436" lon="2.896698">
        <ele>528.92</ele>
        <time>2020-02-23T10:45:03Z</time>
      </trkpt>
      <trkpt lat="39.83843" lon="2.896704">
        <ele>528.961</ele>
        <time>2020-02-23T10:45:04Z</time>
      </trkpt>
      <trkpt lat="39.838423" lon="2.896709">
        <ele>529.034</ele>
        <time>2020-02-23T10:45:05Z</time>
      </trkpt>
      <trkpt lat="39.838417" lon="2.896715">
        <ele>529.021</ele>
        <time>2020-02-23T10:45:06Z</time>
      </trkpt>
      <trkpt lat="39.838411" lon="2.89672">
        <ele>529.377</ele>
        <time>2020-02-23T10:45:07Z</time>
      </trkpt>
      <trkpt lat="39.838404" lon="2.896726">
        <ele>529.314</ele>
        <time>2020-02-23T10:45:08Z</time>
      </trkpt>
      <trkpt lat="39.838398" lon="2.896731">
        <ele>529.354</ele>
        <time>2020-02-23T10:45:09Z</time>
      </trkpt>
      <trkpt lat="39.838392" lon="2.896737">
        <ele>529.409</ele>
        <time>2020-02-23T10:45:10Z</time>
      </trkpt>
      <trkpt lat="39.838385" lon="2.896742">
        <ele>529.408</ele>
        <time>2020-02-23T10:45:11Z</time>
      </trkpt>
      <trkpt lat="39.838379" lon="2.896748">
        <ele>529.466</ele>
        <time>2020-02-23T10:45:12Z</time>
      </trkpt>
      <trkpt lat="39.838373" lon="2.896753">
        <ele>529.576</ele>
        <time>2020-02-23T10:45:13Z</time>
      </trkpt>
      <trkpt lat="39.838366" lon="2.896759">
        <ele>529.571</ele>
        <time>2020-02-23T10:45:14Z</time>
      </trkpt>
      <trkpt lat="39.83836" lon="2.896764">
        <ele>529.593</ele>
        <time>2020-02-23T10:45:15Z</time>
      </trkpt>
      <trkpt lat="39.838338" lon="2.896784">
        <ele>529.624</ele>
        <time>2020-02-23T10:45:16Z</time>
      </trkpt>
      <trkpt lat="39.838316" lon="2.896805">
        <ele>529.747</ele>
        <time>2020-02-23T10:45:17Z</time>
      </trkpt>
      <trkpt lat="39.838293" lon="2.896825">
        <ele>529.714</ele>
        <time>2020-02-23T10:45:18Z</time>
      </trkpt>
      <trkpt lat="39.838271" lon="2.896845">
        <ele>529.89</ele>
        <time>2020-02-23T10:45:19Z</time>
      </trkpt>
      <trkpt lat="39.838246" lon="2.89687">
        <ele>529.985</ele>
        <time>2020-02-23T10:45:20Z</time>
      </trkpt>
      <trkpt lat="39.838222" lon="2.896896">
        <ele>530.089</ele>
        <time>2020-02-23T10:45:21Z</time>
      </trkpt>
      <trkpt lat="39.838197" lon="2.896921">
        <ele>530.117</ele>
        <time>2020-02-23T10:45:22Z</time>
      </trkpt>
      <trkpt lat="39.838174" lon="2.896943">
        <ele>530.108</ele>
        <time>2020-02-23T10:45:23Z</time>
      </trkpt>
      <trkpt lat="39.838152" lon="2.896966">
        <ele>530.263</ele>
        <time>2020-02-23T10:45:24Z</time>
      </trkpt>
      <trkpt lat="39.838129" lon="2.896988">
        <ele>530.343</ele>
        <time>2020-02-23T10:45:25Z</time>
      </trkpt>
      <trkpt lat="39.838106" lon="2.89701">
        <ele>530.498</ele>
        <time>2020-02-23T10:45:26Z</time>
      </trkpt>
      <trkpt lat="39.838073" lon="2.897014">
        <ele>530.54</ele>
        <time>2020-02-23T10:45:27Z</time>
      </trkpt>
      <trkpt lat="39.838041" lon="2.897017">
        <ele>530.691</ele>
        <time>2020-02-23T10:45:28Z</time>
      </trkpt>
      <trkpt lat="39.838008" lon="2.897021">
        <ele>530.784</ele>
        <time>2020-02-23T10:45:29Z</time>
      </trkpt>
      <trkpt lat="39.838003" lon="2.897001">
        <ele>530.881</ele>
        <time>2020-02-23T10:45:30Z</time>
      </trkpt>
      <trkpt lat="39.837998" lon="2.896981">
        <ele>530.937</ele>
        <time>2020-02-23T10:45:31Z</time>
      </trkpt>
      <trkpt lat="39.837994" lon="2.896961">
        <ele>530.991</ele>
        <time>2020-02-23T10:45:32Z</time>
      </trkpt>
      <trkpt lat="39.837989" lon="2.896942">
        <ele>531.081</ele>
        <time>2020-02-23T10:45:33Z</time>
      </trkpt>
      <trkpt lat="39.837984" lon="2.896922">
        <ele>531.119</ele>
        <time>2020-02-23T10:45:34Z</time>
      </trkpt>
      <trkpt lat="39.837979" lon="2.896902">
        <ele>531.108</ele>
        <time>2020-02-23T10:45:35Z</time>
      </trkpt>
      <trkpt lat="39.837993" lon="2.896863">
        <ele>531.384</ele>
        <time>2020-02-23T10:45:36Z</time>
      </trkpt>
      <trkpt lat="39.838007" lon="2.896825">
        <ele>531.414</ele>
        <time>2020-02-23T10:45:37Z</time>
      </trkpt>
      <trkpt lat="39.838021" lon="2.896786">
        <ele>531.569</ele>
        <time>2020-02-23T10:45:38Z</time>
      </trkpt>
      <trkpt lat="39.838038" lon="2.896748">
        <ele>531.661</ele>
        <time>2020-02-23T10:45:39Z</time>
      </trkpt>
      <trkpt lat="39.838054" lon="2.896709">
        <ele>531.752</ele>
        <time>2020-02-23T10:45:40Z</time>
      </trkpt>
      <trkpt lat="39.838071" lon="2.896671">
        <ele>531.885</ele>
        <time>2020-02-23T10:45:41Z</time>
      </trkpt>
      <trkpt lat="39.838085" lon="2.896635">
        <ele>531.962</ele>
        <time>2020-02-23T10:45:42Z</time>
      </trkpt>
      <trkpt lat="39.838099" lon="2.896599">
        <ele>531.928</ele>
        <time>2020-02-23T10:45:43Z</time>
      </trkpt>
      <trkpt lat="39.838113" lon="2.896563">
        <ele>532.074</ele>
        <time>2020-02-23T10:45:44Z</time>
      </trkpt>
      <trkpt lat="39.838131" lon="2.896522">
        <ele>532.056</ele>
        <time>2020-02-23T10:45:45Z</time>
      </trkpt>
      <trkpt lat="39.838149" lon="2.896482">
        <ele>532.121</ele>
        <time>2020-02-23T10:45:46Z</time>
      </trkpt>
      <trkpt lat="39.838167" lon="2.896441">
        <ele>532.208</ele>
        <time>2020-02-23T10:45:47Z</time>
      </trkpt>
      <trkpt lat="39.838181" lon="2.896401">
        <ele>532.242</ele>
        <time>2020-02-23T10:45:48Z</time>
      </trkpt>
      <trkpt lat="39.838195" lon="2.89636">
        <ele>532.372</ele>
        <time>2020-02-23T10:45:49Z</time>
      </trkpt>
      <trkpt lat="39.838209" lon="2.89632">
        <ele>532.357</ele>
        <time>2020-02-23T10:45:50Z</time>
      </trkpt>
      <trkpt lat="39.838197" lon="2.896312">
        <ele>532.459</ele>
        <time>2020-02-23T10:45:51Z</time>
      </trkpt>
      <trkpt lat="39.838184" lon="2.896304">
        <ele>532.45</ele>
        <time>2020-02-23T10:45:52Z</time>
      </trkpt>
      <trkpt lat="39.838172" lon="2.896296">
        <ele>532.433</ele>
        <time>2020-02-23T10:45:53Z</time>
      </trkpt>
      <trkpt lat="39.838159" lon="2.896288">
        <ele>532.45</ele>
        <time>2020-02-23T10:45:54Z</time>
      </trkpt>
      <trkpt lat="39.838147" lon="2.89628">
        <ele>532.596</ele>
        <time>2020-02-23T10:45:55Z</time>
      </trkpt>
      <trkpt lat="39.838134" lon="2.896272">
        <ele>532.569</ele>
        <time>2020-02-23T10:45:56Z</time>
      </trkpt>
      <trkpt lat="39.838122" lon="2.896264">
        <ele>532.504</ele>
        <time>2020-02-23T10:45:57Z</time>
      </trkpt>
      <trkpt lat="39.838107" lon="2.896269">
        <ele>532.624</ele>
        <time>2020-02-23T10:45:58Z</time>
      </trkpt>
      <trkpt lat="39.838091" lon="2.896275">
        <ele>532.608</ele>
        <time>2020-02-23T10:45:59Z</time>
      </trkpt>
      <trkpt lat="39.838076" lon="2.89628">
        <ele>532.681</ele>
        <time>2020-02-23T10:46:00Z</time>
      </trkpt>
      <trkpt lat="39.83806" lon="2.896285">
        <ele>532.781</ele>
        <time>2020-02-23T10:46:01Z</time>
      </trkpt>
      <trkpt lat="39.838045" lon="2.896291">
        <ele>532.776</ele>
        <time>2020-02-23T10:46:02Z</time>
      </trkpt>
      <trkpt lat="39.838029" lon="2.896296">
        <ele>532.748</ele>
        <time>2020-02-23T10:46:03Z</time>
      </trkpt>
      <trkpt lat="39.838011" lon="2.896309">
        <ele>532.829</ele>
        <time>2020-02-23T10:46:04Z</time>
      </trkpt>
      <trkpt lat="39.837994" lon="2.896322">
        <ele>532.892</ele>
        <time>2020-02-23T10:46:05Z</time>
      </trkpt>
      <trkpt lat="39.837976" lon="2.896335">
        <ele>532.969</ele>
        <time>2020-02-23T10:46:06Z</time>
      </trkpt>
      <trkpt lat="39.837959" lon="2.896348">
        <ele>532.925</ele>
        <time>2020-02-23T10:46:07Z</time>
      </trkpt>
      <trkpt lat="39.837941" lon="2.896361">
        <ele>532.989</ele>
        <time>2020-02-23T10:46:08Z</time>
      </trkpt>
      <trkpt lat="39.83792" lon="2.896393">
        <ele>533.006</ele>
        <time>2020-02-23T10:46:09Z</time>
      </trkpt>
      <trkpt lat="39.8379" lon="2.896425">
        <ele>533.126</ele>
        <time>2020-02-23T10:46:10Z</time>
      </trkpt>
      <trkpt lat="39.837879" lon="2.896457">
        <ele>533.108</ele>
        <time>2020-02-23T10:46:11Z</time>
      </trkpt>
      <trkpt lat="39.837862" lon="2.89649">
        <ele>533.213</ele>
        <time>2020-02-23T10:46:12Z</time>
      </trkpt>
      <trkpt lat="39.837844" lon="2.896522">
        <ele>533.263</ele>
        <time>2020-02-23T10:46:13Z</time>
      </trkpt>
      <trkpt lat="39.837827" lon="2.896555">
        <ele>533.398</ele>
        <time>2020-02-23T10:46:14Z</time>
      </trkpt>
      <trkpt lat="39.837817" lon="2.89659">
        <ele>533.42</ele>
        <time>2020-02-23T10:46:15Z</time>
      </trkpt>
      <trkpt lat="39.837807" lon="2.896625">
        <ele>533.431</ele>
        <time>2020-02-23T10:46:16Z</time>
      </trkpt>
      <trkpt lat="39.837797" lon="2.89666">
        <ele>533.544</ele>
        <time>2020-02-23T10:46:17Z</time>
      </trkpt>
      <trkpt lat="39.837787" lon="2.896695">
        <ele>533.671</ele>
        <time>2020-02-23T10:46:18Z</time>
      </trkpt>
      <trkpt lat="39.837768" lon="2.896727">
        <ele>533.797</ele>
        <time>2020-02-23T10:46:19Z</time>
      </trkpt>
      <trkpt lat="39.837748" lon="2.896758">
        <ele>533.865</ele>
        <time>2020-02-23T10:46:20Z</time>
      </trkpt>
      <trkpt lat="39.837729" lon="2.89679">
        <ele>533.968</ele>
        <time>2020-02-23T10:46:21Z</time>
      </trkpt>
      <trkpt lat="39.8377" lon="2.896823">
        <ele>534.014</ele>
        <time>2020-02-23T10:46:22Z</time>
      </trkpt>
      <trkpt lat="39.837672" lon="2.896856">
        <ele>534.108</ele>
        <time>2020-02-23T10:46:23Z</time>
      </trkpt>
      <trkpt lat="39.837643" lon="2.896889">
        <ele>534.221</ele>
        <time>2020-02-23T10:46:24Z</time>
      </trkpt>
      <trkpt lat="39.837612" lon="2.896911">
        <ele>534.431</ele>
        <time>2020-02-23T10:46:25Z</time>
      </trkpt>
      <trkpt lat="39.83758" lon="2.896933">
        <ele>534.696</ele>
        <time>2020-02-23T10:46:26Z</time>
      </trkpt>
      <trkpt lat="39.837549" lon="2.896955">
        <ele>534.738</ele>
        <time>2020-02-23T10:46:27Z</time>
      </trkpt>
      <trkpt lat="39.837523" lon="2.896975">
        <ele>534.939</ele>
        <time>2020-02-23T10:46:28Z</time>
      </trkpt>
      <trkpt lat="39.837497" lon="2.896995">
        <ele>535.042</ele>
        <time>2020-02-23T10:46:29Z</time>
      </trkpt>
      <trkpt lat="39.83747" lon="2.897015">
        <ele>535.249</ele>
        <time>2020-02-23T10:46:30Z</time>
      </trkpt>
      <trkpt lat="39.837444" lon="2.897035">
        <ele>535.445</ele>
        <time>2020-02-23T10:46:31Z</time>
      </trkpt>
      <trkpt lat="39.837412" lon="2.897052">
        <ele>535.711</ele>
        <time>2020-02-23T10:46:32Z</time>
      </trkpt>
      <trkpt lat="39.83738" lon="2.897069">
        <ele>535.921</ele>
        <time>2020-02-23T10:46:33Z</time>
      </trkpt>
      <trkpt lat="39.837348" lon="2.897086">
        <ele>536.203</ele>
        <time>2020-02-23T10:46:34Z</time>
      </trkpt>
      <trkpt lat="39.837288" lon="2.897082">
        <ele>536.608</ele>
        <time>2020-02-23T10:46:35Z</time>
      </trkpt>
      <trkpt lat="39.837229" lon="2.897079">
        <ele>536.926</ele>
        <time>2020-02-23T10:46:36Z</time>
      </trkpt>
      <trkpt lat="39.837169" lon="2.897075">
        <ele>537.396</ele>
        <time>2020-02-23T10:46:37Z</time>
      </trkpt>
      <trkpt lat="39.837124" lon="2.897066">
        <ele>537.621</ele>
        <time>2020-02-23T10:46:38Z</time>
      </trkpt>
      <trkpt lat="39.837124" lon="2.897066">
        <ele>537.613</ele>
        <time>2020-02-23T10:46:39Z</time>
      </trkpt>
      <trkpt lat="39.837089" lon="2.897058">
        <ele>537.844</ele>
        <time>2020-02-23T10:46:40Z</time>
      </trkpt>
      <trkpt lat="39.837053" lon="2.89705">
        <ele>538.047</ele>
        <time>2020-02-23T10:46:41Z</time>
      </trkpt>
      <trkpt lat="39.837018" lon="2.897042">
        <ele>538.274</ele>
        <time>2020-02-23T10:46:42Z</time>
      </trkpt>
      <trkpt lat="39.836988" lon="2.897034">
        <ele>538.43</ele>
        <time>2020-02-23T10:46:43Z</time>
      </trkpt>
      <trkpt lat="39.836958" lon="2.897027">
        <ele>538.671</ele>
        <time>2020-02-23T10:46:44Z</time>
      </trkpt>
      <trkpt lat="39.836928" lon="2.897019">
        <ele>538.841</ele>
        <time>2020-02-23T10:46:45Z</time>
      </trkpt>
      <trkpt lat="39.836898" lon="2.897013">
        <ele>539.015</ele>
        <time>2020-02-23T10:46:46Z</time>
      </trkpt>
      <trkpt lat="39.836869" lon="2.897007">
        <ele>539.108</ele>
        <time>2020-02-23T10:46:47Z</time>
      </trkpt>
      <trkpt lat="39.836839" lon="2.897001">
        <ele>539.362</ele>
        <time>2020-02-23T10:46:48Z</time>
      </trkpt>
      <trkpt lat="39.836806" lon="2.89699">
        <ele>539.522</ele>
        <time>2020-02-23T10:46:49Z</time>
      </trkpt>
      <trkpt lat="39.836774" lon="2.896978">
        <ele>539.727</ele>
        <time>2020-02-23T10:46:50Z</time>
      </trkpt>
      <trkpt lat="39.836741" lon="2.896967">
        <ele>539.929</ele>
        <time>2020-02-23T10:46:51Z</time>
      </trkpt>
      <trkpt lat="39.836695" lon="2.896958">
        <ele>540.16</ele>
        <time>2020-02-23T10:46:52Z</time>
      </trkpt>
      <trkpt lat="39.836649" lon="2.896948">
        <ele>540.323</ele>
        <time>2020-02-23T10:46:53Z</time>
      </trkpt>
      <trkpt lat="39.836603" lon="2.896939">
        <ele>540.56</ele>
        <time>2020-02-23T10:46:54Z</time>
      </trkpt>
      <trkpt lat="39.836572" lon="2.896933">
        <ele>540.626</ele>
        <time>2020-02-23T10:46:55Z</time>
      </trkpt>
      <trkpt lat="39.836542" lon="2.896922">
        <ele>540.715</ele>
        <time>2020-02-23T10:46:56Z</time>
      </trkpt>
      <trkpt lat="39.83651" lon="2.896909">
        <ele>540.865</ele>
        <time>2020-02-23T10:46:57Z</time>
      </trkpt>
      <trkpt lat="39.836485" lon="2.896894">
        <ele>540.911</ele>
        <time>2020-02-23T10:46:58Z</time>
      </trkpt>
      <trkpt lat="39.836467" lon="2.896879">
        <ele>540.908</ele>
        <time>2020-02-23T10:46:59Z</time>
      </trkpt>
      <trkpt lat="39.83645" lon="2.896862">
        <ele>541.286</ele>
        <time>2020-02-23T10:47:00Z</time>
      </trkpt>
      <trkpt lat="39.83645" lon="2.896862">
        <ele>541.286</ele>
        <time>2020-02-23T10:47:01Z</time>
      </trkpt>
      <trkpt lat="39.836423" lon="2.896844">
        <ele>541.121</ele>
        <time>2020-02-23T10:47:02Z</time>
      </trkpt>
      <trkpt lat="39.836397" lon="2.896827">
        <ele>541.193</ele>
        <time>2020-02-23T10:47:03Z</time>
      </trkpt>
      <trkpt lat="39.83637" lon="2.896809">
        <ele>541.144</ele>
        <time>2020-02-23T10:47:04Z</time>
      </trkpt>
      <trkpt lat="39.836338" lon="2.896783">
        <ele>541.117</ele>
        <time>2020-02-23T10:47:05Z</time>
      </trkpt>
      <trkpt lat="39.836306" lon="2.896756">
        <ele>541.174</ele>
        <time>2020-02-23T10:47:06Z</time>
      </trkpt>
      <trkpt lat="39.836274" lon="2.89673">
        <ele>541.18</ele>
        <time>2020-02-23T10:47:07Z</time>
      </trkpt>
      <trkpt lat="39.836242" lon="2.896705">
        <ele>541.149</ele>
        <time>2020-02-23T10:47:08Z</time>
      </trkpt>
      <trkpt lat="39.836211" lon="2.896679">
        <ele>541.102</ele>
        <time>2020-02-23T10:47:09Z</time>
      </trkpt>
      <trkpt lat="39.836179" lon="2.896654">
        <ele>541.022</ele>
        <time>2020-02-23T10:47:10Z</time>
      </trkpt>
      <trkpt lat="39.836147" lon="2.896632">
        <ele>540.908</ele>
        <time>2020-02-23T10:47:11Z</time>
      </trkpt>
      <trkpt lat="39.836114" lon="2.89661">
        <ele>540.779</ele>
        <time>2020-02-23T10:47:12Z</time>
      </trkpt>
      <trkpt lat="39.836082" lon="2.896588">
        <ele>540.549</ele>
        <time>2020-02-23T10:47:13Z</time>
      </trkpt>
      <trkpt lat="39.836046" lon="2.896569">
        <ele>540.274</ele>
        <time>2020-02-23T10:47:14Z</time>
      </trkpt>
      <trkpt lat="39.836011" lon="2.896551">
        <ele>539.776</ele>
        <time>2020-02-23T10:47:15Z</time>
      </trkpt>
      <trkpt lat="39.835975" lon="2.896532">
        <ele>539.367</ele>
        <time>2020-02-23T10:47:16Z</time>
      </trkpt>
      <trkpt lat="39.835951" lon="2.896513">
        <ele>539.07</ele>
        <time>2020-02-23T10:47:17Z</time>
      </trkpt>
      <trkpt lat="39.835927" lon="2.896494">
        <ele>538.797</ele>
        <time>2020-02-23T10:47:18Z</time>
      </trkpt>
      <trkpt lat="39.835902" lon="2.896476">
        <ele>538.453</ele>
        <time>2020-02-23T10:47:19Z</time>
      </trkpt>
      <trkpt lat="39.835878" lon="2.896457">
        <ele>538.225</ele>
        <time>2020-02-23T10:47:20Z</time>
      </trkpt>
      <trkpt lat="39.835877" lon="2.896423">
        <ele>538.026</ele>
        <time>2020-02-23T10:47:21Z</time>
      </trkpt>
      <trkpt lat="39.835877" lon="2.896389">
        <ele>537.908</ele>
        <time>2020-02-23T10:47:22Z</time>
      </trkpt>
      <trkpt lat="39.835876" lon="2.896356">
        <ele>537.808</ele>
        <time>2020-02-23T10:47:23Z</time>
      </trkpt>
      <trkpt lat="39.835875" lon="2.896322">
        <ele>537.727</ele>
        <time>2020-02-23T10:47:24Z</time>
      </trkpt>
      <trkpt lat="39.835892" lon="2.896284">
        <ele>537.687</ele>
        <time>2020-02-23T10:47:25Z</time>
      </trkpt>
      <trkpt lat="39.83591" lon="2.896246">
        <ele>537.522</ele>
        <time>2020-02-23T10:47:26Z</time>
      </trkpt>
      <trkpt lat="39.835927" lon="2.896208">
        <ele>537.584</ele>
        <time>2020-02-23T10:47:27Z</time>
      </trkpt>
      <trkpt lat="39.835941" lon="2.89617">
        <ele>537.475</ele>
        <time>2020-02-23T10:47:28Z</time>
      </trkpt>
      <trkpt lat="39.835955" lon="2.896131">
        <ele>537.318</ele>
        <time>2020-02-23T10:47:29Z</time>
      </trkpt>
      <trkpt lat="39.835969" lon="2.896093">
        <ele>537.275</ele>
        <time>2020-02-23T10:47:30Z</time>
      </trkpt>
      <trkpt lat="39.835979" lon="2.896063">
        <ele>537.141</ele>
        <time>2020-02-23T10:47:31Z</time>
      </trkpt>
      <trkpt lat="39.835989" lon="2.896033">
        <ele>537.023</ele>
        <time>2020-02-23T10:47:32Z</time>
      </trkpt>
      <trkpt lat="39.835999" lon="2.896003">
        <ele>536.883</ele>
        <time>2020-02-23T10:47:33Z</time>
      </trkpt>
      <trkpt lat="39.836009" lon="2.895973">
        <ele>536.711</ele>
        <time>2020-02-23T10:47:34Z</time>
      </trkpt>
      <trkpt lat="39.836016" lon="2.895942">
        <ele>536.508</ele>
        <time>2020-02-23T10:47:35Z</time>
      </trkpt>
      <trkpt lat="39.836022" lon="2.895911">
        <ele>536.367</ele>
        <time>2020-02-23T10:47:36Z</time>
      </trkpt>
      <trkpt lat="39.836029" lon="2.89588">
        <ele>536.147</ele>
        <time>2020-02-23T10:47:37Z</time>
      </trkpt>
      <trkpt lat="39.836035" lon="2.895849">
        <ele>535.982</ele>
        <time>2020-02-23T10:47:38Z</time>
      </trkpt>
      <trkpt lat="39.836017" lon="2.895831">
        <ele>535.794</ele>
        <time>2020-02-23T10:47:39Z</time>
      </trkpt>
      <trkpt lat="39.835999" lon="2.895813">
        <ele>535.645</ele>
        <time>2020-02-23T10:47:40Z</time>
      </trkpt>
      <trkpt lat="39.835981" lon="2.895796">
        <ele>535.498</ele>
        <time>2020-02-23T10:47:41Z</time>
      </trkpt>
      <trkpt lat="39.835963" lon="2.895778">
        <ele>535.395</ele>
        <time>2020-02-23T10:47:42Z</time>
      </trkpt>
      <trkpt lat="39.835942" lon="2.89578">
        <ele>535.191</ele>
        <time>2020-02-23T10:47:43Z</time>
      </trkpt>
      <trkpt lat="39.835921" lon="2.895783">
        <ele>535.057</ele>
        <time>2020-02-23T10:47:44Z</time>
      </trkpt>
      <trkpt lat="39.835899" lon="2.895785">
        <ele>534.9</ele>
        <time>2020-02-23T10:47:45Z</time>
      </trkpt>
      <trkpt lat="39.835878" lon="2.895788">
        <ele>534.82</ele>
        <time>2020-02-23T10:47:46Z</time>
      </trkpt>
      <trkpt lat="39.835857" lon="2.89579">
        <ele>534.708</ele>
        <time>2020-02-23T10:47:47Z</time>
      </trkpt>
      <trkpt lat="39.835841" lon="2.895815">
        <ele>534.69</ele>
        <time>2020-02-23T10:47:48Z</time>
      </trkpt>
      <trkpt lat="39.835826" lon="2.89584">
        <ele>534.52</ele>
        <time>2020-02-23T10:47:49Z</time>
      </trkpt>
      <trkpt lat="39.83581" lon="2.895865">
        <ele>534.525</ele>
        <time>2020-02-23T10:47:50Z</time>
      </trkpt>
      <trkpt lat="39.835794" lon="2.89589">
        <ele>534.437</ele>
        <time>2020-02-23T10:47:51Z</time>
      </trkpt>
      <trkpt lat="39.835777" lon="2.895924">
        <ele>534.488</ele>
        <time>2020-02-23T10:47:52Z</time>
      </trkpt>
      <trkpt lat="39.835759" lon="2.895959">
        <ele>534.471</ele>
        <time>2020-02-23T10:47:53Z</time>
      </trkpt>
      <trkpt lat="39.835742" lon="2.895993">
        <ele>534.318</ele>
        <time>2020-02-23T10:47:54Z</time>
      </trkpt>
      <trkpt lat="39.835712" lon="2.89601">
        <ele>534.364</ele>
        <time>2020-02-23T10:47:55Z</time>
      </trkpt>
      <trkpt lat="39.835681" lon="2.896028">
        <ele>534.387</ele>
        <time>2020-02-23T10:47:56Z</time>
      </trkpt>
      <trkpt lat="39.835651" lon="2.896045">
        <ele>534.342</ele>
        <time>2020-02-23T10:47:57Z</time>
      </trkpt>
      <trkpt lat="39.835623" lon="2.896042">
        <ele>534.326</ele>
        <time>2020-02-23T10:47:58Z</time>
      </trkpt>
      <trkpt lat="39.835595" lon="2.89604">
        <ele>534.308</ele>
        <time>2020-02-23T10:47:59Z</time>
      </trkpt>
      <trkpt lat="39.835566" lon="2.896037">
        <ele>534.423</ele>
        <time>2020-02-23T10:48:00Z</time>
      </trkpt>
      <trkpt lat="39.835538" lon="2.896035">
        <ele>534.453</ele>
        <time>2020-02-23T10:48:01Z</time>
      </trkpt>
      <trkpt lat="39.835505" lon="2.896021">
        <ele>534.448</ele>
        <time>2020-02-23T10:48:02Z</time>
      </trkpt>
      <trkpt lat="39.835473" lon="2.896007">
        <ele>534.45</ele>
        <time>2020-02-23T10:48:03Z</time>
      </trkpt>
      <trkpt lat="39.83544" lon="2.895993">
        <ele>534.491</ele>
        <time>2020-02-23T10:48:04Z</time>
      </trkpt>
      <trkpt lat="39.835412" lon="2.895981">
        <ele>534.534</ele>
        <time>2020-02-23T10:48:05Z</time>
      </trkpt>
      <trkpt lat="39.835385" lon="2.895968">
        <ele>534.661</ele>
        <time>2020-02-23T10:48:06Z</time>
      </trkpt>
      <trkpt lat="39.835357" lon="2.895956">
        <ele>534.767</ele>
        <time>2020-02-23T10:48:07Z</time>
      </trkpt>
      <trkpt lat="39.835329" lon="2.895944">
        <ele>534.997</ele>
        <time>2020-02-23T10:48:08Z</time>
      </trkpt>
      <trkpt lat="39.83531" lon="2.895925">
        <ele>535.023</ele>
        <time>2020-02-23T10:48:09Z</time>
      </trkpt>
      <trkpt lat="39.83529" lon="2.895907">
        <ele>535.125</ele>
        <time>2020-02-23T10:48:10Z</time>
      </trkpt>
      <trkpt lat="39.835271" lon="2.895888">
        <ele>535.308</ele>
        <time>2020-02-23T10:48:11Z</time>
      </trkpt>
      <trkpt lat="39.835251" lon="2.89587">
        <ele>535.464</ele>
        <time>2020-02-23T10:48:12Z</time>
      </trkpt>
      <trkpt lat="39.835242" lon="2.895856">
        <ele>535.594</ele>
        <time>2020-02-23T10:48:13Z</time>
      </trkpt>
      <trkpt lat="39.835232" lon="2.895843">
        <ele>535.629</ele>
        <time>2020-02-23T10:48:14Z</time>
      </trkpt>
      <trkpt lat="39.835223" lon="2.895829">
        <ele>535.761</ele>
        <time>2020-02-23T10:48:15Z</time>
      </trkpt>
      <trkpt lat="39.835214" lon="2.895816">
        <ele>535.752</ele>
        <time>2020-02-23T10:48:16Z</time>
      </trkpt>
      <trkpt lat="39.835205" lon="2.895802">
        <ele>535.875</ele>
        <time>2020-02-23T10:48:17Z</time>
      </trkpt>
      <trkpt lat="39.835195" lon="2.895789">
        <ele>535.842</ele>
        <time>2020-02-23T10:48:18Z</time>
      </trkpt>
      <trkpt lat="39.835186" lon="2.895775">
        <ele>535.988</ele>
        <time>2020-02-23T10:48:19Z</time>
      </trkpt>
      <trkpt lat="39.835175" lon="2.89576">
        <ele>535.995</ele>
        <time>2020-02-23T10:48:20Z</time>
      </trkpt>
      <trkpt lat="39.835163" lon="2.895744">
        <ele>535.949</ele>
        <time>2020-02-23T10:48:21Z</time>
      </trkpt>
      <trkpt lat="39.835152" lon="2.895729">
        <ele>535.923</ele>
        <time>2020-02-23T10:48:22Z</time>
      </trkpt>
      <trkpt lat="39.835141" lon="2.895714">
        <ele>536.008</ele>
        <time>2020-02-23T10:48:23Z</time>
      </trkpt>
      <trkpt lat="39.835129" lon="2.895698">
        <ele>536.014</ele>
        <time>2020-02-23T10:48:24Z</time>
      </trkpt>
      <trkpt lat="39.835118" lon="2.895683">
        <ele>536.094</ele>
        <time>2020-02-23T10:48:25Z</time>
      </trkpt>
      <trkpt lat="39.835107" lon="2.89567">
        <ele>536.089</ele>
        <time>2020-02-23T10:48:26Z</time>
      </trkpt>
      <trkpt lat="39.835095" lon="2.895657">
        <ele>536.011</ele>
        <time>2020-02-23T10:48:27Z</time>
      </trkpt>
      <trkpt lat="39.835084" lon="2.895644">
        <ele>536.092</ele>
        <time>2020-02-23T10:48:28Z</time>
      </trkpt>
      <trkpt lat="39.835072" lon="2.895631">
        <ele>536.065</ele>
        <time>2020-02-23T10:48:29Z</time>
      </trkpt>
      <trkpt lat="39.835061" lon="2.895618">
        <ele>536.012</ele>
        <time>2020-02-23T10:48:30Z</time>
      </trkpt>
      <trkpt lat="39.835049" lon="2.895605">
        <ele>536.048</ele>
        <time>2020-02-23T10:48:31Z</time>
      </trkpt>
      <trkpt lat="39.835036" lon="2.895599">
        <ele>536.059</ele>
        <time>2020-02-23T10:48:32Z</time>
      </trkpt>
      <trkpt lat="39.835024" lon="2.895593">
        <ele>536.003</ele>
        <time>2020-02-23T10:48:33Z</time>
      </trkpt>
      <trkpt lat="39.835011" lon="2.895587">
        <ele>536.023</ele>
        <time>2020-02-23T10:48:34Z</time>
      </trkpt>
      <trkpt lat="39.834999" lon="2.89558">
        <ele>536.008</ele>
        <time>2020-02-23T10:48:35Z</time>
      </trkpt>
      <trkpt lat="39.834986" lon="2.895574">
        <ele>536.09</ele>
        <time>2020-02-23T10:48:36Z</time>
      </trkpt>
      <trkpt lat="39.834974" lon="2.895568">
        <ele>536.02</ele>
        <time>2020-02-23T10:48:37Z</time>
      </trkpt>
      <trkpt lat="39.834961" lon="2.895562">
        <ele>536.155</ele>
        <time>2020-02-23T10:48:38Z</time>
      </trkpt>
      <trkpt lat="39.834952" lon="2.895562">
        <ele>536.117</ele>
        <time>2020-02-23T10:48:39Z</time>
      </trkpt>
      <trkpt lat="39.834943" lon="2.895562">
        <ele>536.138</ele>
        <time>2020-02-23T10:48:40Z</time>
      </trkpt>
      <trkpt lat="39.834934" lon="2.895563">
        <ele>536.111</ele>
        <time>2020-02-23T10:48:41Z</time>
      </trkpt>
      <trkpt lat="39.834925" lon="2.895563">
        <ele>536.118</ele>
        <time>2020-02-23T10:48:42Z</time>
      </trkpt>
      <trkpt lat="39.834916" lon="2.895563">
        <ele>536.234</ele>
        <time>2020-02-23T10:48:43Z</time>
      </trkpt>
      <trkpt lat="39.834906" lon="2.895563">
        <ele>536.221</ele>
        <time>2020-02-23T10:48:44Z</time>
      </trkpt>
      <trkpt lat="39.834897" lon="2.895563">
        <ele>536.241</ele>
        <time>2020-02-23T10:48:45Z</time>
      </trkpt>
      <trkpt lat="39.834888" lon="2.895564">
        <ele>536.305</ele>
        <time>2020-02-23T10:48:46Z</time>
      </trkpt>
      <trkpt lat="39.834879" lon="2.895564">
        <ele>536.308</ele>
        <time>2020-02-23T10:48:47Z</time>
      </trkpt>
      <trkpt lat="39.83487" lon="2.895564">
        <ele>536.437</ele>
        <time>2020-02-23T10:48:48Z</time>
      </trkpt>
      <trkpt lat="39.834855" lon="2.895565">
        <ele>536.497</ele>
        <time>2020-02-23T10:48:49Z</time>
      </trkpt>
      <trkpt lat="39.834839" lon="2.895565">
        <ele>536.572</ele>
        <time>2020-02-23T10:48:50Z</time>
      </trkpt>
      <trkpt lat="39.834824" lon="2.895566">
        <ele>536.694</ele>
        <time>2020-02-23T10:48:51Z</time>
      </trkpt>
      <trkpt lat="39.834808" lon="2.895567">
        <ele>536.735</ele>
        <time>2020-02-23T10:48:52Z</time>
      </trkpt>
      <trkpt lat="39.834793" lon="2.895567">
        <ele>536.988</ele>
        <time>2020-02-23T10:48:53Z</time>
      </trkpt>
      <trkpt lat="39.834777" lon="2.895568">
        <ele>537.015</ele>
        <time>2020-02-23T10:48:54Z</time>
      </trkpt>
      <trkpt lat="39.834752" lon="2.895565">
        <ele>537.221</ele>
        <time>2020-02-23T10:48:55Z</time>
      </trkpt>
      <trkpt lat="39.834727" lon="2.895562">
        <ele>537.469</ele>
        <time>2020-02-23T10:48:56Z</time>
      </trkpt>
      <trkpt lat="39.834702" lon="2.89556">
        <ele>537.604</ele>
        <time>2020-02-23T10:48:57Z</time>
      </trkpt>
      <trkpt lat="39.834677" lon="2.895557">
        <ele>537.924</ele>
        <time>2020-02-23T10:48:58Z</time>
      </trkpt>
      <trkpt lat="39.834648" lon="2.895557">
        <ele>538.208</ele>
        <time>2020-02-23T10:48:59Z</time>
      </trkpt>
      <trkpt lat="39.834628" lon="2.895558">
        <ele>538.461</ele>
        <time>2020-02-23T10:49:00Z</time>
      </trkpt>
      <trkpt lat="39.834628" lon="2.895558">
        <ele>538.411</ele>
        <time>2020-02-23T10:49:01Z</time>
      </trkpt>
      <trkpt lat="39.834605" lon="2.895564">
        <ele>538.776</ele>
        <time>2020-02-23T10:49:02Z</time>
      </trkpt>
      <trkpt lat="39.834582" lon="2.895569">
        <ele>539.038</ele>
        <time>2020-02-23T10:49:03Z</time>
      </trkpt>
      <trkpt lat="39.834558" lon="2.895575">
        <ele>539.369</ele>
        <time>2020-02-23T10:49:04Z</time>
      </trkpt>
      <trkpt lat="39.834535" lon="2.89558">
        <ele>539.652</ele>
        <time>2020-02-23T10:49:05Z</time>
      </trkpt>
      <trkpt lat="39.834505" lon="2.895584">
        <ele>539.969</ele>
        <time>2020-02-23T10:49:06Z</time>
      </trkpt>
      <trkpt lat="39.834475" lon="2.895587">
        <ele>540.235</ele>
        <time>2020-02-23T10:49:07Z</time>
      </trkpt>
      <trkpt lat="39.834445" lon="2.895591">
        <ele>540.614</ele>
        <time>2020-02-23T10:49:08Z</time>
      </trkpt>
      <trkpt lat="39.834415" lon="2.895594">
        <ele>540.854</ele>
        <time>2020-02-23T10:49:09Z</time>
      </trkpt>
      <trkpt lat="39.834377" lon="2.895594">
        <ele>541.109</ele>
        <time>2020-02-23T10:49:10Z</time>
      </trkpt>
      <trkpt lat="39.83434" lon="2.895593">
        <ele>541.408</ele>
        <time>2020-02-23T10:49:11Z</time>
      </trkpt>
      <trkpt lat="39.834302" lon="2.895593">
        <ele>541.636</ele>
        <time>2020-02-23T10:49:12Z</time>
      </trkpt>
      <trkpt lat="39.834269" lon="2.895595">
        <ele>541.856</ele>
        <time>2020-02-23T10:49:13Z</time>
      </trkpt>
      <trkpt lat="39.834235" lon="2.895597">
        <ele>541.921</ele>
        <time>2020-02-23T10:49:14Z</time>
      </trkpt>
      <trkpt lat="39.834202" lon="2.895599">
        <ele>542.113</ele>
        <time>2020-02-23T10:49:15Z</time>
      </trkpt>
      <trkpt lat="39.834106" lon="2.895586">
        <ele>542.554</ele>
        <time>2020-02-23T10:49:16Z</time>
      </trkpt>
      <trkpt lat="39.834106" lon="2.895586">
        <ele>542.537</ele>
        <time>2020-02-23T10:49:17Z</time>
      </trkpt>
      <trkpt lat="39.834015" lon="2.895563">
        <ele>542.924</ele>
        <time>2020-02-23T10:49:18Z</time>
      </trkpt>
      <trkpt lat="39.834015" lon="2.895563">
        <ele>542.97</ele>
        <time>2020-02-23T10:49:19Z</time>
      </trkpt>
      <trkpt lat="39.833974" lon="2.895544">
        <ele>543.056</ele>
        <time>2020-02-23T10:49:20Z</time>
      </trkpt>
      <trkpt lat="39.833933" lon="2.895526">
        <ele>543.159</ele>
        <time>2020-02-23T10:49:21Z</time>
      </trkpt>
      <trkpt lat="39.833892" lon="2.895507">
        <ele>543.314</ele>
        <time>2020-02-23T10:49:22Z</time>
      </trkpt>
      <trkpt lat="39.833851" lon="2.895489">
        <ele>543.308</ele>
        <time>2020-02-23T10:49:23Z</time>
      </trkpt>
      <trkpt lat="39.833811" lon="2.895471">
        <ele>543.43</ele>
        <time>2020-02-23T10:49:24Z</time>
      </trkpt>
      <trkpt lat="39.83377" lon="2.895453">
        <ele>543.43</ele>
        <time>2020-02-23T10:49:25Z</time>
      </trkpt>
      <trkpt lat="39.833758" lon="2.895427">
        <ele>543.545</ele>
        <time>2020-02-23T10:49:26Z</time>
      </trkpt>
      <trkpt lat="39.833745" lon="2.8954">
        <ele>543.537</ele>
        <time>2020-02-23T10:49:27Z</time>
      </trkpt>
      <trkpt lat="39.833733" lon="2.895374">
        <ele>543.548</ele>
        <time>2020-02-23T10:49:28Z</time>
      </trkpt>
      <trkpt lat="39.83372" lon="2.895348">
        <ele>543.551</ele>
        <time>2020-02-23T10:49:29Z</time>
      </trkpt>
      <trkpt lat="39.833716" lon="2.895299">
        <ele>543.688</ele>
        <time>2020-02-23T10:49:30Z</time>
      </trkpt>
      <trkpt lat="39.833711" lon="2.895249">
        <ele>543.614</ele>
        <time>2020-02-23T10:49:31Z</time>
      </trkpt>
      <trkpt lat="39.833707" lon="2.8952">
        <ele>543.692</ele>
        <time>2020-02-23T10:49:32Z</time>
      </trkpt>
      <trkpt lat="39.833689" lon="2.895165">
        <ele>543.773</ele>
        <time>2020-02-23T10:49:33Z</time>
      </trkpt>
      <trkpt lat="39.833672" lon="2.895131">
        <ele>543.72</ele>
        <time>2020-02-23T10:49:34Z</time>
      </trkpt>
      <trkpt lat="39.833654" lon="2.895096">
        <ele>543.708</ele>
        <time>2020-02-23T10:49:35Z</time>
      </trkpt>
      <trkpt lat="39.83363" lon="2.895086">
        <ele>543.774</ele>
        <time>2020-02-23T10:49:36Z</time>
      </trkpt>
      <trkpt lat="39.833606" lon="2.895076">
        <ele>543.794</ele>
        <time>2020-02-23T10:49:37Z</time>
      </trkpt>
      <trkpt lat="39.833582" lon="2.895066">
        <ele>543.729</ele>
        <time>2020-02-23T10:49:38Z</time>
      </trkpt>
      <trkpt lat="39.833558" lon="2.895056">
        <ele>543.761</ele>
        <time>2020-02-23T10:49:39Z</time>
      </trkpt>
      <trkpt lat="39.833513" lon="2.895056">
        <ele>543.742</ele>
        <time>2020-02-23T10:49:40Z</time>
      </trkpt>
      <trkpt lat="39.833467" lon="2.895057">
        <ele>543.675</ele>
        <time>2020-02-23T10:49:41Z</time>
      </trkpt>
      <trkpt lat="39.833422" lon="2.895057">
        <ele>543.542</ele>
        <time>2020-02-23T10:49:42Z</time>
      </trkpt>
      <trkpt lat="39.833382" lon="2.895047">
        <ele>543.538</ele>
        <time>2020-02-23T10:49:43Z</time>
      </trkpt>
      <trkpt lat="39.833342" lon="2.895027">
        <ele>543.427</ele>
        <time>2020-02-23T10:49:44Z</time>
      </trkpt>
      <trkpt lat="39.833303" lon="2.894993">
        <ele>543.268</ele>
        <time>2020-02-23T10:49:45Z</time>
      </trkpt>
      <trkpt lat="39.833267" lon="2.894959">
        <ele>543.014</ele>
        <time>2020-02-23T10:49:46Z</time>
      </trkpt>
      <trkpt lat="39.833232" lon="2.894921">
        <ele>542.808</ele>
        <time>2020-02-23T10:49:47Z</time>
      </trkpt>
      <trkpt lat="39.833203" lon="2.894879">
        <ele>542.727</ele>
        <time>2020-02-23T10:49:48Z</time>
      </trkpt>
      <trkpt lat="39.833171" lon="2.894837">
        <ele>542.497</ele>
        <time>2020-02-23T10:49:49Z</time>
      </trkpt>
      <trkpt lat="39.833146" lon="2.894791">
        <ele>542.072</ele>
        <time>2020-02-23T10:49:50Z</time>
      </trkpt>
      <trkpt lat="39.83313" lon="2.894741">
        <ele>541.624</ele>
        <time>2020-02-23T10:49:51Z</time>
      </trkpt>
      <trkpt lat="39.83313" lon="2.894696">
        <ele>541.375</ele>
        <time>2020-02-23T10:49:52Z</time>
      </trkpt>
      <trkpt lat="39.833151" lon="2.894677">
        <ele>541.028</ele>
        <time>2020-02-23T10:49:53Z</time>
      </trkpt>
      <trkpt lat="39.833207" lon="2.894668">
        <ele>540.375</ele>
        <time>2020-02-23T10:49:54Z</time>
      </trkpt>
      <trkpt lat="39.833257" lon="2.894663">
        <ele>539.741</ele>
        <time>2020-02-23T10:49:55Z</time>
      </trkpt>
      <trkpt lat="39.833306" lon="2.89465">
        <ele>538.928</ele>
        <time>2020-02-23T10:49:56Z</time>
      </trkpt>
      <trkpt lat="39.833353" lon="2.894628">
        <ele>538.189</ele>
        <time>2020-02-23T10:49:57Z</time>
      </trkpt>
      <trkpt lat="39.833394" lon="2.894601">
        <ele>537.517</ele>
        <time>2020-02-23T10:49:58Z</time>
      </trkpt>
      <trkpt lat="39.833433" lon="2.89457">
        <ele>536.908</ele>
        <time>2020-02-23T10:49:59Z</time>
      </trkpt>
      <trkpt lat="39.833472" lon="2.894528">
        <ele>536.397</ele>
        <time>2020-02-23T10:50:00Z</time>
      </trkpt>
      <trkpt lat="39.833504" lon="2.894481">
        <ele>535.797</ele>
        <time>2020-02-23T10:50:01Z</time>
      </trkpt>
      <trkpt lat="39.833538" lon="2.894435">
        <ele>535.192</ele>
        <time>2020-02-23T10:50:02Z</time>
      </trkpt>
      <trkpt lat="39.833566" lon="2.894383">
        <ele>534.534</ele>
        <time>2020-02-23T10:50:03Z</time>
      </trkpt>
      <trkpt lat="39.833594" lon="2.894334">
        <ele>534.065</ele>
        <time>2020-02-23T10:50:04Z</time>
      </trkpt>
      <trkpt lat="39.833594" lon="2.894334">
        <ele>534.058</ele>
        <time>2020-02-23T10:50:05Z</time>
      </trkpt>
      <trkpt lat="39.833612" lon="2.89429">
        <ele>533.665</ele>
        <time>2020-02-23T10:50:06Z</time>
      </trkpt>
      <trkpt lat="39.833631" lon="2.894245">
        <ele>533.191</ele>
        <time>2020-02-23T10:50:07Z</time>
      </trkpt>
      <trkpt lat="39.833649" lon="2.894201">
        <ele>532.674</ele>
        <time>2020-02-23T10:50:08Z</time>
      </trkpt>
      <trkpt lat="39.833628" lon="2.894191">
        <ele>531.256</ele>
        <time>2020-02-23T10:50:09Z</time>
      </trkpt>
      <trkpt lat="39.833607" lon="2.894182">
        <ele>530.921</ele>
        <time>2020-02-23T10:50:10Z</time>
      </trkpt>
      <trkpt lat="39.833585" lon="2.894172">
        <ele>530.608</ele>
        <time>2020-02-23T10:50:11Z</time>
      </trkpt>
      <trkpt lat="39.833564" lon="2.894163">
        <ele>530.352</ele>
        <time>2020-02-23T10:50:12Z</time>
      </trkpt>
      <trkpt lat="39.833526" lon="2.894173">
        <ele>529.612</ele>
        <time>2020-02-23T10:50:13Z</time>
      </trkpt>
      <trkpt lat="39.833487" lon="2.894184">
        <ele>529.017</ele>
        <time>2020-02-23T10:50:14Z</time>
      </trkpt>
      <trkpt lat="39.833449" lon="2.894194">
        <ele>528.419</ele>
        <time>2020-02-23T10:50:15Z</time>
      </trkpt>
      <trkpt lat="39.833416" lon="2.894198">
        <ele>527.98</ele>
        <time>2020-02-23T10:50:16Z</time>
      </trkpt>
      <trkpt lat="39.833373" lon="2.894199">
        <ele>527.223</ele>
        <time>2020-02-23T10:50:17Z</time>
      </trkpt>
      <trkpt lat="39.833331" lon="2.894202">
        <ele>526.51</ele>
        <time>2020-02-23T10:50:18Z</time>
      </trkpt>
      <trkpt lat="39.833284" lon="2.894195">
        <ele>525.916</ele>
        <time>2020-02-23T10:50:19Z</time>
      </trkpt>
      <trkpt lat="39.833244" lon="2.894187">
        <ele>525.327</ele>
        <time>2020-02-23T10:50:20Z</time>
      </trkpt>
      <trkpt lat="39.833244" lon="2.894187">
        <ele>525.368</ele>
        <time>2020-02-23T10:50:21Z</time>
      </trkpt>
      <trkpt lat="39.833166" lon="2.894112">
        <ele>523.914</ele>
        <time>2020-02-23T10:50:22Z</time>
      </trkpt>
      <trkpt lat="39.833154" lon="2.894089">
        <ele>523.608</ele>
        <time>2020-02-23T10:50:23Z</time>
      </trkpt>
      <trkpt lat="39.833154" lon="2.894089">
        <ele>523.637</ele>
        <time>2020-02-23T10:50:24Z</time>
      </trkpt>
      <trkpt lat="39.83313" lon="2.894031">
        <ele>523.047</ele>
        <time>2020-02-23T10:50:25Z</time>
      </trkpt>
      <trkpt lat="39.833106" lon="2.893972">
        <ele>522.322</ele>
        <time>2020-02-23T10:50:26Z</time>
      </trkpt>
      <trkpt lat="39.833082" lon="2.893914">
        <ele>521.844</ele>
        <time>2020-02-23T10:50:27Z</time>
      </trkpt>
      <trkpt lat="39.833071" lon="2.893892">
        <ele>521.555</ele>
        <time>2020-02-23T10:50:28Z</time>
      </trkpt>
      <trkpt lat="39.833041" lon="2.893834">
        <ele>521.048</ele>
        <time>2020-02-23T10:50:29Z</time>
      </trkpt>
      <trkpt lat="39.833012" lon="2.893776">
        <ele>520.745</ele>
        <time>2020-02-23T10:50:30Z</time>
      </trkpt>
      <trkpt lat="39.832982" lon="2.893718">
        <ele>520.331</ele>
        <time>2020-02-23T10:50:31Z</time>
      </trkpt>
      <trkpt lat="39.832961" lon="2.893676">
        <ele>520.191</ele>
        <time>2020-02-23T10:50:32Z</time>
      </trkpt>
      <trkpt lat="39.832961" lon="2.893676">
        <ele>520.181</ele>
        <time>2020-02-23T10:50:33Z</time>
      </trkpt>
      <trkpt lat="39.83293" lon="2.893638">
        <ele>519.919</ele>
        <time>2020-02-23T10:50:34Z</time>
      </trkpt>
      <trkpt lat="39.8329" lon="2.8936">
        <ele>519.708</ele>
        <time>2020-02-23T10:50:35Z</time>
      </trkpt>
      <trkpt lat="39.832869" lon="2.893562">
        <ele>519.574</ele>
        <time>2020-02-23T10:50:36Z</time>
      </trkpt>
      <trkpt lat="39.832844" lon="2.893522">
        <ele>519.374</ele>
        <time>2020-02-23T10:50:37Z</time>
      </trkpt>
      <trkpt lat="39.832818" lon="2.893483">
        <ele>519.169</ele>
        <time>2020-02-23T10:50:38Z</time>
      </trkpt>
      <trkpt lat="39.832793" lon="2.893443">
        <ele>519.071</ele>
        <time>2020-02-23T10:50:39Z</time>
      </trkpt>
      <trkpt lat="39.832777" lon="2.893404">
        <ele>518.832</ele>
        <time>2020-02-23T10:50:40Z</time>
      </trkpt>
      <trkpt lat="39.83276" lon="2.893366">
        <ele>518.675</ele>
        <time>2020-02-23T10:50:41Z</time>
      </trkpt>
      <trkpt lat="39.832744" lon="2.893327">
        <ele>518.512</ele>
        <time>2020-02-23T10:50:42Z</time>
      </trkpt>
      <trkpt lat="39.832678" lon="2.893236">
        <ele>517.838</ele>
        <time>2020-02-23T10:50:43Z</time>
      </trkpt>
      <trkpt lat="39.832678" lon="2.893236">
        <ele>517.855</ele>
        <time>2020-02-23T10:50:44Z</time>
      </trkpt>
      <trkpt lat="39.832591" lon="2.89317">
        <ele>516.707</ele>
        <time>2020-02-23T10:50:45Z</time>
      </trkpt>
      <trkpt lat="39.832591" lon="2.89317">
        <ele>516.717</ele>
        <time>2020-02-23T10:50:46Z</time>
      </trkpt>
      <trkpt lat="39.8325" lon="2.893136">
        <ele>515.908</ele>
        <time>2020-02-23T10:50:47Z</time>
      </trkpt>
      <trkpt lat="39.8325" lon="2.893136">
        <ele>515.92</ele>
        <time>2020-02-23T10:50:48Z</time>
      </trkpt>
      <trkpt lat="39.832462" lon="2.893131">
        <ele>515.55</ele>
        <time>2020-02-23T10:50:49Z</time>
      </trkpt>
      <trkpt lat="39.832424" lon="2.893127">
        <ele>515.145</ele>
        <time>2020-02-23T10:50:50Z</time>
      </trkpt>
      <trkpt lat="39.832386" lon="2.893122">
        <ele>514.677</ele>
        <time>2020-02-23T10:50:51Z</time>
      </trkpt>
      <trkpt lat="39.832346" lon="2.89312">
        <ele>514.158</ele>
        <time>2020-02-23T10:50:52Z</time>
      </trkpt>
      <trkpt lat="39.832307" lon="2.893119">
        <ele>513.571</ele>
        <time>2020-02-23T10:50:53Z</time>
      </trkpt>
      <trkpt lat="39.832267" lon="2.893117">
        <ele>513.168</ele>
        <time>2020-02-23T10:50:54Z</time>
      </trkpt>
      <trkpt lat="39.832228" lon="2.893119">
        <ele>512.764</ele>
        <time>2020-02-23T10:50:55Z</time>
      </trkpt>
      <trkpt lat="39.832189" lon="2.893122">
        <ele>512.239</ele>
        <time>2020-02-23T10:50:56Z</time>
      </trkpt>
      <trkpt lat="39.83215" lon="2.893124">
        <ele>511.901</ele>
        <time>2020-02-23T10:50:57Z</time>
      </trkpt>
      <trkpt lat="39.832111" lon="2.893125">
        <ele>511.621</ele>
        <time>2020-02-23T10:50:58Z</time>
      </trkpt>
      <trkpt lat="39.832071" lon="2.893127">
        <ele>511.308</ele>
        <time>2020-02-23T10:50:59Z</time>
      </trkpt>
      <trkpt lat="39.832032" lon="2.893128">
        <ele>511.088</ele>
        <time>2020-02-23T10:51:00Z</time>
      </trkpt>
      <trkpt lat="39.832031" lon="2.89308">
        <ele>510.738</ele>
        <time>2020-02-23T10:51:01Z</time>
      </trkpt>
      <trkpt lat="39.832029" lon="2.893031">
        <ele>510.323</ele>
        <time>2020-02-23T10:51:02Z</time>
      </trkpt>
      <trkpt lat="39.832028" lon="2.892983">
        <ele>509.755</ele>
        <time>2020-02-23T10:51:03Z</time>
      </trkpt>
      <trkpt lat="39.832026" lon="2.892935">
        <ele>509.336</ele>
        <time>2020-02-23T10:51:04Z</time>
      </trkpt>
      <trkpt lat="39.832046" lon="2.892879">
        <ele>508.769</ele>
        <time>2020-02-23T10:51:05Z</time>
      </trkpt>
      <trkpt lat="39.832046" lon="2.892879">
        <ele>508.796</ele>
        <time>2020-02-23T10:51:06Z</time>
      </trkpt>
      <trkpt lat="39.83207" lon="2.892851">
        <ele>508.282</ele>
        <time>2020-02-23T10:51:07Z</time>
      </trkpt>
      <trkpt lat="39.832095" lon="2.892822">
        <ele>507.787</ele>
        <time>2020-02-23T10:51:08Z</time>
      </trkpt>
      <trkpt lat="39.832119" lon="2.892794">
        <ele>507.242</ele>
        <time>2020-02-23T10:51:09Z</time>
      </trkpt>
      <trkpt lat="39.832153" lon="2.892781">
        <ele>506.826</ele>
        <time>2020-02-23T10:51:10Z</time>
      </trkpt>
      <trkpt lat="39.832186" lon="2.892768">
        <ele>506.508</ele>
        <time>2020-02-23T10:51:11Z</time>
      </trkpt>
      <trkpt lat="39.83222" lon="2.892755">
        <ele>506.223</ele>
        <time>2020-02-23T10:51:12Z</time>
      </trkpt>
      <trkpt lat="39.832247" lon="2.89273">
        <ele>505.913</ele>
        <time>2020-02-23T10:51:13Z</time>
      </trkpt>
      <trkpt lat="39.832273" lon="2.892704">
        <ele>505.638</ele>
        <time>2020-02-23T10:51:14Z</time>
      </trkpt>
      <trkpt lat="39.8323" lon="2.892679">
        <ele>505.26</ele>
        <time>2020-02-23T10:51:15Z</time>
      </trkpt>
      <trkpt lat="39.832278" lon="2.892647">
        <ele>504.871</ele>
        <time>2020-02-23T10:51:16Z</time>
      </trkpt>
      <trkpt lat="39.832256" lon="2.892615">
        <ele>504.574</ele>
        <time>2020-02-23T10:51:17Z</time>
      </trkpt>
      <trkpt lat="39.832234" lon="2.892583">
        <ele>504.151</ele>
        <time>2020-02-23T10:51:18Z</time>
      </trkpt>
      <trkpt lat="39.832206" lon="2.892562">
        <ele>503.757</ele>
        <time>2020-02-23T10:51:19Z</time>
      </trkpt>
      <trkpt lat="39.832177" lon="2.892541">
        <ele>503.327</ele>
        <time>2020-02-23T10:51:20Z</time>
      </trkpt>
      <trkpt lat="39.832149" lon="2.89252">
        <ele>502.968</ele>
        <time>2020-02-23T10:51:21Z</time>
      </trkpt>
      <trkpt lat="39.832119" lon="2.892503">
        <ele>502.514</ele>
        <time>2020-02-23T10:51:22Z</time>
      </trkpt>
      <trkpt lat="39.83209" lon="2.892485">
        <ele>502.108</ele>
        <time>2020-02-23T10:51:23Z</time>
      </trkpt>
      <trkpt lat="39.83206" lon="2.892468">
        <ele>501.757</ele>
        <time>2020-02-23T10:51:24Z</time>
      </trkpt>
      <trkpt lat="39.832029" lon="2.89245">
        <ele>501.337</ele>
        <time>2020-02-23T10:51:25Z</time>
      </trkpt>
      <trkpt lat="39.831998" lon="2.892431">
        <ele>500.972</ele>
        <time>2020-02-23T10:51:26Z</time>
      </trkpt>
      <trkpt lat="39.831967" lon="2.892413">
        <ele>500.514</ele>
        <time>2020-02-23T10:51:27Z</time>
      </trkpt>
      <trkpt lat="39.831957" lon="2.892372">
        <ele>500.245</ele>
        <time>2020-02-23T10:51:28Z</time>
      </trkpt>
      <trkpt lat="39.831946" lon="2.892332">
        <ele>499.958</ele>
        <time>2020-02-23T10:51:29Z</time>
      </trkpt>
      <trkpt lat="39.831936" lon="2.892291">
        <ele>499.715</ele>
        <time>2020-02-23T10:51:30Z</time>
      </trkpt>
      <trkpt lat="39.83196" lon="2.892265">
        <ele>499.681</ele>
        <time>2020-02-23T10:51:31Z</time>
      </trkpt>
      <trkpt lat="39.831984" lon="2.892239">
        <ele>499.422</ele>
        <time>2020-02-23T10:51:32Z</time>
      </trkpt>
      <trkpt lat="39.832008" lon="2.892213">
        <ele>499.262</ele>
        <time>2020-02-23T10:51:33Z</time>
      </trkpt>
      <trkpt lat="39.832031" lon="2.89217">
        <ele>499.008</ele>
        <time>2020-02-23T10:51:34Z</time>
      </trkpt>
      <trkpt lat="39.832054" lon="2.892126">
        <ele>498.808</ele>
        <time>2020-02-23T10:51:35Z</time>
      </trkpt>
      <trkpt lat="39.832077" lon="2.892083">
        <ele>498.577</ele>
        <time>2020-02-23T10:51:36Z</time>
      </trkpt>
      <trkpt lat="39.832094" lon="2.892047">
        <ele>498.427</ele>
        <time>2020-02-23T10:51:37Z</time>
      </trkpt>
      <trkpt lat="39.83211" lon="2.892012">
        <ele>498.332</ele>
        <time>2020-02-23T10:51:38Z</time>
      </trkpt>
      <trkpt lat="39.832127" lon="2.891976">
        <ele>498.374</ele>
        <time>2020-02-23T10:51:39Z</time>
      </trkpt>
      <trkpt lat="39.832101" lon="2.891949">
        <ele>498.285</ele>
        <time>2020-02-23T10:51:40Z</time>
      </trkpt>
      <trkpt lat="39.832076" lon="2.891921">
        <ele>498.248</ele>
        <time>2020-02-23T10:51:41Z</time>
      </trkpt>
      <trkpt lat="39.83205" lon="2.891894">
        <ele>498.125</ele>
        <time>2020-02-23T10:51:42Z</time>
      </trkpt>
      <trkpt lat="39.832018" lon="2.891885">
        <ele>498.151</ele>
        <time>2020-02-23T10:51:43Z</time>
      </trkpt>
      <trkpt lat="39.831985" lon="2.891875">
        <ele>498.115</ele>
        <time>2020-02-23T10:51:44Z</time>
      </trkpt>
      <trkpt lat="39.831953" lon="2.891866">
        <ele>498.165</ele>
        <time>2020-02-23T10:51:45Z</time>
      </trkpt>
      <trkpt lat="39.831923" lon="2.891855">
        <ele>498.111</ele>
        <time>2020-02-23T10:51:46Z</time>
      </trkpt>
      <trkpt lat="39.831893" lon="2.891845">
        <ele>498.108</ele>
        <time>2020-02-23T10:51:47Z</time>
      </trkpt>
      <trkpt lat="39.831863" lon="2.891834">
        <ele>498.186</ele>
        <time>2020-02-23T10:51:48Z</time>
      </trkpt>
      <trkpt lat="39.831834" lon="2.891823">
        <ele>498.196</ele>
        <time>2020-02-23T10:51:49Z</time>
      </trkpt>
      <trkpt lat="39.831804" lon="2.891811">
        <ele>498.161</ele>
        <time>2020-02-23T10:51:50Z</time>
      </trkpt>
      <trkpt lat="39.831775" lon="2.8918">
        <ele>498.213</ele>
        <time>2020-02-23T10:51:51Z</time>
      </trkpt>
      <trkpt lat="39.831752" lon="2.891771">
        <ele>498.294</ele>
        <time>2020-02-23T10:51:52Z</time>
      </trkpt>
      <trkpt lat="39.83173" lon="2.891742">
        <ele>498.287</ele>
        <time>2020-02-23T10:51:53Z</time>
      </trkpt>
      <trkpt lat="39.831707" lon="2.891713">
        <ele>498.334</ele>
        <time>2020-02-23T10:51:54Z</time>
      </trkpt>
      <trkpt lat="39.831692" lon="2.891673">
        <ele>498.39</ele>
        <time>2020-02-23T10:51:55Z</time>
      </trkpt>
      <trkpt lat="39.831678" lon="2.891633">
        <ele>498.333</ele>
        <time>2020-02-23T10:51:56Z</time>
      </trkpt>
      <trkpt lat="39.831663" lon="2.891593">
        <ele>498.423</ele>
        <time>2020-02-23T10:51:57Z</time>
      </trkpt>
      <trkpt lat="39.831627" lon="2.891536">
        <ele>498.415</ele>
        <time>2020-02-23T10:51:58Z</time>
      </trkpt>
      <trkpt lat="39.831592" lon="2.891478">
        <ele>498.508</ele>
        <time>2020-02-23T10:51:59Z</time>
      </trkpt>
      <trkpt lat="39.831556" lon="2.891421">
        <ele>498.688</ele>
        <time>2020-02-23T10:52:00Z</time>
      </trkpt>
      <trkpt lat="39.831529" lon="2.891375">
        <ele>498.618</ele>
        <time>2020-02-23T10:52:01Z</time>
      </trkpt>
      <trkpt lat="39.831503" lon="2.891333">
        <ele>498.653</ele>
        <time>2020-02-23T10:52:02Z</time>
      </trkpt>
      <trkpt lat="39.831476" lon="2.891294">
        <ele>498.725</ele>
        <time>2020-02-23T10:52:03Z</time>
      </trkpt>
      <trkpt lat="39.83145" lon="2.891254">
        <ele>498.796</ele>
        <time>2020-02-23T10:52:04Z</time>
      </trkpt>
      <trkpt lat="39.831421" lon="2.891214">
        <ele>498.769</ele>
        <time>2020-02-23T10:52:05Z</time>
      </trkpt>
      <trkpt lat="39.831387" lon="2.891168">
        <ele>498.816</ele>
        <time>2020-02-23T10:52:06Z</time>
      </trkpt>
      <trkpt lat="39.831356" lon="2.891131">
        <ele>498.922</ele>
        <time>2020-02-23T10:52:07Z</time>
      </trkpt>
      <trkpt lat="39.831329" lon="2.8911">
        <ele>498.923</ele>
        <time>2020-02-23T10:52:08Z</time>
      </trkpt>
      <trkpt lat="39.831303" lon="2.891073">
        <ele>499.083</ele>
        <time>2020-02-23T10:52:09Z</time>
      </trkpt>
      <trkpt lat="39.831279" lon="2.891041">
        <ele>499.011</ele>
        <time>2020-02-23T10:52:10Z</time>
      </trkpt>
      <trkpt lat="39.831249" lon="2.891008">
        <ele>499.108</ele>
        <time>2020-02-23T10:52:11Z</time>
      </trkpt>
      <trkpt lat="39.831213" lon="2.890978">
        <ele>499.237</ele>
        <time>2020-02-23T10:52:12Z</time>
      </trkpt>
      <trkpt lat="39.831182" lon="2.890956">
        <ele>499.287</ele>
        <time>2020-02-23T10:52:13Z</time>
      </trkpt>
      <trkpt lat="39.831149" lon="2.890935">
        <ele>499.312</ele>
        <time>2020-02-23T10:52:14Z</time>
      </trkpt>
      <trkpt lat="39.831116" lon="2.890914">
        <ele>499.424</ele>
        <time>2020-02-23T10:52:15Z</time>
      </trkpt>
      <trkpt lat="39.831083" lon="2.890898">
        <ele>499.545</ele>
        <time>2020-02-23T10:52:16Z</time>
      </trkpt>
      <trkpt lat="39.831083" lon="2.890898">
        <ele>499.518</ele>
        <time>2020-02-23T10:52:17Z</time>
      </trkpt>
      <trkpt lat="39.831011" lon="2.890839">
        <ele>499.785</ele>
        <time>2020-02-23T10:52:18Z</time>
      </trkpt>
      <trkpt lat="39.830997" lon="2.890825">
        <ele>499.811</ele>
        <time>2020-02-23T10:52:19Z</time>
      </trkpt>
      <trkpt lat="39.830972" lon="2.8908">
        <ele>500.086</ele>
        <time>2020-02-23T10:52:20Z</time>
      </trkpt>
      <trkpt lat="39.830942" lon="2.890772">
        <ele>500.16</ele>
        <time>2020-02-23T10:52:21Z</time>
      </trkpt>
      <trkpt lat="39.830912" lon="2.89075">
        <ele>500.226</ele>
        <time>2020-02-23T10:52:22Z</time>
      </trkpt>
      <trkpt lat="39.830889" lon="2.890725">
        <ele>500.308</ele>
        <time>2020-02-23T10:52:23Z</time>
      </trkpt>
      <trkpt lat="39.830863" lon="2.890702">
        <ele>500.423</ele>
        <time>2020-02-23T10:52:24Z</time>
      </trkpt>
      <trkpt lat="39.830835" lon="2.890687">
        <ele>500.533</ele>
        <time>2020-02-23T10:52:25Z</time>
      </trkpt>
      <trkpt lat="39.830835" lon="2.890687">
        <ele>500.578</ele>
        <time>2020-02-23T10:52:26Z</time>
      </trkpt>
      <trkpt lat="39.830767" lon="2.890659">
        <ele>500.71</ele>
        <time>2020-02-23T10:52:27Z</time>
      </trkpt>
      <trkpt lat="39.830752" lon="2.890654">
        <ele>500.731</ele>
        <time>2020-02-23T10:52:28Z</time>
      </trkpt>
      <trkpt lat="39.830719" lon="2.890638">
        <ele>500.854</ele>
        <time>2020-02-23T10:52:29Z</time>
      </trkpt>
      <trkpt lat="39.830689" lon="2.890621">
        <ele>500.951</ele>
        <time>2020-02-23T10:52:30Z</time>
      </trkpt>
      <trkpt lat="39.830663" lon="2.890597">
        <ele>501.047</ele>
        <time>2020-02-23T10:52:31Z</time>
      </trkpt>
      <trkpt lat="39.83064" lon="2.890571">
        <ele>501.145</ele>
        <time>2020-02-23T10:52:32Z</time>
      </trkpt>
      <trkpt lat="39.830615" lon="2.890544">
        <ele>501.247</ele>
        <time>2020-02-23T10:52:33Z</time>
      </trkpt>
      <trkpt lat="39.830615" lon="2.890544">
        <ele>501.211</ele>
        <time>2020-02-23T10:52:34Z</time>
      </trkpt>
      <trkpt lat="39.830561" lon="2.890478">
        <ele>501.408</ele>
        <time>2020-02-23T10:52:35Z</time>
      </trkpt>
      <trkpt lat="39.830551" lon="2.890466">
        <ele>501.559</ele>
        <time>2020-02-23T10:52:36Z</time>
      </trkpt>
      <trkpt lat="39.830528" lon="2.890444">
        <ele>501.559</ele>
        <time>2020-02-23T10:52:37Z</time>
      </trkpt>
      <trkpt lat="39.830501" lon="2.89042">
        <ele>501.624</ele>
        <time>2020-02-23T10:52:38Z</time>
      </trkpt>
      <trkpt lat="39.830472" lon="2.890406">
        <ele>501.766</ele>
        <time>2020-02-23T10:52:39Z</time>
      </trkpt>
      <trkpt lat="39.830472" lon="2.890406">
        <ele>501.737</ele>
        <time>2020-02-23T10:52:40Z</time>
      </trkpt>
      <trkpt lat="39.830444" lon="2.890389">
        <ele>501.82</ele>
        <time>2020-02-23T10:52:41Z</time>
      </trkpt>
      <trkpt lat="39.830416" lon="2.890371">
        <ele>501.977</ele>
        <time>2020-02-23T10:52:42Z</time>
      </trkpt>
      <trkpt lat="39.830388" lon="2.890354">
        <ele>502.093</ele>
        <time>2020-02-23T10:52:43Z</time>
      </trkpt>
      <trkpt lat="39.830362" lon="2.890329">
        <ele>502.162</ele>
        <time>2020-02-23T10:52:44Z</time>
      </trkpt>
      <trkpt lat="39.830337" lon="2.890305">
        <ele>502.283</ele>
        <time>2020-02-23T10:52:45Z</time>
      </trkpt>
      <trkpt lat="39.830311" lon="2.89028">
        <ele>502.311</ele>
        <time>2020-02-23T10:52:46Z</time>
      </trkpt>
      <trkpt lat="39.830289" lon="2.890255">
        <ele>502.408</ele>
        <time>2020-02-23T10:52:47Z</time>
      </trkpt>
      <trkpt lat="39.830266" lon="2.890229">
        <ele>502.541</ele>
        <time>2020-02-23T10:52:48Z</time>
      </trkpt>
      <trkpt lat="39.830244" lon="2.890204">
        <ele>502.631</ele>
        <time>2020-02-23T10:52:49Z</time>
      </trkpt>
      <trkpt lat="39.830221" lon="2.890179">
        <ele>502.726</ele>
        <time>2020-02-23T10:52:50Z</time>
      </trkpt>
      <trkpt lat="39.830202" lon="2.89014">
        <ele>502.888</ele>
        <time>2020-02-23T10:52:51Z</time>
      </trkpt>
      <trkpt lat="39.830182" lon="2.8901">
        <ele>502.989</ele>
        <time>2020-02-23T10:52:52Z</time>
      </trkpt>
      <trkpt lat="39.830163" lon="2.890061">
        <ele>503.062</ele>
        <time>2020-02-23T10:52:53Z</time>
      </trkpt>
      <trkpt lat="39.830134" lon="2.890035">
        <ele>503.239</ele>
        <time>2020-02-23T10:52:54Z</time>
      </trkpt>
      <trkpt lat="39.830106" lon="2.890009">
        <ele>503.345</ele>
        <time>2020-02-23T10:52:55Z</time>
      </trkpt>
      <trkpt lat="39.830077" lon="2.889983">
        <ele>503.474</ele>
        <time>2020-02-23T10:52:56Z</time>
      </trkpt>
      <trkpt lat="39.830053" lon="2.889965">
        <ele>503.556</ele>
        <time>2020-02-23T10:52:57Z</time>
      </trkpt>
      <trkpt lat="39.830029" lon="2.889948">
        <ele>503.721</ele>
        <time>2020-02-23T10:52:58Z</time>
      </trkpt>
      <trkpt lat="39.830005" lon="2.88993">
        <ele>503.808</ele>
        <time>2020-02-23T10:52:59Z</time>
      </trkpt>
      <trkpt lat="39.829981" lon="2.889913">
        <ele>504.062</ele>
        <time>2020-02-23T10:53:00Z</time>
      </trkpt>
      <trkpt lat="39.829957" lon="2.889893">
        <ele>504.112</ele>
        <time>2020-02-23T10:53:01Z</time>
      </trkpt>
      <trkpt lat="39.829933" lon="2.889872">
        <ele>504.327</ele>
        <time>2020-02-23T10:53:02Z</time>
      </trkpt>
      <trkpt lat="39.829908" lon="2.889852">
        <ele>504.449</ele>
        <time>2020-02-23T10:53:03Z</time>
      </trkpt>
      <trkpt lat="39.829884" lon="2.889832">
        <ele>504.77</ele>
        <time>2020-02-23T10:53:04Z</time>
      </trkpt>
      <trkpt lat="39.829855" lon="2.889804">
        <ele>504.933</ele>
        <time>2020-02-23T10:53:05Z</time>
      </trkpt>
      <trkpt lat="39.829825" lon="2.889775">
        <ele>505.25</ele>
        <time>2020-02-23T10:53:06Z</time>
      </trkpt>
      <trkpt lat="39.829796" lon="2.889747">
        <ele>505.436</ele>
        <time>2020-02-23T10:53:07Z</time>
      </trkpt>
      <trkpt lat="39.829772" lon="2.88972">
        <ele>505.725</ele>
        <time>2020-02-23T10:53:08Z</time>
      </trkpt>
      <trkpt lat="39.829749" lon="2.889693">
        <ele>506.026</ele>
        <time>2020-02-23T10:53:09Z</time>
      </trkpt>
      <trkpt lat="39.829725" lon="2.889666">
        <ele>506.208</ele>
        <time>2020-02-23T10:53:10Z</time>
      </trkpt>
      <trkpt lat="39.829696" lon="2.889646">
        <ele>506.508</ele>
        <time>2020-02-23T10:53:11Z</time>
      </trkpt>
      <trkpt lat="39.829668" lon="2.889627">
        <ele>506.817</ele>
        <time>2020-02-23T10:53:12Z</time>
      </trkpt>
      <trkpt lat="39.829639" lon="2.889607">
        <ele>507.117</ele>
        <time>2020-02-23T10:53:13Z</time>
      </trkpt>
      <trkpt lat="39.829606" lon="2.889584">
        <ele>507.532</ele>
        <time>2020-02-23T10:53:14Z</time>
      </trkpt>
      <trkpt lat="39.829572" lon="2.88956">
        <ele>507.934</ele>
        <time>2020-02-23T10:53:15Z</time>
      </trkpt>
      <trkpt lat="39.829539" lon="2.889537">
        <ele>508.355</ele>
        <time>2020-02-23T10:53:16Z</time>
      </trkpt>
      <trkpt lat="39.829509" lon="2.889515">
        <ele>508.758</ele>
        <time>2020-02-23T10:53:17Z</time>
      </trkpt>
      <trkpt lat="39.82948" lon="2.889494">
        <ele>509.185</ele>
        <time>2020-02-23T10:53:18Z</time>
      </trkpt>
      <trkpt lat="39.82945" lon="2.889472">
        <ele>509.681</ele>
        <time>2020-02-23T10:53:19Z</time>
      </trkpt>
      <trkpt lat="39.829431" lon="2.889447">
        <ele>509.995</ele>
        <time>2020-02-23T10:53:20Z</time>
      </trkpt>
      <trkpt lat="39.829412" lon="2.889422">
        <ele>510.249</ele>
        <time>2020-02-23T10:53:21Z</time>
      </trkpt>
      <trkpt lat="39.829393" lon="2.889397">
        <ele>510.523</ele>
        <time>2020-02-23T10:53:22Z</time>
      </trkpt>
      <trkpt lat="39.829374" lon="2.889372">
        <ele>510.808</ele>
        <time>2020-02-23T10:53:23Z</time>
      </trkpt>
      <trkpt lat="39.829354" lon="2.889342">
        <ele>511.154</ele>
        <time>2020-02-23T10:53:24Z</time>
      </trkpt>
      <trkpt lat="39.829334" lon="2.889311">
        <ele>511.484</ele>
        <time>2020-02-23T10:53:25Z</time>
      </trkpt>
      <trkpt lat="39.829314" lon="2.889281">
        <ele>511.729</ele>
        <time>2020-02-23T10:53:26Z</time>
      </trkpt>
      <trkpt lat="39.829298" lon="2.889253">
        <ele>512.031</ele>
        <time>2020-02-23T10:53:27Z</time>
      </trkpt>
      <trkpt lat="39.829282" lon="2.889226">
        <ele>512.232</ele>
        <time>2020-02-23T10:53:28Z</time>
      </trkpt>
      <trkpt lat="39.829266" lon="2.889198">
        <ele>512.555</ele>
        <time>2020-02-23T10:53:29Z</time>
      </trkpt>
      <trkpt lat="39.82925" lon="2.889171">
        <ele>512.862</ele>
        <time>2020-02-23T10:53:30Z</time>
      </trkpt>
      <trkpt lat="39.829238" lon="2.889143">
        <ele>513.218</ele>
        <time>2020-02-23T10:53:31Z</time>
      </trkpt>
      <trkpt lat="39.829227" lon="2.889115">
        <ele>513.621</ele>
        <time>2020-02-23T10:53:32Z</time>
      </trkpt>
      <trkpt lat="39.829215" lon="2.889088">
        <ele>513.941</ele>
        <time>2020-02-23T10:53:33Z</time>
      </trkpt>
      <trkpt lat="39.829203" lon="2.88906">
        <ele>514.305</ele>
        <time>2020-02-23T10:53:34Z</time>
      </trkpt>
      <trkpt lat="39.82919" lon="2.889032">
        <ele>514.708</ele>
        <time>2020-02-23T10:53:35Z</time>
      </trkpt>
      <trkpt lat="39.829177" lon="2.889004">
        <ele>515.147</ele>
        <time>2020-02-23T10:53:36Z</time>
      </trkpt>
      <trkpt lat="39.829163" lon="2.888977">
        <ele>515.667</ele>
        <time>2020-02-23T10:53:37Z</time>
      </trkpt>
      <trkpt lat="39.82915" lon="2.888949">
        <ele>516.162</ele>
        <time>2020-02-23T10:53:38Z</time>
      </trkpt>
      <trkpt lat="39.829137" lon="2.888921">
        <ele>516.684</ele>
        <time>2020-02-23T10:53:39Z</time>
      </trkpt>
      <trkpt lat="39.829132" lon="2.888891">
        <ele>517.145</ele>
        <time>2020-02-23T10:53:40Z</time>
      </trkpt>
      <trkpt lat="39.829127" lon="2.888861">
        <ele>517.638</ele>
        <time>2020-02-23T10:53:41Z</time>
      </trkpt>
      <trkpt lat="39.829121" lon="2.888831">
        <ele>518.185</ele>
        <time>2020-02-23T10:53:42Z</time>
      </trkpt>
      <trkpt lat="39.829116" lon="2.888801">
        <ele>518.651</ele>
        <time>2020-02-23T10:53:43Z</time>
      </trkpt>
      <trkpt lat="39.829112" lon="2.888777">
        <ele>519.039</ele>
        <time>2020-02-23T10:53:44Z</time>
      </trkpt>
      <trkpt lat="39.829108" lon="2.888753">
        <ele>519.401</ele>
        <time>2020-02-23T10:53:45Z</time>
      </trkpt>
      <trkpt lat="39.829104" lon="2.888728">
        <ele>519.821</ele>
        <time>2020-02-23T10:53:46Z</time>
      </trkpt>
      <trkpt lat="39.8291" lon="2.888704">
        <ele>520.208</ele>
        <time>2020-02-23T10:53:47Z</time>
      </trkpt>
      <trkpt lat="39.829096" lon="2.88868">
        <ele>520.678</ele>
        <time>2020-02-23T10:53:48Z</time>
      </trkpt>
      <trkpt lat="39.82909" lon="2.888658">
        <ele>520.968</ele>
        <time>2020-02-23T10:53:49Z</time>
      </trkpt>
      <trkpt lat="39.829084" lon="2.888635">
        <ele>521.383</ele>
        <time>2020-02-23T10:53:50Z</time>
      </trkpt>
      <trkpt lat="39.829079" lon="2.888613">
        <ele>521.765</ele>
        <time>2020-02-23T10:53:51Z</time>
      </trkpt>
      <trkpt lat="39.829073" lon="2.88859">
        <ele>522.286</ele>
        <time>2020-02-23T10:53:52Z</time>
      </trkpt>
      <trkpt lat="39.829067" lon="2.888568">
        <ele>522.589</ele>
        <time>2020-02-23T10:53:53Z</time>
      </trkpt>
      <trkpt lat="39.829058" lon="2.88855">
        <ele>522.876</ele>
        <time>2020-02-23T10:53:54Z</time>
      </trkpt>
      <trkpt lat="39.829048" lon="2.888532">
        <ele>523.142</ele>
        <time>2020-02-23T10:53:55Z</time>
      </trkpt>
      <trkpt lat="39.829039" lon="2.888514">
        <ele>523.462</ele>
        <time>2020-02-23T10:53:56Z</time>
      </trkpt>
      <trkpt lat="39.829029" lon="2.888497">
        <ele>523.883</ele>
        <time>2020-02-23T10:53:57Z</time>
      </trkpt>
      <trkpt lat="39.82902" lon="2.888479">
        <ele>524.111</ele>
        <time>2020-02-23T10:53:58Z</time>
      </trkpt>
      <trkpt lat="39.82901" lon="2.888461">
        <ele>524.408</ele>
        <time>2020-02-23T10:53:59Z</time>
      </trkpt>
      <trkpt lat="39.829" lon="2.888458">
        <ele>524.651</ele>
        <time>2020-02-23T10:54:00Z</time>
      </trkpt>
      <trkpt lat="39.82899" lon="2.888456">
        <ele>524.861</ele>
        <time>2020-02-23T10:54:01Z</time>
      </trkpt>
      <trkpt lat="39.828979" lon="2.888453">
        <ele>525.066</ele>
        <time>2020-02-23T10:54:02Z</time>
      </trkpt>
      <trkpt lat="39.828969" lon="2.888451">
        <ele>525.298</ele>
        <time>2020-02-23T10:54:03Z</time>
      </trkpt>
      <trkpt lat="39.828964" lon="2.888481">
        <ele>525.659</ele>
        <time>2020-02-23T10:54:04Z</time>
      </trkpt>
      <trkpt lat="39.828964" lon="2.888481">
        <ele>525.642</ele>
        <time>2020-02-23T10:54:05Z</time>
      </trkpt>
      <trkpt lat="39.828952" lon="2.888515">
        <ele>526.249</ele>
        <time>2020-02-23T10:54:06Z</time>
      </trkpt>
      <trkpt lat="39.828952" lon="2.888515">
        <ele>526.295</ele>
        <time>2020-02-23T10:54:07Z</time>
      </trkpt>
      <trkpt lat="39.828931" lon="2.888539">
        <ele>526.842</ele>
        <time>2020-02-23T10:54:08Z</time>
      </trkpt>
      <trkpt lat="39.828931" lon="2.888539">
        <ele>526.822</ele>
        <time>2020-02-23T10:54:09Z</time>
      </trkpt>
      <trkpt lat="39.828909" lon="2.888526">
        <ele>527.414</ele>
        <time>2020-02-23T10:54:10Z</time>
      </trkpt>
      <trkpt lat="39.828895" lon="2.888509">
        <ele>527.908</ele>
        <time>2020-02-23T10:54:11Z</time>
      </trkpt>
      <trkpt lat="39.828881" lon="2.888487">
        <ele>528.319</ele>
        <time>2020-02-23T10:54:12Z</time>
      </trkpt>
      <trkpt lat="39.828864" lon="2.888468">
        <ele>528.829</ele>
        <time>2020-02-23T10:54:13Z</time>
      </trkpt>
      <trkpt lat="39.828851" lon="2.888444">
        <ele>529.314</ele>
        <time>2020-02-23T10:54:14Z</time>
      </trkpt>
      <trkpt lat="39.828843" lon="2.888419">
        <ele>529.796</ele>
        <time>2020-02-23T10:54:15Z</time>
      </trkpt>
      <trkpt lat="39.828821" lon="2.888398">
        <ele>530.257</ele>
        <time>2020-02-23T10:54:16Z</time>
      </trkpt>
      <trkpt lat="39.828821" lon="2.888398">
        <ele>530.23</ele>
        <time>2020-02-23T10:54:17Z</time>
      </trkpt>
      <trkpt lat="39.828776" lon="2.888344">
        <ele>531.267</ele>
        <time>2020-02-23T10:54:18Z</time>
      </trkpt>
      <trkpt lat="39.828767" lon="2.888336">
        <ele>531.453</ele>
        <time>2020-02-23T10:54:19Z</time>
      </trkpt>
      <trkpt lat="39.828754" lon="2.888318">
        <ele>531.759</ele>
        <time>2020-02-23T10:54:20Z</time>
      </trkpt>
      <trkpt lat="39.828737" lon="2.888306">
        <ele>532.003</ele>
        <time>2020-02-23T10:54:21Z</time>
      </trkpt>
      <trkpt lat="39.828718" lon="2.888297">
        <ele>532.323</ele>
        <time>2020-02-23T10:54:22Z</time>
      </trkpt>
      <trkpt lat="39.828698" lon="2.888288">
        <ele>532.508</ele>
        <time>2020-02-23T10:54:23Z</time>
      </trkpt>
      <trkpt lat="39.828676" lon="2.888277">
        <ele>532.86</ele>
        <time>2020-02-23T10:54:24Z</time>
      </trkpt>
      <trkpt lat="39.828654" lon="2.888262">
        <ele>533.08</ele>
        <time>2020-02-23T10:54:25Z</time>
      </trkpt>
      <trkpt lat="39.828625" lon="2.888248">
        <ele>533.465</ele>
        <time>2020-02-23T10:54:26Z</time>
      </trkpt>
      <trkpt lat="39.828597" lon="2.888243">
        <ele>533.637</ele>
        <time>2020-02-23T10:54:27Z</time>
      </trkpt>
      <trkpt lat="39.828574" lon="2.888239">
        <ele>533.888</ele>
        <time>2020-02-23T10:54:28Z</time>
      </trkpt>
      <trkpt lat="39.828549" lon="2.888236">
        <ele>534.091</ele>
        <time>2020-02-23T10:54:29Z</time>
      </trkpt>
      <trkpt lat="39.828525" lon="2.888239">
        <ele>534.228</ele>
        <time>2020-02-23T10:54:30Z</time>
      </trkpt>
      <trkpt lat="39.828506" lon="2.888248">
        <ele>534.354</ele>
        <time>2020-02-23T10:54:31Z</time>
      </trkpt>
      <trkpt lat="39.828488" lon="2.888257">
        <ele>534.559</ele>
        <time>2020-02-23T10:54:32Z</time>
      </trkpt>
      <trkpt lat="39.828473" lon="2.888271">
        <ele>534.603</ele>
        <time>2020-02-23T10:54:33Z</time>
      </trkpt>
      <trkpt lat="39.828473" lon="2.888271">
        <ele>534.623</ele>
        <time>2020-02-23T10:54:34Z</time>
      </trkpt>
      <trkpt lat="39.828454" lon="2.888336">
        <ele>535.008</ele>
        <time>2020-02-23T10:54:35Z</time>
      </trkpt>
      <trkpt lat="39.828451" lon="2.888354">
        <ele>535.18</ele>
        <time>2020-02-23T10:54:36Z</time>
      </trkpt>
      <trkpt lat="39.828449" lon="2.888388">
        <ele>535.21</ele>
        <time>2020-02-23T10:54:37Z</time>
      </trkpt>
      <trkpt lat="39.828452" lon="2.888426">
        <ele>535.445</ele>
        <time>2020-02-23T10:54:38Z</time>
      </trkpt>
      <trkpt lat="39.828452" lon="2.888426">
        <ele>535.457</ele>
        <time>2020-02-23T10:54:39Z</time>
      </trkpt>
      <trkpt lat="39.828468" lon="2.888463">
        <ele>535.678</ele>
        <time>2020-02-23T10:54:40Z</time>
      </trkpt>
      <trkpt lat="39.828483" lon="2.888499">
        <ele>535.751</ele>
        <time>2020-02-23T10:54:41Z</time>
      </trkpt>
      <trkpt lat="39.828499" lon="2.888536">
        <ele>535.948</ele>
        <time>2020-02-23T10:54:42Z</time>
      </trkpt>
      <trkpt lat="39.828549" lon="2.888623">
        <ele>536.364</ele>
        <time>2020-02-23T10:54:43Z</time>
      </trkpt>
      <trkpt lat="39.828554" lon="2.88864">
        <ele>536.415</ele>
        <time>2020-02-23T10:54:44Z</time>
      </trkpt>
      <trkpt lat="39.828556" lon="2.888671">
        <ele>536.665</ele>
        <time>2020-02-23T10:54:45Z</time>
      </trkpt>
      <trkpt lat="39.828543" lon="2.888697">
        <ele>536.911</ele>
        <time>2020-02-23T10:54:46Z</time>
      </trkpt>
      <trkpt lat="39.828524" lon="2.888726">
        <ele>537.208</ele>
        <time>2020-02-23T10:54:47Z</time>
      </trkpt>
      <trkpt lat="39.828502" lon="2.888745">
        <ele>537.456</ele>
        <time>2020-02-23T10:54:48Z</time>
      </trkpt>
      <trkpt lat="39.828474" lon="2.88876">
        <ele>537.686</ele>
        <time>2020-02-23T10:54:49Z</time>
      </trkpt>
      <trkpt lat="39.828447" lon="2.888769">
        <ele>537.761</ele>
        <time>2020-02-23T10:54:50Z</time>
      </trkpt>
      <trkpt lat="39.828417" lon="2.888776">
        <ele>537.993</ele>
        <time>2020-02-23T10:54:51Z</time>
      </trkpt>
      <trkpt lat="39.828383" lon="2.888779">
        <ele>538.234</ele>
        <time>2020-02-23T10:54:52Z</time>
      </trkpt>
      <trkpt lat="39.828348" lon="2.888779">
        <ele>538.337</ele>
        <time>2020-02-23T10:54:53Z</time>
      </trkpt>
      <trkpt lat="39.828317" lon="2.888777">
        <ele>538.424</ele>
        <time>2020-02-23T10:54:54Z</time>
      </trkpt>
      <trkpt lat="39.828288" lon="2.888774">
        <ele>538.56</ele>
        <time>2020-02-23T10:54:55Z</time>
      </trkpt>
      <trkpt lat="39.828259" lon="2.88877">
        <ele>538.659</ele>
        <time>2020-02-23T10:54:56Z</time>
      </trkpt>
      <trkpt lat="39.828231" lon="2.888768">
        <ele>538.703</ele>
        <time>2020-02-23T10:54:57Z</time>
      </trkpt>
      <trkpt lat="39.8282" lon="2.888768">
        <ele>538.723</ele>
        <time>2020-02-23T10:54:58Z</time>
      </trkpt>
      <trkpt lat="39.828171" lon="2.888771">
        <ele>538.808</ele>
        <time>2020-02-23T10:54:59Z</time>
      </trkpt>
      <trkpt lat="39.828141" lon="2.888775">
        <ele>538.84</ele>
        <time>2020-02-23T10:55:00Z</time>
      </trkpt>
      <trkpt lat="39.828113" lon="2.888777">
        <ele>538.98</ele>
        <time>2020-02-23T10:55:01Z</time>
      </trkpt>
      <trkpt lat="39.828087" lon="2.888781">
        <ele>538.975</ele>
        <time>2020-02-23T10:55:02Z</time>
      </trkpt>
      <trkpt lat="39.828057" lon="2.888782">
        <ele>538.947</ele>
        <time>2020-02-23T10:55:03Z</time>
      </trkpt>
      <trkpt lat="39.828029" lon="2.888783">
        <ele>539.098</ele>
        <time>2020-02-23T10:55:04Z</time>
      </trkpt>
      <trkpt lat="39.828002" lon="2.888786">
        <ele>539.151</ele>
        <time>2020-02-23T10:55:05Z</time>
      </trkpt>
      <trkpt lat="39.827973" lon="2.888783">
        <ele>539.218</ele>
        <time>2020-02-23T10:55:06Z</time>
      </trkpt>
      <trkpt lat="39.82794" lon="2.88878">
        <ele>539.384</ele>
        <time>2020-02-23T10:55:07Z</time>
      </trkpt>
      <trkpt lat="39.827911" lon="2.888779">
        <ele>539.477</ele>
        <time>2020-02-23T10:55:08Z</time>
      </trkpt>
      <trkpt lat="39.827886" lon="2.888777">
        <ele>539.561</ele>
        <time>2020-02-23T10:55:09Z</time>
      </trkpt>
      <trkpt lat="39.827863" lon="2.888777">
        <ele>539.627</ele>
        <time>2020-02-23T10:55:10Z</time>
      </trkpt>
      <trkpt lat="39.827838" lon="2.888773">
        <ele>539.708</ele>
        <time>2020-02-23T10:55:11Z</time>
      </trkpt>
      <trkpt lat="39.827809" lon="2.888766">
        <ele>539.832</ele>
        <time>2020-02-23T10:55:12Z</time>
      </trkpt>
      <trkpt lat="39.827776" lon="2.88876">
        <ele>539.992</ele>
        <time>2020-02-23T10:55:13Z</time>
      </trkpt>
      <trkpt lat="39.827776" lon="2.88876">
        <ele>539.997</ele>
        <time>2020-02-23T10:55:14Z</time>
      </trkpt>
      <trkpt lat="39.827689" lon="2.888727">
        <ele>540.549</ele>
        <time>2020-02-23T10:55:15Z</time>
      </trkpt>
      <trkpt lat="39.827671" lon="2.888722">
        <ele>540.65</ele>
        <time>2020-02-23T10:55:16Z</time>
      </trkpt>
      <trkpt lat="39.827634" lon="2.888708">
        <ele>540.813</ele>
        <time>2020-02-23T10:55:17Z</time>
      </trkpt>
      <trkpt lat="39.827592" lon="2.888693">
        <ele>541.01</ele>
        <time>2020-02-23T10:55:18Z</time>
      </trkpt>
      <trkpt lat="39.827548" lon="2.888679">
        <ele>541.376</ele>
        <time>2020-02-23T10:55:19Z</time>
      </trkpt>
      <trkpt lat="39.827498" lon="2.888667">
        <ele>541.584</ele>
        <time>2020-02-23T10:55:20Z</time>
      </trkpt>
      <trkpt lat="39.827498" lon="2.888667">
        <ele>541.507</ele>
        <time>2020-02-23T10:55:21Z</time>
      </trkpt>
      <trkpt lat="39.827402" lon="2.888641">
        <ele>541.817</ele>
        <time>2020-02-23T10:55:22Z</time>
      </trkpt>
      <trkpt lat="39.827402" lon="2.888641">
        <ele>541.808</ele>
        <time>2020-02-23T10:55:23Z</time>
      </trkpt>
      <trkpt lat="39.827285" lon="2.8886">
        <ele>542.173</ele>
        <time>2020-02-23T10:55:24Z</time>
      </trkpt>
      <trkpt lat="39.82726" lon="2.888595">
        <ele>542.223</ele>
        <time>2020-02-23T10:55:25Z</time>
      </trkpt>
      <trkpt lat="39.827207" lon="2.888588">
        <ele>542.398</ele>
        <time>2020-02-23T10:55:26Z</time>
      </trkpt>
      <trkpt lat="39.827157" lon="2.88858">
        <ele>542.47</ele>
        <time>2020-02-23T10:55:27Z</time>
      </trkpt>
      <trkpt lat="39.827112" lon="2.888573">
        <ele>542.511</ele>
        <time>2020-02-23T10:55:28Z</time>
      </trkpt>
      <trkpt lat="39.827075" lon="2.888567">
        <ele>542.684</ele>
        <time>2020-02-23T10:55:29Z</time>
      </trkpt>
      <trkpt lat="39.827039" lon="2.888569">
        <ele>542.651</ele>
        <time>2020-02-23T10:55:30Z</time>
      </trkpt>
      <trkpt lat="39.827039" lon="2.888569">
        <ele>542.667</ele>
        <time>2020-02-23T10:55:31Z</time>
      </trkpt>
      <trkpt lat="39.827009" lon="2.888589">
        <ele>542.765</ele>
        <time>2020-02-23T10:55:32Z</time>
      </trkpt>
      <trkpt lat="39.82698" lon="2.888609">
        <ele>542.768</ele>
        <time>2020-02-23T10:55:33Z</time>
      </trkpt>
      <trkpt lat="39.82695" lon="2.888629">
        <ele>542.814</ele>
        <time>2020-02-23T10:55:34Z</time>
      </trkpt>
      <trkpt lat="39.826919" lon="2.888675">
        <ele>542.808</ele>
        <time>2020-02-23T10:55:35Z</time>
      </trkpt>
      <trkpt lat="39.826889" lon="2.888721">
        <ele>542.821</ele>
        <time>2020-02-23T10:55:36Z</time>
      </trkpt>
      <trkpt lat="39.826858" lon="2.888767">
        <ele>542.891</ele>
        <time>2020-02-23T10:55:37Z</time>
      </trkpt>
      <trkpt lat="39.826831" lon="2.888805">
        <ele>542.876</ele>
        <time>2020-02-23T10:55:38Z</time>
      </trkpt>
      <trkpt lat="39.826831" lon="2.888805">
        <ele>542.828</ele>
        <time>2020-02-23T10:55:39Z</time>
      </trkpt>
      <trkpt lat="39.826749" lon="2.888859">
        <ele>542.959</ele>
        <time>2020-02-23T10:55:40Z</time>
      </trkpt>
      <trkpt lat="39.826732" lon="2.888866">
        <ele>543.082</ele>
        <time>2020-02-23T10:55:41Z</time>
      </trkpt>
      <trkpt lat="39.826687" lon="2.888873">
        <ele>543.049</ele>
        <time>2020-02-23T10:55:42Z</time>
      </trkpt>
      <trkpt lat="39.826687" lon="2.888873">
        <ele>543.035</ele>
        <time>2020-02-23T10:55:43Z</time>
      </trkpt>
      <trkpt lat="39.826652" lon="2.888889">
        <ele>543.041</ele>
        <time>2020-02-23T10:55:44Z</time>
      </trkpt>
      <trkpt lat="39.826616" lon="2.888905">
        <ele>543.181</ele>
        <time>2020-02-23T10:55:45Z</time>
      </trkpt>
      <trkpt lat="39.826581" lon="2.888921">
        <ele>543.109</ele>
        <time>2020-02-23T10:55:46Z</time>
      </trkpt>
      <trkpt lat="39.826545" lon="2.888937">
        <ele>543.108</ele>
        <time>2020-02-23T10:55:47Z</time>
      </trkpt>
      <trkpt lat="39.826508" lon="2.888954">
        <ele>543.219</ele>
        <time>2020-02-23T10:55:48Z</time>
      </trkpt>
      <trkpt lat="39.826472" lon="2.88897">
        <ele>543.289</ele>
        <time>2020-02-23T10:55:49Z</time>
      </trkpt>
      <trkpt lat="39.826434" lon="2.888975">
        <ele>543.214</ele>
        <time>2020-02-23T10:55:50Z</time>
      </trkpt>
      <trkpt lat="39.826396" lon="2.888979">
        <ele>543.216</ele>
        <time>2020-02-23T10:55:51Z</time>
      </trkpt>
      <trkpt lat="39.826358" lon="2.888984">
        <ele>543.247</ele>
        <time>2020-02-23T10:55:52Z</time>
      </trkpt>
      <trkpt lat="39.826319" lon="2.889002">
        <ele>543.26</ele>
        <time>2020-02-23T10:55:53Z</time>
      </trkpt>
      <trkpt lat="39.82628" lon="2.88902">
        <ele>543.277</ele>
        <time>2020-02-23T10:55:54Z</time>
      </trkpt>
      <trkpt lat="39.826241" lon="2.889038">
        <ele>543.273</ele>
        <time>2020-02-23T10:55:55Z</time>
      </trkpt>
      <trkpt lat="39.826201" lon="2.889051">
        <ele>543.278</ele>
        <time>2020-02-23T10:55:56Z</time>
      </trkpt>
      <trkpt lat="39.82616" lon="2.889065">
        <ele>543.133</ele>
        <time>2020-02-23T10:55:57Z</time>
      </trkpt>
      <trkpt lat="39.82612" lon="2.889078">
        <ele>543.126</ele>
        <time>2020-02-23T10:55:58Z</time>
      </trkpt>
      <trkpt lat="39.82608" lon="2.889089">
        <ele>543.008</ele>
        <time>2020-02-23T10:55:59Z</time>
      </trkpt>
      <trkpt lat="39.826039" lon="2.889099">
        <ele>543.052</ele>
        <time>2020-02-23T10:56:00Z</time>
      </trkpt>
      <trkpt lat="39.825999" lon="2.88911">
        <ele>542.912</ele>
        <time>2020-02-23T10:56:01Z</time>
      </trkpt>
      <trkpt lat="39.825961" lon="2.889126">
        <ele>542.727</ele>
        <time>2020-02-23T10:56:02Z</time>
      </trkpt>
      <trkpt lat="39.825924" lon="2.889141">
        <ele>542.689</ele>
        <time>2020-02-23T10:56:03Z</time>
      </trkpt>
      <trkpt lat="39.825886" lon="2.889157">
        <ele>542.54</ele>
        <time>2020-02-23T10:56:04Z</time>
      </trkpt>
      <trkpt lat="39.825851" lon="2.889177">
        <ele>542.443</ele>
        <time>2020-02-23T10:56:05Z</time>
      </trkpt>
      <trkpt lat="39.825815" lon="2.889198">
        <ele>542.33</ele>
        <time>2020-02-23T10:56:06Z</time>
      </trkpt>
      <trkpt lat="39.82578" lon="2.889218">
        <ele>542.296</ele>
        <time>2020-02-23T10:56:07Z</time>
      </trkpt>
      <trkpt lat="39.825753" lon="2.889236">
        <ele>542.175</ele>
        <time>2020-02-23T10:56:08Z</time>
      </trkpt>
      <trkpt lat="39.825725" lon="2.889255">
        <ele>541.928</ele>
        <time>2020-02-23T10:56:09Z</time>
      </trkpt>
      <trkpt lat="39.825698" lon="2.889273">
        <ele>541.82</ele>
        <time>2020-02-23T10:56:10Z</time>
      </trkpt>
      <trkpt lat="39.82566" lon="2.889288">
        <ele>541.608</ele>
        <time>2020-02-23T10:56:11Z</time>
      </trkpt>
      <trkpt lat="39.825622" lon="2.889303">
        <ele>541.442</ele>
        <time>2020-02-23T10:56:12Z</time>
      </trkpt>
      <trkpt lat="39.825584" lon="2.889318">
        <ele>541.342</ele>
        <time>2020-02-23T10:56:13Z</time>
      </trkpt>
      <trkpt lat="39.825527" lon="2.889336">
        <ele>540.957</ele>
        <time>2020-02-23T10:56:14Z</time>
      </trkpt>
      <trkpt lat="39.825469" lon="2.889354">
        <ele>540.659</ele>
        <time>2020-02-23T10:56:15Z</time>
      </trkpt>
      <trkpt lat="39.825412" lon="2.889372">
        <ele>540.25</ele>
        <time>2020-02-23T10:56:16Z</time>
      </trkpt>
      <trkpt lat="39.825368" lon="2.88938">
        <ele>539.913</ele>
        <time>2020-02-23T10:56:17Z</time>
      </trkpt>
      <trkpt lat="39.825321" lon="2.889388">
        <ele>539.38</ele>
        <time>2020-02-23T10:56:18Z</time>
      </trkpt>
      <trkpt lat="39.825273" lon="2.889398">
        <ele>538.756</ele>
        <time>2020-02-23T10:56:19Z</time>
      </trkpt>
      <trkpt lat="39.825226" lon="2.889406">
        <ele>538.179</ele>
        <time>2020-02-23T10:56:20Z</time>
      </trkpt>
      <trkpt lat="39.825186" lon="2.889413">
        <ele>537.505</ele>
        <time>2020-02-23T10:56:21Z</time>
      </trkpt>
      <trkpt lat="39.825147" lon="2.889423">
        <ele>536.925</ele>
        <time>2020-02-23T10:56:22Z</time>
      </trkpt>
      <trkpt lat="39.825147" lon="2.889423">
        <ele>536.908</ele>
        <time>2020-02-23T10:56:23Z</time>
      </trkpt>
      <trkpt lat="39.82511" lon="2.889435">
        <ele>536.462</ele>
        <time>2020-02-23T10:56:24Z</time>
      </trkpt>
      <trkpt lat="39.825074" lon="2.889446">
        <ele>535.982</ele>
        <time>2020-02-23T10:56:25Z</time>
      </trkpt>
      <trkpt lat="39.825037" lon="2.889458">
        <ele>535.587</ele>
        <time>2020-02-23T10:56:26Z</time>
      </trkpt>
      <trkpt lat="39.824999" lon="2.889467">
        <ele>535.179</ele>
        <time>2020-02-23T10:56:27Z</time>
      </trkpt>
      <trkpt lat="39.82496" lon="2.889476">
        <ele>534.72</ele>
        <time>2020-02-23T10:56:28Z</time>
      </trkpt>
      <trkpt lat="39.824922" lon="2.889485">
        <ele>534.313</ele>
        <time>2020-02-23T10:56:29Z</time>
      </trkpt>
      <trkpt lat="39.824879" lon="2.889488">
        <ele>533.94</ele>
        <time>2020-02-23T10:56:30Z</time>
      </trkpt>
      <trkpt lat="39.824836" lon="2.889492">
        <ele>533.426</ele>
        <time>2020-02-23T10:56:31Z</time>
      </trkpt>
      <trkpt lat="39.824793" lon="2.889495">
        <ele>532.858</ele>
        <time>2020-02-23T10:56:32Z</time>
      </trkpt>
      <trkpt lat="39.824754" lon="2.889497">
        <ele>532.252</ele>
        <time>2020-02-23T10:56:33Z</time>
      </trkpt>
      <trkpt lat="39.824716" lon="2.889498">
        <ele>531.617</ele>
        <time>2020-02-23T10:56:34Z</time>
      </trkpt>
      <trkpt lat="39.824677" lon="2.8895">
        <ele>530.908</ele>
        <time>2020-02-23T10:56:35Z</time>
      </trkpt>
      <trkpt lat="39.824635" lon="2.889504">
        <ele>530.11</ele>
        <time>2020-02-23T10:56:36Z</time>
      </trkpt>
      <trkpt lat="39.824593" lon="2.889509">
        <ele>529.35</ele>
        <time>2020-02-23T10:56:37Z</time>
      </trkpt>
      <trkpt lat="39.824551" lon="2.889513">
        <ele>528.655</ele>
        <time>2020-02-23T10:56:38Z</time>
      </trkpt>
      <trkpt lat="39.824511" lon="2.889514">
        <ele>527.987</ele>
        <time>2020-02-23T10:56:39Z</time>
      </trkpt>
      <trkpt lat="39.824471" lon="2.889515">
        <ele>527.358</ele>
        <time>2020-02-23T10:56:40Z</time>
      </trkpt>
      <trkpt lat="39.824431" lon="2.889516">
        <ele>526.761</ele>
        <time>2020-02-23T10:56:41Z</time>
      </trkpt>
      <trkpt lat="39.824394" lon="2.889528">
        <ele>526.248</ele>
        <time>2020-02-23T10:56:42Z</time>
      </trkpt>
      <trkpt lat="39.824358" lon="2.889539">
        <ele>525.814</ele>
        <time>2020-02-23T10:56:43Z</time>
      </trkpt>
      <trkpt lat="39.824321" lon="2.889551">
        <ele>525.418</ele>
        <time>2020-02-23T10:56:44Z</time>
      </trkpt>
      <trkpt lat="39.824281" lon="2.889557">
        <ele>525.098</ele>
        <time>2020-02-23T10:56:45Z</time>
      </trkpt>
      <trkpt lat="39.82424" lon="2.889564">
        <ele>524.717</ele>
        <time>2020-02-23T10:56:46Z</time>
      </trkpt>
      <trkpt lat="39.8242" lon="2.88957">
        <ele>524.408</ele>
        <time>2020-02-23T10:56:47Z</time>
      </trkpt>
      <trkpt lat="39.824169" lon="2.889577">
        <ele>524.286</ele>
        <time>2020-02-23T10:56:48Z</time>
      </trkpt>
      <trkpt lat="39.824138" lon="2.889584">
        <ele>524.176</ele>
        <time>2020-02-23T10:56:49Z</time>
      </trkpt>
      <trkpt lat="39.824107" lon="2.889591">
        <ele>524.031</ele>
        <time>2020-02-23T10:56:50Z</time>
      </trkpt>
      <trkpt lat="39.82408" lon="2.889603">
        <ele>523.823</ele>
        <time>2020-02-23T10:56:51Z</time>
      </trkpt>
      <trkpt lat="39.824054" lon="2.889615">
        <ele>523.714</ele>
        <time>2020-02-23T10:56:52Z</time>
      </trkpt>
      <trkpt lat="39.824027" lon="2.889627">
        <ele>523.627</ele>
        <time>2020-02-23T10:56:53Z</time>
      </trkpt>
      <trkpt lat="39.824" lon="2.889639">
        <ele>523.424</ele>
        <time>2020-02-23T10:56:54Z</time>
      </trkpt>
      <trkpt lat="39.823965" lon="2.88964">
        <ele>523.37</ele>
        <time>2020-02-23T10:56:55Z</time>
      </trkpt>
      <trkpt lat="39.823929" lon="2.889641">
        <ele>523.185</ele>
        <time>2020-02-23T10:56:56Z</time>
      </trkpt>
      <trkpt lat="39.823894" lon="2.889642">
        <ele>522.989</ele>
        <time>2020-02-23T10:56:57Z</time>
      </trkpt>
      <trkpt lat="39.823858" lon="2.889643">
        <ele>522.617</ele>
        <time>2020-02-23T10:56:58Z</time>
      </trkpt>
      <trkpt lat="39.823825" lon="2.889648">
        <ele>522.208</ele>
        <time>2020-02-23T10:56:59Z</time>
      </trkpt>
      <trkpt lat="39.823788" lon="2.889654">
        <ele>521.883</ele>
        <time>2020-02-23T10:57:00Z</time>
      </trkpt>
      <trkpt lat="39.823754" lon="2.889654">
        <ele>521.213</ele>
        <time>2020-02-23T10:57:01Z</time>
      </trkpt>
      <trkpt lat="39.823727" lon="2.889651">
        <ele>520.768</ele>
        <time>2020-02-23T10:57:02Z</time>
      </trkpt>
      <trkpt lat="39.823699" lon="2.889646">
        <ele>520.27</ele>
        <time>2020-02-23T10:57:03Z</time>
      </trkpt>
      <trkpt lat="39.823699" lon="2.889646">
        <ele>520.241</ele>
        <time>2020-02-23T10:57:04Z</time>
      </trkpt>
      <trkpt lat="39.823642" lon="2.88965">
        <ele>518.994</ele>
        <time>2020-02-23T10:57:05Z</time>
      </trkpt>
      <trkpt lat="39.823642" lon="2.88965">
        <ele>518.931</ele>
        <time>2020-02-23T10:57:06Z</time>
      </trkpt>
      <trkpt lat="39.82361" lon="2.889653">
        <ele>518.157</ele>
        <time>2020-02-23T10:57:07Z</time>
      </trkpt>
      <trkpt lat="39.823578" lon="2.889655">
        <ele>517.174</ele>
        <time>2020-02-23T10:57:08Z</time>
      </trkpt>
      <trkpt lat="39.823546" lon="2.889658">
        <ele>516.156</ele>
        <time>2020-02-23T10:57:09Z</time>
      </trkpt>
      <trkpt lat="39.823525" lon="2.889658">
        <ele>515.421</ele>
        <time>2020-02-23T10:57:10Z</time>
      </trkpt>
      <trkpt lat="39.823504" lon="2.889659">
        <ele>514.608</ele>
        <time>2020-02-23T10:57:11Z</time>
      </trkpt>
      <trkpt lat="39.823482" lon="2.889659">
        <ele>513.872</ele>
        <time>2020-02-23T10:57:12Z</time>
      </trkpt>
      <trkpt lat="39.823461" lon="2.88966">
        <ele>513.152</ele>
        <time>2020-02-23T10:57:13Z</time>
      </trkpt>
      <trkpt lat="39.82344" lon="2.88966">
        <ele>512.297</ele>
        <time>2020-02-23T10:57:14Z</time>
      </trkpt>
      <trkpt lat="39.823416" lon="2.889662">
        <ele>511.349</ele>
        <time>2020-02-23T10:57:15Z</time>
      </trkpt>
      <trkpt lat="39.823391" lon="2.889664">
        <ele>510.49</ele>
        <time>2020-02-23T10:57:16Z</time>
      </trkpt>
      <trkpt lat="39.823367" lon="2.889666">
        <ele>509.513</ele>
        <time>2020-02-23T10:57:17Z</time>
      </trkpt>
      <trkpt lat="39.823342" lon="2.889668">
        <ele>508.69</ele>
        <time>2020-02-23T10:57:18Z</time>
      </trkpt>
      <trkpt lat="39.823322" lon="2.889654">
        <ele>507.866</ele>
        <time>2020-02-23T10:57:19Z</time>
      </trkpt>
      <trkpt lat="39.823302" lon="2.88964">
        <ele>507.093</ele>
        <time>2020-02-23T10:57:20Z</time>
      </trkpt>
      <trkpt lat="39.823282" lon="2.889627">
        <ele>506.265</ele>
        <time>2020-02-23T10:57:21Z</time>
      </trkpt>
      <trkpt lat="39.823262" lon="2.889613">
        <ele>505.421</ele>
        <time>2020-02-23T10:57:22Z</time>
      </trkpt>
      <trkpt lat="39.823243" lon="2.889596">
        <ele>504.608</ele>
        <time>2020-02-23T10:57:23Z</time>
      </trkpt>
      <trkpt lat="39.823224" lon="2.889579">
        <ele>503.894</ele>
        <time>2020-02-23T10:57:24Z</time>
      </trkpt>
      <trkpt lat="39.823204" lon="2.889563">
        <ele>503.064</ele>
        <time>2020-02-23T10:57:25Z</time>
      </trkpt>
      <trkpt lat="39.823185" lon="2.889546">
        <ele>502.449</ele>
        <time>2020-02-23T10:57:26Z</time>
      </trkpt>
      <trkpt lat="39.823157" lon="2.889538">
        <ele>501.561</ele>
        <time>2020-02-23T10:57:27Z</time>
      </trkpt>
      <trkpt lat="39.823129" lon="2.88953">
        <ele>500.792</ele>
        <time>2020-02-23T10:57:28Z</time>
      </trkpt>
      <trkpt lat="39.823101" lon="2.889522">
        <ele>499.835</ele>
        <time>2020-02-23T10:57:29Z</time>
      </trkpt>
      <trkpt lat="39.823073" lon="2.889514">
        <ele>499.072</ele>
        <time>2020-02-23T10:57:30Z</time>
      </trkpt>
      <trkpt lat="39.823052" lon="2.889506">
        <ele>498.378</ele>
        <time>2020-02-23T10:57:31Z</time>
      </trkpt>
      <trkpt lat="39.823031" lon="2.889498">
        <ele>497.696</ele>
        <time>2020-02-23T10:57:32Z</time>
      </trkpt>
      <trkpt lat="39.82301" lon="2.88949">
        <ele>496.931</ele>
        <time>2020-02-23T10:57:33Z</time>
      </trkpt>
      <trkpt lat="39.822989" lon="2.889482">
        <ele>496.224</ele>
        <time>2020-02-23T10:57:34Z</time>
      </trkpt>
      <trkpt lat="39.822968" lon="2.889474">
        <ele>495.608</ele>
        <time>2020-02-23T10:57:35Z</time>
      </trkpt>
      <trkpt lat="39.822952" lon="2.889446">
        <ele>494.824</ele>
        <time>2020-02-23T10:57:36Z</time>
      </trkpt>
      <trkpt lat="39.822935" lon="2.889418">
        <ele>494.094</ele>
        <time>2020-02-23T10:57:37Z</time>
      </trkpt>
      <trkpt lat="39.822919" lon="2.88939">
        <ele>493.229</ele>
        <time>2020-02-23T10:57:38Z</time>
      </trkpt>
      <trkpt lat="39.822902" lon="2.889362">
        <ele>492.571</ele>
        <time>2020-02-23T10:57:39Z</time>
      </trkpt>
      <trkpt lat="39.822884" lon="2.889368">
        <ele>491.922</ele>
        <time>2020-02-23T10:57:40Z</time>
      </trkpt>
      <trkpt lat="39.822866" lon="2.889374">
        <ele>491.445</ele>
        <time>2020-02-23T10:57:41Z</time>
      </trkpt>
      <trkpt lat="39.822849" lon="2.88938">
        <ele>491.012</ele>
        <time>2020-02-23T10:57:42Z</time>
      </trkpt>
      <trkpt lat="39.822831" lon="2.889386">
        <ele>490.518</ele>
        <time>2020-02-23T10:57:43Z</time>
      </trkpt>
      <trkpt lat="39.822813" lon="2.889392">
        <ele>490.191</ele>
        <time>2020-02-23T10:57:44Z</time>
      </trkpt>
      <trkpt lat="39.822795" lon="2.889398">
        <ele>489.781</ele>
        <time>2020-02-23T10:57:45Z</time>
      </trkpt>
      <trkpt lat="39.822767" lon="2.889384">
        <ele>489.019</ele>
        <time>2020-02-23T10:57:46Z</time>
      </trkpt>
      <trkpt lat="39.82274" lon="2.88937">
        <ele>488.408</ele>
        <time>2020-02-23T10:57:47Z</time>
      </trkpt>
      <trkpt lat="39.822712" lon="2.889356">
        <ele>487.864</ele>
        <time>2020-02-23T10:57:48Z</time>
      </trkpt>
      <trkpt lat="39.822684" lon="2.889342">
        <ele>487.264</ele>
        <time>2020-02-23T10:57:49Z</time>
      </trkpt>
      <trkpt lat="39.822665" lon="2.88935">
        <ele>486.749</ele>
        <time>2020-02-23T10:57:50Z</time>
      </trkpt>
      <trkpt lat="39.822646" lon="2.889359">
        <ele>486.291</ele>
        <time>2020-02-23T10:57:51Z</time>
      </trkpt>
      <trkpt lat="39.822627" lon="2.889367">
        <ele>485.882</ele>
        <time>2020-02-23T10:57:52Z</time>
      </trkpt>
      <trkpt lat="39.822608" lon="2.889376">
        <ele>485.395</ele>
        <time>2020-02-23T10:57:53Z</time>
      </trkpt>
      <trkpt lat="39.822589" lon="2.889384">
        <ele>484.992</ele>
        <time>2020-02-23T10:57:54Z</time>
      </trkpt>
      <trkpt lat="39.822561" lon="2.889404">
        <ele>483.218</ele>
        <time>2020-02-23T10:57:55Z</time>
      </trkpt>
      <trkpt lat="39.822534" lon="2.889423">
        <ele>483.072</ele>
        <time>2020-02-23T10:57:56Z</time>
      </trkpt>
      <trkpt lat="39.822506" lon="2.889443">
        <ele>482.813</ele>
        <time>2020-02-23T10:57:57Z</time>
      </trkpt>
      <trkpt lat="39.822478" lon="2.889462">
        <ele>482.714</ele>
        <time>2020-02-23T10:57:58Z</time>
      </trkpt>
      <trkpt lat="39.822445" lon="2.889445">
        <ele>482.508</ele>
        <time>2020-02-23T10:57:59Z</time>
      </trkpt>
      <trkpt lat="39.822405" lon="2.889422">
        <ele>482.442</ele>
        <time>2020-02-23T10:58:00Z</time>
      </trkpt>
      <trkpt lat="39.822378" lon="2.889388">
        <ele>482.582</ele>
        <time>2020-02-23T10:58:01Z</time>
      </trkpt>
      <trkpt lat="39.822357" lon="2.889344">
        <ele>482.587</ele>
        <time>2020-02-23T10:58:02Z</time>
      </trkpt>
      <trkpt lat="39.822345" lon="2.889293">
        <ele>482.599</ele>
        <time>2020-02-23T10:58:03Z</time>
      </trkpt>
      <trkpt lat="39.822336" lon="2.88924">
        <ele>482.61</ele>
        <time>2020-02-23T10:58:04Z</time>
      </trkpt>
      <trkpt lat="39.822331" lon="2.889176">
        <ele>482.673</ele>
        <time>2020-02-23T10:58:05Z</time>
      </trkpt>
      <trkpt lat="39.822327" lon="2.889112">
        <ele>482.63</ele>
        <time>2020-02-23T10:58:06Z</time>
      </trkpt>
      <trkpt lat="39.822324" lon="2.889053">
        <ele>482.736</ele>
        <time>2020-02-23T10:58:07Z</time>
      </trkpt>
      <trkpt lat="39.822318" lon="2.888993">
        <ele>482.863</ele>
        <time>2020-02-23T10:58:08Z</time>
      </trkpt>
      <trkpt lat="39.822311" lon="2.888935">
        <ele>482.844</ele>
        <time>2020-02-23T10:58:09Z</time>
      </trkpt>
      <trkpt lat="39.822299" lon="2.88888">
        <ele>482.918</ele>
        <time>2020-02-23T10:58:10Z</time>
      </trkpt>
      <trkpt lat="39.822291" lon="2.888824">
        <ele>482.908</ele>
        <time>2020-02-23T10:58:11Z</time>
      </trkpt>
      <trkpt lat="39.822277" lon="2.88877">
        <ele>483.091</ele>
        <time>2020-02-23T10:58:12Z</time>
      </trkpt>
      <trkpt lat="39.822269" lon="2.888716">
        <ele>483.111</ele>
        <time>2020-02-23T10:58:13Z</time>
      </trkpt>
      <trkpt lat="39.82226" lon="2.888664">
        <ele>483.266</ele>
        <time>2020-02-23T10:58:14Z</time>
      </trkpt>
      <trkpt lat="39.822249" lon="2.88861">
        <ele>483.238</ele>
        <time>2020-02-23T10:58:15Z</time>
      </trkpt>
      <trkpt lat="39.822241" lon="2.888553">
        <ele>483.289</ele>
        <time>2020-02-23T10:58:16Z</time>
      </trkpt>
      <trkpt lat="39.822233" lon="2.888497">
        <ele>483.262</ele>
        <time>2020-02-23T10:58:17Z</time>
      </trkpt>
      <trkpt lat="39.822224" lon="2.888442">
        <ele>483.219</ele>
        <time>2020-02-23T10:58:18Z</time>
      </trkpt>
      <trkpt lat="39.822216" lon="2.888393">
        <ele>483.155</ele>
        <time>2020-02-23T10:58:19Z</time>
      </trkpt>
      <trkpt lat="39.822216" lon="2.888393">
        <ele>483.198</ele>
        <time>2020-02-23T10:58:20Z</time>
      </trkpt>
      <trkpt lat="39.822215" lon="2.888256">
        <ele>482.815</ele>
        <time>2020-02-23T10:58:21Z</time>
      </trkpt>
      <trkpt lat="39.822216" lon="2.888229">
        <ele>482.726</ele>
        <time>2020-02-23T10:58:22Z</time>
      </trkpt>
      <trkpt lat="39.822223" lon="2.888178">
        <ele>482.408</ele>
        <time>2020-02-23T10:58:23Z</time>
      </trkpt>
      <trkpt lat="39.822223" lon="2.888178">
        <ele>482.474</ele>
        <time>2020-02-23T10:58:24Z</time>
      </trkpt>
      <trkpt lat="39.82223" lon="2.888131">
        <ele>482.284</ele>
        <time>2020-02-23T10:58:25Z</time>
      </trkpt>
      <trkpt lat="39.822237" lon="2.888084">
        <ele>482.089</ele>
        <time>2020-02-23T10:58:26Z</time>
      </trkpt>
      <trkpt lat="39.822244" lon="2.888037">
        <ele>481.991</ele>
        <time>2020-02-23T10:58:27Z</time>
      </trkpt>
      <trkpt lat="39.822245" lon="2.887989">
        <ele>481.732</ele>
        <time>2020-02-23T10:58:28Z</time>
      </trkpt>
      <trkpt lat="39.822245" lon="2.88794">
        <ele>481.665</ele>
        <time>2020-02-23T10:58:29Z</time>
      </trkpt>
      <trkpt lat="39.822246" lon="2.887892">
        <ele>481.652</ele>
        <time>2020-02-23T10:58:30Z</time>
      </trkpt>
      <trkpt lat="39.822244" lon="2.887847">
        <ele>481.568</ele>
        <time>2020-02-23T10:58:31Z</time>
      </trkpt>
      <trkpt lat="39.822243" lon="2.887801">
        <ele>481.549</ele>
        <time>2020-02-23T10:58:32Z</time>
      </trkpt>
      <trkpt lat="39.822241" lon="2.887756">
        <ele>481.502</ele>
        <time>2020-02-23T10:58:33Z</time>
      </trkpt>
      <trkpt lat="39.822237" lon="2.887713">
        <ele>481.422</ele>
        <time>2020-02-23T10:58:34Z</time>
      </trkpt>
      <trkpt lat="39.822233" lon="2.887669">
        <ele>481.408</ele>
        <time>2020-02-23T10:58:35Z</time>
      </trkpt>
      <trkpt lat="39.822229" lon="2.887626">
        <ele>481.439</ele>
        <time>2020-02-23T10:58:36Z</time>
      </trkpt>
      <trkpt lat="39.822226" lon="2.887586">
        <ele>481.499</ele>
        <time>2020-02-23T10:58:37Z</time>
      </trkpt>
      <trkpt lat="39.822223" lon="2.887547">
        <ele>481.454</ele>
        <time>2020-02-23T10:58:38Z</time>
      </trkpt>
      <trkpt lat="39.82222" lon="2.887507">
        <ele>481.416</ele>
        <time>2020-02-23T10:58:39Z</time>
      </trkpt>
      <trkpt lat="39.822218" lon="2.887462">
        <ele>481.487</ele>
        <time>2020-02-23T10:58:40Z</time>
      </trkpt>
      <trkpt lat="39.822215" lon="2.887417">
        <ele>481.49</ele>
        <time>2020-02-23T10:58:41Z</time>
      </trkpt>
      <trkpt lat="39.822213" lon="2.887372">
        <ele>481.447</ele>
        <time>2020-02-23T10:58:42Z</time>
      </trkpt>
      <trkpt lat="39.822232" lon="2.887302">
        <ele>481.443</ele>
        <time>2020-02-23T10:58:43Z</time>
      </trkpt>
      <trkpt lat="39.82225" lon="2.887232">
        <ele>481.416</ele>
        <time>2020-02-23T10:58:44Z</time>
      </trkpt>
      <trkpt lat="39.822269" lon="2.887162">
        <ele>481.676</ele>
        <time>2020-02-23T10:58:45Z</time>
      </trkpt>
      <trkpt lat="39.822289" lon="2.887105">
        <ele>481.613</ele>
        <time>2020-02-23T10:58:46Z</time>
      </trkpt>
      <trkpt lat="39.822289" lon="2.887105">
        <ele>481.608</ele>
        <time>2020-02-23T10:58:47Z</time>
      </trkpt>
      <trkpt lat="39.822356" lon="2.886957">
        <ele>481.896</ele>
        <time>2020-02-23T10:58:48Z</time>
      </trkpt>
      <trkpt lat="39.822371" lon="2.886932">
        <ele>481.876</ele>
        <time>2020-02-23T10:58:49Z</time>
      </trkpt>
      <trkpt lat="39.822402" lon="2.886881">
        <ele>481.931</ele>
        <time>2020-02-23T10:58:50Z</time>
      </trkpt>
      <trkpt lat="39.822402" lon="2.886881">
        <ele>481.983</ele>
        <time>2020-02-23T10:58:51Z</time>
      </trkpt>
      <trkpt lat="39.822449" lon="2.886778">
        <ele>481.744</ele>
        <time>2020-02-23T10:58:52Z</time>
      </trkpt>
      <trkpt lat="39.822449" lon="2.886778">
        <ele>481.797</ele>
        <time>2020-02-23T10:58:53Z</time>
      </trkpt>
      <trkpt lat="39.822468" lon="2.886731">
        <ele>481.574</ele>
        <time>2020-02-23T10:58:54Z</time>
      </trkpt>
      <trkpt lat="39.822486" lon="2.886683">
        <ele>481.41</ele>
        <time>2020-02-23T10:58:55Z</time>
      </trkpt>
      <trkpt lat="39.822505" lon="2.886636">
        <ele>481.311</ele>
        <time>2020-02-23T10:58:56Z</time>
      </trkpt>
      <trkpt lat="39.822519" lon="2.886587">
        <ele>481.221</ele>
        <time>2020-02-23T10:58:57Z</time>
      </trkpt>
      <trkpt lat="39.822533" lon="2.886538">
        <ele>481.103</ele>
        <time>2020-02-23T10:58:58Z</time>
      </trkpt>
      <trkpt lat="39.822547" lon="2.886489">
        <ele>481.008</ele>
        <time>2020-02-23T10:58:59Z</time>
      </trkpt>
      <trkpt lat="39.822556" lon="2.886441">
        <ele>480.976</ele>
        <time>2020-02-23T10:59:00Z</time>
      </trkpt>
      <trkpt lat="39.822566" lon="2.886393">
        <ele>480.956</ele>
        <time>2020-02-23T10:59:01Z</time>
      </trkpt>
      <trkpt lat="39.822575" lon="2.886345">
        <ele>480.821</ele>
        <time>2020-02-23T10:59:02Z</time>
      </trkpt>
      <trkpt lat="39.822575" lon="2.886292">
        <ele>480.863</ele>
        <time>2020-02-23T10:59:03Z</time>
      </trkpt>
      <trkpt lat="39.822576" lon="2.88624">
        <ele>480.894</ele>
        <time>2020-02-23T10:59:04Z</time>
      </trkpt>
      <trkpt lat="39.822576" lon="2.886187">
        <ele>480.817</ele>
        <time>2020-02-23T10:59:05Z</time>
      </trkpt>
      <trkpt lat="39.822574" lon="2.886128">
        <ele>480.854</ele>
        <time>2020-02-23T10:59:06Z</time>
      </trkpt>
      <trkpt lat="39.822571" lon="2.88607">
        <ele>480.88</ele>
        <time>2020-02-23T10:59:07Z</time>
      </trkpt>
      <trkpt lat="39.822569" lon="2.886011">
        <ele>480.818</ele>
        <time>2020-02-23T10:59:08Z</time>
      </trkpt>
      <trkpt lat="39.822557" lon="2.885937">
        <ele>480.898</ele>
        <time>2020-02-23T10:59:09Z</time>
      </trkpt>
      <trkpt lat="39.822546" lon="2.885863">
        <ele>480.717</ele>
        <time>2020-02-23T10:59:10Z</time>
      </trkpt>
      <trkpt lat="39.822534" lon="2.885789">
        <ele>480.708</ele>
        <time>2020-02-23T10:59:11Z</time>
      </trkpt>
      <trkpt lat="39.822527" lon="2.88573">
        <ele>480.716</ele>
        <time>2020-02-23T10:59:12Z</time>
      </trkpt>
      <trkpt lat="39.822527" lon="2.88573">
        <ele>480.726</ele>
        <time>2020-02-23T10:59:13Z</time>
      </trkpt>
      <trkpt lat="39.822511" lon="2.885608">
        <ele>480.721</ele>
        <time>2020-02-23T10:59:14Z</time>
      </trkpt>
      <trkpt lat="39.822511" lon="2.885608">
        <ele>480.773</ele>
        <time>2020-02-23T10:59:15Z</time>
      </trkpt>
      <trkpt lat="39.8225" lon="2.885551">
        <ele>480.744</ele>
        <time>2020-02-23T10:59:16Z</time>
      </trkpt>
      <trkpt lat="39.82249" lon="2.885494">
        <ele>480.747</ele>
        <time>2020-02-23T10:59:17Z</time>
      </trkpt>
      <trkpt lat="39.822479" lon="2.885437">
        <ele>480.794</ele>
        <time>2020-02-23T10:59:18Z</time>
      </trkpt>
      <trkpt lat="39.822466" lon="2.885363">
        <ele>481.15</ele>
        <time>2020-02-23T10:59:19Z</time>
      </trkpt>
      <trkpt lat="39.822454" lon="2.885288">
        <ele>481.525</ele>
        <time>2020-02-23T10:59:20Z</time>
      </trkpt>
      <trkpt lat="39.822441" lon="2.885214">
        <ele>481.826</ele>
        <time>2020-02-23T10:59:21Z</time>
      </trkpt>
      <trkpt lat="39.82243" lon="2.885154">
        <ele>482.008</ele>
        <time>2020-02-23T10:59:22Z</time>
      </trkpt>
      <trkpt lat="39.82243" lon="2.885154">
        <ele>482.008</ele>
        <time>2020-02-23T10:59:23Z</time>
      </trkpt>
      <trkpt lat="39.822424" lon="2.885099">
        <ele>482.117</ele>
        <time>2020-02-23T10:59:24Z</time>
      </trkpt>
      <trkpt lat="39.822418" lon="2.885045">
        <ele>482.397</ele>
        <time>2020-02-23T10:59:25Z</time>
      </trkpt>
      <trkpt lat="39.822412" lon="2.88499">
        <ele>482.432</ele>
        <time>2020-02-23T10:59:26Z</time>
      </trkpt>
      <trkpt lat="39.822404" lon="2.884938">
        <ele>482.534</ele>
        <time>2020-02-23T10:59:27Z</time>
      </trkpt>
      <trkpt lat="39.822397" lon="2.884887">
        <ele>482.615</ele>
        <time>2020-02-23T10:59:28Z</time>
      </trkpt>
      <trkpt lat="39.822389" lon="2.884835">
        <ele>482.738</ele>
        <time>2020-02-23T10:59:29Z</time>
      </trkpt>
      <trkpt lat="39.822381" lon="2.884761">
        <ele>482.855</ele>
        <time>2020-02-23T10:59:30Z</time>
      </trkpt>
      <trkpt lat="39.822374" lon="2.884688">
        <ele>482.771</ele>
        <time>2020-02-23T10:59:31Z</time>
      </trkpt>
      <trkpt lat="39.822366" lon="2.884614">
        <ele>482.758</ele>
        <time>2020-02-23T10:59:32Z</time>
      </trkpt>
      <trkpt lat="39.822364" lon="2.884552">
        <ele>483.152</ele>
        <time>2020-02-23T10:59:33Z</time>
      </trkpt>
      <trkpt lat="39.822364" lon="2.884552">
        <ele>483.117</ele>
        <time>2020-02-23T10:59:34Z</time>
      </trkpt>
      <trkpt lat="39.822352" lon="2.884423">
        <ele>483.708</ele>
        <time>2020-02-23T10:59:35Z</time>
      </trkpt>
      <trkpt lat="39.822352" lon="2.884423">
        <ele>483.71</ele>
        <time>2020-02-23T10:59:36Z</time>
      </trkpt>
      <trkpt lat="39.822359" lon="2.884291">
        <ele>483.44</ele>
        <time>2020-02-23T10:59:37Z</time>
      </trkpt>
      <trkpt lat="39.822359" lon="2.884291">
        <ele>483.465</ele>
        <time>2020-02-23T10:59:38Z</time>
      </trkpt>
      <trkpt lat="39.822366" lon="2.884236">
        <ele>483.437</ele>
        <time>2020-02-23T10:59:39Z</time>
      </trkpt>
      <trkpt lat="39.822374" lon="2.88418">
        <ele>483.248</ele>
        <time>2020-02-23T10:59:40Z</time>
      </trkpt>
      <trkpt lat="39.822381" lon="2.884125">
        <ele>482.991</ele>
        <time>2020-02-23T10:59:41Z</time>
      </trkpt>
      <trkpt lat="39.822393" lon="2.884077">
        <ele>482.888</ele>
        <time>2020-02-23T10:59:42Z</time>
      </trkpt>
      <trkpt lat="39.822405" lon="2.884029">
        <ele>482.144</ele>
        <time>2020-02-23T10:59:43Z</time>
      </trkpt>
      <trkpt lat="39.822417" lon="2.883981">
        <ele>482.184</ele>
        <time>2020-02-23T10:59:44Z</time>
      </trkpt>
      <trkpt lat="39.822426" lon="2.883938">
        <ele>482.107</ele>
        <time>2020-02-23T10:59:45Z</time>
      </trkpt>
      <trkpt lat="39.822434" lon="2.883895">
        <ele>481.417</ele>
        <time>2020-02-23T10:59:46Z</time>
      </trkpt>
      <trkpt lat="39.822443" lon="2.883852">
        <ele>481.208</ele>
        <time>2020-02-23T10:59:47Z</time>
      </trkpt>
      <trkpt lat="39.822451" lon="2.883805">
        <ele>480.923</ele>
        <time>2020-02-23T10:59:48Z</time>
      </trkpt>
      <trkpt lat="39.822458" lon="2.883758">
        <ele>480.733</ele>
        <time>2020-02-23T10:59:49Z</time>
      </trkpt>
      <trkpt lat="39.822466" lon="2.883711">
        <ele>480.578</ele>
        <time>2020-02-23T10:59:50Z</time>
      </trkpt>
      <trkpt lat="39.822459" lon="2.88366">
        <ele>480.47</ele>
        <time>2020-02-23T10:59:51Z</time>
      </trkpt>
      <trkpt lat="39.822451" lon="2.883609">
        <ele>480.271</ele>
        <time>2020-02-23T10:59:52Z</time>
      </trkpt>
      <trkpt lat="39.822444" lon="2.883558">
        <ele>480.034</ele>
        <time>2020-02-23T10:59:53Z</time>
      </trkpt>
      <trkpt lat="39.822444" lon="2.883504">
        <ele>479.931</ele>
        <time>2020-02-23T10:59:54Z</time>
      </trkpt>
      <trkpt lat="39.822444" lon="2.88345">
        <ele>479.767</ele>
        <time>2020-02-23T10:59:55Z</time>
      </trkpt>
      <trkpt lat="39.822444" lon="2.883396">
        <ele>479.484</ele>
        <time>2020-02-23T10:59:56Z</time>
      </trkpt>
      <trkpt lat="39.822441" lon="2.883355">
        <ele>479.307</ele>
        <time>2020-02-23T10:59:57Z</time>
      </trkpt>
      <trkpt lat="39.822437" lon="2.883313">
        <ele>479.117</ele>
        <time>2020-02-23T10:59:58Z</time>
      </trkpt>
      <trkpt lat="39.822434" lon="2.883272">
        <ele>479.608</ele>
        <time>2020-02-23T10:59:59Z</time>
      </trkpt>
      <trkpt lat="39.822442" lon="2.883237">
        <ele>479.943</ele>
        <time>2020-02-23T11:00:00Z</time>
      </trkpt>
      <trkpt lat="39.82245" lon="2.883203">
        <ele>480.253</ele>
        <time>2020-02-23T11:00:01Z</time>
      </trkpt>
      <trkpt lat="39.822458" lon="2.883168">
        <ele>480.558</ele>
        <time>2020-02-23T11:00:02Z</time>
      </trkpt>
      <trkpt lat="39.822466" lon="2.883133">
        <ele>480.82</ele>
        <time>2020-02-23T11:00:03Z</time>
      </trkpt>
      <trkpt lat="39.822479" lon="2.883101">
        <ele>481.151</ele>
        <time>2020-02-23T11:00:04Z</time>
      </trkpt>
      <trkpt lat="39.822492" lon="2.88307">
        <ele>481.484</ele>
        <time>2020-02-23T11:00:05Z</time>
      </trkpt>
      <trkpt lat="39.822504" lon="2.883038">
        <ele>481.761</ele>
        <time>2020-02-23T11:00:06Z</time>
      </trkpt>
      <trkpt lat="39.822517" lon="2.883006">
        <ele>482.077</ele>
        <time>2020-02-23T11:00:07Z</time>
      </trkpt>
      <trkpt lat="39.822529" lon="2.882975">
        <ele>482.324</ele>
        <time>2020-02-23T11:00:08Z</time>
      </trkpt>
      <trkpt lat="39.82254" lon="2.882945">
        <ele>482.604</ele>
        <time>2020-02-23T11:00:09Z</time>
      </trkpt>
      <trkpt lat="39.822552" lon="2.882914">
        <ele>482.814</ele>
        <time>2020-02-23T11:00:10Z</time>
      </trkpt>
      <trkpt lat="39.822563" lon="2.882883">
        <ele>483.108</ele>
        <time>2020-02-23T11:00:11Z</time>
      </trkpt>
      <trkpt lat="39.822578" lon="2.882854">
        <ele>483.397</ele>
        <time>2020-02-23T11:00:12Z</time>
      </trkpt>
      <trkpt lat="39.822592" lon="2.882825">
        <ele>483.657</ele>
        <time>2020-02-23T11:00:13Z</time>
      </trkpt>
      <trkpt lat="39.822607" lon="2.882796">
        <ele>483.912</ele>
        <time>2020-02-23T11:00:14Z</time>
      </trkpt>
      <trkpt lat="39.822621" lon="2.882767">
        <ele>484.144</ele>
        <time>2020-02-23T11:00:15Z</time>
      </trkpt>
      <trkpt lat="39.822631" lon="2.882739">
        <ele>484.465</ele>
        <time>2020-02-23T11:00:16Z</time>
      </trkpt>
      <trkpt lat="39.82264" lon="2.882712">
        <ele>484.698</ele>
        <time>2020-02-23T11:00:17Z</time>
      </trkpt>
      <trkpt lat="39.82265" lon="2.882684">
        <ele>484.945</ele>
        <time>2020-02-23T11:00:18Z</time>
      </trkpt>
      <trkpt lat="39.822659" lon="2.882656">
        <ele>485.181</ele>
        <time>2020-02-23T11:00:19Z</time>
      </trkpt>
      <trkpt lat="39.822673" lon="2.882628">
        <ele>485.373</ele>
        <time>2020-02-23T11:00:20Z</time>
      </trkpt>
      <trkpt lat="39.822687" lon="2.8826">
        <ele>485.585</ele>
        <time>2020-02-23T11:00:21Z</time>
      </trkpt>
      <trkpt lat="39.8227" lon="2.882572">
        <ele>485.613</ele>
        <time>2020-02-23T11:00:22Z</time>
      </trkpt>
      <trkpt lat="39.822714" lon="2.882544">
        <ele>485.708</ele>
        <time>2020-02-23T11:00:23Z</time>
      </trkpt>
      <trkpt lat="39.822737" lon="2.882522">
        <ele>485.762</ele>
        <time>2020-02-23T11:00:24Z</time>
      </trkpt>
      <trkpt lat="39.82276" lon="2.8825">
        <ele>485.872</ele>
        <time>2020-02-23T11:00:25Z</time>
      </trkpt>
      <trkpt lat="39.822783" lon="2.882478">
        <ele>485.857</ele>
        <time>2020-02-23T11:00:26Z</time>
      </trkpt>
      <trkpt lat="39.822806" lon="2.882456">
        <ele>485.989</ele>
        <time>2020-02-23T11:00:27Z</time>
      </trkpt>
      <trkpt lat="39.822835" lon="2.882439">
        <ele>485.94</ele>
        <time>2020-02-23T11:00:28Z</time>
      </trkpt>
      <trkpt lat="39.822863" lon="2.882423">
        <ele>486.033</ele>
        <time>2020-02-23T11:00:29Z</time>
      </trkpt>
      <trkpt lat="39.822892" lon="2.882406">
        <ele>486.08</ele>
        <time>2020-02-23T11:00:30Z</time>
      </trkpt>
      <trkpt lat="39.82292" lon="2.882389">
        <ele>486.096</ele>
        <time>2020-02-23T11:00:31Z</time>
      </trkpt>
      <trkpt lat="39.822968" lon="2.882399">
        <ele>485.955</ele>
        <time>2020-02-23T11:00:32Z</time>
      </trkpt>
      <trkpt lat="39.823015" lon="2.882409">
        <ele>485.807</ele>
        <time>2020-02-23T11:00:33Z</time>
      </trkpt>
      <trkpt lat="39.823063" lon="2.882419">
        <ele>485.717</ele>
        <time>2020-02-23T11:00:34Z</time>
      </trkpt>
      <trkpt lat="39.823087" lon="2.882437">
        <ele>485.708</ele>
        <time>2020-02-23T11:00:35Z</time>
      </trkpt>
      <trkpt lat="39.823163" lon="2.882522">
        <ele>485.57</ele>
        <time>2020-02-23T11:00:36Z</time>
      </trkpt>
      <trkpt lat="39.823163" lon="2.882522">
        <ele>485.59</ele>
        <time>2020-02-23T11:00:37Z</time>
      </trkpt>
      <trkpt lat="39.823215" lon="2.882618">
        <ele>485.425</ele>
        <time>2020-02-23T11:00:38Z</time>
      </trkpt>
      <trkpt lat="39.823215" lon="2.882618">
        <ele>485.447</ele>
        <time>2020-02-23T11:00:39Z</time>
      </trkpt>
      <trkpt lat="39.823237" lon="2.882668">
        <ele>485.398</ele>
        <time>2020-02-23T11:00:40Z</time>
      </trkpt>
      <trkpt lat="39.82326" lon="2.882718">
        <ele>485.371</ele>
        <time>2020-02-23T11:00:41Z</time>
      </trkpt>
      <trkpt lat="39.823282" lon="2.882768">
        <ele>485.268</ele>
        <time>2020-02-23T11:00:42Z</time>
      </trkpt>
      <trkpt lat="39.823295" lon="2.882817">
        <ele>485.124</ele>
        <time>2020-02-23T11:00:43Z</time>
      </trkpt>
      <trkpt lat="39.823307" lon="2.882867">
        <ele>485.166</ele>
        <time>2020-02-23T11:00:44Z</time>
      </trkpt>
      <trkpt lat="39.82332" lon="2.882916">
        <ele>485.029</ele>
        <time>2020-02-23T11:00:45Z</time>
      </trkpt>
      <trkpt lat="39.823337" lon="2.882956">
        <ele>484.921</ele>
        <time>2020-02-23T11:00:46Z</time>
      </trkpt>
      <trkpt lat="39.823355" lon="2.882996">
        <ele>484.808</ele>
        <time>2020-02-23T11:00:47Z</time>
      </trkpt>
      <trkpt lat="39.823372" lon="2.883036">
        <ele>484.871</ele>
        <time>2020-02-23T11:00:48Z</time>
      </trkpt>
      <trkpt lat="39.823392" lon="2.883077">
        <ele>484.771</ele>
        <time>2020-02-23T11:00:49Z</time>
      </trkpt>
      <trkpt lat="39.823413" lon="2.883118">
        <ele>484.626</ele>
        <time>2020-02-23T11:00:50Z</time>
      </trkpt>
      <trkpt lat="39.823433" lon="2.883159">
        <ele>484.558</ele>
        <time>2020-02-23T11:00:51Z</time>
      </trkpt>
      <trkpt lat="39.823451" lon="2.883203">
        <ele>484.499</ele>
        <time>2020-02-23T11:00:52Z</time>
      </trkpt>
      <trkpt lat="39.82347" lon="2.883247">
        <ele>484.362</ele>
        <time>2020-02-23T11:00:53Z</time>
      </trkpt>
      <trkpt lat="39.823488" lon="2.883291">
        <ele>484.259</ele>
        <time>2020-02-23T11:00:54Z</time>
      </trkpt>
      <trkpt lat="39.823511" lon="2.883328">
        <ele>484.185</ele>
        <time>2020-02-23T11:00:55Z</time>
      </trkpt>
      <trkpt lat="39.823533" lon="2.883365">
        <ele>484.019</ele>
        <time>2020-02-23T11:00:56Z</time>
      </trkpt>
      <trkpt lat="39.823556" lon="2.883402">
        <ele>483.809</ele>
        <time>2020-02-23T11:00:57Z</time>
      </trkpt>
      <trkpt lat="39.823595" lon="2.883451">
        <ele>483.619</ele>
        <time>2020-02-23T11:00:58Z</time>
      </trkpt>
      <trkpt lat="39.823634" lon="2.8835">
        <ele>483.308</ele>
        <time>2020-02-23T11:00:59Z</time>
      </trkpt>
      <trkpt lat="39.823673" lon="2.883549">
        <ele>483.026</ele>
        <time>2020-02-23T11:01:00Z</time>
      </trkpt>
      <trkpt lat="39.823711" lon="2.883591">
        <ele>482.876</ele>
        <time>2020-02-23T11:01:01Z</time>
      </trkpt>
      <trkpt lat="39.823711" lon="2.883591">
        <ele>482.831</ele>
        <time>2020-02-23T11:01:02Z</time>
      </trkpt>
      <trkpt lat="39.823802" lon="2.883664">
        <ele>482.313</ele>
        <time>2020-02-23T11:01:03Z</time>
      </trkpt>
      <trkpt lat="39.823802" lon="2.883664">
        <ele>482.394</ele>
        <time>2020-02-23T11:01:04Z</time>
      </trkpt>
      <trkpt lat="39.823835" lon="2.883699">
        <ele>482.277</ele>
        <time>2020-02-23T11:01:05Z</time>
      </trkpt>
      <trkpt lat="39.823869" lon="2.883735">
        <ele>482.054</ele>
        <time>2020-02-23T11:01:06Z</time>
      </trkpt>
      <trkpt lat="39.823902" lon="2.88377">
        <ele>481.91</ele>
        <time>2020-02-23T11:01:07Z</time>
      </trkpt>
      <trkpt lat="39.823936" lon="2.883803">
        <ele>481.865</ele>
        <time>2020-02-23T11:01:08Z</time>
      </trkpt>
      <trkpt lat="39.823971" lon="2.883837">
        <ele>481.668</ele>
        <time>2020-02-23T11:01:09Z</time>
      </trkpt>
      <trkpt lat="39.824005" lon="2.88387">
        <ele>481.614</ele>
        <time>2020-02-23T11:01:10Z</time>
      </trkpt>
      <trkpt lat="39.824023" lon="2.883899">
        <ele>481.508</ele>
        <time>2020-02-23T11:01:11Z</time>
      </trkpt>
      <trkpt lat="39.824042" lon="2.883929">
        <ele>481.581</ele>
        <time>2020-02-23T11:01:12Z</time>
      </trkpt>
      <trkpt lat="39.82406" lon="2.883958">
        <ele>481.431</ele>
        <time>2020-02-23T11:01:13Z</time>
      </trkpt>
      <trkpt lat="39.824078" lon="2.883988">
        <ele>481.336</ele>
        <time>2020-02-23T11:01:14Z</time>
      </trkpt>
      <trkpt lat="39.824088" lon="2.884004">
        <ele>482.678</ele>
        <time>2020-02-23T11:01:15Z</time>
      </trkpt>
      <trkpt lat="39.824097" lon="2.88402">
        <ele>482.869</ele>
        <time>2020-02-23T11:01:16Z</time>
      </trkpt>
      <trkpt lat="39.824107" lon="2.884036">
        <ele>482.872</ele>
        <time>2020-02-23T11:01:17Z</time>
      </trkpt>
      <trkpt lat="39.824117" lon="2.884053">
        <ele>484.089</ele>
        <time>2020-02-23T11:01:18Z</time>
      </trkpt>
      <trkpt lat="39.824126" lon="2.884069">
        <ele>484.025</ele>
        <time>2020-02-23T11:01:19Z</time>
      </trkpt>
      <trkpt lat="39.824136" lon="2.884085">
        <ele>485.331</ele>
        <time>2020-02-23T11:01:20Z</time>
      </trkpt>
      <trkpt lat="39.824138" lon="2.884098">
        <ele>485.361</ele>
        <time>2020-02-23T11:01:21Z</time>
      </trkpt>
      <trkpt lat="39.824139" lon="2.884112">
        <ele>485.307</ele>
        <time>2020-02-23T11:01:22Z</time>
      </trkpt>
      <trkpt lat="39.824141" lon="2.884125">
        <ele>485.308</ele>
        <time>2020-02-23T11:01:23Z</time>
      </trkpt>
      <trkpt lat="39.824143" lon="2.884138">
        <ele>486.428</ele>
        <time>2020-02-23T11:01:24Z</time>
      </trkpt>
      <trkpt lat="39.824144" lon="2.884152">
        <ele>486.468</ele>
        <time>2020-02-23T11:01:25Z</time>
      </trkpt>
      <trkpt lat="39.824146" lon="2.884165">
        <ele>486.423</ele>
        <time>2020-02-23T11:01:26Z</time>
      </trkpt>
      <trkpt lat="39.824148" lon="2.884178">
        <ele>487.535</ele>
        <time>2020-02-23T11:01:27Z</time>
      </trkpt>
      <trkpt lat="39.824149" lon="2.884192">
        <ele>487.586</ele>
        <time>2020-02-23T11:01:28Z</time>
      </trkpt>
      <trkpt lat="39.824151" lon="2.884205">
        <ele>487.559</ele>
        <time>2020-02-23T11:01:29Z</time>
      </trkpt>
      <trkpt lat="39.824141" lon="2.884205">
        <ele>487.596</ele>
        <time>2020-02-23T11:01:30Z</time>
      </trkpt>
      <trkpt lat="39.82413" lon="2.884206">
        <ele>487.562</ele>
        <time>2020-02-23T11:01:31Z</time>
      </trkpt>
      <trkpt lat="39.82412" lon="2.884206">
        <ele>487.392</ele>
        <time>2020-02-23T11:01:32Z</time>
      </trkpt>
      <trkpt lat="39.82411" lon="2.884206">
        <ele>487.373</ele>
        <time>2020-02-23T11:01:33Z</time>
      </trkpt>
      <trkpt lat="39.824099" lon="2.884207">
        <ele>487.32</ele>
        <time>2020-02-23T11:01:34Z</time>
      </trkpt>
      <trkpt lat="39.824089" lon="2.884207">
        <ele>487.108</ele>
        <time>2020-02-23T11:01:35Z</time>
      </trkpt>
      <trkpt lat="39.824079" lon="2.884207">
        <ele>487.154</ele>
        <time>2020-02-23T11:01:36Z</time>
      </trkpt>
      <trkpt lat="39.824068" lon="2.884208">
        <ele>487.144</ele>
        <time>2020-02-23T11:01:37Z</time>
      </trkpt>
      <trkpt lat="39.824058" lon="2.884208">
        <ele>486.839</ele>
        <time>2020-02-23T11:01:38Z</time>
      </trkpt>
      <trkpt lat="39.824048" lon="2.884188">
        <ele>486.851</ele>
        <time>2020-02-23T11:01:39Z</time>
      </trkpt>
      <trkpt lat="39.824037" lon="2.884168">
        <ele>485.732</ele>
        <time>2020-02-23T11:01:40Z</time>
      </trkpt>
      <trkpt lat="39.824027" lon="2.884148">
        <ele>485.465</ele>
        <time>2020-02-23T11:01:41Z</time>
      </trkpt>
      <trkpt lat="39.824016" lon="2.884128">
        <ele>485.422</ele>
        <time>2020-02-23T11:01:42Z</time>
      </trkpt>
      <trkpt lat="39.824006" lon="2.884108">
        <ele>484.398</ele>
        <time>2020-02-23T11:01:43Z</time>
      </trkpt>
      <trkpt lat="39.824" lon="2.884121">
        <ele>484.393</ele>
        <time>2020-02-23T11:01:44Z</time>
      </trkpt>
      <trkpt lat="39.823993" lon="2.884134">
        <ele>485.065</ele>
        <time>2020-02-23T11:01:45Z</time>
      </trkpt>
      <trkpt lat="39.823987" lon="2.884146">
        <ele>485.021</ele>
        <time>2020-02-23T11:01:46Z</time>
      </trkpt>
      <trkpt lat="39.823981" lon="2.884159">
        <ele>485.008</ele>
        <time>2020-02-23T11:01:47Z</time>
      </trkpt>
      <trkpt lat="39.823974" lon="2.884172">
        <ele>486.164</ele>
        <time>2020-02-23T11:01:48Z</time>
      </trkpt>
      <trkpt lat="39.823968" lon="2.884185">
        <ele>486.144</ele>
        <time>2020-02-23T11:01:49Z</time>
      </trkpt>
      <trkpt lat="39.823961" lon="2.884197">
        <ele>485.699</ele>
        <time>2020-02-23T11:01:50Z</time>
      </trkpt>
      <trkpt lat="39.823955" lon="2.88421">
        <ele>485.631</ele>
        <time>2020-02-23T11:01:51Z</time>
      </trkpt>
      <trkpt lat="39.823945" lon="2.8842">
        <ele>485.692</ele>
        <time>2020-02-23T11:01:52Z</time>
      </trkpt>
      <trkpt lat="39.823936" lon="2.88419">
        <ele>485.625</ele>
        <time>2020-02-23T11:01:53Z</time>
      </trkpt>
      <trkpt lat="39.823926" lon="2.88418">
        <ele>485.282</ele>
        <time>2020-02-23T11:01:54Z</time>
      </trkpt>
      <trkpt lat="39.823916" lon="2.884169">
        <ele>485.238</ele>
        <time>2020-02-23T11:01:55Z</time>
      </trkpt>
      <trkpt lat="39.823906" lon="2.884159">
        <ele>484.254</ele>
        <time>2020-02-23T11:01:56Z</time>
      </trkpt>
      <trkpt lat="39.823897" lon="2.884149">
        <ele>484.256</ele>
        <time>2020-02-23T11:01:57Z</time>
      </trkpt>
      <trkpt lat="39.823887" lon="2.884139">
        <ele>483.811</ele>
        <time>2020-02-23T11:01:58Z</time>
      </trkpt>
      <trkpt lat="39.823877" lon="2.884129">
        <ele>483.808</ele>
        <time>2020-02-23T11:01:59Z</time>
      </trkpt>
      <trkpt lat="39.823844" lon="2.884107">
        <ele>482.37</ele>
        <time>2020-02-23T11:02:00Z</time>
      </trkpt>
      <trkpt lat="39.823811" lon="2.884085">
        <ele>481.94</ele>
        <time>2020-02-23T11:02:01Z</time>
      </trkpt>
      <trkpt lat="39.823777" lon="2.884064">
        <ele>480.655</ele>
        <time>2020-02-23T11:02:02Z</time>
      </trkpt>
      <trkpt lat="39.823744" lon="2.884042">
        <ele>480.277</ele>
        <time>2020-02-23T11:02:03Z</time>
      </trkpt>
      <trkpt lat="39.823714" lon="2.884034">
        <ele>478.998</ele>
        <time>2020-02-23T11:02:04Z</time>
      </trkpt>
      <trkpt lat="39.823714" lon="2.884034">
        <ele>478.921</ele>
        <time>2020-02-23T11:02:05Z</time>
      </trkpt>
      <trkpt lat="39.823648" lon="2.884012">
        <ele>478.448</ele>
        <time>2020-02-23T11:02:06Z</time>
      </trkpt>
      <trkpt lat="39.823648" lon="2.884012">
        <ele>478.454</ele>
        <time>2020-02-23T11:02:07Z</time>
      </trkpt>
      <trkpt lat="39.823647" lon="2.883988">
        <ele>477.546</ele>
        <time>2020-02-23T11:02:08Z</time>
      </trkpt>
      <trkpt lat="39.823646" lon="2.883965">
        <ele>477.588</ele>
        <time>2020-02-23T11:02:09Z</time>
      </trkpt>
      <trkpt lat="39.823646" lon="2.883941">
        <ele>476.616</ele>
        <time>2020-02-23T11:02:10Z</time>
      </trkpt>
      <trkpt lat="39.823645" lon="2.883918">
        <ele>476.608</ele>
        <time>2020-02-23T11:02:11Z</time>
      </trkpt>
      <trkpt lat="39.823644" lon="2.883894">
        <ele>475.789</ele>
        <time>2020-02-23T11:02:12Z</time>
      </trkpt>
      <trkpt lat="39.823662" lon="2.883868">
        <ele>474.829</ele>
        <time>2020-02-23T11:02:13Z</time>
      </trkpt>
      <trkpt lat="39.823681" lon="2.883841">
        <ele>475.084</ele>
        <time>2020-02-23T11:02:14Z</time>
      </trkpt>
      <trkpt lat="39.823699" lon="2.883815">
        <ele>474.166</ele>
        <time>2020-02-23T11:02:15Z</time>
      </trkpt>
      <trkpt lat="39.823717" lon="2.883788">
        <ele>474.337</ele>
        <time>2020-02-23T11:02:16Z</time>
      </trkpt>
      <trkpt lat="39.823703" lon="2.883787">
        <ele>474.32</ele>
        <time>2020-02-23T11:02:17Z</time>
      </trkpt>
      <trkpt lat="39.823689" lon="2.883787">
        <ele>474.127</ele>
        <time>2020-02-23T11:02:18Z</time>
      </trkpt>
      <trkpt lat="39.823675" lon="2.883786">
        <ele>474.193</ele>
        <time>2020-02-23T11:02:19Z</time>
      </trkpt>
      <trkpt lat="39.82366" lon="2.883786">
        <ele>474.043</ele>
        <time>2020-02-23T11:02:20Z</time>
      </trkpt>
      <trkpt lat="39.823646" lon="2.883785">
        <ele>474.064</ele>
        <time>2020-02-23T11:02:21Z</time>
      </trkpt>
      <trkpt lat="39.823632" lon="2.883785">
        <ele>473.81</ele>
        <time>2020-02-23T11:02:22Z</time>
      </trkpt>
      <trkpt lat="39.823588" lon="2.883791">
        <ele>473.808</ele>
        <time>2020-02-23T11:02:23Z</time>
      </trkpt>
      <trkpt lat="39.823545" lon="2.883796">
        <ele>473.899</ele>
        <time>2020-02-23T11:02:24Z</time>
      </trkpt>
      <trkpt lat="39.823501" lon="2.883802">
        <ele>474.079</ele>
        <time>2020-02-23T11:02:25Z</time>
      </trkpt>
      <trkpt lat="39.823467" lon="2.88379">
        <ele>474.164</ele>
        <time>2020-02-23T11:02:26Z</time>
      </trkpt>
      <trkpt lat="39.823428" lon="2.883776">
        <ele>473.596</ele>
        <time>2020-02-23T11:02:27Z</time>
      </trkpt>
      <trkpt lat="39.823392" lon="2.883758">
        <ele>473.857</ele>
        <time>2020-02-23T11:02:28Z</time>
      </trkpt>
      <trkpt lat="39.82336" lon="2.88373">
        <ele>473.32</ele>
        <time>2020-02-23T11:02:29Z</time>
      </trkpt>
      <trkpt lat="39.823336" lon="2.883689">
        <ele>473.057</ele>
        <time>2020-02-23T11:02:30Z</time>
      </trkpt>
      <trkpt lat="39.823315" lon="2.883649">
        <ele>472.413</ele>
        <time>2020-02-23T11:02:31Z</time>
      </trkpt>
      <trkpt lat="39.823297" lon="2.883603">
        <ele>472.265</ele>
        <time>2020-02-23T11:02:32Z</time>
      </trkpt>
      <trkpt lat="39.823286" lon="2.88356">
        <ele>471.768</ele>
        <time>2020-02-23T11:02:33Z</time>
      </trkpt>
      <trkpt lat="39.823277" lon="2.883515">
        <ele>471.014</ele>
        <time>2020-02-23T11:02:34Z</time>
      </trkpt>
      <trkpt lat="39.823258" lon="2.883474">
        <ele>470.908</ele>
        <time>2020-02-23T11:02:35Z</time>
      </trkpt>
      <trkpt lat="39.823237" lon="2.883443">
        <ele>471.391</ele>
        <time>2020-02-23T11:02:36Z</time>
      </trkpt>
      <trkpt lat="39.82321" lon="2.883415">
        <ele>470.651</ele>
        <time>2020-02-23T11:02:37Z</time>
      </trkpt>
      <trkpt lat="39.823181" lon="2.883382">
        <ele>470.376</ele>
        <time>2020-02-23T11:02:38Z</time>
      </trkpt>
      <trkpt lat="39.823158" lon="2.883345">
        <ele>469.998</ele>
        <time>2020-02-23T11:02:39Z</time>
      </trkpt>
      <trkpt lat="39.82313" lon="2.883308">
        <ele>469.539</ele>
        <time>2020-02-23T11:02:40Z</time>
      </trkpt>
      <trkpt lat="39.823103" lon="2.883267">
        <ele>469.342</ele>
        <time>2020-02-23T11:02:41Z</time>
      </trkpt>
      <trkpt lat="39.823103" lon="2.883267">
        <ele>469.369</ele>
        <time>2020-02-23T11:02:42Z</time>
      </trkpt>
      <trkpt lat="39.823083" lon="2.883273">
        <ele>469.965</ele>
        <time>2020-02-23T11:02:43Z</time>
      </trkpt>
      <trkpt lat="39.823063" lon="2.883279">
        <ele>470.241</ele>
        <time>2020-02-23T11:02:44Z</time>
      </trkpt>
      <trkpt lat="39.823042" lon="2.883284">
        <ele>470.281</ele>
        <time>2020-02-23T11:02:45Z</time>
      </trkpt>
      <trkpt lat="39.823022" lon="2.88329">
        <ele>470.609</ele>
        <time>2020-02-23T11:02:46Z</time>
      </trkpt>
      <trkpt lat="39.823002" lon="2.883296">
        <ele>471.008</ele>
        <time>2020-02-23T11:02:47Z</time>
      </trkpt>
      <trkpt lat="39.822967" lon="2.883279">
        <ele>471.349</ele>
        <time>2020-02-23T11:02:48Z</time>
      </trkpt>
      <trkpt lat="39.822932" lon="2.883261">
        <ele>471.229</ele>
        <time>2020-02-23T11:02:49Z</time>
      </trkpt>
      <trkpt lat="39.822897" lon="2.883244">
        <ele>471.614</ele>
        <time>2020-02-23T11:02:50Z</time>
      </trkpt>
      <trkpt lat="39.822873" lon="2.883204">
        <ele>471.636</ele>
        <time>2020-02-23T11:02:51Z</time>
      </trkpt>
      <trkpt lat="39.822849" lon="2.883163">
        <ele>471.377</ele>
        <time>2020-02-23T11:02:52Z</time>
      </trkpt>
      <trkpt lat="39.822825" lon="2.883123">
        <ele>471.44</ele>
        <time>2020-02-23T11:02:53Z</time>
      </trkpt>
      <trkpt lat="39.822833" lon="2.883149">
        <ele>471.727</ele>
        <time>2020-02-23T11:02:54Z</time>
      </trkpt>
      <trkpt lat="39.822841" lon="2.883175">
        <ele>471.743</ele>
        <time>2020-02-23T11:02:55Z</time>
      </trkpt>
      <trkpt lat="39.822849" lon="2.883201">
        <ele>471.661</ele>
        <time>2020-02-23T11:02:56Z</time>
      </trkpt>
      <trkpt lat="39.822856" lon="2.883227">
        <ele>472.021</ele>
        <time>2020-02-23T11:02:57Z</time>
      </trkpt>
      <trkpt lat="39.822864" lon="2.883253">
        <ele>472.013</ele>
        <time>2020-02-23T11:02:58Z</time>
      </trkpt>
      <trkpt lat="39.822872" lon="2.883279">
        <ele>472.408</ele>
        <time>2020-02-23T11:02:59Z</time>
      </trkpt>
      <trkpt lat="39.822898" lon="2.883344">
        <ele>472.671</ele>
        <time>2020-02-23T11:03:00Z</time>
      </trkpt>
      <trkpt lat="39.822924" lon="2.883408">
        <ele>473.631</ele>
        <time>2020-02-23T11:03:01Z</time>
      </trkpt>
      <trkpt lat="39.82295" lon="2.883473">
        <ele>474.286</ele>
        <time>2020-02-23T11:03:02Z</time>
      </trkpt>
      <trkpt lat="39.822972" lon="2.883527">
        <ele>476.258</ele>
        <time>2020-02-23T11:03:03Z</time>
      </trkpt>
      <trkpt lat="39.822972" lon="2.883527">
        <ele>476.269</ele>
        <time>2020-02-23T11:03:04Z</time>
      </trkpt>
      <trkpt lat="39.822976" lon="2.883573">
        <ele>476.972</ele>
        <time>2020-02-23T11:03:05Z</time>
      </trkpt>
      <trkpt lat="39.822981" lon="2.883619">
        <ele>477.919</ele>
        <time>2020-02-23T11:03:06Z</time>
      </trkpt>
      <trkpt lat="39.822985" lon="2.883665">
        <ele>478.995</ele>
        <time>2020-02-23T11:03:07Z</time>
      </trkpt>
      <trkpt lat="39.822951" lon="2.883664">
        <ele>479.345</ele>
        <time>2020-02-23T11:03:08Z</time>
      </trkpt>
      <trkpt lat="39.822916" lon="2.883662">
        <ele>479.747</ele>
        <time>2020-02-23T11:03:09Z</time>
      </trkpt>
      <trkpt lat="39.822882" lon="2.883661">
        <ele>479.911</ele>
        <time>2020-02-23T11:03:10Z</time>
      </trkpt>
      <trkpt lat="39.822863" lon="2.883688">
        <ele>480.108</ele>
        <time>2020-02-23T11:03:11Z</time>
      </trkpt>
      <trkpt lat="39.822844" lon="2.883714">
        <ele>480.919</ele>
        <time>2020-02-23T11:03:12Z</time>
      </trkpt>
      <trkpt lat="39.822825" lon="2.883741">
        <ele>481.639</ele>
        <time>2020-02-23T11:03:13Z</time>
      </trkpt>
      <trkpt lat="39.822806" lon="2.883767">
        <ele>481.544</ele>
        <time>2020-02-23T11:03:14Z</time>
      </trkpt>
      <trkpt lat="39.822806" lon="2.883767">
        <ele>481.576</ele>
        <time>2020-02-23T11:03:15Z</time>
      </trkpt>
      <trkpt lat="39.822802" lon="2.883792">
        <ele>482.067</ele>
        <time>2020-02-23T11:03:16Z</time>
      </trkpt>
      <trkpt lat="39.822797" lon="2.883817">
        <ele>482.05</ele>
        <time>2020-02-23T11:03:17Z</time>
      </trkpt>
      <trkpt lat="39.822793" lon="2.883841">
        <ele>482.557</ele>
        <time>2020-02-23T11:03:18Z</time>
      </trkpt>
      <trkpt lat="39.822788" lon="2.883866">
        <ele>482.563</ele>
        <time>2020-02-23T11:03:19Z</time>
      </trkpt>
      <trkpt lat="39.822784" lon="2.883891">
        <ele>482.827</ele>
        <time>2020-02-23T11:03:20Z</time>
      </trkpt>
      <trkpt lat="39.822754" lon="2.88391">
        <ele>482.768</ele>
        <time>2020-02-23T11:03:21Z</time>
      </trkpt>
      <trkpt lat="39.822725" lon="2.88393">
        <ele>482.914</ele>
        <time>2020-02-23T11:03:22Z</time>
      </trkpt>
      <trkpt lat="39.822695" lon="2.883949">
        <ele>482.808</ele>
        <time>2020-02-23T11:03:23Z</time>
      </trkpt>
    </trkseg>
  </trk>
</gpx>
